# Wetter Temperatur Luftdruck Luftfeuchtigkeit Sichtweite Windgeschwindigkeit Windrichtung Zeit
1 Clouds 9 1013 50 10000 1.5 0 19:43 02.04.2020
2 Clouds 9 1013 46 10000 1.5 170 19:21 02.04.2020
3 Clouds 9 1013 46 10000 1.5 170 19:21 02.04.2020
4 Clouds 10 1013 50 10000 2.6 150 18:58 02.04.2020
5 Clouds 10 1013 50 10000 2.6 150 18:39 02.04.2020
6 Clouds 12 1013 50 10000 2.6 150 18:20 02.04.2020
7 Clouds 11 1013 54 10000 3.1 150 17:56 02.04.2020
8 Clouds 11 1013 54 10000 3.1 150 17:38 02.04.2020
9 Clouds 11 1013 54 10000 3.6 120 17:18 02.04.2020
10 Clouds 11 1013 54 10000 3.6 120 17:18 02.04.2020
11 Clouds 12 1013 43 10000 3.6 120 16:55 02.04.2020
12 Clouds 12 1013 43 10000 3.6 120 16:36 02.04.2020
13 Clouds 11 1013 47 10000 3.6 110 16:18 02.04.2020
14 Clouds 12 1014 43 10000 3.6 110 15:44 02.04.2020
15 Clouds 12 1014 43 10000 3.6 110 15:44 02.04.2020
16 Clouds 12 1014 43 10000 3.6 110 15:44 02.04.2020
17 Clouds 11 1014 48 10000 4.1 110 15:21 02.04.2020
18 Clouds 11 1014 47 10000 4.1 100 14:58 02.04.2020
19 Clouds 11 1014 47 10000 4.1 100 14:39 02.04.2020
20 Clouds 11 1014 48 10000 4.6 110 14:19 02.04.2020
21 Clouds 11 1015 43 10000 4.6 110 13:56 02.04.2020
22 Clouds 11 1015 43 10000 4.6 110 13:38 02.04.2020
23 Clouds 11 1015 47 10000 4.6 100 13:19 02.04.2020
24 Clouds 12 1015 47 10000 4.6 100 12:55 02.04.2020
25 Clouds 12 1015 47 10000 4.6 100 12:36 02.04.2020
26 Clouds 10 1015 48 10000 5.1 80 12:18 02.04.2020
27 Clouds 10 1015 46 10000 5.1 90 11:55 02.04.2020
28 Clouds 10 1015 46 10000 5.1 90 11:36 02.04.2020
29 Clouds 10 1015 46 10000 5.7 100 11:18 02.04.2020
30 Clouds 9 1015 48 10000 5.1 100 10:54 02.04.2020
31 Clouds 9 1015 48 10000 5.1 100 10:36 02.04.2020
32 Clouds 9 1015 50 10000 1.5 320 10:18 02.04.2020
33 Clouds 8 1015 61 10000 2.6 330 09:42 02.04.2020
34 Clouds 7 1015 65 10000 3.1 330 09:24 02.04.2020
35 Clouds 6 1015 65 10000 4.1 330 08:58 02.04.2020
36 Clouds 6 1015 65 10000 4.1 330 08:39 02.04.2020
37 Clouds 6 1015 70 10000 4.1 330 08:19 02.04.2020
38 Clouds 4 1015 70 10000 4.1 330 07:42 02.04.2020
39 Clear 4 1015 70 10000 4.1 330 07:19 02.04.2020
40 Clear 4 1015 70 10000 3.6 330 06:57 02.04.2020
41 Clear 4 1015 70 10000 4.1 330 06:20 02.04.2020
42 Clear 4 1015 70 10000 3.6 330 05:42 02.04.2020
43 Clouds 5 1016 70 10000 2.6 330 03:24 02.04.2020
44 Clouds 6 1017 65 10000 3.6 330 01:31 02.04.2020
45 Clouds 6 1017 61 10000 3.1 330 00:46 02.04.2020
46 Clouds 6 1017 61 10000 2.6 330 00:26 02.04.2020
47 Clouds 7 1017 57 10000 2.1 330 23:41 01.04.2020
48 Clouds 7 1017 53 10000 2.6 330 23:20 01.04.2020
49 Clouds 7 1017 53 10000 2.1 320 22:59 01.04.2020
50 Clouds 7 1017 53 10000 2.1 320 22:39 01.04.2020
51 Clouds 7 1017 53 10000 2.1 330 22:21 01.04.2020
52 Clouds 8 1017 52 10000 2.1 350 21:42 01.04.2020
53 Clouds 7 1017 53 10000 2.1 350 21:22 01.04.2020
54 Clouds 7 1017 53 10000 2.1 350 21:22 01.04.2020
55 Clouds 7 1017 52 10000 2.1 350 21:22 01.04.2020
56 Clouds 7 1017 53 10000 2.1 350 21:21 01.04.2020
57 Clouds 7 1017 53 10000 2.1 350 21:20 01.04.2020
58 Clouds 7 1017 43 10000 1.5 0 20:57 01.04.2020
59 Clouds 8 1017 53 10000 1 0 20:39 01.04.2020
60 Clouds 9 1017 53 10000 1 0 20:21 01.04.2020
61 Clouds 8 1017 53 10000 0.5 0 19:59 01.04.2020
62 Clouds 8 1017 53 10000 0.5 0 19:41 01.04.2020
63 Clouds 8 1017 50 10000 2.6 120 19:20 01.04.2020
64 Clouds 9 1017 53 10000 3.1 120 18:46 01.04.2020
65 Clouds 9 1017 46 10000 4.1 110 18:26 01.04.2020
66 Clouds 9 1017 50 10000 5.1 100 17:58 01.04.2020
67 Clouds 9 1017 50 10000 5.1 100 17:38 01.04.2020
68 Clouds 10 1018 50 10000 5.7 100 17:20 01.04.2020
69 Clouds 10 1018 46 10000 5.1 100 16:59 01.04.2020
70 Clouds 10 1018 46 10000 5.1 100 16:40 01.04.2020
71 Clouds 11 1018 50 10000 5.1 100 16:22 01.04.2020
72 Clouds 10 1018 40 10000 5.1 100 15:58 01.04.2020
73 Clouds 10 1018 40 10000 5.1 100 15:38 01.04.2020
74 Clouds 10 1018 40 10000 5.1 100 15:38 01.04.2020
75 Clouds 10 1019 46 10000 5.7 90 15:20 01.04.2020
76 Clouds 10 1019 50 10000 6.7 90 14:57 01.04.2020
77 Clouds 10 1019 50 10000 6.7 90 14:38 01.04.2020
78 Clouds 10 1019 40 10000 6.7 90 14:19 01.04.2020
79 Clouds 10 1020 50 10000 7.7 90 13:58 01.04.2020
80 Clouds 9 1020 50 10000 7.7 90 13:37 01.04.2020
81 Clouds 8 1020 43 10000 7.2 90 13:19 01.04.2020
82 Clouds 10 1020 50 10000 8.2 80 12:54 01.04.2020
83 Clouds 10 1020 50 10000 8.2 80 12:36 01.04.2020
84 Clouds 10 1020 43 10000 7.7 80 12:18 01.04.2020
85 Clouds 10 1020 43 10000 7.7 80 12:18 01.04.2020
86 Clouds 10 1020 50 10000 8.7 90 11:42 01.04.2020
87 Clouds 10 1021 50 10000 10.3 80 11:23 01.04.2020
88 Clouds 10 1020 50 10000 10.3 80 10:58 01.04.2020
89 Clouds 9 1020 50 10000 10.3 80 10:38 01.04.2020
90 Clouds 9 1020 43 10000 10.3 90 10:19 01.04.2020
91 Clouds 10 1020 46 10000 10.8 80 09:57 01.04.2020
92 Clouds 10 1020 46 10000 10.8 80 09:57 01.04.2020
93 Clouds 10 1020 46 10000 10.8 80 09:38 01.04.2020
94 Clouds 7 1020 46 10000 11.8 80 09:18 01.04.2020
95 Clouds 7 1020 55 10000 11.3 80 08:40 01.04.2020
96 Clouds 7 1020 53 10000 10.8 80 08:18 01.04.2020
97 Clouds 7 1020 55 10000 11.8 90 07:44 01.04.2020
98 Clouds 7 1019 53 10000 12.3 100 07:21 01.04.2020
99 Clouds 7 1019 53 10000 11.8 80 06:48 01.04.2020
100 Clouds 7 1019 50 10000 12.9 90 06:26 01.04.2020
101 Clouds 7 1020 50 10000 12.3 90 05:56 01.04.2020
102 Clouds 8 1020 50 10000 11.8 100 04:33 01.04.2020
103 Clouds 9 1020 53 10000 11.8 80 03:32 01.04.2020
104 Clouds 9 1020 50 10000 12.3 80 02:57 01.04.2020
105 Clouds 9 1020 50 10000 12.9 90 01:59 01.04.2020
106 Clouds 9 1020 50 10000 12.9 90 01:40 01.04.2020
107 Clouds 9 1020 54 10000 12.3 90 01:20 01.04.2020
108 Clouds 9 1020 46 10000 12.9 90 00:46 01.04.2020
109 Clouds 9 1019 54 10000 11.8 90 00:21 01.04.2020
110 Clouds 9 1020 58 10000 8.7 80 23:48 31.03.2020
111 Clouds 9 1019 62 10000 6.2 90 23:28 31.03.2020
112 Clouds 10 1019 62 10000 1 0 22:59 31.03.2020
113 Clouds 9 1019 62 10000 1 0 22:37 31.03.2020
114 Clouds 9 1019 66 10000 1 0 22:19 31.03.2020
115 Clouds 9 1018 66 10000 1.5 320 21:57 31.03.2020
116 Clouds 9 1018 66 10000 1.5 320 21:39 31.03.2020
117 Clouds 9 1018 66 10000 1.5 20 21:20 31.03.2020
118 Clouds 9 1018 66 10000 3.1 310 20:56 31.03.2020
119 Clouds 9 1018 66 10000 3.1 310 20:37 31.03.2020
120 Clouds 11 1017 66 10000 3.1 320 20:18 31.03.2020
121 Clouds 11 1017 58 10000 6.28 76 19:55 31.03.2020
122 Clouds 10 1017 58 10000 6.28 76 19:36 31.03.2020
123 Clouds 10 1017 58 10000 1.5 0 19:18 31.03.2020
124 Clouds 10 1017 62 10000 5.1 130 18:41 31.03.2020
125 Clouds 10 1017 62 10000 5.7 110 18:20 31.03.2020
126 Clouds 11 1017 62 10000 7.2 110 17:56 31.03.2020
127 Clouds 11 1017 62 10000 7.2 110 17:56 31.03.2020
128 Clouds 11 1017 62 10000 7.2 110 17:38 31.03.2020
129 Clouds 10 1017 66 10000 6.2 110 17:20 31.03.2020
130 Clouds 11 1017 66 10000 2.6 120 16:42 31.03.2020
131 Clouds 11 1017 66 10000 2.1 310 16:20 31.03.2020
132 Clouds 11 1017 62 10000 1.5 0 15:59 31.03.2020
133 Clouds 11 1017 62 10000 1.5 0 15:41 31.03.2020
134 Clouds 10 1018 66 10000 1.5 190 15:23 31.03.2020
135 Clouds 11 1018 71 10000 5.1 130 14:59 31.03.2020
136 Clouds 11 1018 71 10000 5.1 130 14:41 31.03.2020
137 Clouds 11 1018 71 10000 5.7 130 14:22 31.03.2020
138 Clouds 11 1018 71 10000 5.1 120 13:55 31.03.2020
139 Clouds 11 1018 71 10000 5.1 120 13:37 31.03.2020
140 Clouds 11 1018 71 10000 5.7 120 13:18 31.03.2020
141 Clouds 10 1017 71 10000 6.7 120 12:44 31.03.2020
142 Clouds 10 1017 76 10000 5.1 130 12:20 31.03.2020
143 Clouds 10 1017 76 10000 5.1 130 12:20 31.03.2020
144 Clouds 11 1017 81 10000 1.5 310 11:55 31.03.2020
145 Clouds 11 1017 81 10000 1.5 310 11:36 31.03.2020
146 Clouds 11 1017 81 10000 1.5 310 11:36 31.03.2020
147 Rain 11 1017 81 10000 6.83 85 11:18 31.03.2020
148 Rain 11 1017 81 10000 1 0 10:55 31.03.2020
149 Rain 11 1017 87 7000 2.1 300 10:37 31.03.2020
150 Rain 11 1017 87 7000 2.1 300 10:18 31.03.2020
151 Clouds 11 1016 81 10000 1.5 300 09:43 31.03.2020
152 Clouds 11 1016 81 10000 3.1 100 09:25 31.03.2020
153 Clouds 10 1016 87 10000 5.7 100 08:58 31.03.2020
154 Clouds 11 1016 87 10000 5.7 100 08:39 31.03.2020
155 Clouds 11 1016 87 10000 5.1 100 08:20 31.03.2020
156 Clouds 11 1016 87 10000 5.1 100 08:20 31.03.2020
157 Clouds 10 1015 87 10000 5.7 90 07:57 31.03.2020
158 Clouds 9 1015 87 10000 5.7 90 07:38 31.03.2020
159 Rain 10 1015 82 10000 6.2 80 07:20 31.03.2020
160 Clouds 9 1015 93 10000 6.2 90 06:51 31.03.2020
161 Clouds 9 1015 93 10000 6.2 90 06:31 31.03.2020
162 Clouds 9 1014 87 10000 3.1 320 05:41 31.03.2020
163 Clouds 9 1014 87 10000 2.6 330 03:57 31.03.2020
164 Clouds 9 1014 87 10000 3.1 330 02:26 31.03.2020
165 Clouds 9 1014 87 10000 3.1 330 01:46 31.03.2020
166 Clouds 9 1014 87 10000 2.1 320 00:52 31.03.2020
167 Clouds 9 1014 87 10000 2.6 330 00:25 31.03.2020
168 Clouds 10 1014 93 10000 2.6 330 23:59 30.03.2020
169 Clouds 10 1014 93 10000 2.6 330 23:38 30.03.2020
170 Clouds 10 1014 93 10000 2.6 320 23:19 30.03.2020
171 Clouds 10 1014 87 10000 2.1 330 22:57 30.03.2020
172 Clouds 11 1014 87 10000 2.1 330 22:38 30.03.2020
173 Clouds 10 1013 87 10000 1.5 330 22:18 30.03.2020
174 Clouds 11 1013 87 10000 1 330 21:57 30.03.2020
175 Clouds 11 1013 87 10000 1 330 21:37 30.03.2020
176 Clouds 11 1013 87 10000 1 0 21:19 30.03.2020
177 Rain 12 1013 87 10000 1 0 20:56 30.03.2020
178 Rain 12 1013 87 10000 1 0 20:37 30.03.2020
179 Rain 12 1013 87 10000 1.5 210 20:19 30.03.2020
180 Rain 12 1013 82 10000 1.5 200 19:41 30.03.2020
181 Rain 12 1013 82 10000 1.5 200 19:41 30.03.2020
182 Rain 13 1013 82 10000 2.1 190 19:22 30.03.2020
183 Clouds 13 1013 82 10000 2.6 200 18:57 30.03.2020
184 Clouds 13 1013 82 10000 2.6 200 18:39 30.03.2020
185 Clouds 13 1013 82 10000 2.6 200 18:39 30.03.2020
186 Clouds 13 1012 82 10000 3.1 190 18:21 30.03.2020
187 Clouds 13 1012 77 10000 2.6 180 17:57 30.03.2020
188 Clouds 12 1012 77 10000 2.6 180 17:39 30.03.2020
189 Clouds 13 1012 77 10000 2.6 180 17:19 30.03.2020
190 Clouds 13 1012 77 10000 2.6 160 16:57 30.03.2020
191 Clouds 13 1012 77 10000 2.6 160 16:38 30.03.2020
192 Clouds 13 1012 77 10000 2.6 150 16:20 30.03.2020
193 Clouds 14 1013 77 10000 2.1 130 15:55 30.03.2020
194 Clouds 13 1013 77 10000 2.1 130 15:37 30.03.2020
195 Clouds 13 1013 77 10000 2.6 140 15:18 30.03.2020
196 Clouds 14 1013 77 10000 3.1 130 14:55 30.03.2020
197 Clouds 14 1013 77 10000 3.1 130 14:36 30.03.2020
198 Clouds 14 1013 77 10000 2.6 130 14:18 30.03.2020
199 Clouds 14 1013 77 10000 2.6 110 13:44 30.03.2020
200 Clouds 14 1013 77 10000 3.1 100 13:21 30.03.2020
201 Clouds 14 1013 72 10000 3.1 110 12:59 30.03.2020
202 Clouds 14 1013 72 10000 3.1 110 12:41 30.03.2020
203 Clouds 14 1013 77 10000 3.1 110 12:19 30.03.2020
204 Clouds 14 1013 77 10000 2.6 100 11:57 30.03.2020
205 Clouds 14 1013 77 10000 2.6 100 11:39 30.03.2020
206 Clouds 14 1013 77 10000 3.6 80 11:21 30.03.2020
207 Clouds 12 1013 82 10000 4.1 80 10:41 30.03.2020
208 Clouds 12 1013 82 10000 3.6 80 10:22 30.03.2020
209 Clouds 11 1012 82 10000 3.6 80 09:58 30.03.2020
210 Clouds 11 1012 82 10000 3.6 80 09:40 30.03.2020
211 Clouds 10 1012 87 10000 4.1 80 09:19 30.03.2020
212 Clouds 10 1012 87 10000 2.6 60 08:44 30.03.2020
213 Clouds 9 1012 87 10000 1.5 30 08:23 30.03.2020
214 Clouds 9 1011 87 10000 1.5 350 07:55 30.03.2020
215 Clouds 9 1011 87 10000 1.5 350 07:37 30.03.2020
216 Clouds 9 1011 87 10000 2.1 40 07:18 30.03.2020
217 Clouds 9 1011 87 10000 1 0 06:37 30.03.2020
218 Clouds 9 1011 87 10000 1 20 06:18 30.03.2020
219 Clouds 10 1011 87 10000 1 340 05:39 30.03.2020
220 Clouds 11 1011 82 10000 1.5 40 04:28 30.03.2020
221 Clouds 11 1011 87 10000 1.5 40 03:52 30.03.2020
222 Clouds 11 1011 82 10000 0.5 330 02:44 30.03.2020
223 Rain 11 1012 82 10000 0.5 60 01:54 30.03.2020
224 Clouds 11 1012 87 10000 0.5 60 00:57 30.03.2020
225 Clouds 12 1012 87 10000 0.69 137 00:26 30.03.2020
226 Clouds 12 1012 87 10000 0.85 160 23:55 29.03.2020
227 Clouds 12 1012 87 10000 0.85 160 23:36 29.03.2020
228 Clouds 12 1012 87 10000 0.85 160 23:18 29.03.2020
229 Clouds 12 1012 82 10000 1 150 22:40 29.03.2020
230 Clouds 12 1012 82 10000 1 160 22:20 29.03.2020
231 Clouds 12 1012 82 10000 1.5 190 21:59 29.03.2020
232 Clouds 12 1012 82 10000 1.5 190 21:38 29.03.2020
233 Clouds 12 1012 82 10000 2.1 180 21:20 29.03.2020
234 Clouds 12 1011 82 10000 1.5 170 20:55 29.03.2020
235 Clouds 12 1011 82 10000 1.5 170 20:55 29.03.2020
236 Clouds 12 1011 82 10000 1.5 170 20:37 29.03.2020
237 Clouds 13 1011 82 10000 1.5 190 20:18 29.03.2020
238 Rain 13 1011 82 10000 1 180 19:56 29.03.2020
239 Rain 13 1011 82 10000 1 180 19:38 29.03.2020
240 Clouds 13 1011 82 10000 1 180 19:19 29.03.2020
241 Clouds 13 1011 82 10000 1.5 170 18:56 29.03.2020
242 Clouds 13 1011 82 10000 1.5 170 18:38 29.03.2020
243 Clouds 14 1011 77 10000 1.5 170 18:18 29.03.2020
244 Clouds 14 1011 77 10000 2.1 160 17:55 29.03.2020
245 Clouds 14 1012 77 10000 2.6 160 17:37 29.03.2020
246 Clouds 15 1012 77 10000 2.6 160 17:18 29.03.2020
247 Clouds 15 1012 77 10000 2.6 150 16:55 29.03.2020
248 Clouds 15 1012 77 10000 2.6 150 16:36 29.03.2020
249 Clouds 15 1012 77 10000 2.6 130 16:18 29.03.2020
250 Clouds 15 1012 77 10000 3.1 130 15:41 29.03.2020
251 Clouds 16 1012 72 10000 3.1 120 15:23 29.03.2020
252 Clouds 16 1012 72 10000 3.1 120 15:23 29.03.2020
253 Clouds 15 1012 72 10000 4.1 110 14:57 29.03.2020
254 Clouds 16 1012 72 10000 4.1 110 14:39 29.03.2020
255 Clouds 15 1013 72 10000 5.1 110 14:20 29.03.2020
256 Clouds 15 1013 77 10000 5.1 100 13:57 29.03.2020
257 Clouds 15 1013 77 10000 5.1 100 13:39 29.03.2020
258 Clouds 15 1013 77 10000 5.1 90 13:19 29.03.2020
259 Clouds 15 1013 77 10000 5.7 90 12:55 29.03.2020
260 Clouds 15 1013 77 10000 5.7 90 12:37 29.03.2020
261 Clouds 15 1013 77 10000 5.1 90 12:18 29.03.2020
262 Clouds 15 1013 77 10000 5.1 90 12:18 29.03.2020
263 Clouds 15 1013 77 10000 5.7 80 11:55 29.03.2020
264 Clouds 15 1013 77 10000 5.7 80 11:36 29.03.2020
265 Clouds 14 1013 77 10000 5.7 90 11:18 29.03.2020
266 Clouds 14 1013 76 10000 5.1 80 10:38 29.03.2020
267 Clouds 14 1013 76 10000 3.1 60 10:19 29.03.2020
268 Clouds 13 1013 71 10000 2.1 50 09:41 29.03.2020
269 Clouds 11 1013 62 10000 2.6 330 09:22 29.03.2020
270 Clouds 10 1013 66 10000 2.6 330 08:56 29.03.2020
271 Clouds 10 1013 66 10000 2.6 330 08:38 29.03.2020
272 Clouds 10 1013 66 10000 3.1 330 08:19 29.03.2020
273 Clouds 8 1013 71 10000 2.6 330 07:42 29.03.2020
274 Clouds 8 1013 71 10000 2.1 330 07:21 29.03.2020
275 Clear 9 1013 66 10000 2.6 340 05:50 29.03.2020
276 Clear 10 1013 66 10000 4.1 330 04:29 29.03.2020
277 Clear 9 1014 66 10000 3.6 330 03:31 29.03.2020
278 Clear 10 1014 71 10000 2.6 330 01:51 29.03.2020
279 Clear 10 1014 71 10000 2.6 330 01:24 29.03.2020
280 Clear 11 1014 66 10000 3.6 340 00:58 29.03.2020
281 Clear 11 1014 66 10000 3.6 340 00:33 29.03.2020
282 Clear 11 1014 66 10000 3.6 330 23:57 28.03.2020
283 Clear 11 1014 66 10000 3.6 330 23:39 28.03.2020
284 Clear 11 1014 66 10000 4.1 330 23:20 28.03.2020
285 Clear 11 1014 71 10000 3.1 330 22:41 28.03.2020
286 Clear 11 1014 71 10000 4.1 330 22:22 28.03.2020
287 Clear 11 1014 76 10000 3.1 320 21:56 28.03.2020
288 Clear 11 1014 76 10000 3.1 320 21:38 28.03.2020
289 Clear 12 1014 76 10000 2.1 340 21:19 28.03.2020
290 Clear 12 1014 82 10000 2.6 30 20:54 28.03.2020
291 Clear 12 1014 82 10000 2.6 30 20:36 28.03.2020
292 Clouds 12 1014 82 10000 2.1 40 20:18 28.03.2020
293 Clouds 12 1014 82 10000 2.1 60 19:54 28.03.2020
294 Clouds 13 1014 82 10000 2.1 60 19:36 28.03.2020
295 Clouds 13 1014 82 10000 1.5 210 19:18 28.03.2020
296 Clouds 14 1013 77 10000 3.6 200 18:39 28.03.2020
297 Clouds 14 1013 77 10000 3.6 200 18:20 28.03.2020
298 Clouds 15 1013 72 10000 3.6 200 17:41 28.03.2020
299 Clouds 15 1014 72 10000 4.6 220 17:22 28.03.2020
300 Clouds 15 1014 67 10000 4.1 220 16:59 28.03.2020
301 Clouds 15 1014 67 10000 4.1 220 16:38 28.03.2020
302 Clouds 15 1014 67 10000 5.1 210 16:18 28.03.2020
303 Clouds 15 1014 67 10000 5.1 210 16:18 28.03.2020
304 Clouds 15 1014 67 10000 5.7 210 15:40 28.03.2020
305 Clouds 15 1014 67 10000 6.7 220 15:19 28.03.2020
306 Clouds 16 1014 67 10000 5.7 210 14:58 28.03.2020
307 Clouds 16 1014 67 10000 5.7 210 14:40 28.03.2020
308 Clouds 16 1014 63 10000 4.6 200 14:21 28.03.2020
309 Clouds 16 1015 63 10000 5.1 200 13:43 28.03.2020
310 Clouds 15 1015 72 10000 6.2 200 13:23 28.03.2020
311 Clouds 16 1015 63 10000 5.1 190 12:41 28.03.2020
312 Clouds 15 1015 67 10000 5.1 200 12:22 28.03.2020
313 Clouds 16 1015 63 10000 3.6 190 11:55 28.03.2020
314 Clouds 16 1015 63 10000 3.6 190 11:37 28.03.2020
315 Clouds 16 1015 67 10000 3.1 180 11:18 28.03.2020
316 Clouds 15 1015 62 10000 4.1 200 10:39 28.03.2020
317 Clouds 15 1015 62 10000 4.1 200 10:20 28.03.2020
318 Clouds 15 1015 51 10000 2.1 310 09:43 28.03.2020
319 Clouds 14 1015 47 10000 3.6 320 09:24 28.03.2020
320 Clouds 13 1015 54 10000 4.6 330 08:59 28.03.2020
321 Clouds 13 1015 54 10000 4.6 330 08:41 28.03.2020
322 Clouds 12 1015 58 10000 4.1 330 08:22 28.03.2020
323 Clouds 11 1015 62 10000 3.6 330 07:46 28.03.2020
324 Clouds 10 1015 66 10000 5.1 310 07:28 28.03.2020
325 Clouds 8 1015 66 10000 5.1 320 06:36 28.03.2020
326 Clouds 8 1015 62 10000 4.6 320 06:18 28.03.2020
327 Clouds 10 1015 66 10000 3.6 320 05:21 28.03.2020
328 Clouds 10 1015 71 10000 3.1 320 04:42 28.03.2020
329 Clouds 11 1015 71 10000 2.6 320 03:55 28.03.2020
330 Clouds 10 1015 66 10000 0.5 320 02:33 28.03.2020
331 Clouds 11 1015 66 10000 2.6 330 01:45 28.03.2020
332 Clouds 12 1015 58 10000 1 0 01:20 28.03.2020
333 Clouds 12 1015 58 10000 1 300 00:46 28.03.2020
334 Clouds 11 1015 58 10000 3.6 300 00:20 28.03.2020
335 Clouds 12 1015 62 10000 3.6 280 23:43 27.03.2020
336 Clouds 12 1015 66 10000 2.6 280 23:23 27.03.2020
337 Clouds 12 1015 66 10000 2.1 280 22:56 27.03.2020
338 Clouds 12 1015 66 10000 2.1 280 22:38 27.03.2020
339 Clouds 12 1015 66 10000 2.1 280 22:20 27.03.2020
340 Clouds 12 1014 66 10000 2.6 250 21:56 27.03.2020
341 Clouds 12 1014 66 10000 2.6 250 21:38 27.03.2020
342 Clouds 12 1014 62 10000 3.1 270 21:20 27.03.2020
343 Clouds 13 1014 62 10000 3.1 270 20:55 27.03.2020
344 Clouds 13 1014 62 10000 3.1 270 20:37 27.03.2020
345 Clouds 13 1014 67 10000 4.6 260 20:18 27.03.2020
346 Clouds 13 1013 71 10000 4.6 240 19:42 27.03.2020
347 Clouds 13 1013 67 10000 4.1 240 19:23 27.03.2020
348 Clouds 14 1012 67 10000 3.1 230 18:56 27.03.2020
349 Clouds 14 1012 67 10000 3.1 230 18:38 27.03.2020
350 Clouds 14 1012 67 10000 3.1 230 18:38 27.03.2020
351 Clouds 14 1012 62 10000 2.1 240 18:19 27.03.2020
352 Clouds 15 1011 62 10000 3.1 160 17:40 27.03.2020
353 Clouds 15 1011 67 10000 3.6 190 17:20 27.03.2020
354 Clouds 15 1011 67 10000 4.1 170 16:55 27.03.2020
355 Clouds 15 1011 67 10000 4.1 170 16:37 27.03.2020
356 Clouds 15 1011 67 10000 2.6 190 16:19 27.03.2020
357 Clouds 16 1011 62 10000 3.1 210 15:42 27.03.2020
358 Clouds 16 1011 59 10000 3.6 210 15:24 27.03.2020
359 Clouds 16 1011 44 10000 2.6 290 14:48 27.03.2020
360 Clouds 16 1012 47 10000 2.6 270 14:27 27.03.2020
361 Clouds 15 1012 54 10000 1.5 0 13:58 27.03.2020
362 Clouds 14 1012 54 10000 1.5 0 13:40 27.03.2020
363 Clouds 14 1012 44 10000 1 0 13:21 27.03.2020
364 Clouds 14 1012 47 10000 1.5 0 12:58 27.03.2020
365 Clouds 14 1012 47 10000 1.5 0 12:39 27.03.2020
366 Clouds 13 1011 50 10000 3.1 290 12:19 27.03.2020
367 Clouds 12 1011 43 10000 2.1 300 11:42 27.03.2020
368 Clouds 13 1011 47 10000 0.5 0 11:24 27.03.2020
369 Clouds 12 1011 50 10000 1.5 0 10:55 27.03.2020
370 Clouds 12 1011 50 10000 1.5 0 10:37 27.03.2020
371 Clouds 12 1011 50 10000 2.1 300 10:19 27.03.2020
372 Clouds 11 1011 50 10000 3.1 320 09:57 27.03.2020
373 Clouds 11 1011 50 10000 3.1 320 09:38 27.03.2020
374 Clouds 10 1010 57 10000 2.6 300 09:19 27.03.2020
375 Clouds 10 1010 57 10000 4.1 320 08:56 27.03.2020
376 Clouds 10 1010 57 10000 4.1 320 08:38 27.03.2020
377 Clouds 10 1010 61 10000 3.1 320 08:20 27.03.2020
378 Clouds 10 1010 66 10000 1.5 330 07:52 27.03.2020
379 Clouds 9 1010 70 10000 2.1 310 07:25 27.03.2020
380 Clouds 9 1010 70 10000 1.5 0 06:55 27.03.2020
381 Clouds 9 1010 70 10000 1.5 0 06:37 27.03.2020
382 Clouds 9 1009 76 10000 1.5 290 05:28 27.03.2020
383 Clouds 9 1010 75 10000 3.1 300 02:47 27.03.2020
384 Clouds 8 1010 75 10000 2.6 280 01:36 27.03.2020
385 Clouds 8 1010 70 10000 3.1 270 00:53 27.03.2020
386 Clouds 8 1011 70 10000 3.6 260 00:32 27.03.2020
387 Clouds 8 1011 75 10000 3.1 270 23:44 26.03.2020
388 Clouds 7 1011 75 10000 2.6 260 23:24 26.03.2020
389 Clouds 7 1011 75 10000 2.1 210 22:59 26.03.2020
390 Rain 7 1011 70 10000 2.1 170 22:39 26.03.2020
391 Rain 7 1011 70 10000 2.1 170 22:20 26.03.2020
392 Rain 7 1012 61 10000 4.6 8 21:58 26.03.2020
393 Rain 7 1012 61 10000 4.6 8 21:39 26.03.2020
394 Rain 7 1012 61 10000 4.6 8 21:21 26.03.2020
395 Rain 7 1011 66 10000 0.5 0 20:58 26.03.2020
396 Rain 7 1011 66 10000 0.5 0 20:38 26.03.2020
397 Rain 8 1011 61 10000 1.5 0 20:20 26.03.2020
398 Rain 8 1011 57 10000 1 0 19:56 26.03.2020
399 Rain 8 1011 57 10000 1 0 19:38 26.03.2020
400 Rain 8 1010 61 10000 1.5 0 19:20 26.03.2020
401 Clouds 7 1010 61 10000 3.1 30 18:56 26.03.2020
402 Clouds 7 1010 61 10000 3.1 30 18:37 26.03.2020
403 Clouds 9 1010 43 10000 3.6 80 18:19 26.03.2020
404 Clouds 9 1010 40 10000 3.1 320 17:42 26.03.2020
405 Clouds 10 1010 54 10000 4.1 70 17:19 26.03.2020
406 Clouds 10 1010 54 10000 4.1 70 17:19 26.03.2020
407 Clouds 10 1010 54 10000 4.1 70 17:19 26.03.2020
408 Clouds 10 1010 43 10000 6.2 70 16:46 26.03.2020
409 Clouds 10 1009 34 10000 3.6 90 16:28 26.03.2020
410 Clouds 10 1009 29 10000 1.5 0 15:59 26.03.2020
411 Clouds 10 1009 29 10000 1.5 0 15:41 26.03.2020
412 Clouds 10 1009 27 10000 1.5 180 15:22 26.03.2020
413 Clouds 11 1009 25 10000 1.5 0 14:58 26.03.2020
414 Clouds 11 1009 25 10000 1.5 0 14:39 26.03.2020
415 Clouds 10 1009 29 10000 1.5 210 14:19 26.03.2020
416 Clouds 11 1010 27 10000 2.1 210 13:44 26.03.2020
417 Clouds 10 1010 29 10000 1.5 160 13:24 26.03.2020
418 Clouds 10 1010 27 10000 2.1 150 12:59 26.03.2020
419 Clouds 11 1010 27 10000 2.1 150 12:38 26.03.2020
420 Clouds 11 1010 29 10000 3.1 160 12:20 26.03.2020
421 Clouds 11 1010 32 10000 3.6 140 11:46 26.03.2020
422 Clouds 11 1010 32 10000 4.1 130 11:22 26.03.2020
423 Clouds 10 1010 27 10000 3.1 120 10:56 26.03.2020
424 Clouds 10 1010 27 10000 3.1 120 10:38 26.03.2020
425 Clouds 10 1010 20 10000 2.6 70 10:19 26.03.2020
426 Clouds 10 1010 25 10000 3.1 10 09:44 26.03.2020
427 Clouds 9 1011 31 10000 2.1 340 09:21 26.03.2020
428 Clouds 7 1011 38 10000 2.6 330 08:56 26.03.2020
429 Clouds 7 1011 38 10000 2.6 330 08:37 26.03.2020
430 Clear 6 1011 38 10000 2.6 330 08:19 26.03.2020
431 Clear 5 1011 41 10000 3.1 330 07:44 26.03.2020
432 Clear 4 1011 44 10000 4.1 330 07:22 26.03.2020
433 Clear 4 1011 44 10000 3.1 340 06:57 26.03.2020
434 Clear 4 1011 44 10000 3.1 330 06:27 26.03.2020
435 Clear 3 1011 47 10000 4.1 330 05:29 26.03.2020
436 Clear 4 1011 44 10000 3.1 330 03:45 26.03.2020
437 Clear 4 1012 48 10000 4.1 320 02:56 26.03.2020
438 Clear 5 1013 52 10000 2.6 330 01:51 26.03.2020
439 Clouds 5 1013 41 10000 2.6 330 00:56 26.03.2020
440 Clouds 6 1014 33 10000 1.5 10 00:23 26.03.2020
441 Clouds 6 1014 36 10000 3.6 30 23:42 25.03.2020
442 Clouds 6 1014 33 10000 6.7 40 23:22 25.03.2020
443 Clear 7 1015 42 10000 4.1 50 22:42 25.03.2020
444 Clear 7 1015 36 10000 4.1 40 22:22 25.03.2020
445 Clear 8 1015 33 10000 4.6 20 21:59 25.03.2020
446 Clear 8 1015 33 10000 4.6 20 21:40 25.03.2020
447 Clear 8 1015 33 10000 5.1 360 21:22 25.03.2020
448 Clouds 8 1015 33 10000 5.7 10 20:57 25.03.2020
449 Clouds 8 1015 33 10000 5.7 10 20:37 25.03.2020
450 Clouds 8 1015 36 10000 5.1 30 20:18 25.03.2020
451 Clouds 8 1015 36 10000 7.7 40 19:43 25.03.2020
452 Clouds 8 1015 34 10000 8.2 40 19:24 25.03.2020
453 Clouds 9 1015 31 10000 7.2 40 18:59 25.03.2020
454 Clouds 9 1015 31 10000 7.2 40 18:41 25.03.2020
455 Clouds 9 1015 29 10000 7.7 50 18:23 25.03.2020
456 Clouds 10 1015 23 10000 8.7 40 17:58 25.03.2020
457 Clouds 10 1015 23 10000 8.7 40 17:58 25.03.2020
458 Clouds 10 1015 23 10000 8.7 40 17:39 25.03.2020
459 Clouds 9 1015 23 10000 6.7 50 17:21 25.03.2020
460 Clouds 10 1015 23 10000 7.2 50 16:55 25.03.2020
461 Clouds 10 1015 23 10000 7.2 50 16:37 25.03.2020
462 Clouds 10 1015 32 10000 8.2 30 16:19 25.03.2020
463 Clouds 10 1015 34 10000 10.3 60 15:41 25.03.2020
464 Clouds 11 1015 25 10000 4.6 40 15:20 25.03.2020
465 Clouds 10 1015 40 10000 9.3 120 14:56 25.03.2020
466 Clouds 10 1015 40 10000 9.3 120 14:37 25.03.2020
467 Clouds 9 1016 46 10000 11.8 100 14:19 25.03.2020
468 Clouds 9 1016 46 10000 11.3 100 13:44 25.03.2020
469 Clouds 9 1016 34 10000 7.7 90 13:22 25.03.2020
470 Clouds 9 1016 37 10000 7.7 90 12:39 25.03.2020
471 Clouds 9 1016 37 10000 7.7 90 12:39 25.03.2020
472 Clouds 9 1017 43 10000 9.8 100 12:21 25.03.2020
473 Clouds 9 1017 46 10000 10.3 90 11:57 25.03.2020
474 Clouds 9 1017 46 10000 10.3 90 11:39 25.03.2020
475 Clouds 8 1017 39 10000 10.3 90 11:21 25.03.2020
476 Clouds 8 1017 39 10000 10.3 90 11:20 25.03.2020
477 Clouds 8 1018 46 10000 9.8 80 10:58 25.03.2020
478 Clouds 9 1018 46 10000 9.8 80 10:39 25.03.2020
479 Clouds 8 1018 46 10000 9.8 80 10:39 25.03.2020
480 Clouds 8 1018 46 10000 9.8 80 10:39 25.03.2020
481 Clouds 9 1018 48 10000 9.8 80 10:18 25.03.2020
482 Clouds 9 1018 49 10000 9.8 80 09:56 25.03.2020
483 Clouds 9 1018 49 10000 9.8 80 09:38 25.03.2020
484 Clouds 8 1019 45 10000 3.1 0 09:19 25.03.2020
485 Clouds 6 1019 45 10000 5.7 330 08:41 25.03.2020
486 Clouds 5 1019 48 10000 4.6 330 08:23 25.03.2020
487 Clouds 5 1019 48 10000 5.7 330 07:56 25.03.2020
488 Clouds 5 1019 48 10000 5.7 330 07:37 25.03.2020
489 Clouds 5 1019 48 10000 5.7 320 07:18 25.03.2020
490 Clouds 5 1019 48 10000 5.1 330 06:41 25.03.2020
491 Clouds 5 1019 48 10000 5.1 330 06:23 25.03.2020
492 Clouds 5 1019 48 10000 4.6 340 05:47 25.03.2020
493 Clouds 5 1019 52 10000 5.7 330 04:42 25.03.2020
494 Clouds 5 1019 56 10000 5.1 330 03:57 25.03.2020
495 Clouds 6 1020 52 10000 5.1 330 03:32 25.03.2020
496 Clear 6 1021 56 10000 5.1 330 01:40 25.03.2020
497 Clouds 6 1021 56 10000 4.6 330 00:50 25.03.2020
498 Clouds 6 1021 56 10000 5.1 330 00:27 25.03.2020
499 Clouds 6 1021 56 10000 4.6 330 23:57 24.03.2020
500 Clouds 6 1021 56 10000 4.6 330 23:37 24.03.2020
501 Clouds 6 1021 60 10000 4.1 330 23:19 24.03.2020
502 Clouds 6 1021 52 10000 4.1 330 22:54 24.03.2020
503 Clouds 7 1021 52 10000 4.1 330 22:36 24.03.2020
504 Clouds 7 1021 56 10000 3.1 330 22:18 24.03.2020
505 Clouds 7 1021 56 10000 3.1 320 21:42 24.03.2020
506 Clouds 7 1021 56 10000 2.6 330 21:19 24.03.2020
507 Clouds 7 1021 52 10000 3.6 330 20:59 24.03.2020
508 Clouds 7 1021 52 10000 3.6 330 20:41 24.03.2020
509 Clouds 7 1021 52 10000 4.1 340 20:22 24.03.2020
510 Clouds 8 1021 52 10000 3.6 330 19:48 24.03.2020
511 Clouds 8 1021 49 10000 3.1 330 19:23 24.03.2020
512 Clouds 9 1021 43 10000 2.6 350 18:59 24.03.2020
513 Clouds 9 1021 43 10000 2.6 350 18:40 24.03.2020
514 Clouds 9 1021 43 10000 2.6 350 18:40 24.03.2020
515 Clouds 10 1021 37 10000 1.5 50 18:20 24.03.2020
516 Clouds 10 1021 40 10000 2.1 20 17:59 24.03.2020
517 Clouds 10 1021 40 10000 2.1 20 17:40 24.03.2020
518 Clouds 10 1022 40 10000 2.1 20 17:22 24.03.2020
519 Clouds 10 1022 37 10000 2.1 50 16:57 24.03.2020
520 Clouds 10 1022 37 10000 2.1 50 16:38 24.03.2020
521 Clouds 10 1022 37 10000 3.6 90 16:20 24.03.2020
522 Clouds 10 1022 37 10000 5.1 80 15:44 24.03.2020
523 Clouds 10 1023 40 10000 5.1 80 15:25 24.03.2020
524 Clouds 9 1023 34 10000 6.2 90 14:59 24.03.2020
525 Clouds 9 1023 34 10000 6.2 90 14:40 24.03.2020
526 Clouds 9 1023 37 10000 5.7 90 14:18 24.03.2020
527 Clouds 9 1024 39 10000 6.7 90 13:42 24.03.2020
528 Clouds 9 1024 43 10000 6.7 90 13:23 24.03.2020
529 Clouds 9 1024 43 10000 6.7 90 13:23 24.03.2020
530 Clouds 9 1024 43 10000 7.2 90 12:54 24.03.2020
531 Clouds 9 1024 43 10000 7.2 90 12:36 24.03.2020
532 Clouds 8 1024 43 10000 7.7 90 12:18 24.03.2020
533 Clouds 8 1024 46 10000 7.2 90 11:39 24.03.2020
534 Clouds 8 1024 43 10000 7.2 90 11:19 24.03.2020
535 Clouds 8 1024 45 10000 7.2 90 10:43 24.03.2020
536 Clouds 8 1024 66 10000 7.2 80 10:20 24.03.2020
537 Clouds 7 1024 49 10000 8.2 80 09:58 24.03.2020
538 Clouds 8 1024 49 10000 8.2 80 09:39 24.03.2020
539 Clouds 7 1024 49 10000 7.7 80 09:20 24.03.2020
540 Clouds 7 1024 66 10000 7.2 70 08:38 24.03.2020
541 Clouds 7 1024 49 10000 6.7 70 08:20 24.03.2020
542 Clouds 7 1024 62 10000 8.7 90 07:47 24.03.2020
543 Clouds 7 1024 62 10000 8.7 90 07:24 24.03.2020
544 Clouds 8 1024 62 10000 10.3 90 06:53 24.03.2020
545 Clouds 8 1024 49 10000 10.3 90 06:31 24.03.2020
546 Clouds 7 1024 58 10000 9.8 80 05:22 24.03.2020
547 Clouds 7 1024 58 10000 10.3 80 04:27 24.03.2020
548 Clouds 8 1024 53 10000 10.3 80 03:18 24.03.2020
549 Clouds 8 1025 53 10000 11.8 80 01:49 24.03.2020
550 Clouds 9 1024 50 10000 11.8 90 00:49 24.03.2020
551 Clouds 8 1024 50 10000 12.3 90 00:26 24.03.2020
552 Clouds 8 1024 50 10000 11.8 90 23:46 23.03.2020
553 Clouds 9 1024 50 10000 10.3 90 23:26 23.03.2020
554 Clouds 8 1024 56 10000 9.8 90 22:58 23.03.2020
555 Clouds 8 1024 56 10000 9.8 90 22:39 23.03.2020
556 Clouds 8 1023 56 10000 9.3 90 22:21 23.03.2020
557 Clouds 9 1023 50 10000 6.7 80 21:44 23.03.2020
558 Clouds 9 1023 56 10000 1.5 360 21:21 23.03.2020
559 Clouds 8 1023 56 10000 2.1 10 20:58 23.03.2020
560 Clouds 9 1023 56 10000 2.1 10 20:40 23.03.2020
561 Clouds 9 1023 50 10000 3.1 320 20:22 23.03.2020
562 Clouds 9 1023 53 10000 3.6 330 19:55 23.03.2020
563 Clouds 9 1023 53 10000 3.6 330 19:37 23.03.2020
564 Clouds 9 1022 53 10000 2.1 40 19:18 23.03.2020
565 Clouds 9 1022 53 10000 4.6 100 18:43 23.03.2020
566 Clouds 9 1022 57 10000 6.7 100 18:24 23.03.2020
567 Clouds 9 1022 50 10000 7.2 100 17:58 23.03.2020
568 Clouds 9 1022 50 10000 8.2 100 17:39 23.03.2020
569 Clouds 9 1022 50 10000 8.2 100 17:19 23.03.2020
570 Clouds 10 1022 50 10000 8.7 100 16:43 23.03.2020
571 Clouds 10 1022 53 10000 10.3 100 16:25 23.03.2020
572 Clouds 10 1023 50 10000 12.3 90 15:44 23.03.2020
573 Clouds 10 1023 54 10000 12.3 90 15:21 23.03.2020
574 Clouds 9 1023 58 10000 12.9 90 14:57 23.03.2020
575 Clouds 10 1023 58 10000 12.9 90 14:37 23.03.2020
576 Clouds 10 1022 50 10000 13.9 100 14:18 23.03.2020
577 Clouds 10 1022 54 10000 14.4 90 13:55 23.03.2020
578 Clouds 10 1022 54 10000 14.4 90 13:37 23.03.2020
579 Clouds 10 1022 54 10000 13.9 90 13:19 23.03.2020
580 Clouds 11 1022 58 10000 14.9 90 12:42 23.03.2020
581 Clouds 11 1022 62 10000 12.3 90 12:22 23.03.2020
582 Clouds 11 1022 58 10000 10.8 100 11:56 23.03.2020
583 Clouds 12 1022 58 10000 10.8 100 11:37 23.03.2020
584 Clouds 13 1021 58 10000 8.7 100 11:19 23.03.2020
585 Clouds 13 1021 58 10000 8.2 90 10:56 23.03.2020
586 Clouds 12 1021 58 10000 8.2 90 10:36 23.03.2020
587 Clouds 12 1021 58 10000 9.3 90 10:18 23.03.2020
588 Clouds 12 1021 58 10000 10.3 90 09:42 23.03.2020
589 Clouds 13 1021 58 10000 8.7 100 09:20 23.03.2020
590 Clouds 12 1020 58 10000 9.8 110 08:38 23.03.2020
591 Clouds 12 1020 58 10000 9.3 100 08:20 23.03.2020
592 Clouds 11 1020 66 10000 8.7 100 07:52 23.03.2020
593 Clouds 11 1020 71 10000 9.8 100 07:33 23.03.2020
594 Clouds 10 1020 76 10000 6.7 0 06:58 23.03.2020
595 Clouds 10 1020 76 10000 6.7 0 06:40 23.03.2020
596 Clouds 9 1019 66 10000 4.1 320 05:44 23.03.2020
597 Clouds 9 1019 66 10000 4.1 320 05:44 23.03.2020
598 Clear 9 1019 71 10000 4.1 330 04:41 23.03.2020
599 Clear 10 1018 66 10000 4.1 330 02:59 23.03.2020
600 Clouds 10 1018 66 10000 3.1 340 01:50 23.03.2020
601 Clouds 10 1018 66 10000 3.1 340 01:50 23.03.2020
602 Clouds 11 1018 66 10000 3.6 340 00:50 23.03.2020
603 Clouds 11 1018 66 10000 4.1 330 00:31 23.03.2020
604 Clouds 11 1018 66 10000 4.1 330 23:45 22.03.2020
605 Clouds 12 1018 66 10000 3.6 330 23:25 22.03.2020
606 Clouds 12 1017 66 10000 3.6 330 22:44 22.03.2020
607 Clouds 12 1017 71 10000 3.1 320 22:22 22.03.2020
608 Clouds 12 1017 71 10000 1.5 0 21:55 22.03.2020
609 Clouds 12 1017 71 10000 1.5 0 21:37 22.03.2020
610 Clouds 12 1016 71 10000 2.1 330 21:18 22.03.2020
611 Clouds 12 1016 67 10000 3.1 320 20:46 22.03.2020
612 Clouds 12 1016 71 10000 2.6 320 20:25 22.03.2020
613 Clouds 13 1016 67 10000 1.5 270 19:58 22.03.2020
614 Clouds 13 1016 67 10000 1.5 270 19:40 22.03.2020
615 Clouds 14 1016 67 10000 1.5 240 19:20 22.03.2020
616 Clouds 14 1015 72 10000 2.1 240 18:59 22.03.2020
617 Clouds 14 1015 72 10000 2.1 240 18:41 22.03.2020
618 Clouds 15 1015 67 10000 2.1 250 18:22 22.03.2020
619 Clouds 15 1015 63 10000 2.1 220 17:58 22.03.2020
620 Clouds 15 1015 63 10000 2.1 220 17:38 22.03.2020
621 Clouds 15 1015 63 10000 1.5 210 17:20 22.03.2020
622 Clouds 16 1015 63 10000 1.5 0 16:57 22.03.2020
623 Clouds 16 1015 63 10000 2.1 240 16:39 22.03.2020
624 Clouds 16 1015 63 10000 1.5 0 16:39 22.03.2020
625 Clouds 16 1015 63 10000 2.1 240 16:21 22.03.2020
626 Clouds 16 1015 63 10000 1 0 15:56 22.03.2020
627 Clouds 16 1015 63 10000 1 0 15:38 22.03.2020
628 Clouds 16 1015 59 10000 2.1 180 14:46 22.03.2020
629 Clouds 16 1015 63 10000 1.5 180 14:19 22.03.2020
630 Clouds 15 1015 63 10000 1 0 13:56 22.03.2020
631 Clouds 15 1015 63 10000 1.5 0 13:37 22.03.2020
632 Clouds 15 1015 63 10000 1.5 0 13:19 22.03.2020
633 Clouds 15 1015 63 10000 2.1 160 12:43 22.03.2020
634 Clouds 16 1015 63 10000 1.5 160 12:20 22.03.2020
635 Clouds 16 1015 59 10000 2.1 150 11:56 22.03.2020
636 Clouds 16 1015 59 10000 2.1 150 11:38 22.03.2020
637 Clouds 16 1015 55 10000 1.5 0 11:19 22.03.2020
638 Clouds 16 1014 51 10000 1 140 10:43 22.03.2020
639 Clouds 16 1014 55 10000 1 120 10:24 22.03.2020
640 Clouds 16 1014 55 10000 1 120 10:24 22.03.2020
641 Clouds 15 1014 54 10000 1.5 340 09:49 22.03.2020
642 Clouds 14 1014 54 10000 2.6 330 09:30 22.03.2020
643 Clouds 12 1014 58 10000 4.1 330 08:55 22.03.2020
644 Clouds 11 1014 62 10000 3.6 330 08:36 22.03.2020
645 Clouds 12 1014 58 10000 4.1 330 08:36 22.03.2020
646 Clouds 11 1014 62 10000 3.6 330 08:18 22.03.2020
647 Clouds 10 1014 66 10000 3.6 330 07:48 22.03.2020
648 Clouds 8 1013 71 10000 4.1 330 07:18 22.03.2020
649 Clouds 8 1013 71 10000 3.1 330 05:55 22.03.2020
650 Clouds 8 1013 71 10000 4.1 330 04:58 22.03.2020
651 Clouds 9 1013 71 10000 4.6 330 02:50 22.03.2020
652 Clouds 8 1014 76 10000 3.6 330 01:21 22.03.2020
653 Clouds 9 1014 71 10000 2.6 330 00:39 22.03.2020
654 Clouds 9 1014 76 10000 1.5 330 00:21 22.03.2020
655 Clouds 10 1014 71 10000 3.6 320 23:41 21.03.2020
656 Clouds 10 1014 76 10000 2.6 320 23:19 21.03.2020
657 Clouds 10 1014 76 10000 1.5 320 22:38 21.03.2020
658 Clouds 10 1014 71 10000 2.6 320 22:20 21.03.2020
659 Clouds 11 1014 76 10000 2.6 330 21:59 21.03.2020
660 Clouds 11 1014 76 10000 1.5 320 21:40 21.03.2020
661 Clouds 11 1014 76 10000 1.5 320 21:22 21.03.2020
662 Clouds 11 1014 76 10000 1.5 30 20:56 21.03.2020
663 Clouds 11 1014 76 10000 1.5 30 20:38 21.03.2020
664 Clouds 12 1013 76 10000 3.94 75 20:18 21.03.2020
665 Clouds 12 1013 71 10000 1.5 80 19:43 21.03.2020
666 Clouds 13 1013 71 10000 1 50 19:23 21.03.2020
667 Clouds 13 1013 76 10000 1 0 18:55 21.03.2020
668 Clouds 13 1013 76 10000 1 0 18:37 21.03.2020
669 Clouds 14 1013 76 10000 3.94 75 18:19 21.03.2020
670 Clouds 14 1013 72 10000 0.5 0 17:55 21.03.2020
671 Clouds 15 1013 72 10000 0.5 0 17:37 21.03.2020
672 Clouds 15 1013 72 10000 1 0 17:18 21.03.2020
673 Clouds 15 1013 72 10000 1 0 16:40 21.03.2020
674 Clouds 15 1013 72 10000 1.5 90 16:19 21.03.2020
675 Clouds 15 1014 72 10000 1.5 100 15:55 21.03.2020
676 Clouds 15 1014 72 10000 1.5 100 15:37 21.03.2020
677 Clouds 15 1014 72 10000 1.5 100 15:18 21.03.2020
678 Clouds 15 1014 72 10000 1.5 100 14:54 21.03.2020
679 Clouds 15 1014 72 10000 1.5 100 14:36 21.03.2020
680 Clouds 15 1014 63 10000 1.5 110 14:18 21.03.2020
681 Clouds 16 1015 67 10000 1.5 120 13:56 21.03.2020
682 Clouds 15 1015 67 10000 1.5 120 13:38 21.03.2020
683 Clouds 15 1015 67 10000 2.1 120 13:19 21.03.2020
684 Clouds 15 1015 67 10000 2.1 100 12:39 21.03.2020
685 Clouds 15 1015 67 10000 4.1 110 12:19 21.03.2020
686 Clouds 15 1016 55 10000 3.6 120 11:58 21.03.2020
687 Clouds 15 1016 55 10000 3.6 120 11:38 21.03.2020
688 Clouds 14 1016 58 10000 3.1 120 11:19 21.03.2020
689 Clouds 15 1016 62 10000 2.6 100 10:57 21.03.2020
690 Clouds 15 1016 62 10000 2.6 100 10:57 21.03.2020
691 Clouds 15 1016 62 10000 2.6 100 10:39 21.03.2020
692 Clouds 15 1016 62 10000 1.5 90 10:20 21.03.2020
693 Clouds 15 1016 62 10000 1.5 90 10:20 21.03.2020
694 Clouds 14 1016 58 10000 1.5 0 09:58 21.03.2020
695 Clouds 14 1016 58 10000 1.5 0 09:38 21.03.2020
696 Clouds 14 1016 58 10000 3.1 330 09:20 21.03.2020
697 Clouds 12 1016 66 10000 3.1 330 08:55 21.03.2020
698 Clouds 11 1016 66 10000 3.1 330 08:37 21.03.2020
699 Clouds 11 1016 62 10000 2.6 330 08:18 21.03.2020
700 Clouds 9 1016 66 10000 2.1 330 07:32 21.03.2020
701 Clouds 7 1016 71 10000 2.6 330 06:56 21.03.2020
702 Clouds 7 1016 71 10000 2.6 330 06:36 21.03.2020
703 Clouds 7 1016 71 10000 3.1 330 06:18 21.03.2020
704 Clear 7 1017 71 10000 3.1 340 05:23 21.03.2020
705 Clear 7 1017 71 10000 3.1 340 03:39 21.03.2020
706 Clear 8 1018 71 10000 2.6 330 02:36 21.03.2020
707 Clouds 8 1018 71 10000 2.6 340 01:43 21.03.2020
708 Clouds 8 1019 71 10000 3.6 330 01:23 21.03.2020
709 Clouds 9 1019 71 10000 2.6 330 00:39 21.03.2020
710 Clouds 9 1019 76 10000 3.6 330 00:21 21.03.2020
711 Clouds 10 1020 76 10000 3.1 330 23:42 20.03.2020
712 Clouds 9 1020 76 10000 3.6 320 23:22 20.03.2020
713 Clouds 10 1020 81 10000 3.1 320 22:44 20.03.2020
714 Clouds 9 1020 76 10000 2.6 320 22:25 20.03.2020
715 Clouds 10 1020 76 10000 1 0 21:58 20.03.2020
716 Clouds 10 1020 76 10000 1 0 21:40 20.03.2020
717 Clouds 11 1020 82 10000 2.1 30 21:20 20.03.2020
718 Clouds 11 1020 82 10000 3.6 60 20:58 20.03.2020
719 Clouds 11 1020 82 10000 3.6 60 20:40 20.03.2020
720 Clouds 11 1020 76 10000 4.1 60 20:19 20.03.2020
721 Clouds 12 1020 76 10000 3.6 70 19:47 20.03.2020
722 Clouds 13 1020 82 10000 1.5 60 19:20 20.03.2020
723 Clouds 14 1020 82 10000 3.6 60 18:58 20.03.2020
724 Clouds 13 1020 82 10000 3.6 60 18:38 20.03.2020
725 Clouds 14 1020 77 10000 2.6 80 18:20 20.03.2020
726 Clouds 14 1020 77 10000 3.1 80 17:56 20.03.2020
727 Clouds 14 1020 77 10000 3.1 80 17:37 20.03.2020
728 Clouds 15 1020 82 10000 3.1 90 17:19 20.03.2020
729 Clouds 15 1021 82 10000 2.6 90 16:41 20.03.2020
730 Clouds 15 1021 77 10000 2.6 90 16:21 20.03.2020
731 Clouds 15 1021 77 10000 3.1 90 15:55 20.03.2020
732 Clouds 15 1021 77 10000 3.1 90 15:37 20.03.2020
733 Clouds 15 1021 82 10000 2.6 100 15:18 20.03.2020
734 Clouds 15 1022 77 10000 3.1 90 14:42 20.03.2020
735 Clouds 16 1022 77 10000 3.1 90 14:21 20.03.2020
736 Clouds 15 1022 77 10000 3.1 100 13:50 20.03.2020
737 Clouds 15 1022 77 10000 3.1 100 13:50 20.03.2020
738 Clouds 15 1022 82 10000 4.1 110 13:26 20.03.2020
739 Clouds 16 1023 77 10000 4.1 100 12:59 20.03.2020
740 Clouds 16 1023 77 10000 3.1 100 12:38 20.03.2020
741 Clouds 16 1023 77 10000 3.1 100 12:20 20.03.2020
742 Clouds 15 1023 77 10000 3.6 100 11:40 20.03.2020
743 Clouds 15 1023 77 10000 4.6 100 11:21 20.03.2020
744 Clouds 15 1023 82 10000 5.1 90 10:58 20.03.2020
745 Clouds 15 1023 82 10000 5.1 90 10:40 20.03.2020
746 Clouds 15 1023 82 10000 6.2 90 10:18 20.03.2020
747 Clouds 14 1023 77 10000 6.7 80 09:46 20.03.2020
748 Clouds 14 1023 82 10000 5.1 80 09:21 20.03.2020
749 Clouds 13 1023 87 10000 6.2 90 08:59 20.03.2020
750 Clouds 13 1023 87 10000 6.2 90 08:40 20.03.2020
751 Clouds 11 1022 62 10000 5.1 80 08:19 20.03.2020
752 Clouds 10 1022 62 10000 1.5 0 07:46 20.03.2020
753 Clouds 10 1022 76 10000 6.7 90 07:26 20.03.2020
754 Clouds 10 1021 82 10000 8.2 90 06:47 20.03.2020
755 Clouds 10 1021 67 10000 7.2 80 06:29 20.03.2020
756 Clear 10 1021 62 10000 7.7 60 04:49 20.03.2020
757 Clear 10 1021 54 10000 3.1 320 03:19 20.03.2020
758 Clouds 10 1022 54 10000 3.1 320 01:51 20.03.2020
759 Clouds 12 1022 54 10000 3.1 330 00:46 20.03.2020
760 Clouds 12 1022 54 10000 3.6 330 00:26 20.03.2020
761 Clouds 12 1022 54 10000 4.1 330 23:45 19.03.2020
762 Clouds 12 1022 54 10000 3.6 340 23:26 19.03.2020
763 Clouds 12 1022 54 10000 3.6 340 23:26 19.03.2020
764 Clouds 12 1022 58 10000 3.6 330 22:56 19.03.2020
765 Clouds 12 1022 58 10000 3.6 330 22:38 19.03.2020
766 Clouds 12 1022 58 10000 3.6 330 22:38 19.03.2020
767 Clouds 12 1023 58 10000 4.1 320 22:18 19.03.2020
768 Clouds 12 1023 58 10000 3.6 320 21:41 19.03.2020
769 Clouds 12 1023 62 10000 1.5 320 21:20 19.03.2020
770 Clouds 13 1023 67 10000 1.5 70 20:59 19.03.2020
771 Clouds 13 1023 67 10000 1.5 70 20:41 19.03.2020
772 Clouds 13 1023 72 10000 2.1 70 20:22 19.03.2020
773 Clouds 14 1022 63 10000 1.5 70 19:55 19.03.2020
774 Clouds 14 1022 63 10000 1.5 70 19:37 19.03.2020
775 Clouds 14 1022 55 10000 1.5 30 19:19 19.03.2020
776 Clouds 15 1022 51 10000 1 60 18:54 19.03.2020
777 Clouds 15 1022 51 10000 1 60 18:36 19.03.2020
778 Clouds 16 1022 51 10000 2.19 33 18:18 19.03.2020
779 Clouds 16 1022 55 10000 1 140 17:41 19.03.2020
780 Clear 16 1023 48 10000 1 0 17:19 19.03.2020
781 Clouds 16 1023 45 10000 1 0 16:44 19.03.2020
782 Clouds 17 1023 42 10000 1.5 0 16:24 19.03.2020
783 Clouds 18 1023 39 10000 1.5 0 15:46 19.03.2020
784 Clouds 18 1023 39 10000 1 0 15:27 19.03.2020
785 Clouds 18 1024 39 10000 1 0 14:58 19.03.2020
786 Clouds 18 1024 39 10000 1 0 14:40 19.03.2020
787 Clouds 18 1024 37 10000 1 0 14:20 19.03.2020
788 Clear 18 1025 39 10000 0.5 0 13:41 19.03.2020
789 Clear 18 1025 39 10000 0.5 0 13:19 19.03.2020
790 Clear 18 1025 42 10000 1 0 12:56 19.03.2020
791 Clear 18 1025 42 10000 1 0 12:38 19.03.2020
792 Clear 18 1025 39 10000 1 110 12:19 19.03.2020
793 Clear 18 1025 37 10000 1.5 0 11:42 19.03.2020
794 Clear 18 1025 36 10000 1.5 0 11:23 19.03.2020
795 Clear 18 1025 37 10000 1.5 40 10:57 19.03.2020
796 Clear 17 1025 37 10000 1.5 40 10:38 19.03.2020
797 Clear 17 1025 42 10000 1.5 0 10:19 19.03.2020
798 Clear 17 1025 48 10000 3.6 330 09:45 19.03.2020
799 Clear 16 1025 47 10000 4.6 330 09:27 19.03.2020
800 Clear 14 1025 50 10000 4.6 340 08:58 19.03.2020
801 Clear 14 1025 50 10000 4.6 340 08:40 19.03.2020
802 Clear 11 1024 54 10000 5.1 330 08:19 19.03.2020
803 Clear 10 1024 58 10000 5.7 330 07:44 19.03.2020
804 Clear 10 1024 58 10000 4.6 330 07:23 19.03.2020
805 Clear 9 1024 58 10000 3.6 330 06:34 19.03.2020
806 Clear 10 1024 54 10000 3.6 340 05:47 19.03.2020
807 Clear 11 1024 54 10000 3.6 330 04:54 19.03.2020
808 Clear 11 1024 54 10000 3.6 330 04:34 19.03.2020
809 Clear 11 1024 54 10000 4.6 340 02:37 19.03.2020
810 Clear 11 1025 58 10000 3.6 340 01:21 19.03.2020
811 Clear 12 1025 54 10000 5.1 330 00:28 19.03.2020
812 Clear 12 1025 54 10000 4.6 320 23:48 18.03.2020
813 Clear 12 1025 58 10000 4.6 320 23:30 18.03.2020
814 Clear 12 1025 58 10000 4.6 330 22:56 18.03.2020
815 Clear 12 1025 58 10000 4.6 330 22:38 18.03.2020
816 Clear 12 1026 58 10000 4.1 330 22:20 18.03.2020
817 Clear 12 1025 54 10000 4.1 330 21:42 18.03.2020
818 Clear 12 1025 54 10000 2.1 340 21:21 18.03.2020
819 Clear 13 1025 54 10000 2.1 340 20:58 18.03.2020
820 Clear 13 1025 54 10000 2.1 340 20:40 18.03.2020
821 Clear 13 1025 54 10000 1.5 340 20:20 18.03.2020
822 Clear 13 1025 67 10000 1.99 313 19:56 18.03.2020
823 Clear 13 1025 67 10000 1.99 313 19:38 18.03.2020
824 Clear 13 1025 62 10000 1 300 19:19 18.03.2020
825 Clear 13 1025 62 10000 1 300 19:19 18.03.2020
826 Clear 14 1025 67 10000 1 250 18:41 18.03.2020
827 Clear 15 1025 72 10000 1.5 190 18:20 18.03.2020
828 Clear 16 1025 63 10000 1.5 170 17:58 18.03.2020
829 Clear 16 1025 63 10000 1.5 170 17:40 18.03.2020
830 Clear 16 1025 59 10000 1.5 180 17:21 18.03.2020
831 Clear 17 1025 63 10000 2.1 190 16:58 18.03.2020
832 Clear 16 1026 59 10000 2.1 190 16:39 18.03.2020
833 Clear 17 1026 59 10000 2.1 190 16:20 18.03.2020
834 Clear 17 1026 59 10000 1.5 180 15:45 18.03.2020
835 Clear 17 1026 59 10000 1.5 170 15:20 18.03.2020
836 Clear 17 1026 67 10000 1.5 170 14:45 18.03.2020
837 Clear 16 1027 67 10000 1.5 130 14:22 18.03.2020
838 Clear 16 1027 67 10000 2.1 130 13:59 18.03.2020
839 Clear 17 1027 63 10000 2.6 120 13:37 18.03.2020
840 Clear 16 1027 63 10000 2.6 120 13:19 18.03.2020
841 Clear 16 1028 63 10000 2.1 140 12:41 18.03.2020
842 Clear 16 1028 59 10000 2.1 140 12:20 18.03.2020
843 Clear 16 1028 62 10000 2.1 150 11:40 18.03.2020
844 Clear 16 1028 62 10000 2.1 140 11:21 18.03.2020
845 Clear 16 1028 62 10000 1.5 120 10:58 18.03.2020
846 Clear 16 1028 62 10000 1.5 120 10:39 18.03.2020
847 Clear 16 1028 55 10000 1.5 110 10:20 18.03.2020
848 Clear 15 1028 58 10000 1 0 09:59 18.03.2020
849 Clear 15 1028 58 10000 1 0 09:39 18.03.2020
850 Clear 12 1028 54 10000 2.1 330 09:21 18.03.2020
851 Clear 11 1028 58 10000 3.1 340 08:40 18.03.2020
852 Clear 10 1028 62 10000 4.1 340 08:21 18.03.2020
853 Clear 9 1028 66 10000 3.6 330 07:49 18.03.2020
854 Clear 8 1028 71 10000 4.1 330 07:31 18.03.2020
855 Clear 7 1028 71 10000 4.1 330 06:50 18.03.2020
856 Clear 7 1028 71 10000 4.1 340 06:31 18.03.2020
857 Clear 7 1028 71 10000 4.1 330 05:36 18.03.2020
858 Clear 8 1028 71 10000 3.6 330 04:29 18.03.2020
859 Clear 8 1028 71 10000 3.6 330 03:21 18.03.2020
860 Clear 8 1028 71 10000 3.6 320 02:32 18.03.2020
861 Clear 8 1029 76 10000 3.6 320 01:32 18.03.2020
862 Clear 9 1029 76 10000 3.1 340 00:42 18.03.2020
863 Clear 7 1029 76 10000 3.1 330 00:21 18.03.2020
864 Clear 9 1029 76 10000 3.1 330 23:41 17.03.2020
865 Clear 9 1030 71 10000 3.1 330 23:20 17.03.2020
866 Clear 8 1030 71 10000 3.1 330 22:42 17.03.2020
867 Clear 10 1030 76 10000 2.1 320 22:24 17.03.2020
868 Clear 10 1030 71 10000 1.5 330 21:43 17.03.2020
869 Clear 10 1029 71 10000 2.1 330 21:23 17.03.2020
870 Clear 11 1029 71 10000 1 0 20:58 17.03.2020
871 Clear 11 1029 71 10000 1 0 20:38 17.03.2020
872 Clear 11 1029 71 10000 1 50 20:19 17.03.2020
873 Clear 11 1029 66 10000 2.65 50 19:42 17.03.2020
874 Clear 12 1029 67 10000 2.65 50 19:19 17.03.2020
875 Clear 12 1029 67 10000 2.65 50 18:57 17.03.2020
876 Clear 13 1029 67 10000 2.65 50 18:39 17.03.2020
877 Clear 13 1029 76 10000 2.65 50 18:21 17.03.2020
878 Clear 14 1029 72 10000 2.65 50 17:56 17.03.2020
879 Clear 14 1029 77 10000 1 0 17:38 17.03.2020
880 Clear 15 1029 77 10000 1 0 17:18 17.03.2020
881 Clear 15 1029 77 10000 1.5 110 16:42 17.03.2020
882 Clear 15 1029 77 10000 1.5 110 16:19 17.03.2020
883 Clear 15 1029 77 10000 1.5 110 16:19 17.03.2020
884 Clear 15 1029 77 10000 2.1 100 15:45 17.03.2020
885 Clear 15 1029 77 10000 2.6 100 15:23 17.03.2020
886 Clear 15 1029 77 10000 1.5 90 14:47 17.03.2020
887 Clear 15 1030 77 10000 2.1 80 14:27 17.03.2020
888 Clouds 15 1030 77 10000 3.1 70 13:58 17.03.2020
889 Clouds 15 1030 77 10000 3.1 70 13:40 17.03.2020
890 Clouds 15 1030 77 10000 3.6 70 13:22 17.03.2020
891 Clouds 14 1030 77 10000 5.1 80 12:47 17.03.2020
892 Clouds 13 1030 67 10000 6.2 80 12:25 17.03.2020
893 Clear 15 1030 59 10000 5.7 80 11:56 17.03.2020
894 Clear 15 1030 59 10000 5.7 80 11:38 17.03.2020
895 Clouds 15 1030 67 10000 4.1 80 11:20 17.03.2020
896 Clouds 14 1030 62 10000 1.5 90 10:54 17.03.2020
897 Clouds 15 1030 62 10000 1.5 90 10:36 17.03.2020
898 Clouds 15 1030 54 10000 0.5 0 10:18 17.03.2020
899 Clouds 14 1030 54 10000 1 0 09:45 17.03.2020
900 Clouds 11 1030 71 10000 1 0 09:20 17.03.2020
901 Clouds 11 1029 54 10000 3.1 330 08:57 17.03.2020
902 Clouds 11 1029 54 10000 3.1 330 08:39 17.03.2020
903 Clouds 10 1029 76 10000 1.5 0 08:18 17.03.2020
904 Clouds 10 1029 54 10000 3.6 330 07:47 17.03.2020
905 Clouds 9 1029 57 10000 2.6 330 07:20 17.03.2020
906 Clouds 9 1028 57 10000 3.6 330 06:45 17.03.2020
907 Clouds 9 1028 54 10000 3.1 330 06:24 17.03.2020
908 Clouds 9 1028 54 10000 4.1 340 05:18 17.03.2020
909 Clouds 9 1027 58 10000 4.6 340 03:27 17.03.2020
910 Clouds 9 1027 62 10000 4.6 330 01:50 17.03.2020
911 Clouds 9 1027 62 10000 3.6 330 01:30 17.03.2020
912 Clouds 10 1027 62 10000 4.1 340 00:52 17.03.2020
913 Clouds 10 1027 66 10000 3.1 330 23:53 16.03.2020
914 Clouds 10 1027 66 10000 3.1 330 23:34 16.03.2020
915 Clouds 10 1027 66 10000 3.6 320 22:55 16.03.2020
916 Clouds 10 1027 66 10000 2.1 340 22:37 16.03.2020
917 Clouds 10 1027 66 10000 2.1 340 22:19 16.03.2020
918 Clouds 10 1027 62 10000 2.6 330 21:44 16.03.2020
919 Clouds 10 1026 50 10000 3.6 40 21:25 16.03.2020
920 Clouds 11 1026 54 10000 7.2 60 20:58 16.03.2020
921 Clouds 11 1026 54 10000 7.2 60 20:39 16.03.2020
922 Clouds 11 1026 62 10000 7.2 70 20:20 16.03.2020
923 Clouds 12 1025 62 10000 5.7 60 19:46 16.03.2020
924 Clouds 12 1025 62 10000 5.1 60 19:23 16.03.2020
925 Clouds 13 1025 54 10000 6.7 70 18:59 16.03.2020
926 Clouds 13 1025 54 10000 6.7 70 18:39 16.03.2020
927 Clouds 14 1024 62 10000 5.1 70 18:19 16.03.2020
928 Clouds 14 1024 58 10000 7.2 80 17:46 16.03.2020
929 Clouds 14 1024 63 10000 6.2 80 17:25 16.03.2020
930 Clouds 14 1024 58 10000 6.2 70 16:56 16.03.2020
931 Clouds 14 1024 58 10000 6.2 70 16:37 16.03.2020
932 Clouds 14 1024 59 10000 5.7 70 16:19 16.03.2020
933 Clouds 14 1024 55 10000 6.7 70 15:42 16.03.2020
934 Clouds 15 1024 58 10000 8.7 80 15:23 16.03.2020
935 Clouds 14 1024 58 10000 8.7 80 15:23 16.03.2020
936 Clouds 14 1024 58 10000 7.7 90 14:45 16.03.2020
937 Clear 15 1024 55 10000 8.2 80 14:20 16.03.2020
938 Clear 14 1024 58 10000 7.7 80 13:48 16.03.2020
939 Clear 15 1024 58 10000 10.3 90 13:28 16.03.2020
940 Clear 14 1024 58 10000 10.8 90 12:58 16.03.2020
941 Clear 14 1024 58 10000 10.8 90 12:39 16.03.2020
942 Clear 14 1024 62 10000 9.3 80 12:20 16.03.2020
943 Clear 14 1024 58 10000 8.7 80 11:43 16.03.2020
944 Clear 14 1023 62 10000 7.7 80 11:25 16.03.2020
945 Clear 14 1023 58 10000 6.2 80 10:45 16.03.2020
946 Clear 14 1023 54 10000 5.1 80 10:24 16.03.2020
947 Clear 13 1023 50 10000 1.5 0 09:56 16.03.2020
948 Clear 13 1023 50 10000 1.5 0 09:37 16.03.2020
949 Clear 13 1023 54 10000 2.1 0 09:19 16.03.2020
950 Clear 9 1022 58 10000 2.1 20 08:43 16.03.2020
951 Clear 8 1022 66 10000 3.1 320 08:23 16.03.2020
952 Clear 7 1022 70 10000 2.1 350 07:43 16.03.2020
953 Clear 5 1022 70 10000 2.6 330 07:21 16.03.2020
954 Clear 5 1022 70 10000 2.6 330 07:21 16.03.2020
955 Clear 6 1021 70 10000 3.1 330 06:46 16.03.2020
956 Clear 6 1022 75 10000 3.1 330 06:22 16.03.2020
957 Clear 7 1022 70 10000 4.1 330 04:26 16.03.2020
958 Clear 8 1021 66 10000 4.6 330 01:47 16.03.2020
959 Clear 8 1021 71 10000 3.6 330 00:48 16.03.2020
960 Clear 10 1021 66 10000 3.6 330 00:28 16.03.2020
961 Clear 10 1021 66 10000 3.1 330 23:41 15.03.2020
962 Clear 10 1021 66 10000 3.6 330 23:19 15.03.2020
963 Clear 10 1021 66 10000 3.1 330 22:42 15.03.2020
964 Clear 10 1021 71 10000 3.6 330 22:22 15.03.2020
965 Clear 10 1021 71 10000 2.6 340 21:40 15.03.2020
966 Clear 10 1021 66 10000 3.1 320 21:22 15.03.2020
967 Clear 10 1021 66 10000 2.6 320 20:58 15.03.2020
968 Clear 10 1021 66 10000 2.6 320 20:58 15.03.2020
969 Clear 11 1021 66 10000 2.6 320 20:40 15.03.2020
970 Clear 11 1021 67 10000 1.5 40 20:20 15.03.2020
971 Clouds 11 1021 62 10000 2.6 70 19:56 15.03.2020
972 Clouds 11 1021 62 10000 2.6 70 19:38 15.03.2020
973 Clouds 11 1021 62 10000 1 40 19:19 15.03.2020
974 Clouds 12 1021 62 10000 1 0 18:55 15.03.2020
975 Clouds 13 1021 62 10000 1 0 18:36 15.03.2020
976 Clouds 13 1021 58 10000 0.5 0 18:18 15.03.2020
977 Clouds 14 1021 58 10000 1.5 80 17:40 15.03.2020
978 Clouds 14 1021 54 10000 2.1 100 17:20 15.03.2020
979 Clouds 14 1021 54 10000 3.6 100 16:56 15.03.2020
980 Clouds 14 1021 54 10000 3.6 100 16:38 15.03.2020
981 Clouds 14 1021 58 10000 4.6 90 16:19 15.03.2020
982 Clouds 14 1021 58 10000 5.1 90 15:43 15.03.2020
983 Clouds 14 1021 58 10000 5.1 90 15:25 15.03.2020
984 Clouds 15 1022 58 10000 5.7 90 14:55 15.03.2020
985 Clouds 15 1022 58 10000 5.7 90 14:37 15.03.2020
986 Clouds 15 1022 58 10000 6.7 90 14:18 15.03.2020
987 Clouds 15 1022 58 10000 7.2 100 13:40 15.03.2020
988 Clouds 14 1022 58 10000 8.2 100 13:21 15.03.2020
989 Clouds 14 1022 58 10000 8.7 100 12:59 15.03.2020
990 Clouds 14 1022 58 10000 8.7 100 12:39 15.03.2020
991 Clouds 15 1022 58 10000 8.7 100 12:21 15.03.2020
992 Clouds 15 1022 62 10000 7.2 100 11:43 15.03.2020
993 Clouds 14 1022 62 10000 5.1 100 11:24 15.03.2020
994 Clouds 14 1022 67 10000 3.6 120 10:57 15.03.2020
995 Clouds 13 1022 77 10000 1.5 140 10:39 15.03.2020
996 Clouds 14 1022 77 10000 1.5 140 10:20 15.03.2020
997 Clouds 14 1021 72 10000 0.5 0 09:42 15.03.2020
998 Clouds 13 1021 71 10000 1 0 09:23 15.03.2020
999 Clouds 11 1021 76 10000 3.1 330 08:58 15.03.2020
1000 Clouds 11 1021 76 10000 3.1 330 08:40 15.03.2020
1001 Clouds 11 1021 81 10000 2.6 320 08:18 15.03.2020
1002 Clouds 10 1020 81 10000 2.6 320 07:44 15.03.2020
1003 Clouds 9 1020 87 10000 3.1 330 06:59 15.03.2020
1004 Clouds 9 1020 87 10000 3.1 330 06:36 15.03.2020
1005 Clouds 10 1019 81 10000 2.6 320 05:46 15.03.2020
1006 Clouds 10 1019 87 10000 2.6 320 04:50 15.03.2020
1007 Clouds 11 1019 81 10000 3.1 320 04:32 15.03.2020
1008 Clouds 11 1019 81 10000 4.1 330 03:59 15.03.2020
1009 Clouds 11 1019 81 10000 2.1 330 02:49 15.03.2020
1010 Clouds 11 1019 87 10000 2.6 330 02:18 15.03.2020
1011 Clouds 11 1019 82 10000 1.5 310 00:57 15.03.2020
1012 Clouds 11 1019 82 10000 1.5 310 00:39 15.03.2020
1013 Clouds 11 1019 87 10000 1 320 00:18 15.03.2020
1014 Clouds 11 1019 87 10000 0.5 360 23:38 14.03.2020
1015 Clouds 11 1018 87 10000 3.56 84 23:19 14.03.2020
1016 Clouds 10 1018 87 10000 0.5 20 22:55 14.03.2020
1017 Clouds 11 1018 87 10000 0.5 20 22:37 14.03.2020
1018 Clouds 11 1018 87 10000 1 30 22:19 14.03.2020
1019 Clouds 11 1018 87 10000 1.5 90 21:55 14.03.2020
1020 Clouds 11 1018 87 10000 1.5 90 21:36 14.03.2020
1021 Clouds 11 1017 87 10000 3.56 84 21:18 14.03.2020
1022 Clouds 11 1017 87 10000 0.5 100 20:55 14.03.2020
1023 Clouds 12 1017 87 10000 0.5 100 20:37 14.03.2020
1024 Clouds 12 1017 87 10000 0.5 90 20:18 14.03.2020
1025 Clouds 13 1016 87 10000 1.3 80 19:40 14.03.2020
1026 Clouds 13 1016 82 10000 1 170 19:20 14.03.2020
1027 Clouds 14 1016 82 10000 1.5 170 18:39 14.03.2020
1028 Clouds 14 1015 77 10000 2.1 180 18:20 14.03.2020
1029 Clouds 15 1015 82 10000 3.6 190 17:42 14.03.2020
1030 Clouds 15 1015 82 10000 3.6 190 17:23 14.03.2020
1031 Clouds 15 1015 82 10000 3.6 190 17:23 14.03.2020
1032 Clouds 15 1015 72 10000 4.1 200 16:59 14.03.2020
1033 Clouds 16 1015 77 10000 4.6 190 16:38 14.03.2020
1034 Clouds 16 1015 77 10000 4.6 190 16:19 14.03.2020
1035 Clouds 16 1015 77 10000 4.6 200 15:46 14.03.2020
1036 Clouds 16 1015 77 10000 5.1 200 15:22 14.03.2020
1037 Clouds 16 1015 77 10000 5.1 200 14:43 14.03.2020
1038 Clouds 16 1015 72 10000 5.1 200 14:21 14.03.2020
1039 Clouds 16 1015 72 10000 5.1 200 13:57 14.03.2020
1040 Clouds 16 1015 72 10000 5.1 200 13:39 14.03.2020
1041 Clouds 16 1016 72 10000 5.1 190 13:20 14.03.2020
1042 Clouds 16 1016 67 10000 4.1 170 12:44 14.03.2020
1043 Clouds 16 1016 72 10000 4.1 160 12:26 14.03.2020
1044 Clouds 16 1016 72 10000 4.1 180 11:48 14.03.2020
1045 Clouds 16 1016 77 10000 4.1 190 11:27 14.03.2020
1046 Clouds 14 1016 77 10000 3.6 200 10:59 14.03.2020
1047 Clouds 14 1016 77 10000 3.6 200 10:41 14.03.2020
1048 Clouds 13 1016 72 10000 3.1 210 10:23 14.03.2020
1049 Clouds 14 1016 71 10000 2.6 250 09:44 14.03.2020
1050 Clouds 14 1016 82 10000 3.1 250 09:24 14.03.2020
1051 Clouds 13 1015 87 10000 2.6 310 08:48 14.03.2020
1052 Clouds 13 1015 93 10000 2.6 320 08:29 14.03.2020
1053 Clouds 9 1015 87 10000 3.1 310 07:55 14.03.2020
1054 Clouds 9 1015 87 10000 3.1 310 07:37 14.03.2020
1055 Clouds 10 1015 93 10000 2.1 260 07:19 14.03.2020
1056 Clouds 10 1015 93 10000 2.6 310 06:40 14.03.2020
1057 Clouds 11 1015 87 10000 2.1 320 06:40 14.03.2020
1058 Clouds 11 1015 93 10000 2.1 330 05:43 14.03.2020
1059 Clouds 12 1015 93 10000 1 270 03:49 14.03.2020
1060 Clouds 12 1015 93 10000 1.5 280 03:24 14.03.2020
1061 Clouds 12 1016 87 10000 2.1 330 02:23 14.03.2020
1062 Clouds 12 1015 93 10000 1.5 70 00:49 14.03.2020
1063 Clouds 13 1015 87 10000 3.6 90 23:50 13.03.2020
1064 Clouds 12 1015 87 10000 3.6 90 23:30 13.03.2020
1065 Clouds 12 1015 87 10000 5.1 80 22:52 13.03.2020
1066 Clouds 12 1015 87 10000 5.1 80 22:52 13.03.2020
1067 Clouds 12 1015 87 10000 5.1 90 22:26 13.03.2020
1068 Clouds 13 1015 87 10000 5.1 90 21:44 13.03.2020
1069 Clouds 12 1015 87 10000 5.1 80 21:22 13.03.2020
1070 Clouds 12 1015 87 10000 5.7 80 20:59 13.03.2020
1071 Clouds 12 1015 87 10000 5.7 80 20:41 13.03.2020
1072 Clouds 12 1015 87 10000 4.6 80 20:21 13.03.2020
1073 Clouds 12 1014 87 10000 5.1 80 19:49 13.03.2020
1074 Clouds 12 1014 87 10000 5.1 80 19:30 13.03.2020
1075 Clouds 12 1014 87 10000 5.7 80 18:51 13.03.2020
1076 Clouds 12 1014 87 10000 6.2 90 18:32 13.03.2020
1077 Clouds 12 1014 87 10000 5.7 90 18:00 13.03.2020
1078 Clouds 13 1014 87 10000 5.7 90 17:41 13.03.2020
1079 Clouds 13 1014 87 10000 5.7 90 17:20 13.03.2020
1080 Clouds 13 1014 87 10000 5.7 90 16:55 13.03.2020
1081 Clouds 14 1014 87 10000 5.7 90 16:36 13.03.2020
1082 Clouds 13 1014 87 10000 5.7 90 16:18 13.03.2020
1083 Clouds 13 1014 87 10000 5.1 90 15:41 13.03.2020
1084 Clouds 13 1014 87 10000 5.1 90 15:21 13.03.2020
1085 Clouds 14 1014 87 10000 4.6 90 14:44 13.03.2020
1086 Clouds 13 1015 87 10000 3.6 90 14:23 13.03.2020
1087 Clouds 14 1015 87 10000 2.6 110 13:58 13.03.2020
1088 Clouds 14 1015 87 10000 2.6 110 13:40 13.03.2020
1089 Clouds 14 1015 87 10000 2.1 120 13:20 13.03.2020
1090 Clouds 13 1016 87 10000 2.1 110 12:56 13.03.2020
1091 Clouds 13 1016 87 10000 2.1 110 12:38 13.03.2020
1092 Clouds 14 1016 87 10000 2.1 130 12:19 13.03.2020
1093 Clouds 13 1016 87 10000 1.5 100 11:45 13.03.2020
1094 Clouds 13 1016 87 10000 1.5 90 11:26 13.03.2020
1095 Clouds 13 1016 93 10000 5.99 52 10:59 13.03.2020
1096 Clouds 13 1016 93 10000 5.99 52 10:41 13.03.2020
1097 Clouds 12 1016 93 10000 5.99 52 10:23 13.03.2020
1098 Clouds 12 1016 93 10000 1 190 09:45 13.03.2020
1099 Clouds 12 1015 93 10000 1 0 09:26 13.03.2020
1100 Clouds 12 1016 93 10000 2.1 210 08:56 13.03.2020
1101 Clouds 12 1016 93 10000 2.1 210 08:37 13.03.2020
1102 Clouds 11 1016 93 10000 2.1 170 08:18 13.03.2020
1103 Clouds 11 1016 93 10000 3.1 200 07:43 13.03.2020
1104 Clouds 11 1015 93 10000 3.1 60 07:22 13.03.2020
1105 Clouds 11 1015 93 6000 2.6 30 06:46 13.03.2020
1106 Clouds 11 1016 93 7000 1.5 20 06:21 13.03.2020
1107 Clouds 11 1015 93 6000 2.1 40 05:44 13.03.2020
1108 Clouds 11 1016 93 7000 1.54 270 04:39 13.03.2020
1109 Clouds 11 1016 100 8000 2.6 250 03:51 13.03.2020
1110 Clouds 11 1017 100 8000 2.1 230 02:29 13.03.2020
1111 Clouds 11 1018 100 8000 2.1 220 01:37 13.03.2020
1112 Drizzle 10 1018 100 6000 2.1 220 01:18 13.03.2020
1113 Drizzle 11 1018 100 5000 1.5 220 00:39 13.03.2020
1114 Drizzle 11 1018 100 3000 2.1 220 00:19 13.03.2020
1115 Drizzle 11 1018 93 2000 2.1 210 23:38 12.03.2020
1116 Drizzle 11 1019 93 2000 1 250 23:19 12.03.2020
1117 Drizzle 12 1019 93 3000 1.5 220 22:46 12.03.2020
1118 Drizzle 12 1019 93 8000 1.5 220 22:27 12.03.2020
1119 Drizzle 12 1019 93 4000 2.1 220 21:56 12.03.2020
1120 Drizzle 12 1019 93 4000 2.1 220 21:38 12.03.2020
1121 Clouds 11 1019 93 8000 2 180 21:20 12.03.2020
1122 Clouds 11 1019 93 8000 1 0 20:42 12.03.2020
1123 Clouds 11 1019 93 10000 1 240 20:20 12.03.2020
1124 Clouds 12 1019 87 10000 1.5 190 19:56 12.03.2020
1125 Clouds 12 1019 87 10000 1.5 190 19:37 12.03.2020
1126 Clouds 12 1019 87 10000 2.1 210 19:18 12.03.2020
1127 Clouds 12 1019 87 10000 3.1 210 18:42 12.03.2020
1128 Clouds 12 1019 87 10000 1.5 200 18:22 12.03.2020
1129 Clouds 13 1019 82 10000 1.5 200 17:56 12.03.2020
1130 Clouds 12 1019 82 10000 1.5 200 17:37 12.03.2020
1131 Clouds 13 1019 82 10000 1.5 180 17:18 12.03.2020
1132 Clouds 13 1019 82 10000 2.1 180 16:41 12.03.2020
1133 Clouds 13 1019 82 10000 2.6 180 16:23 12.03.2020
1134 Clouds 13 1020 82 10000 2.6 170 15:49 12.03.2020
1135 Clouds 14 1020 82 10000 2.6 170 15:28 12.03.2020
1136 Clouds 14 1020 82 10000 2.6 170 14:58 12.03.2020
1137 Clouds 14 1020 82 10000 2.6 170 14:38 12.03.2020
1138 Clouds 13 1021 82 10000 4.1 190 14:19 12.03.2020
1139 Clouds 13 1021 82 10000 4.1 180 13:40 12.03.2020
1140 Clouds 14 1022 77 10000 2.6 160 13:21 12.03.2020
1141 Clouds 14 1022 77 10000 2.6 160 13:21 12.03.2020
1142 Clouds 13 1022 82 10000 2.1 140 12:55 12.03.2020
1143 Clouds 13 1022 82 10000 2.1 140 12:37 12.03.2020
1144 Clouds 12 1022 87 10000 1 160 12:18 12.03.2020
1145 Clouds 12 1022 87 10000 1 160 11:56 12.03.2020
1146 Clouds 13 1022 87 10000 1 160 11:37 12.03.2020
1147 Clouds 13 1022 87 10000 1 0 11:19 12.03.2020
1148 Clouds 12 1022 93 10000 0.5 0 10:55 12.03.2020
1149 Clouds 12 1022 93 10000 0.5 0 10:37 12.03.2020
1150 Clouds 12 1022 87 10000 0.5 0 10:18 12.03.2020
1151 Clouds 12 1022 87 10000 2.1 250 09:41 12.03.2020
1152 Clouds 12 1022 82 10000 1.5 280 09:23 12.03.2020
1153 Clouds 12 1022 87 10000 1 290 08:40 12.03.2020
1154 Clouds 12 1021 87 10000 1.5 310 08:19 12.03.2020
1155 Clouds 11 1021 87 10000 1 0 07:52 12.03.2020
1156 Clouds 11 1021 87 10000 1.5 330 07:23 12.03.2020
1157 Clouds 11 1021 87 10000 1.5 300 06:44 12.03.2020
1158 Clouds 11 1021 93 10000 1.5 330 05:40 12.03.2020
1159 Clouds 11 1021 87 10000 0.5 0 04:27 12.03.2020
1160 Clouds 11 1022 87 10000 3.1 60 02:34 12.03.2020
1161 Clouds 12 1022 87 10000 2.1 80 01:30 12.03.2020
1162 Clouds 12 1022 82 10000 1.5 80 00:42 12.03.2020
1163 Clouds 12 1022 82 10000 0.5 80 00:24 12.03.2020
1164 Clouds 12 1022 82 10000 1 70 23:42 11.03.2020
1165 Clouds 12 1022 82 10000 1.5 30 23:23 11.03.2020
1166 Clouds 11 1022 82 10000 1.5 40 22:45 11.03.2020
1167 Clouds 12 1022 82 10000 1.5 50 22:27 11.03.2020
1168 Clouds 11 1022 82 10000 1.5 0 21:59 11.03.2020
1169 Clouds 12 1022 82 10000 1.5 0 21:41 11.03.2020
1170 Clouds 12 1022 82 10000 1 0 21:22 11.03.2020
1171 Clouds 12 1022 82 10000 1 0 21:22 11.03.2020
1172 Clouds 12 1022 82 10000 1 110 20:58 11.03.2020
1173 Clouds 12 1022 82 10000 1 110 20:39 11.03.2020
1174 Clouds 12 1022 82 10000 1 120 20:19 11.03.2020
1175 Clouds 12 1022 82 10000 1.5 130 19:44 11.03.2020
1176 Clouds 12 1021 82 10000 2.1 150 19:25 11.03.2020
1177 Clouds 12 1021 87 10000 2.1 140 18:59 11.03.2020
1178 Clouds 12 1021 87 10000 2.1 140 18:40 11.03.2020
1179 Clouds 12 1021 87 10000 2.1 140 18:40 11.03.2020
1180 Clouds 13 1021 87 10000 2.1 140 18:21 11.03.2020
1181 Clouds 13 1021 87 10000 2.1 130 17:58 11.03.2020
1182 Clouds 13 1021 87 10000 2.1 130 17:39 11.03.2020
1183 Clouds 14 1021 82 10000 2.1 130 17:20 11.03.2020
1184 Clouds 14 1020 82 10000 2.1 130 16:46 11.03.2020
1185 Clouds 14 1020 82 10000 2.6 130 16:23 11.03.2020
1186 Clouds 14 1020 82 10000 3.1 120 15:57 11.03.2020
1187 Clouds 14 1020 82 10000 3.1 120 15:39 11.03.2020
1188 Clouds 14 1021 82 10000 3.1 120 15:21 11.03.2020
1189 Clouds 15 1020 77 10000 4.1 120 14:42 11.03.2020
1190 Clouds 15 1021 77 10000 3.6 130 14:22 11.03.2020
1191 Clouds 15 1021 72 10000 3.6 130 13:45 11.03.2020
1192 Clouds 15 1021 72 10000 4.1 110 13:27 11.03.2020
1193 Clouds 15 1021 72 10000 3.1 110 12:58 11.03.2020
1194 Clouds 16 1021 72 10000 3.1 110 12:40 11.03.2020
1195 Clouds 15 1021 72 10000 3.6 110 12:20 11.03.2020
1196 Clouds 15 1021 72 10000 3.6 110 11:55 11.03.2020
1197 Clouds 14 1021 72 10000 3.6 110 11:37 11.03.2020
1198 Clouds 15 1021 67 10000 3.1 100 11:18 11.03.2020
1199 Clouds 14 1021 67 10000 3.6 100 10:42 11.03.2020
1200 Clouds 14 1021 67 10000 3.6 100 10:42 11.03.2020
1201 Clouds 15 1021 63 10000 1 0 10:18 11.03.2020
1202 Clouds 14 1020 58 10000 2.1 330 09:43 11.03.2020
1203 Clouds 13 1020 66 10000 2.6 320 09:25 11.03.2020
1204 Clouds 13 1020 66 10000 2.6 320 09:25 11.03.2020
1205 Clouds 11 1020 62 10000 3.6 330 08:58 11.03.2020
1206 Clouds 11 1020 62 10000 3.6 330 08:40 11.03.2020
1207 Clouds 10 1019 66 10000 3.6 330 08:19 11.03.2020
1208 Clouds 9 1019 70 10000 3.1 340 07:43 11.03.2020
1209 Clouds 8 1019 70 10000 2.6 330 07:19 11.03.2020
1210 Clouds 7 1019 70 10000 4.1 340 06:44 11.03.2020
1211 Clouds 7 1018 70 10000 3.6 320 05:41 11.03.2020
1212 Clouds 8 1018 70 10000 3.1 330 04:50 11.03.2020
1213 Clouds 8 1018 66 10000 3.1 320 02:30 11.03.2020
1214 Clouds 8 1018 66 10000 3.1 30 01:30 11.03.2020
1215 Clouds 9 1018 71 10000 3.6 50 00:47 11.03.2020
1216 Clouds 9 1018 66 10000 4.6 60 00:21 11.03.2020
1217 Clouds 9 1018 71 10000 6.2 60 23:42 10.03.2020
1218 Clouds 9 1018 71 10000 5.1 60 23:22 10.03.2020
1219 Clouds 10 1017 66 10000 4.1 40 22:40 10.03.2020
1220 Clouds 10 1017 58 10000 3.6 30 22:20 10.03.2020
1221 Clouds 10 1017 58 10000 4.1 30 21:57 10.03.2020
1222 Clouds 10 1017 58 10000 4.1 30 21:39 10.03.2020
1223 Clouds 10 1017 62 10000 3.6 30 21:20 10.03.2020
1224 Clouds 10 1017 58 10000 1.5 20 20:59 10.03.2020
1225 Clouds 10 1017 58 10000 1.5 20 20:41 10.03.2020
1226 Clouds 11 1017 58 10000 3.1 30 20:19 10.03.2020
1227 Clouds 11 1017 62 10000 1.5 50 19:57 10.03.2020
1228 Clouds 11 1017 62 10000 1.5 50 19:39 10.03.2020
1229 Clouds 11 1017 66 10000 1 100 19:21 10.03.2020
1230 Clouds 12 1017 62 10000 1.5 230 18:45 10.03.2020
1231 Clouds 12 1017 62 10000 1.5 230 18:45 10.03.2020
1232 Clouds 12 1017 62 10000 3.1 250 18:27 10.03.2020
1233 Clouds 13 1017 62 10000 3.6 240 17:58 10.03.2020
1234 Clouds 13 1017 62 10000 3.6 240 17:40 10.03.2020
1235 Clouds 13 1017 67 10000 4.6 230 17:21 10.03.2020
1236 Clouds 14 1017 67 10000 5.1 210 16:40 10.03.2020
1237 Clouds 13 1017 62 10000 6.7 200 16:20 10.03.2020
1238 Clouds 14 1017 54 10000 6.2 180 15:58 10.03.2020
1239 Clouds 15 1017 54 10000 6.2 180 15:39 10.03.2020
1240 Clouds 15 1017 62 10000 6.2 200 15:19 10.03.2020
1241 Clouds 15 1018 54 10000 4.6 200 14:57 10.03.2020
1242 Clouds 15 1018 54 10000 4.6 200 14:39 10.03.2020
1243 Clouds 15 1018 54 10000 5.1 200 14:18 10.03.2020
1244 Clouds 15 1018 54 10000 4.6 190 13:42 10.03.2020
1245 Clouds 15 1019 54 10000 3.6 190 13:24 10.03.2020
1246 Clouds 15 1019 58 10000 4.1 200 12:42 10.03.2020
1247 Clouds 15 1019 54 10000 3.6 190 12:21 10.03.2020
1248 Clouds 15 1019 54 10000 3.6 190 12:21 10.03.2020
1249 Clouds 14 1019 50 10000 3.1 200 11:59 10.03.2020
1250 Clouds 14 1019 50 10000 3.1 200 11:41 10.03.2020
1251 Clouds 15 1019 29 10000 3.1 330 11:23 10.03.2020
1252 Clouds 12 1019 35 10000 4.1 320 10:54 10.03.2020
1253 Clouds 12 1019 35 10000 4.1 320 10:36 10.03.2020
1254 Clouds 12 1019 37 10000 5.1 330 10:18 10.03.2020
1255 Clouds 12 1019 40 10000 4.1 330 09:44 10.03.2020
1256 Clouds 11 1019 43 10000 4.1 340 09:20 10.03.2020
1257 Clouds 9 1019 65 10000 2.1 360 08:53 10.03.2020
1258 Clouds 8 1019 65 10000 2.1 360 08:35 10.03.2020
1259 Clouds 6 1018 52 10000 3.6 340 07:58 10.03.2020
1260 Clouds 6 1018 52 10000 3.6 340 07:40 10.03.2020
1261 Clouds 5 1018 52 10000 3.1 340 07:19 10.03.2020
1262 Clouds 6 1017 52 10000 3.6 340 06:37 10.03.2020
1263 Clouds 6 1017 57 10000 4.6 340 05:42 10.03.2020
1264 Clouds 6 1017 57 10000 4.6 330 04:59 10.03.2020
1265 Clouds 6 1017 61 10000 4.1 330 04:29 10.03.2020
1266 Clouds 7 1017 75 10000 3.1 340 02:58 10.03.2020
1267 Clear 7 1017 76 10000 5.1 330 01:32 10.03.2020
1268 Clear 7 1016 76 10000 5.1 320 00:50 10.03.2020
1269 Clear 7 1016 76 10000 4.6 320 00:28 10.03.2020
1270 Clear 7 1016 81 10000 5.7 320 23:42 09.03.2020
1271 Clear 8 1016 81 10000 5.1 320 23:22 09.03.2020
1272 Clear 7 1016 81 10000 4.1 320 22:57 09.03.2020
1273 Clear 7 1016 81 10000 4.1 320 22:38 09.03.2020
1274 Clear 7 1015 76 10000 3.1 320 22:19 09.03.2020
1275 Clear 8 1015 76 10000 2.6 310 21:44 09.03.2020
1276 Clear 8 1014 76 10000 2.1 290 21:22 09.03.2020
1277 Clear 8 1014 76 10000 2.1 290 21:22 09.03.2020
1278 Clear 9 1014 71 10000 1.5 310 20:58 09.03.2020
1279 Clear 9 1014 71 10000 1.5 310 20:40 09.03.2020
1280 Rain 10 1013 76 10000 3.1 300 20:22 09.03.2020
1281 Rain 10 1013 71 10000 3.1 290 19:59 09.03.2020
1282 Rain 10 1013 71 10000 3.1 290 19:59 09.03.2020
1283 Rain 11 1013 71 10000 3.1 290 19:41 09.03.2020
1284 Clouds 11 1013 71 10000 3.6 250 19:18 09.03.2020
1285 Clouds 11 1012 71 10000 3.1 220 18:56 09.03.2020
1286 Clouds 11 1012 71 10000 3.1 220 18:37 09.03.2020
1287 Clouds 12 1012 62 10000 2.1 220 18:18 09.03.2020
1288 Clouds 12 1011 62 10000 2.1 230 17:55 09.03.2020
1289 Clouds 12 1011 62 10000 2.1 230 17:37 09.03.2020
1290 Clouds 12 1010 58 10000 2.1 240 17:19 09.03.2020
1291 Clouds 12 1010 62 10000 1.5 190 16:56 09.03.2020
1292 Clouds 12 1010 62 10000 1.5 190 16:37 09.03.2020
1293 Clouds 13 1010 62 10000 2.1 260 16:19 09.03.2020
1294 Clouds 13 1009 62 10000 1 0 15:55 09.03.2020
1295 Clouds 12 1009 62 10000 1 0 15:37 09.03.2020
1296 Clouds 12 1010 66 10000 2.6 100 15:18 09.03.2020
1297 Clouds 12 1009 71 10000 4.6 100 14:39 09.03.2020
1298 Clouds 12 1010 71 10000 4.1 130 14:20 09.03.2020
1299 Clouds 13 1009 71 10000 5.1 140 13:58 09.03.2020
1300 Clouds 12 1009 71 10000 5.1 140 13:39 09.03.2020
1301 Clouds 13 1010 71 10000 4.6 180 13:21 09.03.2020
1302 Clouds 13 1010 67 10000 4.1 190 12:58 09.03.2020
1303 Clouds 13 1010 67 10000 4.1 190 12:39 09.03.2020
1304 Clouds 14 1010 67 10000 4.1 190 12:39 09.03.2020
1305 Clouds 13 1010 71 10000 2.6 230 12:19 09.03.2020
1306 Clouds 13 1010 67 10000 2.6 200 11:40 09.03.2020
1307 Rain 12 1010 62 10000 1 0 11:20 09.03.2020
1308 Clouds 13 1010 62 10000 1 0 10:58 09.03.2020
1309 Clouds 13 1010 62 10000 1 0 10:40 09.03.2020
1310 Clouds 13 1010 66 10000 1 0 10:19 09.03.2020
1311 Clouds 12 1010 71 10000 2.1 360 09:42 09.03.2020
1312 Clouds 11 1011 76 10000 3.1 330 09:24 09.03.2020
1313 Clouds 10 1011 76 10000 4.1 330 08:54 09.03.2020
1314 Clouds 10 1011 76 10000 4.1 330 08:36 09.03.2020
1315 Clouds 9 1011 81 10000 3.1 340 08:18 09.03.2020
1316 Clouds 7 1011 81 10000 3.6 320 07:39 09.03.2020
1317 Clouds 7 1011 81 10000 5.1 320 07:20 09.03.2020
1318 Clouds 7 1011 81 10000 3.1 340 06:41 09.03.2020
1319 Clouds 9 1012 81 10000 4.1 320 06:23 09.03.2020
1320 Clouds 8 1012 76 10000 1 0 05:45 09.03.2020
1321 Clouds 6 1012 81 10000 2.6 320 04:59 09.03.2020
1322 Clouds 6 1012 81 10000 2.6 320 04:40 09.03.2020
1323 Clouds 6 1012 81 10000 3.1 330 04:21 09.03.2020
1324 Clouds 6 1014 81 10000 3.6 350 02:56 09.03.2020
1325 Clouds 6 1016 81 10000 3.6 330 00:46 09.03.2020
1326 Clouds 7 1016 81 10000 2.6 320 00:27 09.03.2020
1327 Clouds 7 1017 81 10000 2.6 340 23:59 08.03.2020
1328 Clouds 7 1017 81 10000 2.6 340 23:41 08.03.2020
1329 Clouds 7 1017 87 10000 2.1 20 23:21 08.03.2020
1330 Clouds 7 1017 81 10000 2.1 320 22:55 08.03.2020
1331 Clouds 8 1017 81 10000 2.1 320 22:37 08.03.2020
1332 Clouds 8 1018 81 10000 2.6 320 22:18 08.03.2020
1333 Clouds 8 1018 76 10000 1.5 330 21:42 08.03.2020
1334 Clouds 8 1018 76 10000 2.1 330 21:23 08.03.2020
1335 Clouds 8 1018 76 10000 1.5 50 20:59 08.03.2020
1336 Clouds 10 1018 76 10000 1.5 50 20:39 08.03.2020
1337 Clouds 9 1018 76 10000 1 0 20:20 08.03.2020
1338 Clouds 11 1019 76 10000 1.5 270 19:41 08.03.2020
1339 Clouds 11 1019 76 10000 3.6 230 19:20 08.03.2020
1340 Clouds 11 1018 71 10000 3.6 220 18:58 08.03.2020
1341 Clouds 12 1018 71 10000 3.6 220 18:39 08.03.2020
1342 Clouds 12 1018 71 10000 3.1 210 18:20 08.03.2020
1343 Clouds 11 1019 71 10000 3.6 200 17:41 08.03.2020
1344 Clouds 13 1019 67 10000 3.6 200 17:22 08.03.2020
1345 Clouds 13 1019 67 10000 3.1 200 16:59 08.03.2020
1346 Clouds 13 1019 67 10000 3.1 200 16:41 08.03.2020
1347 Clouds 13 1019 67 10000 3.6 190 16:22 08.03.2020
1348 Clouds 13 1019 58 10000 3.1 190 15:55 08.03.2020
1349 Clouds 14 1019 58 10000 3.1 190 15:37 08.03.2020
1350 Clouds 14 1019 58 10000 3.1 190 15:37 08.03.2020
1351 Clouds 14 1019 58 10000 3.1 180 15:18 08.03.2020
1352 Clouds 14 1020 54 10000 2.6 180 14:40 08.03.2020
1353 Clouds 15 1020 51 10000 2.1 170 14:21 08.03.2020
1354 Clouds 15 1020 47 10000 2.1 170 13:56 08.03.2020
1355 Clouds 15 1020 47 10000 2.1 170 13:56 08.03.2020
1356 Clouds 15 1020 47 10000 2.1 170 13:37 08.03.2020
1357 Clouds 14 1021 44 10000 2.6 170 13:18 08.03.2020
1358 Clouds 15 1021 41 10000 2.1 190 12:38 08.03.2020
1359 Clouds 14 1021 33 10000 2.1 220 12:19 08.03.2020
1360 Clouds 14 1021 30 10000 1.5 190 11:44 08.03.2020
1361 Clouds 15 1021 30 10000 1.5 0 11:25 08.03.2020
1362 Clouds 14 1021 33 10000 3.6 330 10:59 08.03.2020
1363 Clouds 14 1021 33 10000 3.6 330 10:41 08.03.2020
1364 Clouds 13 1021 35 10000 4.6 320 10:22 08.03.2020
1365 Clouds 12 1021 53 10000 2.1 360 09:40 08.03.2020
1366 Clouds 9 1021 43 10000 5.1 330 09:22 08.03.2020
1367 Clouds 10 1020 45 10000 5.7 330 08:50 08.03.2020
1368 Clear 7 1020 45 10000 4.1 330 08:27 08.03.2020
1369 Clear 6 1020 49 10000 4.1 340 07:56 08.03.2020
1370 Clear 6 1020 49 10000 4.1 340 07:37 08.03.2020
1371 Clear 6 1020 52 10000 4.6 330 07:18 08.03.2020
1372 Clear 6 1019 52 10000 3.6 340 06:40 08.03.2020
1373 Clear 5 1019 49 10000 4.1 350 06:22 08.03.2020
1374 Clear 7 1019 52 10000 4.6 340 05:19 08.03.2020
1375 Clear 8 1019 49 10000 5.1 340 03:51 08.03.2020
1376 Clear 7 1019 60 10000 4.6 330 02:28 08.03.2020
1377 Clear 8 1019 61 10000 4.1 340 01:23 08.03.2020
1378 Clear 8 1019 61 10000 4.1 340 01:23 08.03.2020
1379 Clear 7 1019 61 10000 4.1 340 01:23 08.03.2020
1380 Clear 8 1019 61 10000 4.1 340 01:23 08.03.2020
1381 Clear 8 1019 61 10000 4.1 340 01:23 08.03.2020
1382 Clear 7 1019 60 10000 3.6 340 00:44 08.03.2020
1383 Clear 8 1018 60 10000 4.6 340 00:25 08.03.2020
1384 Clear 9 1018 60 10000 3.6 330 23:44 07.03.2020
1385 Clear 9 1018 53 10000 4.6 340 23:23 07.03.2020
1386 Clear 9 1018 53 10000 4.6 340 22:41 07.03.2020
1387 Clear 9 1017 57 10000 4.6 340 22:22 07.03.2020
1388 Clear 9 1017 57 10000 4.1 330 21:49 07.03.2020
1389 Clear 10 1016 57 10000 5.1 20 21:26 07.03.2020
1390 Clear 10 1016 57 10000 5.1 30 20:57 07.03.2020
1391 Clear 10 1016 57 10000 5.1 30 20:38 07.03.2020
1392 Clear 11 1015 62 10000 4.1 30 20:19 07.03.2020
1393 Clear 11 1015 62 10000 3.6 40 19:41 07.03.2020
1394 Clear 12 1015 67 10000 2.1 80 19:22 07.03.2020
1395 Clear 12 1014 62 10000 1.5 0 18:46 07.03.2020
1396 Clear 13 1014 54 10000 3.6 180 18:27 07.03.2020
1397 Clear 14 1013 54 10000 3.1 170 17:59 07.03.2020
1398 Clear 14 1013 54 10000 3.1 170 17:40 07.03.2020
1399 Clear 15 1013 54 10000 3.1 170 17:40 07.03.2020
1400 Clouds 15 1013 54 10000 4.6 200 17:19 07.03.2020
1401 Clouds 15 1013 58 10000 5.7 210 16:55 07.03.2020
1402 Clouds 15 1013 58 10000 5.7 210 16:36 07.03.2020
1403 Clouds 16 1012 58 10000 5.7 200 16:18 07.03.2020
1404 Clouds 16 1012 54 10000 5.7 200 15:41 07.03.2020
1405 Clouds 16 1012 59 10000 4.1 180 15:21 07.03.2020
1406 Clouds 16 1012 58 10000 4.6 180 14:58 07.03.2020
1407 Clouds 16 1012 58 10000 4.6 180 14:40 07.03.2020
1408 Clouds 16 1012 54 10000 5.1 180 14:21 07.03.2020
1409 Clouds 16 1012 54 10000 4.1 190 13:41 07.03.2020
1410 Clouds 16 1012 58 10000 4.1 200 13:21 07.03.2020
1411 Clouds 15 1012 47 10000 3.6 210 12:55 07.03.2020
1412 Clouds 16 1012 47 10000 3.6 210 12:37 07.03.2020
1413 Clouds 16 1012 38 10000 4.1 230 12:18 07.03.2020
1414 Clear 15 1012 49 10000 2.1 300 11:41 07.03.2020
1415 Clear 15 1012 30 10000 4.1 320 11:23 07.03.2020
1416 Clear 14 1011 28 10000 5.1 320 10:57 07.03.2020
1417 Clear 14 1011 28 10000 5.1 320 10:37 07.03.2020
1418 Clear 13 1011 32 10000 4.1 330 10:18 07.03.2020
1419 Clear 12 1011 34 10000 5.7 330 09:40 07.03.2020
1420 Clear 9 1010 39 10000 6.7 340 09:19 07.03.2020
1421 Clear 8 1010 42 10000 7.2 330 08:57 07.03.2020
1422 Clear 7 1010 42 10000 7.2 330 08:39 07.03.2020
1423 Clear 7 1009 45 10000 5.1 340 08:20 07.03.2020
1424 Clear 6 1009 45 10000 4.6 330 07:44 07.03.2020
1425 Clear 5 1008 48 10000 4.6 330 07:21 07.03.2020
1426 Clear 5 1007 45 10000 5.1 330 06:42 07.03.2020
1427 Clear 5 1007 45 10000 5.1 330 06:23 07.03.2020
1428 Clear 6 1007 45 10000 5.1 330 05:40 07.03.2020
1429 Clear 6 1005 45 10000 3.1 310 03:36 07.03.2020
1430 Clear 7 1005 45 10000 3.1 340 02:43 07.03.2020
1431 Clouds 7 1005 49 10000 4.63 39 01:56 07.03.2020
1432 Clouds 8 1004 69 10000 3.1 350 00:58 07.03.2020
1433 Clouds 9 1004 53 10000 4.1 350 00:24 07.03.2020
1434 Clouds 9 1004 61 10000 4.1 340 23:59 06.03.2020
1435 Clouds 9 1004 61 10000 4.1 340 23:40 06.03.2020
1436 Clouds 9 1003 76 10000 3.1 340 23:22 06.03.2020
1437 Clouds 9 1003 76 10000 3.6 340 22:46 06.03.2020
1438 Clouds 9 1003 81 10000 3.6 330 22:20 06.03.2020
1439 Clouds 9 1002 76 10000 5.1 320 21:47 06.03.2020
1440 Clouds 9 1002 81 10000 4.1 320 21:21 06.03.2020
1441 Clouds 10 1002 76 10000 3.1 310 20:45 06.03.2020
1442 Clear 10 1002 81 10000 2.1 260 20:23 06.03.2020
1443 Clear 11 1001 76 10000 1.5 360 19:59 06.03.2020
1444 Clear 11 1001 76 10000 1.5 360 19:41 06.03.2020
1445 Clear 11 1001 76 10000 4.1 60 19:22 06.03.2020
1446 Clouds 11 1000 76 10000 5.7 70 18:42 06.03.2020
1447 Clouds 12 1000 71 10000 6.2 90 18:21 06.03.2020
1448 Clouds 11 999 71 10000 7.2 90 17:57 06.03.2020
1449 Clouds 12 999 71 10000 7.2 90 17:39 06.03.2020
1450 Clouds 12 999 71 10000 7.2 90 17:39 06.03.2020
1451 Clouds 12 999 76 10000 7.2 80 17:20 06.03.2020
1452 Clouds 13 999 71 10000 7.7 80 16:56 06.03.2020
1453 Clouds 13 999 71 10000 7.7 80 16:37 06.03.2020
1454 Clouds 13 998 71 10000 7.2 90 16:18 06.03.2020
1455 Clouds 13 998 71 10000 6.2 90 15:42 06.03.2020
1456 Clouds 14 998 71 10000 5.1 100 15:23 06.03.2020
1457 Clouds 13 999 71 10000 5.1 90 14:41 06.03.2020
1458 Clouds 13 999 71 10000 4.6 100 14:23 06.03.2020
1459 Clouds 13 999 71 10000 4.6 100 14:23 06.03.2020
1460 Clouds 13 999 66 10000 5.1 90 13:58 06.03.2020
1461 Clouds 13 999 66 10000 5.1 90 13:58 06.03.2020
1462 Clouds 13 999 66 10000 5.1 90 13:40 06.03.2020
1463 Clouds 12 999 71 10000 5.7 90 13:20 06.03.2020
1464 Clouds 12 999 21 10000 6.2 320 12:54 06.03.2020
1465 Clouds 13 999 71 10000 5.7 80 12:36 06.03.2020
1466 Clouds 12 999 71 10000 5.7 80 12:18 06.03.2020
1467 Clouds 12 999 76 10000 5.1 90 11:42 06.03.2020
1468 Clouds 12 999 76 10000 2.1 110 11:20 06.03.2020
1469 Clouds 12 999 71 10000 1.5 0 10:57 06.03.2020
1470 Clouds 12 999 71 10000 1.5 0 10:36 06.03.2020
1471 Clouds 9 999 76 10000 1 0 10:18 06.03.2020
1472 Clouds 10 999 76 10000 1.5 300 09:42 06.03.2020
1473 Clouds 9 999 81 10000 3.1 320 09:24 06.03.2020
1474 Clouds 7 999 87 10000 2.6 310 08:56 06.03.2020
1475 Clouds 6 998 93 10000 2.6 320 08:38 06.03.2020
1476 Clouds 7 999 87 10000 2.6 310 08:38 06.03.2020
1477 Clouds 6 998 93 10000 2.6 320 08:19 06.03.2020
1478 Clouds 5 998 93 10000 3.6 320 07:45 06.03.2020
1479 Clouds 5 998 87 10000 2.6 320 07:24 06.03.2020
1480 Clouds 5 998 93 10000 2.6 320 06:47 06.03.2020
1481 Clouds 5 998 93 10000 2.6 330 06:28 06.03.2020
1482 Clouds 5 998 87 10000 2.6 340 05:39 06.03.2020
1483 Clear 6 998 76 10000 1.5 0 05:20 06.03.2020
1484 Clear 6 998 81 10000 3.1 60 04:41 06.03.2020
1485 Clouds 8 998 71 10000 7.7 280 01:45 06.03.2020
1486 Clouds 9 998 76 10000 4.6 300 01:26 06.03.2020
1487 Clouds 8 998 93 10000 2.6 320 00:59 06.03.2020
1488 Clouds 9 998 87 10000 3.6 330 00:31 06.03.2020
1489 Clouds 6 998 81 10000 2.6 310 23:47 05.03.2020
1490 Clouds 7 998 87 10000 3.6 300 23:29 05.03.2020
1491 Clouds 7 999 93 10000 1 0 22:57 05.03.2020
1492 Clouds 7 999 93 10000 1 0 22:38 05.03.2020
1493 Rain 7 999 87 10000 5.7 230 22:19 05.03.2020
1494 Rain 7 997 93 10000 5.1 30 21:56 05.03.2020
1495 Rain 7 997 93 10000 5.1 30 21:37 05.03.2020
1496 Rain 7 997 93 10000 5.1 30 21:37 05.03.2020
1497 Rain 9 1000 93 10000 1.5 330 21:19 05.03.2020
1498 Rain 9 1000 93 5000 4.6 340 20:55 05.03.2020
1499 Rain 9 1000 93 5000 4.6 340 20:37 05.03.2020
1500 Rain 8 999 100 8000 3.1 340 20:18 05.03.2020
1501 Rain 8 1000 93 8000 2.6 350 19:55 05.03.2020
1502 Rain 8 1000 93 8000 2.6 350 19:37 05.03.2020
1503 Rain 8 1001 93 6000 3.6 330 19:18 05.03.2020
1504 Rain 8 1001 100 5000 3.1 330 18:38 05.03.2020
1505 Rain 8 1002 93 5000 2.6 330 18:19 05.03.2020
1506 Rain 8 1002 93 6000 3.6 40 17:59 05.03.2020
1507 Rain 8 1002 93 6000 3.6 40 17:40 05.03.2020
1508 Rain 8 1003 93 5000 4.6 70 17:22 05.03.2020
1509 Rain 8 1004 93 5000 5.1 80 16:54 05.03.2020
1510 Rain 8 1004 93 5000 5.1 80 16:36 05.03.2020
1511 Rain 8 1004 93 5000 4.6 70 16:18 05.03.2020
1512 Rain 8 1005 93 7000 5.1 70 15:44 05.03.2020
1513 Rain 8 1005 87 7000 3.6 60 15:22 05.03.2020
1514 Rain 8 1006 87 8000 3.1 20 14:57 05.03.2020
1515 Rain 8 1006 93 8000 2.6 350 14:39 05.03.2020
1516 Rain 8 1006 93 8000 2.6 350 14:20 05.03.2020
1517 Rain 8 1007 93 9000 3.1 350 13:55 05.03.2020
1518 Rain 8 1007 93 9000 3.1 350 13:36 05.03.2020
1519 Rain 9 1008 87 7000 4.1 330 13:18 05.03.2020
1520 Rain 9 1008 81 8000 4.1 320 12:40 05.03.2020
1521 Rain 9 1009 71 10000 3.1 330 12:20 05.03.2020
1522 Rain 9 1009 62 10000 3.6 320 11:57 05.03.2020
1523 Rain 9 1009 62 10000 3.6 320 11:37 05.03.2020
1524 Clouds 9 1009 57 10000 3.1 330 11:19 05.03.2020
1525 Clouds 10 1010 53 10000 3.6 330 10:57 05.03.2020
1526 Clouds 10 1010 53 10000 3.6 330 10:39 05.03.2020
1527 Clouds 10 1010 53 10000 3.6 320 10:20 05.03.2020
1528 Clouds 9 1010 53 10000 4.1 330 09:45 05.03.2020
1529 Clouds 7 1010 53 10000 4.1 320 09:27 05.03.2020
1530 Clouds 7 1010 69 10000 4.6 330 08:48 05.03.2020
1531 Clouds 7 1010 69 10000 4.6 330 08:30 05.03.2020
1532 Clouds 6 1010 69 10000 4.6 330 07:56 05.03.2020
1533 Clouds 7 1010 69 10000 4.6 330 07:36 05.03.2020
1534 Clouds 5 1010 69 10000 5.1 330 07:18 05.03.2020
1535 Clouds 6 1010 69 10000 4.6 330 06:43 05.03.2020
1536 Clouds 6 1010 69 10000 4.6 330 06:19 05.03.2020
1537 Clouds 6 1011 69 10000 4.6 330 05:33 05.03.2020
1538 Clear 6 1011 64 10000 4.1 330 04:23 05.03.2020
1539 Clear 6 1012 64 10000 4.6 330 03:58 05.03.2020
1540 Clear 5 1012 64 10000 4.6 330 02:31 05.03.2020
1541 Clouds 5 1012 61 10000 3.1 330 01:26 05.03.2020
1542 Clouds 5 1012 61 10000 3.6 340 00:44 05.03.2020
1543 Clouds 5 1012 61 10000 4.1 330 23:57 04.03.2020
1544 Clouds 5 1012 61 10000 4.1 330 23:39 04.03.2020
1545 Clouds 5 1012 61 10000 4.1 340 23:20 04.03.2020
1546 Clouds 6 1013 61 10000 4.1 330 22:55 04.03.2020
1547 Clouds 6 1013 61 10000 4.1 330 22:36 04.03.2020
1548 Clouds 6 1013 61 10000 3.1 340 22:18 04.03.2020
1549 Clouds 5 1013 61 10000 3.1 320 21:41 04.03.2020
1550 Clouds 5 1013 61 10000 3.1 320 21:41 04.03.2020
1551 Clouds 5 1013 61 10000 2.1 340 21:21 04.03.2020
1552 Clouds 5 1012 61 10000 1.5 320 20:59 04.03.2020
1553 Clouds 5 1012 61 10000 1.5 320 20:39 04.03.2020
1554 Clouds 8 1012 57 10000 1.5 310 20:21 04.03.2020
1555 Clouds 9 1012 54 10000 2.1 220 19:43 04.03.2020
1556 Clouds 10 1012 58 10000 3.1 230 19:24 04.03.2020
1557 Clouds 10 1012 54 10000 4.1 210 18:59 04.03.2020
1558 Clouds 9 1012 54 10000 4.1 210 18:41 04.03.2020
1559 Clouds 9 1012 54 10000 4.6 210 18:23 04.03.2020
1560 Clouds 10 1011 54 10000 5.1 210 17:59 04.03.2020
1561 Clouds 9 1011 54 10000 5.1 210 17:38 04.03.2020
1562 Clouds 13 1011 47 10000 6.7 210 17:20 04.03.2020
1563 Clouds 13 1012 47 10000 6.7 200 16:55 04.03.2020
1564 Clouds 12 1012 47 10000 6.7 200 16:36 04.03.2020
1565 Clouds 12 1012 50 10000 6.7 200 16:18 04.03.2020
1566 Clouds 12 1012 47 10000 7.2 210 15:42 04.03.2020
1567 Clouds 12 1012 47 10000 7.7 220 15:23 04.03.2020
1568 Clouds 12 1012 47 10000 7.7 220 14:57 04.03.2020
1569 Clouds 12 1012 47 10000 7.7 220 14:38 04.03.2020
1570 Clouds 13 1012 47 10000 6.7 210 14:19 04.03.2020
1571 Clouds 12 1012 44 10000 6.7 220 13:58 04.03.2020
1572 Clouds 12 1012 44 10000 6.7 220 13:39 04.03.2020
1573 Clouds 13 1013 47 10000 5.7 220 13:20 04.03.2020
1574 Clouds 14 1013 44 10000 3.1 220 12:55 04.03.2020
1575 Clouds 14 1013 44 10000 3.1 220 12:37 04.03.2020
1576 Clouds 14 1012 50 10000 3.1 220 12:19 04.03.2020
1577 Clouds 14 1012 30 10000 2.1 250 11:41 04.03.2020
1578 Clouds 12 1012 30 10000 3.6 320 11:23 04.03.2020
1579 Clouds 11 1012 32 10000 4.1 330 10:58 04.03.2020
1580 Clouds 11 1012 32 10000 4.1 330 10:40 04.03.2020
1581 Clouds 10 1012 34 10000 4.1 330 10:19 04.03.2020
1582 Clouds 10 1011 37 10000 3.6 340 09:43 04.03.2020
1583 Clouds 10 1011 37 10000 3.6 340 09:21 04.03.2020
1584 Clouds 9 1011 42 10000 3.6 340 08:48 04.03.2020
1585 Clouds 7 1010 45 10000 3.6 340 08:28 04.03.2020
1586 Clouds 5 1010 48 10000 4.6 340 07:57 04.03.2020
1587 Clouds 5 1010 48 10000 4.6 340 07:39 04.03.2020
1588 Clouds 3 1009 48 10000 3.6 330 07:20 04.03.2020
1589 Clouds 4 1009 48 10000 3.1 340 06:44 04.03.2020
1590 Clouds 4 1009 48 10000 4.1 340 06:23 04.03.2020
1591 Clouds 5 1008 45 10000 5.1 330 05:50 04.03.2020
1592 Clouds 6 1007 45 10000 4.6 330 04:30 04.03.2020
1593 Clouds 7 1006 42 10000 3.1 340 03:44 04.03.2020
1594 Clouds 6 1006 45 10000 4.6 330 03:25 04.03.2020
1595 Clouds 6 1006 45 10000 4.6 330 02:55 04.03.2020
1596 Clouds 8 1006 42 10000 3.1 340 02:21 04.03.2020
1597 Clouds 7 1005 42 10000 4.1 330 01:55 04.03.2020
1598 Clouds 8 1004 45 10000 4.6 340 00:53 04.03.2020
1599 Clouds 8 1004 45 10000 4.6 340 00:53 04.03.2020
1600 Clouds 7 1004 45 10000 4.6 340 00:27 04.03.2020
1601 Clouds 7 1004 49 10000 4.1 330 23:59 03.03.2020
1602 Clouds 7 1004 49 10000 4.1 330 23:40 03.03.2020
1603 Clear 8 1004 61 10000 4.6 330 23:22 03.03.2020
1604 Clear 8 1003 57 10000 5.7 330 22:41 03.03.2020
1605 Clear 7 1003 61 10000 3.1 340 22:20 03.03.2020
1606 Clear 8 1002 66 10000 5.1 320 21:58 03.03.2020
1607 Clear 5 1002 66 10000 5.1 320 21:39 03.03.2020
1608 Clear 5 1002 70 10000 3.6 320 21:20 03.03.2020
1609 Clear 5 1001 71 10000 3.1 330 20:56 03.03.2020
1610 Clear 5 1001 71 10000 3.1 330 20:38 03.03.2020
1611 Clouds 10 1001 62 10000 2.1 90 20:18 03.03.2020
1612 Clouds 9 1001 62 10000 3.1 110 19:55 03.03.2020
1613 Clouds 9 1001 62 10000 3.1 110 19:36 03.03.2020
1614 Clouds 9 1000 54 10000 3.1 120 19:18 03.03.2020
1615 Clouds 12 1000 54 10000 4.6 100 18:55 03.03.2020
1616 Clouds 12 1000 54 10000 4.6 100 18:37 03.03.2020
1617 Clouds 12 999 54 10000 5.1 100 18:18 03.03.2020
1618 Clouds 11 999 58 10000 6.7 90 17:40 03.03.2020
1619 Clouds 11 998 62 10000 6.2 90 17:22 03.03.2020
1620 Clouds 11 998 62 10000 5.1 80 16:59 03.03.2020
1621 Clouds 12 998 62 10000 5.1 80 16:38 03.03.2020
1622 Clouds 12 998 54 10000 6.2 80 16:20 03.03.2020
1623 Clouds 12 998 54 10000 6.2 80 16:20 03.03.2020
1624 Clouds 12 999 50 10000 5.1 70 15:58 03.03.2020
1625 Clouds 12 999 50 10000 5.1 70 15:40 03.03.2020
1626 Clouds 13 999 47 10000 5.7 70 15:20 03.03.2020
1627 Clouds 13 999 41 10000 3.6 70 14:43 03.03.2020
1628 Clouds 13 999 44 10000 2.6 120 14:21 03.03.2020
1629 Clouds 14 999 38 10000 3.1 160 13:59 03.03.2020
1630 Clouds 14 999 38 10000 3.1 160 13:41 03.03.2020
1631 Clouds 13 999 44 10000 5.1 190 13:23 03.03.2020
1632 Clouds 15 999 50 10000 4.6 200 12:55 03.03.2020
1633 Clouds 15 999 50 10000 4.6 200 12:36 03.03.2020
1634 Clouds 15 999 44 10000 4.6 200 12:18 03.03.2020
1635 Clouds 15 999 41 10000 4.1 200 11:38 03.03.2020
1636 Clouds 10 999 53 10000 3.1 210 11:19 03.03.2020
1637 Clouds 10 999 53 10000 3.1 210 11:19 03.03.2020
1638 Clouds 10 999 26 10000 2.6 320 10:57 03.03.2020
1639 Clouds 10 999 26 10000 2.6 320 10:39 03.03.2020
1640 Clouds 9 999 30 10000 2.6 330 10:19 03.03.2020
1641 Clouds 9 999 34 10000 2.6 320 09:45 03.03.2020
1642 Clouds 9 999 43 10000 3.1 320 09:23 03.03.2020
1643 Clouds 10 999 46 10000 2.6 340 08:59 03.03.2020
1644 Clouds 10 999 46 10000 2.6 340 08:40 03.03.2020
1645 Clouds 7 999 57 10000 2.6 270 08:22 03.03.2020
1646 Clouds 7 998 61 10000 2.1 320 07:44 03.03.2020
1647 Clouds 6 998 65 10000 1 10 07:24 03.03.2020
1648 Clouds 7 997 61 10000 1.5 360 06:58 03.03.2020
1649 Clouds 9 997 61 10000 1.5 360 06:39 03.03.2020
1650 Clouds 11 997 50 10000 2.6 350 06:18 03.03.2020
1651 Clouds 10 996 66 10000 1 0 05:39 03.03.2020
1652 Clouds 7 995 75 10000 1.5 0 04:48 03.03.2020
1653 Clouds 8 994 93 10000 2.6 300 02:38 03.03.2020
1654 Clouds 9 993 81 10000 2.6 330 01:27 03.03.2020
1655 Clouds 8 993 81 10000 3.1 330 00:41 03.03.2020
1656 Clouds 8 992 87 10000 2.6 320 00:22 03.03.2020
1657 Clouds 9 992 87 10000 3.6 320 23:48 02.03.2020
1658 Clouds 9 992 71 10000 3.1 50 23:23 02.03.2020
1659 Clouds 10 992 76 10000 3.6 110 22:57 02.03.2020
1660 Clouds 10 992 76 10000 3.6 110 22:57 02.03.2020
1661 Clouds 10 992 76 10000 3.6 110 22:38 02.03.2020
1662 Clouds 10 991 76 10000 5.7 100 22:20 02.03.2020
1663 Clouds 10 991 81 10000 6.2 100 21:56 02.03.2020
1664 Clouds 11 991 81 10000 6.2 100 21:38 02.03.2020
1665 Clouds 10 990 62 10000 2.6 50 21:19 02.03.2020
1666 Clouds 11 989 54 10000 4.1 80 20:55 02.03.2020
1667 Clouds 10 989 54 10000 4.1 80 20:37 02.03.2020
1668 Clouds 10 989 41 10000 2.6 80 20:18 02.03.2020
1669 Clouds 11 988 81 10000 1 0 19:54 02.03.2020
1670 Clouds 11 988 81 10000 1 0 19:36 02.03.2020
1671 Clouds 10 988 43 10000 8.2 290 19:18 02.03.2020
1672 Clouds 9 988 62 10000 4.1 280 18:42 02.03.2020
1673 Clouds 10 987 66 10000 8.7 260 18:19 02.03.2020
1674 Clouds 10 987 66 10000 8.7 260 18:19 02.03.2020
1675 Clouds 9 987 67 10000 9.3 260 17:57 02.03.2020
1676 Clouds 10 987 67 10000 9.3 260 17:39 02.03.2020
1677 Clouds 9 988 76 10000 2.6 330 17:20 02.03.2020
1678 Clouds 11 988 76 10000 4.6 320 16:45 02.03.2020
1679 Clouds 11 988 76 10000 4.6 320 16:45 02.03.2020
1680 Clouds 11 988 76 10000 4.6 320 16:45 02.03.2020
1681 Clouds 11 988 81 10000 4.6 330 16:27 02.03.2020
1682 Clouds 11 988 81 10000 3.6 340 15:59 02.03.2020
1683 Clouds 10 988 81 10000 3.6 340 15:41 02.03.2020
1684 Clouds 9 988 87 10000 5.1 320 15:19 02.03.2020
1685 Rain 9 989 87 10000 3.6 330 14:40 02.03.2020
1686 Rain 9 988 93 10000 4.6 340 14:20 02.03.2020
1687 Rain 9 989 93 10000 6.2 330 13:58 02.03.2020
1688 Rain 8 989 93 10000 6.2 330 13:38 02.03.2020
1689 Rain 9 990 93 7000 8.2 320 13:18 02.03.2020
1690 Rain 8 991 93 6000 6.7 330 12:43 02.03.2020
1691 Rain 8 991 93 6000 6.7 330 12:19 02.03.2020
1692 Rain 8 992 100 1500 9.3 310 11:55 02.03.2020
1693 Rain 8 992 100 1500 9.3 310 11:36 02.03.2020
1694 Rain 10 993 93 1500 7.2 340 11:18 02.03.2020
1695 Rain 9 994 93 2500 5.7 340 10:42 02.03.2020
1696 Rain 9 994 93 2500 5.7 340 10:42 02.03.2020
1697 Rain 9 995 93 2500 5.1 340 10:20 02.03.2020
1698 Rain 9 996 93 4000 4.1 10 09:58 02.03.2020
1699 Rain 9 996 93 4000 4.1 10 09:39 02.03.2020
1700 Rain 8 997 87 4000 4.1 20 09:20 02.03.2020
1701 Rain 8 998 87 6000 4.1 10 08:41 02.03.2020
1702 Rain 8 998 87 6000 6.2 20 08:19 02.03.2020
1703 Rain 8 999 87 10000 5.1 20 07:42 02.03.2020
1704 Rain 7 1000 81 10000 4.6 340 06:57 02.03.2020
1705 Rain 7 1000 81 10000 4.6 340 06:37 02.03.2020
1706 Rain 9 1002 71 10000 2.6 340 05:52 02.03.2020
1707 Clouds 10 1004 66 10000 2.1 320 04:21 02.03.2020
1708 Clouds 9 1004 66 10000 2.1 310 03:20 02.03.2020
1709 Clouds 10 1005 62 10000 3.6 250 02:37 02.03.2020
1710 Clouds 10 1005 62 10000 3.6 250 02:37 02.03.2020
1711 Clouds 11 1004 62 10000 2.6 220 01:47 02.03.2020
1712 Clouds 11 1005 58 10000 5.7 260 01:28 02.03.2020
1713 Clouds 11 1005 66 10000 7.7 220 00:23 02.03.2020
1714 Clouds 11 1005 71 10000 10.8 210 23:56 01.03.2020
1715 Clouds 11 1005 71 10000 10.8 210 23:38 01.03.2020
1716 Clouds 12 1005 71 10000 7.7 220 23:19 01.03.2020
1717 Clouds 12 1005 58 10000 7.2 230 22:43 01.03.2020
1718 Clouds 12 1005 62 10000 7.2 230 22:43 01.03.2020
1719 Clouds 11 1005 58 10000 7.2 230 22:20 01.03.2020
1720 Clouds 12 1005 58 10000 8.2 230 21:56 01.03.2020
1721 Clouds 12 1005 58 10000 8.2 230 21:38 01.03.2020
1722 Clouds 12 1004 62 10000 8.2 220 21:19 01.03.2020
1723 Clouds 13 1004 62 10000 7.2 230 20:43 01.03.2020
1724 Clouds 12 1004 62 10000 6.7 230 20:25 01.03.2020
1725 Clouds 12 1004 58 10000 8.7 240 19:56 01.03.2020
1726 Clouds 13 1004 58 10000 8.7 240 19:37 01.03.2020
1727 Clouds 13 1004 58 10000 8.2 230 19:19 01.03.2020
1728 Clouds 14 1004 58 10000 8.7 230 18:41 01.03.2020
1729 Clouds 14 1003 54 10000 9.3 230 18:20 01.03.2020
1730 Clouds 15 1003 51 10000 10.3 230 17:58 01.03.2020
1731 Clouds 12 1003 51 10000 10.3 230 17:40 01.03.2020
1732 Clouds 15 1003 48 10000 9.3 240 17:21 01.03.2020
1733 Clouds 15 1003 51 10000 9.3 230 16:57 01.03.2020
1734 Clouds 15 1003 51 10000 9.3 230 16:39 01.03.2020
1735 Clouds 15 1003 51 10000 8.2 240 16:19 01.03.2020
1736 Clouds 15 1003 51 10000 7.7 260 15:58 01.03.2020
1737 Clouds 15 1003 51 10000 7.7 260 15:40 01.03.2020
1738 Clouds 14 1003 62 10000 2.1 230 15:20 01.03.2020
1739 Clouds 14 1004 71 10000 2.1 200 14:57 01.03.2020
1740 Clouds 13 1004 71 10000 2.1 200 14:39 01.03.2020
1741 Clouds 12 1004 71 10000 1.5 200 14:20 01.03.2020
1742 Clouds 13 1005 71 10000 2.6 200 13:56 01.03.2020
1743 Clouds 13 1005 71 10000 2.6 200 13:37 01.03.2020
1744 Clouds 13 1005 82 10000 2.1 250 13:19 01.03.2020
1745 Clouds 12 1006 76 10000 1.5 210 12:43 01.03.2020
1746 Clouds 12 1006 76 10000 1.5 0 12:22 01.03.2020
1747 Rain 11 1006 82 10000 1.5 0 11:58 01.03.2020
1748 Rain 11 1006 82 10000 1.5 0 11:39 01.03.2020
1749 Rain 11 1006 76 10000 1 0 11:19 01.03.2020
1750 Clouds 11 1006 81 10000 1.5 10 10:55 01.03.2020
1751 Clouds 11 1006 81 10000 1.5 10 10:36 01.03.2020
1752 Clouds 10 1006 76 10000 1 340 10:18 01.03.2020
1753 Clouds 11 1006 76 10000 1 20 09:41 01.03.2020
1754 Clouds 10 1007 76 10000 1 0 09:22 01.03.2020
1755 Clouds 10 1006 87 10000 1 0 08:46 01.03.2020
1756 Clouds 9 1006 81 10000 2.6 270 08:27 01.03.2020
1757 Clouds 10 1006 71 10000 3.1 300 07:47 01.03.2020
1758 Clouds 10 1006 76 10000 2.6 330 07:27 01.03.2020
1759 Clouds 10 1006 76 10000 2.6 340 06:58 01.03.2020
1760 Clouds 10 1006 76 10000 2.6 340 06:40 01.03.2020
1761 Clouds 10 1007 76 10000 2.6 330 04:47 01.03.2020
1762 Clouds 10 1008 76 10000 3.1 340 02:58 01.03.2020
1763 Clouds 10 1008 76 10000 2.6 340 02:18 01.03.2020
1764 Clouds 10 1009 76 10000 2.1 350 01:36 01.03.2020
1765 Clouds 10 1009 81 10000 2.6 350 00:49 01.03.2020
1766 Clouds 10 1010 81 10000 4.6 10 00:25 01.03.2020
1767 Rain 10 1010 76 10000 4.6 10 23:58 29.02.2020
1768 Rain 10 1010 76 10000 4.6 10 23:40 29.02.2020
1769 Rain 10 1011 76 10000 3.1 340 23:22 29.02.2020
1770 Clouds 10 1010 76 10000 2.6 340 22:38 29.02.2020
1771 Clouds 11 1010 71 10000 3.6 10 22:20 29.02.2020
1772 Clouds 10 1010 71 10000 3.6 20 21:39 29.02.2020
1773 Clouds 10 1011 71 10000 3.6 350 21:20 29.02.2020
1774 Clouds 10 1011 76 10000 3.1 10 20:42 29.02.2020
1775 Clouds 10 1011 71 10000 3.6 10 20:21 29.02.2020
1776 Rain 10 1011 71 10000 3.6 340 19:55 29.02.2020
1777 Rain 10 1011 71 10000 3.6 340 19:37 29.02.2020
1778 Clouds 10 1011 66 10000 3.1 340 19:18 29.02.2020
1779 Clouds 10 1011 71 10000 3.1 340 18:42 29.02.2020
1780 Rain 11 1012 66 10000 3.1 350 18:23 29.02.2020
1781 Clouds 11 1012 62 10000 3.6 340 17:56 29.02.2020
1782 Clouds 11 1012 62 10000 3.6 340 17:37 29.02.2020
1783 Clouds 11 1012 58 10000 2.6 10 17:19 29.02.2020
1784 Clouds 11 1012 58 10000 4.1 30 16:44 29.02.2020
1785 Clouds 11 1012 50 10000 4.1 10 16:20 29.02.2020
1786 Clouds 11 1013 54 10000 1.5 340 15:57 29.02.2020
1787 Clouds 11 1013 54 10000 1.5 340 15:37 29.02.2020
1788 Clouds 11 1013 54 10000 2.1 330 15:19 29.02.2020
1789 Clouds 11 1014 54 10000 2.6 320 14:40 29.02.2020
1790 Clouds 11 1014 50 10000 3.1 330 14:22 29.02.2020
1791 Clouds 11 1015 50 10000 3.1 320 13:46 29.02.2020
1792 Clouds 11 1015 50 10000 2.6 330 13:27 29.02.2020
1793 Clouds 11 1015 50 10000 3.1 330 12:58 29.02.2020
1794 Clouds 11 1015 50 10000 3.1 330 12:38 29.02.2020
1795 Clouds 10 1016 53 10000 3.6 330 12:20 29.02.2020
1796 Clouds 10 1016 53 10000 3.1 330 11:45 29.02.2020
1797 Clouds 10 1016 53 10000 4.1 330 11:27 29.02.2020
1798 Clouds 10 1016 53 10000 3.6 320 10:55 29.02.2020
1799 Clouds 10 1016 76 10000 1.5 10 10:37 29.02.2020
1800 Clouds 10 1016 76 10000 1.5 10 10:19 29.02.2020
1801 Clouds 10 1016 57 10000 4.1 330 09:47 29.02.2020
1802 Clouds 9 1016 53 10000 4.1 330 09:23 29.02.2020
1803 Clouds 8 1016 57 10000 5.7 330 08:41 29.02.2020
1804 Clouds 7 1016 61 10000 5.7 330 08:21 29.02.2020
1805 Clouds 7 1016 61 10000 5.1 330 07:53 29.02.2020
1806 Clouds 6 1016 61 10000 5.1 330 07:33 29.02.2020
1807 Clouds 6 1017 61 10000 3.6 330 06:57 29.02.2020
1808 Clouds 6 1017 61 10000 3.6 340 06:30 29.02.2020
1809 Clouds 5 1017 61 10000 4.1 340 05:54 29.02.2020
1810 Clouds 5 1017 61 10000 4.1 340 05:33 29.02.2020
1811 Clouds 6 1017 57 10000 4.6 330 04:25 29.02.2020
1812 Clouds 6 1018 57 10000 4.6 330 03:37 29.02.2020
1813 Clouds 6 1018 57 10000 4.1 330 03:18 29.02.2020
1814 Clouds 7 1019 57 10000 3.6 330 02:32 29.02.2020
1815 Clouds 7 1019 57 10000 4.1 330 00:58 29.02.2020
1816 Clouds 7 1019 75 10000 2.1 10 00:36 29.02.2020
1817 Clouds 7 1019 57 10000 4.1 330 23:43 28.02.2020
1818 Clouds 7 1020 57 10000 3.6 330 23:24 28.02.2020
1819 Clouds 7 1020 57 10000 3.6 330 23:24 28.02.2020
1820 Clouds 7 1020 57 10000 3.6 340 22:54 28.02.2020
1821 Clouds 7 1020 57 10000 3.6 340 22:36 28.02.2020
1822 Clouds 7 1020 57 10000 3.1 330 22:18 28.02.2020
1823 Clouds 7 1019 57 10000 3.1 330 21:41 28.02.2020
1824 Clouds 7 1019 57 10000 3.6 320 21:20 28.02.2020
1825 Clouds 7 1019 61 10000 3.6 320 20:41 28.02.2020
1826 Clouds 8 1019 57 10000 2.6 320 20:22 28.02.2020
1827 Clouds 9 1019 62 10000 1.5 220 19:59 28.02.2020
1828 Clouds 9 1019 62 10000 1.5 220 19:39 28.02.2020
1829 Clouds 9 1019 62 10000 1 230 19:21 28.02.2020
1830 Clouds 9 1019 58 10000 2.1 200 18:57 28.02.2020
1831 Clouds 9 1019 58 10000 2.1 200 18:39 28.02.2020
1832 Clouds 10 1019 58 10000 3.1 180 18:20 28.02.2020
1833 Clouds 11 1019 54 10000 3.1 200 17:41 28.02.2020
1834 Clouds 12 1018 50 10000 2.1 190 17:22 28.02.2020
1835 Clear 11 1018 50 10000 3.6 190 16:47 28.02.2020
1836 Clear 13 1018 47 10000 4.6 190 16:21 28.02.2020
1837 Clouds 13 1018 47 10000 5.1 180 15:59 28.02.2020
1838 Clouds 14 1018 47 10000 5.1 180 15:40 28.02.2020
1839 Clouds 13 1018 50 10000 5.1 180 15:20 28.02.2020
1840 Clouds 14 1018 50 10000 5.1 180 14:57 28.02.2020
1841 Clouds 14 1018 50 10000 5.1 180 14:39 28.02.2020
1842 Clouds 13 1018 50 10000 5.1 180 14:19 28.02.2020
1843 Clouds 14 1018 47 10000 4.6 180 13:57 28.02.2020
1844 Clouds 14 1018 47 10000 4.6 180 13:39 28.02.2020
1845 Clouds 13 1018 47 10000 5.1 170 13:19 28.02.2020
1846 Clouds 14 1018 50 10000 5.7 180 12:41 28.02.2020
1847 Clouds 14 1018 54 10000 7.2 170 12:22 28.02.2020
1848 Clouds 14 1018 50 10000 6.7 170 11:43 28.02.2020
1849 Clouds 13 1017 54 10000 5.7 220 11:24 28.02.2020
1850 Clouds 12 1017 47 10000 4.6 230 10:59 28.02.2020
1851 Clouds 13 1017 47 10000 4.6 230 10:39 28.02.2020
1852 Clouds 13 1017 54 10000 2.6 300 10:20 28.02.2020
1853 Clouds 11 1016 40 10000 5.1 320 09:46 28.02.2020
1854 Clear 12 1016 43 10000 5.7 320 09:21 28.02.2020
1855 Clouds 10 1015 43 10000 5.1 320 08:57 28.02.2020
1856 Clouds 8 1015 43 10000 5.1 320 08:37 28.02.2020
1857 Clouds 6 1014 45 10000 5.1 320 08:18 28.02.2020
1858 Clouds 6 1014 54 10000 2.6 30 07:40 28.02.2020
1859 Clouds 9 1013 62 10000 6.7 60 07:20 28.02.2020
1860 Clear 9 1012 62 10000 6.7 60 06:45 28.02.2020
1861 Clear 9 1011 62 10000 5.7 40 06:19 28.02.2020
1862 Clear 9 1008 58 10000 7.2 70 04:35 28.02.2020
1863 Clear 9 1007 47 10000 6.7 70 03:51 28.02.2020
1864 Clear 11 1006 28 10000 3.1 360 02:46 28.02.2020
1865 Clear 11 1006 37 10000 2.1 360 02:27 28.02.2020
1866 Clear 13 1005 37 10000 2.1 30 00:59 28.02.2020
1867 Clear 14 1004 25 10000 2.1 0 00:28 28.02.2020
1868 Clear 13 1004 29 10000 6.7 240 23:42 27.02.2020
1869 Clear 14 1004 41 10000 9.3 240 23:20 27.02.2020
1870 Clear 14 1004 47 10000 9.8 240 22:46 27.02.2020
1871 Clear 11 1004 51 10000 10.8 260 22:26 27.02.2020
1872 Clouds 10 1004 51 10000 10.3 260 21:59 27.02.2020
1873 Clouds 11 1004 51 10000 10.3 260 21:39 27.02.2020
1874 Clouds 10 1005 58 10000 9.3 270 21:19 27.02.2020
1875 Clouds 10 1005 62 10000 7.2 290 20:57 27.02.2020
1876 Clouds 10 1005 62 10000 7.2 290 20:38 27.02.2020
1877 Clouds 9 1005 66 10000 7.2 270 20:20 27.02.2020
1878 Clouds 9 1005 66 10000 7.2 270 20:20 27.02.2020
1879 Clouds 9 1005 66 10000 5.7 260 19:55 27.02.2020
1880 Clouds 9 1005 66 10000 5.7 260 19:37 27.02.2020
1881 Clouds 8 1006 81 10000 6.7 240 19:18 27.02.2020
1882 Clouds 7 1006 76 10000 6.7 250 18:40 27.02.2020
1883 Clouds 7 1007 76 10000 6.7 240 18:22 27.02.2020
1884 Clouds 8 1008 76 10000 5.1 260 17:58 27.02.2020
1885 Clouds 8 1008 76 10000 5.1 260 17:39 27.02.2020
1886 Clouds 8 1008 81 10000 8.2 250 17:19 27.02.2020
1887 Clouds 9 1009 81 10000 7.2 230 16:56 27.02.2020
1888 Clouds 9 1009 71 10000 8.2 230 16:38 27.02.2020
1889 Clouds 10 1009 71 10000 8.2 230 16:18 27.02.2020
1890 Rain 10 1009 71 10000 7.7 230 15:56 27.02.2020
1891 Rain 10 1009 66 10000 9.3 220 15:36 27.02.2020
1892 Rain 10 1009 66 10000 9.3 220 15:18 27.02.2020
1893 Rain 10 1009 66 10000 9.3 220 15:18 27.02.2020
1894 Clouds 10 1009 58 10000 10.8 230 14:42 27.02.2020
1895 Clouds 12 1010 54 10000 10.8 240 14:23 27.02.2020
1896 Clouds 12 1010 50 10000 12.9 230 13:57 27.02.2020
1897 Clouds 12 1010 50 10000 12.9 230 13:39 27.02.2020
1898 Clouds 12 1010 50 10000 12.9 230 13:39 27.02.2020
1899 Clouds 13 1010 47 10000 9.3 250 13:20 27.02.2020
1900 Clouds 13 1011 35 10000 11.3 240 12:45 27.02.2020
1901 Clouds 13 1011 35 10000 11.3 240 12:45 27.02.2020
1902 Clouds 12 1012 35 10000 4.1 240 12:23 27.02.2020
1903 Clouds 11 1012 37 10000 3.1 240 11:58 27.02.2020
1904 Clouds 11 1012 37 10000 3.1 240 11:38 27.02.2020
1905 Clouds 10 1012 29 10000 3.1 260 11:20 27.02.2020
1906 Clouds 9 1013 34 10000 3.1 290 10:43 27.02.2020
1907 Clouds 9 1013 29 10000 4.1 320 10:22 27.02.2020
1908 Clouds 9 1013 29 10000 4.6 320 09:47 27.02.2020
1909 Clouds 8 1013 28 10000 5.1 330 09:29 27.02.2020
1910 Clouds 8 1013 30 10000 5.7 330 08:57 27.02.2020
1911 Clouds 7 1013 30 10000 5.7 330 08:39 27.02.2020
1912 Clouds 4 1012 30 10000 6.7 320 08:19 27.02.2020
1913 Clouds 4 1012 35 10000 3.1 290 07:43 27.02.2020
1914 Clouds 4 1012 33 10000 3.1 340 07:25 27.02.2020
1915 Clouds 4 1012 35 10000 3.6 320 06:42 27.02.2020
1916 Clouds 5 1011 33 10000 5.1 330 05:27 27.02.2020
1917 Clear 4 1012 35 10000 4.1 330 03:35 27.02.2020
1918 Clear 6 1012 38 10000 3.1 320 02:20 27.02.2020
1919 Clear 6 1012 33 10000 3.1 340 00:44 27.02.2020
1920 Clear 6 1011 31 10000 5.1 310 00:24 27.02.2020
1921 Clear 7 1012 36 10000 6.2 270 23:39 26.02.2020
1922 Clear 7 1011 34 10000 6.7 270 23:19 26.02.2020
1923 Clear 7 1012 34 10000 6.2 270 22:57 26.02.2020
1924 Clear 8 1012 34 10000 6.2 270 22:38 26.02.2020
1925 Clear 8 1012 36 10000 4.1 270 22:19 26.02.2020
1926 Clear 8 1011 31 10000 5.1 280 21:55 26.02.2020
1927 Clear 8 1011 31 10000 5.1 280 21:36 26.02.2020
1928 Clear 8 1011 34 10000 3.6 270 21:18 26.02.2020
1929 Clear 8 1010 31 10000 6.7 280 20:54 26.02.2020
1930 Clear 8 1010 31 10000 6.7 280 20:36 26.02.2020
1931 Clouds 8 1010 31 10000 6.7 270 20:18 26.02.2020
1932 Clouds 8 1009 34 10000 8.2 280 19:44 26.02.2020
1933 Clouds 8 1009 29 10000 7.7 280 19:20 26.02.2020
1934 Clouds 9 1008 32 10000 9.3 280 18:58 26.02.2020
1935 Clouds 10 1008 32 10000 9.3 280 18:39 26.02.2020
1936 Clouds 10 1007 32 10000 11.3 280 18:21 26.02.2020
1937 Clouds 10 1006 32 10000 10.8 280 17:42 26.02.2020
1938 Clouds 10 1006 40 10000 13.9 280 17:24 26.02.2020
1939 Clouds 10 1005 28 10000 11.8 290 16:57 26.02.2020
1940 Clouds 10 1005 28 10000 11.8 290 16:39 26.02.2020
1941 Clouds 11 1004 26 10000 13.9 290 16:21 26.02.2020
1942 -273 0 0 0 0 0 16:21 26.02.2020
1943 Clouds 10 1004 28 10000 9.3 290 15:47 26.02.2020
1944 Clouds 10 1004 28 10000 9.8 290 15:29 26.02.2020
1945 Clouds 10 1004 24 10000 11.3 300 14:59 26.02.2020
1946 Clouds 11 1004 24 10000 11.3 300 14:41 26.02.2020
1947 Clouds 12 1003 19 10000 15.4 280 14:22 26.02.2020
1948 Clouds 14 1003 19 10000 15.4 280 13:43 26.02.2020
1949 Clouds 13 1003 18 10000 11.3 290 13:22 26.02.2020
1950 Clouds 13 1004 26 10000 11.8 300 12:42 26.02.2020
1951 Clouds 14 1004 26 10000 11.8 300 12:42 26.02.2020
1952 Clouds 14 1004 30 10000 13.4 300 12:22 26.02.2020
1953 Clouds 15 1003 28 10000 12.3 270 11:59 26.02.2020
1954 Clouds 14 1003 28 10000 12.3 270 11:40 26.02.2020
1955 Clouds 14 1003 28 10000 10.3 280 11:22 26.02.2020
1956 Clouds 14 1003 28 10000 10.3 280 11:22 26.02.2020
1957 Clouds 14 1003 30 10000 9.3 280 10:43 26.02.2020
1958 Clouds 12 1003 45 10000 11.8 280 10:24 26.02.2020
1959 Clouds 12 1003 26 10000 8.7 280 09:59 26.02.2020
1960 Clouds 13 1003 26 10000 8.7 280 09:41 26.02.2020
1961 Clear 13 1003 24 10000 8.7 270 09:21 26.02.2020
1962 Clear 13 1003 24 10000 8.7 270 09:21 26.02.2020
1963 Clear 13 1003 24 10000 8.7 270 09:21 26.02.2020
1964 Clear 13 1003 28 10000 10.3 260 08:54 26.02.2020
1965 Clear 13 1003 28 10000 10.3 260 08:36 26.02.2020
1966 Clear 12 1003 28 10000 9.3 260 08:18 26.02.2020
1967 Clear 11 1003 37 10000 6.7 270 07:41 26.02.2020
1968 Clear 11 1002 50 10000 7.7 230 07:21 26.02.2020
1969 Clouds 12 1003 54 10000 9.3 240 06:46 26.02.2020
1970 Clear 13 1002 37 10000 10.3 260 06:23 26.02.2020
1971 Clear 13 1002 26 10000 8.2 270 05:48 26.02.2020
1972 Clear 12 1002 30 10000 9.8 270 05:18 26.02.2020
1973 Clear 12 1002 47 10000 7.7 280 03:27 26.02.2020
1974 Clouds 13 1003 62 10000 6.2 240 01:58 26.02.2020
1975 Clouds 13 1003 58 10000 4.6 270 01:26 26.02.2020
1976 Clouds 13 1004 58 10000 8.2 240 00:44 26.02.2020
1977 Clouds 13 1004 62 10000 7.7 220 00:20 26.02.2020
1978 Clouds 13 1004 62 10000 9.3 230 23:42 25.02.2020
1979 Clouds 13 1004 54 10000 9.8 240 23:24 25.02.2020
1980 Clouds 13 1005 54 10000 8.7 240 22:57 25.02.2020
1981 Clouds 13 1005 54 10000 8.7 240 22:37 25.02.2020
1982 Clouds 13 1005 54 10000 6.2 250 22:18 25.02.2020
1983 Clouds 14 1005 51 10000 7.7 260 21:38 25.02.2020
1984 Clouds 13 1005 54 10000 8.7 230 21:20 25.02.2020
1985 Clouds 13 1005 54 10000 9.3 230 20:57 25.02.2020
1986 Clouds 12 1005 54 10000 9.3 230 20:39 25.02.2020
1987 Clouds 13 1005 67 10000 1.5 170 20:20 25.02.2020
1988 Clouds 13 1005 82 10000 4.1 90 19:56 25.02.2020
1989 Clouds 13 1005 82 10000 4.1 90 19:38 25.02.2020
1990 Clouds 13 1005 82 10000 4.1 80 19:19 25.02.2020
1991 Clouds 12 1005 76 10000 2.6 50 18:41 25.02.2020
1992 Clouds 12 1005 82 10000 3.1 140 18:21 25.02.2020
1993 Clouds 12 1005 82 10000 3.1 140 18:21 25.02.2020
1994 Clouds 12 1005 71 10000 2.6 70 17:57 25.02.2020
1995 Clouds 13 1005 71 10000 2.6 70 17:37 25.02.2020
1996 Clouds 14 1006 71 10000 2.6 70 17:19 25.02.2020
1997 Clouds 15 1007 71 10000 1.5 0 16:58 25.02.2020
1998 Clouds 15 1007 71 10000 1.5 0 16:39 25.02.2020
1999 Clouds 14 1007 71 10000 1.5 110 16:20 25.02.2020
2000 Clouds 15 1007 71 10000 2.6 80 15:55 25.02.2020
2001 Clouds 15 1007 71 10000 2.6 80 15:37 25.02.2020
2002 Clouds 15 1007 71 10000 2.1 80 15:18 25.02.2020
2003 Clouds 15 1007 71 10000 2.1 80 15:18 25.02.2020
2004 Clouds 15 1008 82 10000 1 0 14:54 25.02.2020
2005 Clouds 15 1008 82 10000 1 0 14:36 25.02.2020
2006 Clouds 14 1008 76 10000 1.5 150 14:18 25.02.2020
2007 Clouds 14 1009 71 10000 3.1 190 13:54 25.02.2020
2008 Clouds 14 1009 71 10000 3.1 190 13:36 25.02.2020
2009 Clouds 14 1010 71 10000 4.1 190 13:18 25.02.2020
2010 Clouds 14 1010 82 10000 4.6 200 12:39 25.02.2020
2011 Clouds 14 1011 82 10000 5.1 190 12:20 25.02.2020
2012 Clouds 14 1011 82 10000 5.1 190 11:56 25.02.2020
2013 Clouds 13 1011 82 10000 5.1 190 11:38 25.02.2020
2014 Clouds 13 1011 67 10000 3.1 220 11:18 25.02.2020
2015 Clouds 12 1012 71 10000 2.1 240 10:56 25.02.2020
2016 Clouds 12 1012 71 10000 2.1 240 10:38 25.02.2020
2017 Clouds 11 1012 71 10000 2.6 320 10:19 25.02.2020
2018 Clouds 10 1012 71 10000 3.6 320 09:40 25.02.2020
2019 Clouds 10 1013 76 10000 2.6 330 09:19 25.02.2020
2020 Clouds 9 1013 76 10000 4.1 330 08:44 25.02.2020
2021 Clouds 8 1013 81 10000 3.6 330 08:25 25.02.2020
2022 Clouds 6 1013 93 10000 1.5 350 07:51 25.02.2020
2023 Clear 6 1013 100 10000 2.1 10 07:25 25.02.2020
2024 Clouds 7 1013 81 10000 3.1 320 06:59 25.02.2020
2025 Clouds 7 1013 87 10000 3.1 310 06:26 25.02.2020
2026 Clouds 8 1014 87 10000 3.1 310 05:24 25.02.2020
2027 Clouds 8 1016 87 10000 0.5 290 02:47 25.02.2020
2028 Clouds 8 1017 87 10000 1 260 01:28 25.02.2020
2029 Clouds 9 1017 87 10000 1 260 00:34 25.02.2020
2030 Clouds 9 1018 87 10000 1.5 270 23:59 24.02.2020
2031 Clouds 9 1018 87 10000 1.5 270 23:39 24.02.2020
2032 Clouds 8 1018 87 10000 2.1 240 23:19 24.02.2020
2033 Clouds 10 1018 87 10000 2.6 240 22:38 24.02.2020
2034 Clouds 10 1018 82 10000 1.5 220 22:19 24.02.2020
2035 Clouds 10 1018 82 10000 1 200 21:57 24.02.2020
2036 Clouds 10 1018 82 10000 1 200 21:39 24.02.2020
2037 Clouds 10 1018 82 10000 1.26 14 21:19 24.02.2020
2038 Clouds 10 1018 82 10000 1 230 20:58 24.02.2020
2039 Clouds 11 1018 82 10000 1 230 20:39 24.02.2020
2040 Clouds 11 1019 82 10000 0.5 0 20:19 24.02.2020
2041 Clouds 11 1019 82 10000 1 0 19:56 24.02.2020
2042 Clouds 12 1019 82 10000 1 0 19:38 24.02.2020
2043 Clouds 12 1019 82 10000 1 230 19:19 24.02.2020
2044 Clouds 12 1019 82 10000 1 200 18:42 24.02.2020
2045 Clouds 12 1019 82 10000 1.5 190 18:24 24.02.2020
2046 Clouds 13 1019 82 10000 1.5 180 17:58 24.02.2020
2047 Clouds 13 1019 82 10000 1.5 180 17:39 24.02.2020
2048 Clouds 14 1019 82 10000 2.1 180 17:20 24.02.2020
2049 Clouds 14 1019 77 10000 2.1 170 16:57 24.02.2020
2050 -273 0 0 0 0 0 16:38 24.02.2020
2051 Clouds 14 1019 77 10000 3.1 190 16:20 24.02.2020
2052 Clouds 15 1020 72 10000 3.6 190 15:57 24.02.2020
2053 Clouds 15 1020 72 10000 3.6 190 15:38 24.02.2020
2054 Clouds 15 1020 77 10000 3.6 190 15:20 24.02.2020
2055 Clouds 15 1020 72 10000 3.6 190 14:55 24.02.2020
2056 Clouds 15 1020 72 10000 3.6 190 14:36 24.02.2020
2057 Clouds 15 1021 72 10000 3.6 180 14:18 24.02.2020
2058 Clouds 15 1021 67 10000 3.1 190 13:41 24.02.2020
2059 Clear 16 1021 59 10000 3.1 160 13:23 24.02.2020
2060 Clouds 16 1022 72 10000 2.6 190 12:59 24.02.2020
2061 Clouds 16 1022 72 10000 2.6 190 12:41 24.02.2020
2062 Clouds 16 1022 72 10000 2.6 190 12:41 24.02.2020
2063 Clouds 16 1022 72 10000 2.6 190 12:23 24.02.2020
2064 Clouds 16 1022 72 10000 2.6 190 12:23 24.02.2020
2065 Clouds 15 1022 67 10000 2.6 190 11:50 24.02.2020
2066 Clouds 16 1022 67 10000 2.6 190 11:32 24.02.2020
2067 Clouds 15 1022 67 10000 2.6 320 10:58 24.02.2020
2068 Clouds 15 1022 67 10000 2.6 320 10:40 24.02.2020
2069 Clouds 13 1022 71 10000 3.6 320 10:22 24.02.2020
2070 Clouds 12 1022 71 10000 4.6 330 09:40 24.02.2020
2071 Clouds 11 1022 76 10000 5.1 330 09:19 24.02.2020
2072 Clouds 11 1022 76 10000 5.1 330 09:19 24.02.2020
2073 Clouds 10 1022 81 10000 5.1 330 08:52 24.02.2020
2074 Clouds 10 1022 81 10000 5.1 330 08:29 24.02.2020
2075 Clouds 9 1022 87 10000 4.1 340 07:56 24.02.2020
2076 Clouds 8 1022 87 10000 4.1 340 07:33 24.02.2020
2077 Clouds 7 1022 87 10000 3.1 350 06:53 24.02.2020
2078 Clouds 8 1022 87 10000 4.1 330 06:26 24.02.2020
2079 Clouds 8 1022 81 10000 3.1 350 05:46 24.02.2020
2080 Clouds 8 1022 81 10000 3.6 350 05:25 24.02.2020
2081 Clouds 8 1023 87 10000 4.1 330 02:58 24.02.2020
2082 Clouds 8 1023 87 10000 4.1 330 02:31 24.02.2020
2083 Clouds 8 1024 87 10000 3.1 330 01:39 24.02.2020
2084 Clouds 9 1024 87 10000 3.6 320 00:50 24.02.2020
2085 Clouds 9 1024 81 10000 3.1 330 00:21 24.02.2020
2086 Clouds 9 1024 81 10000 2.6 320 23:55 23.02.2020
2087 Clouds 9 1025 87 10000 2.6 340 23:36 23.02.2020
2088 Clouds 10 1025 87 10000 2.6 340 23:18 23.02.2020
2089 Clouds 9 1025 87 10000 3.1 320 22:43 23.02.2020
2090 Clouds 9 1025 87 10000 2.6 330 22:22 23.02.2020
2091 Clouds 10 1025 87 10000 3.1 320 21:58 23.02.2020
2092 Clouds 10 1025 87 10000 3.1 320 21:39 23.02.2020
2093 Clouds 10 1025 81 10000 1.5 320 21:19 23.02.2020
2094 Clouds 11 1025 82 10000 2.1 20 20:55 23.02.2020
2095 Clouds 10 1025 82 10000 2.1 20 20:37 23.02.2020
2096 Clouds 10 1025 87 10000 1.5 20 20:19 23.02.2020
2097 Clouds 10 1025 87 10000 1 0 19:54 23.02.2020
2098 Clouds 10 1025 87 10000 1 0 19:36 23.02.2020
2099 Clouds 11 1025 82 10000 6.7 80 19:18 23.02.2020
2100 Clouds 12 1025 82 10000 6.7 80 18:41 23.02.2020
2101 Clouds 12 1025 82 10000 6.2 80 18:21 23.02.2020
2102 Clouds 13 1025 82 10000 7.2 80 17:59 23.02.2020
2103 Clouds 13 1025 76 10000 7.2 80 17:41 23.02.2020
2104 Clouds 14 1025 76 10000 7.2 80 17:21 23.02.2020
2105 Clouds 14 1025 72 10000 7.7 90 16:58 23.02.2020
2106 Clouds 14 1025 72 10000 7.7 90 16:39 23.02.2020
2107 Clouds 14 1025 72 10000 6.2 90 16:21 23.02.2020
2108 Clouds 15 1025 72 10000 5.1 90 15:55 23.02.2020
2109 Clouds 15 1025 72 10000 5.1 90 15:37 23.02.2020
2110 Clouds 15 1026 62 10000 5.1 90 15:19 23.02.2020
2111 Clouds 15 1026 62 10000 3.6 90 14:55 23.02.2020
2112 Clouds 15 1026 62 10000 3.6 90 14:55 23.02.2020
2113 Clouds 15 1026 62 10000 3.6 90 14:37 23.02.2020
2114 Clouds 15 1027 67 10000 3.1 90 14:19 23.02.2020
2115 Clouds 15 1027 67 10000 1.5 90 13:55 23.02.2020
2116 Clouds 15 1027 67 10000 1.5 90 13:36 23.02.2020
2117 Clouds 15 1028 67 10000 1 0 13:18 23.02.2020
2118 Clouds 15 1028 71 10000 1.5 140 12:40 23.02.2020
2119 Clouds 14 1028 71 10000 2.6 160 12:20 23.02.2020
2120 Clouds 14 1029 67 10000 3.1 130 11:39 23.02.2020
2121 Clouds 13 1029 76 10000 3.1 60 11:20 23.02.2020
2122 Clouds 13 1029 76 10000 3.1 60 11:20 23.02.2020
2123 Clouds 12 1029 62 10000 2.6 320 10:58 23.02.2020
2124 Clouds 12 1029 62 10000 2.6 320 10:40 23.02.2020
2125 Clouds 11 1029 62 10000 3.6 320 10:22 23.02.2020
2126 Clouds 10 1029 66 10000 4.1 320 09:56 23.02.2020
2127 Clouds 10 1029 66 10000 4.1 320 09:38 23.02.2020
2128 Clouds 9 1029 66 10000 4.6 320 09:18 23.02.2020
2129 Clouds 8 1029 70 10000 5.1 320 08:50 23.02.2020
2130 Clouds 7 1029 75 10000 5.1 320 08:29 23.02.2020
2131 Clouds 7 1029 75 10000 4.1 320 07:48 23.02.2020
2132 Clouds 6 1029 75 10000 4.1 320 07:29 23.02.2020
2133 Clouds 7 1029 75 10000 4.1 330 06:25 23.02.2020
2134 Clouds 7 1029 75 10000 3.6 330 05:39 23.02.2020
2135 Clouds 7 1029 76 10000 4.1 330 04:24 23.02.2020
2136 Clouds 7 1030 76 10000 4.1 330 02:53 23.02.2020
2137 Clouds 7 1031 76 10000 3.1 330 01:47 23.02.2020
2138 Clear 8 1031 76 10000 3.1 320 01:22 23.02.2020
2139 Clear 8 1031 76 10000 2.1 320 00:45 23.02.2020
2140 Clear 8 1031 76 10000 3.1 330 00:23 23.02.2020
2141 Clear 8 1032 76 10000 3.6 330 23:44 22.02.2020
2142 Clear 8 1032 76 10000 3.1 330 23:25 22.02.2020
2143 Clear 8 1032 76 10000 4.1 320 22:55 22.02.2020
2144 Clear 8 1032 76 10000 4.1 320 22:36 22.02.2020
2145 Clear 8 1032 76 10000 2.6 330 22:18 22.02.2020
2146 Clear 8 1032 71 10000 3.6 320 21:40 22.02.2020
2147 Clear 9 1032 76 10000 3.1 320 21:21 22.02.2020
2148 Clear 9 1032 81 10000 2.6 320 20:43 22.02.2020
2149 Clouds 9 1032 82 10000 1.5 220 20:24 22.02.2020
2150 Clouds 10 1032 82 10000 1.5 220 19:54 22.02.2020
2151 Clouds 10 1032 82 10000 1.5 220 19:54 22.02.2020
2152 Clouds 10 1032 82 10000 1.5 220 19:36 22.02.2020
2153 Clear 10 1032 82 10000 2.6 210 19:18 22.02.2020
2154 Clear 10 1032 82 10000 2.6 210 19:18 22.02.2020
2155 Clear 11 1031 82 10000 2.6 210 18:39 22.02.2020
2156 Clear 12 1031 76 10000 2.6 200 18:21 22.02.2020
2157 Clear 12 1031 76 10000 2.6 200 18:21 22.02.2020
2158 Clear 12 1031 76 10000 2.6 200 18:21 22.02.2020
2159 Clear 13 1031 76 10000 1.5 180 17:57 22.02.2020
2160 Clear 13 1031 76 10000 1.5 180 17:38 22.02.2020
2161 Clear 13 1031 72 10000 1.5 190 17:19 22.02.2020
2162 Clear 14 1031 72 10000 1.5 0 16:56 22.02.2020
2163 Clear 14 1031 72 10000 1.5 0 16:38 22.02.2020
2164 Clear 14 1031 72 10000 2.1 190 16:19 22.02.2020
2165 Clear 14 1031 72 10000 2.1 170 15:43 22.02.2020
2166 Clear 14 1031 72 10000 2.6 180 15:24 22.02.2020
2167 Clear 15 1031 72 10000 2.6 180 14:43 22.02.2020
2168 Clear 15 1031 72 10000 2.6 180 14:43 22.02.2020
2169 Clear 15 1032 72 10000 2.6 180 14:23 22.02.2020
2170 Clouds 15 1032 72 10000 3.1 180 13:58 22.02.2020
2171 Clouds 15 1032 72 10000 3.1 180 13:40 22.02.2020
2172 Clouds 15 1032 72 10000 3.1 170 13:18 22.02.2020
2173 Clouds 15 1032 67 10000 2.6 190 12:42 22.02.2020
2174 Clouds 14 1032 58 10000 2.1 170 12:23 22.02.2020
2175 Clouds 14 1032 72 10000 2.6 160 11:48 22.02.2020
2176 Clouds 14 1032 62 10000 1.5 110 11:29 22.02.2020
2177 Clouds 14 1031 50 10000 2.1 330 10:58 22.02.2020
2178 Clouds 14 1031 50 10000 2.1 330 10:40 22.02.2020
2179 Clouds 13 1031 50 10000 3.1 330 10:19 22.02.2020
2180 Clouds 12 1031 57 10000 3.6 330 09:57 22.02.2020
2181 Clouds 12 1031 57 10000 3.6 330 09:38 22.02.2020
2182 Clouds 11 1031 61 10000 4.1 330 09:20 22.02.2020
2183 Clouds 10 1030 66 10000 4.6 330 08:46 22.02.2020
2184 Clouds 8 1030 70 10000 5.1 330 08:27 22.02.2020
2185 Clouds 7 1029 70 10000 5.1 330 07:48 22.02.2020
2186 Clouds 6 1029 70 10000 4.6 330 07:19 22.02.2020
2187 Clouds 6 1029 75 10000 4.6 330 06:47 22.02.2020
2188 Clouds 6 1029 75 10000 4.6 330 06:29 22.02.2020
2189 Clouds 8 1028 76 10000 3.6 320 04:33 22.02.2020
2190 Clouds 8 1028 81 10000 3.1 320 03:22 22.02.2020
2191 Clear 8 1027 81 10000 3.6 320 02:29 22.02.2020
2192 Clouds 8 1027 81 10000 2.6 330 01:45 22.02.2020
2193 Clouds 8 1027 81 10000 2.6 330 01:45 22.02.2020
2194 Clouds 8 1027 76 10000 3.1 330 01:25 22.02.2020
2195 Clouds 8 1027 81 10000 3.6 330 00:45 22.02.2020
2196 Clouds 8 1027 81 10000 3.1 330 00:26 22.02.2020
2197 Clouds 8 1027 81 10000 3.1 320 23:47 21.02.2020
2198 Clouds 8 1027 81 10000 3.1 320 23:22 21.02.2020
2199 Clouds 8 1027 81 10000 2.6 320 22:55 21.02.2020
2200 Clouds 9 1027 81 10000 2.6 320 22:37 21.02.2020
2201 Clouds 8 1026 81 10000 2.1 330 22:18 21.02.2020
2202 Clouds 8 1026 81 10000 2.1 360 21:42 21.02.2020
2203 Clouds 9 1026 81 10000 2.1 330 21:23 21.02.2020
2204 Clouds 8 1026 81 10000 2.1 330 21:23 21.02.2020
2205 Clouds 9 1026 81 10000 2.1 330 21:23 21.02.2020
2206 Clouds 9 1026 81 10000 3.1 320 20:49 21.02.2020
2207 Clouds 9 1025 81 10000 1.5 90 20:29 21.02.2020
2208 Clouds 9 1025 76 10000 1.5 100 19:57 21.02.2020
2209 Clouds 9 1025 76 10000 1.5 100 19:37 21.02.2020
2210 Clouds 11 1025 76 10000 2.6 100 19:18 21.02.2020
2211 Clouds 10 1025 82 10000 3.6 90 18:40 21.02.2020
2212 Clouds 11 1024 76 10000 3.6 90 18:22 21.02.2020
2213 Clouds 11 1024 76 10000 4.6 90 17:41 21.02.2020
2214 Clouds 13 1024 76 10000 4.1 90 17:23 21.02.2020
2215 Clouds 13 1024 71 10000 4.1 100 16:58 21.02.2020
2216 Clouds 13 1024 71 10000 4.1 100 16:40 21.02.2020
2217 Clouds 14 1024 67 10000 4.1 110 16:21 21.02.2020
2218 Clouds 14 1024 72 10000 4.1 120 15:56 21.02.2020
2219 Clouds 14 1024 72 10000 4.1 120 15:38 21.02.2020
2220 Clouds 15 1024 67 10000 4.1 110 15:18 21.02.2020
2221 Clouds 14 1023 67 10000 4.6 90 14:42 21.02.2020
2222 Clouds 14 1023 67 10000 4.6 100 14:19 21.02.2020
2223 Clouds 14 1024 72 10000 4.1 100 13:44 21.02.2020
2224 Clouds 14 1024 67 10000 4.6 90 13:24 21.02.2020
2225 Clouds 15 1024 67 10000 4.1 80 12:55 21.02.2020
2226 Clouds 15 1024 67 10000 4.1 80 12:37 21.02.2020
2227 Clouds 14 1024 67 10000 4.6 90 12:18 21.02.2020
2228 Clouds 14 1024 67 10000 4.1 90 11:42 21.02.2020
2229 Clouds 12 1024 47 10000 2.6 0 11:22 21.02.2020
2230 Clouds 11 1024 50 10000 4.6 320 10:57 21.02.2020
2231 Clouds 11 1024 50 10000 4.6 320 10:39 21.02.2020
2232 Clouds 11 1024 50 10000 4.6 320 10:39 21.02.2020
2233 Clouds 11 1023 53 10000 5.7 320 10:19 21.02.2020
2234 Clouds 10 1023 57 10000 6.2 320 09:57 21.02.2020
2235 Clouds 11 1023 57 10000 6.2 320 09:38 21.02.2020
2236 Clouds 9 1023 65 10000 6.2 330 09:19 21.02.2020
2237 Clouds 8 1023 70 10000 5.1 330 08:43 21.02.2020
2238 Clouds 6 1023 65 10000 6.7 320 08:22 21.02.2020
2239 Clouds 6 1022 70 10000 5.7 330 07:59 21.02.2020
2240 Clouds 5 1022 70 10000 5.7 330 07:41 21.02.2020
2241 Clouds 5 1022 75 10000 5.7 330 07:20 21.02.2020
2242 Clouds 5 1022 75 10000 6.7 330 06:55 21.02.2020
2243 Clouds 5 1022 75 10000 6.2 330 06:31 21.02.2020
2244 Clouds 5 1021 70 10000 6.2 330 05:55 21.02.2020
2245 Clouds 6 1021 70 10000 3.6 330 04:39 21.02.2020
2246 Clouds 6 1022 70 10000 3.6 330 04:20 21.02.2020
2247 Clouds 6 1022 70 10000 5.1 330 03:46 21.02.2020
2248 Clouds 6 1022 70 10000 4.6 320 02:58 21.02.2020
2249 Clouds 7 1023 70 10000 3.1 330 01:29 21.02.2020
2250 Clouds 7 1023 76 10000 3.1 330 00:46 21.02.2020
2251 Clouds 7 1023 71 10000 3.1 330 00:24 21.02.2020
2252 Clouds 7 1023 76 10000 3.1 330 23:58 20.02.2020
2253 Clouds 7 1023 76 10000 3.1 330 23:39 20.02.2020
2254 Clouds 7 1024 76 10000 2.6 320 23:21 20.02.2020
2255 Clouds 7 1024 81 10000 2.1 330 22:40 20.02.2020
2256 Clouds 7 1024 81 10000 2.6 320 22:21 20.02.2020
2257 Clouds 7 1024 76 10000 3.1 320 21:57 20.02.2020
2258 Clouds 7 1024 76 10000 3.1 320 21:39 20.02.2020
2259 Clouds 7 1024 76 10000 3.1 320 21:39 20.02.2020
2260 Clouds 7 1024 87 10000 1 0 21:19 20.02.2020
2261 Clouds 7 1024 87 10000 1 0 21:19 20.02.2020
2262 Clouds 7 1024 81 10000 2.1 320 20:56 20.02.2020
2263 Clouds 7 1024 81 10000 2.1 320 20:38 20.02.2020
2264 Clouds 8 1024 71 10000 2.88 69 20:19 20.02.2020
2265 Clear 8 1024 71 10000 1 140 19:58 20.02.2020
2266 Clear 8 1024 71 10000 1 140 19:40 20.02.2020
2267 Clear 9 1024 76 10000 1 0 19:22 20.02.2020
2268 Clear 11 1024 71 10000 1 0 18:55 20.02.2020
2269 Clear 10 1024 71 10000 1 0 18:36 20.02.2020
2270 Clouds 10 1024 67 10000 1.5 130 18:18 20.02.2020
2271 Clouds 12 1024 71 10000 2.1 140 17:39 20.02.2020
2272 Clouds 13 1024 71 10000 2.6 130 17:19 20.02.2020
2273 Clouds 13 1024 67 10000 2.1 110 16:56 20.02.2020
2274 Clouds 13 1024 67 10000 2.1 110 16:38 20.02.2020
2275 Clouds 13 1024 67 10000 2.1 110 16:19 20.02.2020
2276 Clouds 14 1024 67 10000 2.6 110 15:43 20.02.2020
2277 Clouds 14 1024 67 10000 3.6 110 15:24 20.02.2020
2278 Clouds 14 1024 62 10000 4.1 100 14:58 20.02.2020
2279 Clouds 14 1024 62 10000 4.1 100 14:40 20.02.2020
2280 Clear 14 1024 67 10000 5.1 90 14:21 20.02.2020
2281 Clear 14 1024 67 10000 5.7 100 13:55 20.02.2020
2282 Clear 14 1024 67 10000 5.7 100 13:37 20.02.2020
2283 Clear 14 1025 67 10000 6.2 100 13:18 20.02.2020
2284 Clear 14 1025 67 10000 6.2 100 13:18 20.02.2020
2285 Clear 14 1025 58 10000 5.1 90 12:42 20.02.2020
2286 Clear 14 1025 58 10000 5.1 90 12:21 20.02.2020
2287 Clear 15 1025 47 10000 5.1 90 11:58 20.02.2020
2288 Clear 14 1025 47 10000 5.1 90 11:39 20.02.2020
2289 Clear 14 1025 41 10000 4.1 80 11:21 20.02.2020
2290 Clear 12 1025 33 10000 2.6 320 10:56 20.02.2020
2291 Clear 11 1025 33 10000 2.6 320 10:38 20.02.2020
2292 Clear 12 1024 37 10000 4.1 330 10:19 20.02.2020
2293 Clear 11 1024 40 10000 5.1 330 09:39 20.02.2020
2294 Clear 11 1024 40 10000 5.1 330 09:39 20.02.2020
2295 Clear 9 1024 43 10000 4.1 340 09:21 20.02.2020
2296 Clear 8 1024 42 10000 5.1 340 08:44 20.02.2020
2297 Clouds 6 1024 45 10000 4.6 340 08:24 20.02.2020
2298 Clouds 7 1023 49 10000 4.6 340 07:56 20.02.2020
2299 Clouds 7 1023 49 10000 4.6 340 07:38 20.02.2020
2300 Clouds 6 1023 49 10000 4.6 330 07:19 20.02.2020
2301 Clouds 6 1023 49 10000 5.1 330 06:43 20.02.2020
2302 Clouds 6 1022 49 10000 5.1 330 06:20 20.02.2020
2303 Clouds 6 1022 45 10000 4.6 330 05:43 20.02.2020
2304 Clouds 6 1022 49 10000 4.1 330 04:50 20.02.2020
2305 Clouds 7 1022 49 10000 4.1 330 03:47 20.02.2020
2306 Clouds 7 1022 49 10000 4.6 320 02:59 20.02.2020
2307 Clear 8 1021 57 10000 6.47 60 01:34 20.02.2020
2308 Clear 9 1021 57 10000 6.47 60 00:56 20.02.2020
2309 Clear 8 1021 57 10000 2.1 310 00:26 20.02.2020
2310 Clear 8 1021 76 10000 2.1 320 23:49 19.02.2020
2311 Clear 8 1020 81 10000 1.5 290 23:22 19.02.2020
2312 Clear 9 1020 71 10000 1 0 22:44 19.02.2020
2313 Clear 9 1020 66 10000 1.5 20 22:26 19.02.2020
2314 Clear 9 1019 66 10000 2.1 320 21:59 19.02.2020
2315 Clear 9 1019 66 10000 2.1 320 21:41 19.02.2020
2316 Clear 9 1019 71 10000 2.6 320 21:19 19.02.2020
2317 Clear 10 1019 66 10000 4.1 340 20:58 19.02.2020
2318 Clear 10 1019 66 10000 4.1 340 20:39 19.02.2020
2319 Clouds 10 1019 71 10000 2.1 320 20:20 19.02.2020
2320 Clouds 11 1019 71 10000 1.5 0 19:58 19.02.2020
2321 Clouds 11 1019 71 10000 1.5 0 19:39 19.02.2020
2322 Clouds 11 1019 76 10000 2.6 70 19:20 19.02.2020
2323 Clouds 11 1019 76 10000 3.1 80 18:58 19.02.2020
2324 Clouds 9 1019 76 10000 3.1 80 18:40 19.02.2020
2325 Clouds 9 1018 76 10000 3.1 90 18:22 19.02.2020
2326 Clouds 10 1018 71 10000 2.6 90 17:59 19.02.2020
2327 Clouds 10 1018 71 10000 2.6 90 17:41 19.02.2020
2328 Clouds 14 1018 67 10000 2.1 90 17:19 19.02.2020
2329 Clouds 14 1018 62 10000 2.6 90 16:43 19.02.2020
2330 Clouds 14 1019 67 10000 2.1 130 16:19 19.02.2020
2331 Clouds 14 1019 62 10000 2.1 110 15:57 19.02.2020
2332 Clouds 14 1019 62 10000 2.1 110 15:38 19.02.2020
2333 Clouds 14 1019 67 10000 1.5 120 15:20 19.02.2020
2334 Clouds 13 1019 62 10000 1.5 110 14:41 19.02.2020
2335 Clouds 14 1020 58 10000 1.5 140 14:23 19.02.2020
2336 Clouds 14 1021 62 10000 2.6 150 13:56 19.02.2020
2337 Clouds 14 1021 62 10000 3.6 130 13:37 19.02.2020
2338 Clouds 14 1021 62 10000 3.6 130 13:18 19.02.2020
2339 Clouds 14 1022 62 10000 2.6 120 12:39 19.02.2020
2340 Clouds 14 1022 58 10000 1.5 160 12:19 19.02.2020
2341 Clouds 14 1022 50 10000 2.1 180 11:55 19.02.2020
2342 Clouds 14 1022 50 10000 2.1 180 11:37 19.02.2020
2343 Clouds 12 1022 62 10000 1.5 100 11:18 19.02.2020
2344 Clouds 11 1022 54 10000 1 0 10:56 19.02.2020
2345 Clouds 11 1022 54 10000 1 0 10:37 19.02.2020
2346 Clouds 11 1022 43 10000 3.6 340 10:18 19.02.2020
2347 Clouds 11 1022 50 10000 4.1 310 09:54 19.02.2020
2348 Clouds 10 1022 53 10000 4.1 330 09:36 19.02.2020
2349 Clouds 11 1022 53 10000 4.1 330 09:18 19.02.2020
2350 Clouds 9 1021 57 10000 3.1 330 08:42 19.02.2020
2351 Clouds 9 1021 57 10000 3.1 330 08:42 19.02.2020
2352 Clouds 6 1021 57 10000 4.6 330 08:23 19.02.2020
2353 Clear 5 1021 61 10000 5.1 340 07:41 19.02.2020
2354 Clear 5 1021 61 10000 5.7 330 07:20 19.02.2020
2355 Clear 4 1021 61 10000 6.7 320 06:47 19.02.2020
2356 Clear 4 1021 61 10000 5.1 330 06:19 19.02.2020
2357 Clouds 6 1021 61 10000 4.6 320 04:18 19.02.2020
2358 Clear 7 1022 66 10000 4.1 330 02:52 19.02.2020
2359 Clear 7 1023 66 10000 3.6 340 02:29 19.02.2020
2360 Clear 7 1023 70 10000 3.6 330 01:23 19.02.2020
2361 Clear 8 1023 70 10000 3.6 330 00:47 19.02.2020
2362 Clear 7 1024 66 10000 3.6 330 00:28 19.02.2020
2363 Clear 8 1024 66 10000 3.6 330 23:42 18.02.2020
2364 Clear 8 1024 66 10000 4.1 330 23:20 18.02.2020
2365 Clear 8 1024 71 10000 3.6 330 22:56 18.02.2020
2366 Clear 9 1024 71 10000 3.6 330 22:37 18.02.2020
2367 Clear 8 1024 71 10000 3.6 330 22:37 18.02.2020
2368 Clear 7 1024 71 10000 3.6 330 22:19 18.02.2020
2369 Clear 9 1024 66 10000 3.6 330 21:55 18.02.2020
2370 Clear 9 1024 66 10000 3.6 330 21:37 18.02.2020
2371 Clear 9 1024 71 10000 3.1 330 21:18 18.02.2020
2372 Clear 8 1024 71 10000 2.6 330 20:56 18.02.2020
2373 Clear 8 1024 71 10000 2.6 330 20:56 18.02.2020
2374 Clear 9 1024 71 10000 2.6 330 20:37 18.02.2020
2375 Clear 10 1024 76 10000 2.6 30 20:19 18.02.2020
2376 Clear 10 1024 82 10000 4.1 70 19:42 18.02.2020
2377 Clear 11 1023 76 10000 3.6 80 19:20 18.02.2020
2378 Clear 13 1023 76 10000 3.6 90 18:59 18.02.2020
2379 Clear 12 1023 76 10000 3.6 90 18:59 18.02.2020
2380 Clear 13 1023 76 10000 3.6 90 18:40 18.02.2020
2381 Clear 14 1022 41 10000 1.5 240 18:20 18.02.2020
2382 Clear 14 1023 67 10000 4.1 90 17:55 18.02.2020
2383 Clear 14 1023 59 10000 3.1 130 17:36 18.02.2020
2384 Clear 15 1023 59 10000 3.1 130 17:18 18.02.2020
2385 Clear 15 1023 72 10000 4.6 150 16:39 18.02.2020
2386 Clouds 15 1023 72 10000 4.6 160 16:19 18.02.2020
2387 Clouds 15 1023 67 10000 5.1 170 15:40 18.02.2020
2388 Clouds 15 1023 67 10000 4.6 180 15:20 18.02.2020
2389 Clouds 16 1023 63 10000 4.1 180 14:57 18.02.2020
2390 Clouds 16 1023 63 10000 4.1 180 14:57 18.02.2020
2391 Clouds 16 1023 63 10000 4.1 180 14:39 18.02.2020
2392 Clouds 16 1023 67 10000 4.6 200 14:20 18.02.2020
2393 Clouds 16 1024 67 10000 4.6 200 13:42 18.02.2020
2394 Clouds 16 1024 67 10000 5.1 200 13:23 18.02.2020
2395 Clouds 16 1024 72 10000 3.6 190 12:59 18.02.2020
2396 Clouds 16 1024 72 10000 3.6 190 12:59 18.02.2020
2397 Clouds 16 1024 72 10000 3.6 190 12:40 18.02.2020
2398 Clouds 15 1024 72 10000 3.1 180 12:22 18.02.2020
2399 Clouds 15 1024 62 10000 2.1 190 11:46 18.02.2020
2400 Clouds 14 1024 51 10000 2.6 320 11:26 18.02.2020
2401 Clouds 12 1024 50 10000 4.1 320 10:58 18.02.2020
2402 Clouds 13 1024 50 10000 4.1 320 10:39 18.02.2020
2403 Clouds 13 1024 62 10000 4.1 320 10:18 18.02.2020
2404 Clouds 12 1024 66 10000 4.6 330 09:56 18.02.2020
2405 Clouds 12 1024 66 10000 4.6 330 09:37 18.02.2020
2406 Clouds 11 1023 71 10000 5.1 320 09:19 18.02.2020
2407 Clouds 10 1023 81 10000 4.1 330 08:44 18.02.2020
2408 Clouds 10 1023 81 10000 5.1 330 08:21 18.02.2020
2409 Clouds 9 1022 81 10000 4.6 320 07:59 18.02.2020
2410 Clouds 10 1022 81 10000 4.6 320 07:41 18.02.2020
2411 Clouds 10 1022 81 10000 4.1 330 07:22 18.02.2020
2412 Clouds 9 1021 81 10000 4.6 320 06:43 18.02.2020
2413 Clouds 9 1021 87 10000 4.1 320 06:25 18.02.2020
2414 Clouds 8 1021 87 10000 4.6 320 05:47 18.02.2020
2415 Clouds 9 1021 87 10000 3.6 320 04:52 18.02.2020
2416 Clouds 9 1020 87 10000 2.6 360 03:38 18.02.2020
2417 Clouds 9 1020 87 10000 2.1 350 02:54 18.02.2020
2418 Clouds 9 1021 93 10000 1 0 01:25 18.02.2020
2419 Clouds 10 1021 87 10000 2.6 330 00:22 18.02.2020
2420 Clouds 10 1021 87 10000 2.6 330 00:22 18.02.2020
2421 Clouds 10 1022 87 10000 2.1 340 23:58 17.02.2020
2422 Clouds 10 1022 87 10000 2.1 340 23:38 17.02.2020
2423 Clouds 10 1022 87 10000 1.5 320 23:19 17.02.2020
2424 Clouds 10 1022 93 10000 2.1 310 22:57 17.02.2020
2425 Clouds 10 1022 93 10000 2.1 310 22:38 17.02.2020
2426 Clouds 11 1022 87 10000 1.5 230 22:18 17.02.2020
2427 Clouds 10 1023 93 10000 3.1 220 21:39 17.02.2020
2428 Clouds 10 1023 87 10000 5.1 220 21:19 17.02.2020
2429 Clouds 10 1023 87 10000 5.7 220 20:55 17.02.2020
2430 Clouds 11 1023 87 10000 5.7 220 20:36 17.02.2020
2431 Clouds 11 1023 87 10000 5.7 220 20:36 17.02.2020
2432 Clouds 11 1023 87 10000 7.2 220 20:18 17.02.2020
2433 Clouds 11 1023 87 10000 7.2 220 19:42 17.02.2020
2434 Clouds 11 1023 87 10000 7.7 220 19:21 17.02.2020
2435 Clouds 12 1023 87 10000 6.2 220 18:55 17.02.2020
2436 Clouds 12 1023 87 10000 6.2 220 18:36 17.02.2020
2437 Clouds 12 1023 87 10000 7.7 220 18:36 17.02.2020
2438 Clouds 12 1023 87 10000 6.2 220 18:36 17.02.2020
2439 Clouds 12 1023 87 10000 7.7 220 18:18 17.02.2020
2440 Clouds 12 1022 82 10000 8.2 210 17:38 17.02.2020
2441 Clouds 12 1022 82 10000 8.2 210 17:19 17.02.2020
2442 Clouds 12 1023 82 10000 7.7 220 16:58 17.02.2020
2443 Clouds 12 1023 82 10000 7.7 220 16:40 17.02.2020
2444 Clouds 13 1023 77 10000 8.2 230 16:22 17.02.2020
2445 Clouds 13 1023 77 10000 9.8 220 15:46 17.02.2020
2446 Clouds 13 1023 77 10000 9.8 220 15:46 17.02.2020
2447 Clouds 13 1023 77 10000 8.7 220 15:27 17.02.2020
2448 Clouds 13 1023 77 10000 8.7 220 14:58 17.02.2020
2449 Clouds 13 1023 77 10000 8.7 220 14:40 17.02.2020
2450 Clouds 13 1024 77 10000 7.2 220 14:22 17.02.2020
2451 Clouds 13 1024 77 10000 7.2 220 14:22 17.02.2020
2452 Clouds 13 1025 77 10000 6.7 220 13:56 17.02.2020
2453 Clouds 13 1025 77 10000 6.7 220 13:38 17.02.2020
2454 Clouds 13 1025 77 10000 5.7 220 13:18 17.02.2020
2455 Clouds 13 1026 72 10000 3.1 270 12:43 17.02.2020
2456 Clouds 13 1026 76 10000 2.1 220 12:24 17.02.2020
2457 Clouds 13 1026 76 10000 1.5 0 11:58 17.02.2020
2458 Clouds 12 1026 76 10000 1.5 0 11:39 17.02.2020
2459 Clouds 11 1027 71 10000 2.6 320 11:20 17.02.2020
2460 Clouds 11 1027 76 10000 3.6 320 10:54 17.02.2020
2461 Clouds 11 1027 71 10000 5.1 320 10:36 17.02.2020
2462 Clouds 11 1027 71 10000 5.1 320 10:18 17.02.2020
2463 Clouds 11 1027 71 10000 5.1 320 09:41 17.02.2020
2464 Clouds 11 1026 76 10000 5.1 320 09:21 17.02.2020
2465 Clouds 11 1026 76 10000 5.1 320 09:21 17.02.2020
2466 Rain 10 1026 81 10000 5.1 320 08:57 17.02.2020
2467 Rain 10 1026 81 10000 5.7 330 08:39 17.02.2020
2468 Rain 9 1026 81 10000 5.7 330 08:19 17.02.2020
2469 Rain 8 1026 81 10000 4.6 320 07:44 17.02.2020
2470 Rain 9 1026 81 10000 4.1 320 07:24 17.02.2020
2471 Clouds 9 1026 76 10000 4.6 320 06:52 17.02.2020
2472 Clouds 8 1026 76 10000 4.1 320 06:32 17.02.2020
2473 Clouds 9 1027 76 10000 4.6 320 05:56 17.02.2020
2474 Clouds 9 1027 76 10000 4.6 320 05:37 17.02.2020
2475 Clouds 8 1027 87 10000 3.6 330 03:21 17.02.2020
2476 Clouds 8 1028 87 10000 4.1 320 01:58 17.02.2020
2477 Clouds 9 1028 87 10000 3.6 320 00:48 17.02.2020
2478 Clouds 9 1028 87 10000 4.1 320 00:22 17.02.2020
2479 Clouds 9 1028 87 10000 3.6 320 23:53 16.02.2020
2480 Clouds 9 1028 87 10000 3.6 320 23:32 16.02.2020
2481 Clouds 9 1028 87 10000 4.1 320 22:58 16.02.2020
2482 Clouds 9 1028 87 10000 4.1 320 22:39 16.02.2020
2483 Clouds 9 1028 87 10000 3.1 320 22:21 16.02.2020
2484 Clouds 9 1028 87 10000 3.1 320 21:58 16.02.2020
2485 Clouds 9 1028 87 10000 3.1 320 21:40 16.02.2020
2486 Clouds 9 1028 81 10000 2.1 320 21:22 16.02.2020
2487 Clouds 9 1028 81 10000 2.1 320 20:58 16.02.2020
2488 Clouds 9 1028 81 10000 2.1 320 20:39 16.02.2020
2489 Clouds 10 1028 76 10000 1.5 30 20:21 16.02.2020
2490 Clouds 10 1028 81 10000 2.1 30 19:58 16.02.2020
2491 Clouds 11 1028 81 10000 2.1 30 19:38 16.02.2020
2492 Clouds 11 1028 76 10000 1.5 40 19:19 16.02.2020
2493 Clouds 11 1028 82 10000 0.5 0 18:45 16.02.2020
2494 Clouds 11 1028 76 10000 1 0 18:26 16.02.2020
2495 Clouds 11 1028 76 10000 1.5 200 17:58 16.02.2020
2496 Clouds 12 1028 76 10000 1.5 200 17:40 16.02.2020
2497 Clouds 12 1028 71 10000 1.5 180 17:19 16.02.2020
2498 Clouds 12 1028 71 10000 2.6 180 16:56 16.02.2020
2499 Clouds 13 1028 71 10000 2.6 180 16:37 16.02.2020
2500 Clouds 13 1028 71 10000 2.1 190 16:19 16.02.2020
2501 Clouds 13 1028 71 10000 2.6 170 15:41 16.02.2020
2502 Clouds 13 1028 71 10000 2.6 170 15:41 16.02.2020
2503 Clouds 12 1028 71 10000 2.6 180 15:22 16.02.2020
2504 Clouds 12 1028 71 10000 2.1 150 14:57 16.02.2020
2505 Clouds 13 1028 71 10000 2.1 150 14:38 16.02.2020
2506 Clouds 13 1028 71 10000 1.5 180 14:19 16.02.2020
2507 Clouds 13 1028 71 10000 1.5 0 13:42 16.02.2020
2508 Clouds 12 1029 71 10000 1.5 160 13:23 16.02.2020
2509 Clouds 13 1029 71 10000 1.5 160 12:41 16.02.2020
2510 Clouds 13 1029 66 10000 1 0 12:20 16.02.2020
2511 Clouds 12 1029 58 10000 0.5 0 11:59 16.02.2020
2512 Clouds 12 1029 58 10000 0.5 0 11:37 16.02.2020
2513 Clouds 11 1029 54 10000 1.5 340 11:18 16.02.2020
2514 Clouds 10 1029 57 10000 3.6 330 10:56 16.02.2020
2515 Clouds 10 1029 57 10000 3.6 330 10:37 16.02.2020
2516 Clouds 10 1029 57 10000 4.6 320 10:19 16.02.2020
2517 Clouds 10 1029 57 10000 5.1 330 09:54 16.02.2020
2518 Clouds 10 1029 57 10000 5.1 330 09:36 16.02.2020
2519 Clouds 9 1029 66 10000 4.6 330 09:18 16.02.2020
2520 Clouds 7 1029 70 10000 4.6 330 08:41 16.02.2020
2521 Clouds 6 1028 70 10000 4.6 330 08:21 16.02.2020
2522 Clouds 6 1028 75 10000 5.1 330 07:51 16.02.2020
2523 Clouds 6 1028 75 10000 5.7 330 07:33 16.02.2020
2524 Clouds 6 1027 75 10000 4.6 330 06:33 16.02.2020
2525 Clouds 6 1028 70 10000 3.1 330 04:42 16.02.2020
2526 Clouds 7 1029 75 10000 5.1 330 03:29 16.02.2020
2527 Clouds 7 1028 70 10000 4.6 330 02:32 16.02.2020
2528 Clouds 7 1028 76 10000 2.1 350 01:43 16.02.2020
2529 Clouds 7 1028 76 10000 4.6 320 01:23 16.02.2020
2530 Clouds 8 1028 76 10000 2.6 320 00:53 16.02.2020
2531 Clouds 8 1028 81 10000 3.1 340 00:31 16.02.2020
2532 Clouds 8 1028 81 10000 3.6 330 23:58 15.02.2020
2533 Clouds 7 1028 81 10000 3.6 330 23:40 15.02.2020
2534 Clouds 7 1028 76 10000 2.1 10 23:21 15.02.2020
2535 Clouds 7 1028 76 10000 3.6 320 22:41 15.02.2020
2536 Clouds 7 1028 81 10000 3.1 330 22:22 15.02.2020
2537 Clouds 8 1028 81 10000 3.6 320 21:59 15.02.2020
2538 Clouds 8 1028 81 10000 3.6 320 21:41 15.02.2020
2539 Clouds 8 1028 87 10000 4.1 320 21:21 15.02.2020
2540 Clouds 8 1028 87 10000 1.5 330 20:42 15.02.2020
2541 Clouds 8 1028 81 10000 1.5 240 20:21 15.02.2020
2542 Clouds 8 1028 81 10000 1.5 240 20:21 15.02.2020
2543 Clouds 8 1028 81 10000 1.5 240 20:21 15.02.2020
2544 Clouds 9 1027 82 10000 2.1 180 19:57 15.02.2020
2545 Clouds 10 1027 82 10000 2.1 180 19:39 15.02.2020
2546 Clear 11 1028 82 10000 2.1 180 19:20 15.02.2020
2547 Clear 10 1027 82 10000 1.5 210 18:40 15.02.2020
2548 Clear 11 1027 76 10000 1 170 18:20 15.02.2020
2549 Clear 11 1026 76 10000 2.6 180 17:44 15.02.2020
2550 Clouds 11 1027 76 10000 2.1 200 17:24 15.02.2020
2551 Clouds 14 1026 72 10000 2.6 180 16:59 15.02.2020
2552 Clouds 14 1026 72 10000 2.6 180 16:39 15.02.2020
2553 Clouds 14 1026 72 10000 2.6 190 16:20 15.02.2020
2554 Clouds 14 1026 72 10000 3.1 180 15:49 15.02.2020
2555 Clear 14 1026 72 10000 3.1 180 15:30 15.02.2020
2556 Clouds 14 1027 72 10000 3.1 190 14:55 15.02.2020
2557 Clouds 15 1027 72 10000 3.1 190 14:37 15.02.2020
2558 Clouds 15 1027 72 10000 3.1 180 14:18 15.02.2020
2559 Clouds 14 1027 72 10000 2.6 180 13:41 15.02.2020
2560 Clouds 15 1027 72 10000 2.1 170 13:22 15.02.2020
2561 Clouds 14 1027 67 10000 2.1 160 12:55 15.02.2020
2562 Clouds 15 1027 67 10000 2.1 160 12:37 15.02.2020
2563 Clouds 15 1028 62 10000 1.5 130 12:19 15.02.2020
2564 Clouds 14 1028 62 10000 1 0 11:41 15.02.2020
2565 Clouds 13 1028 62 10000 1 0 11:23 15.02.2020
2566 Clouds 12 1027 47 10000 1.5 10 10:47 15.02.2020
2567 Clouds 13 1027 47 10000 3.1 330 10:29 15.02.2020
2568 Clear 12 1027 46 10000 3.1 320 09:55 15.02.2020
2569 Clear 12 1027 46 10000 3.1 320 09:36 15.02.2020
2570 Clear 10 1027 71 10000 3.6 330 09:18 15.02.2020
2571 Clear 8 1027 71 10000 3.6 330 08:41 15.02.2020
2572 Clear 7 1026 70 10000 4.1 330 08:22 15.02.2020
2573 Clouds 6 1026 70 10000 3.6 320 07:44 15.02.2020
2574 Clouds 6 1026 70 10000 3.6 330 07:25 15.02.2020
2575 Clouds 6 1026 70 10000 4.1 340 06:45 15.02.2020
2576 Clear 6 1026 61 10000 4.1 330 06:26 15.02.2020
2577 Clear 6 1025 61 10000 4.6 340 05:30 15.02.2020
2578 Clear 7 1025 57 10000 3.1 340 04:44 15.02.2020
2579 Clear 7 1025 57 10000 4.1 330 03:23 15.02.2020
2580 Clear 7 1025 57 10000 2.6 330 02:42 15.02.2020
2581 Clear 7 1025 57 10000 2.1 350 02:19 15.02.2020
2582 Clear 7 1025 61 10000 3.1 320 01:38 15.02.2020
2583 Clear 7 1024 66 10000 2.6 320 00:41 15.02.2020
2584 Clear 8 1024 61 10000 2.6 340 00:19 15.02.2020
2585 Clear 8 1023 57 10000 2.1 360 23:39 14.02.2020
2586 Clear 9 1023 61 10000 2.6 330 23:19 14.02.2020
2587 Clear 9 1023 61 10000 4.1 330 22:44 14.02.2020
2588 Clear 8 1023 66 10000 3.6 320 22:23 14.02.2020
2589 Clear 8 1023 71 10000 2.6 330 21:52 14.02.2020
2590 Clear 8 1022 76 10000 2.1 360 21:34 14.02.2020
2591 Clear 9 1022 76 10000 3.1 330 20:59 14.02.2020
2592 Clear 9 1022 76 10000 3.1 330 20:40 14.02.2020
2593 Clear 10 1022 87 10000 1.5 330 20:19 14.02.2020
2594 Clear 10 1021 81 10000 2.1 30 19:54 14.02.2020
2595 Clear 11 1021 87 10000 2.6 70 19:36 14.02.2020
2596 Clear 11 1021 87 10000 2.6 70 19:18 14.02.2020
2597 Clear 10 1020 82 10000 2.6 100 18:54 14.02.2020
2598 Clear 11 1020 82 10000 2.6 100 18:36 14.02.2020
2599 Clear 11 1020 82 10000 2.1 130 18:18 14.02.2020
2600 Clear 13 1019 67 10000 2.6 110 17:40 14.02.2020
2601 Clear 15 1019 62 10000 1.5 100 17:18 14.02.2020
2602 Clear 16 1019 67 10000 1 100 16:43 14.02.2020
2603 Clear 16 1019 72 10000 1.5 90 16:24 14.02.2020
2604 Clear 16 1019 72 10000 2.6 70 15:58 14.02.2020
2605 Clear 15 1019 72 10000 2.6 70 15:40 14.02.2020
2606 Clear 16 1019 77 10000 2.6 90 15:21 14.02.2020
2607 Clear 15 1019 72 10000 4.1 90 14:59 14.02.2020
2608 Clear 15 1019 72 10000 4.1 90 14:59 14.02.2020
2609 Clear 15 1019 72 10000 4.1 90 14:41 14.02.2020
2610 Clear 16 1019 72 10000 5.1 90 14:22 14.02.2020
2611 Clouds 15 1019 72 10000 5.7 100 13:58 14.02.2020
2612 Clouds 15 1019 72 10000 5.7 100 13:39 14.02.2020
2613 Clouds 15 1019 72 10000 6.7 100 13:20 14.02.2020
2614 Clouds 15 1018 72 10000 6.2 100 12:57 14.02.2020
2615 Clouds 15 1018 72 10000 6.2 100 12:38 14.02.2020
2616 Clear 15 1018 72 10000 6.2 110 12:20 14.02.2020
2617 Clear 15 1018 72 10000 5.7 100 11:57 14.02.2020
2618 Clear 15 1018 72 10000 5.7 100 11:57 14.02.2020
2619 Clear 15 1018 72 10000 5.7 100 11:39 14.02.2020
2620 Clear 14 1017 67 10000 4.1 110 11:19 14.02.2020
2621 Clear 13 1017 62 10000 3.6 120 10:43 14.02.2020
2622 Clear 13 1016 54 10000 2.6 160 10:22 14.02.2020
2623 Clear 14 1016 41 10000 2.1 10 09:56 14.02.2020
2624 Clear 15 1016 41 10000 2.1 10 09:36 14.02.2020
2625 Clear 15 1016 41 10000 2.1 10 09:36 14.02.2020
2626 Clear 14 1015 43 10000 1 0 09:18 14.02.2020
2627 Clear 12 1015 53 10000 3.1 340 08:40 14.02.2020
2628 Clear 9 1015 57 10000 3.1 330 08:22 14.02.2020
2629 Clear 9 1015 57 10000 3.1 330 08:22 14.02.2020
2630 Clear 9 1014 57 10000 3.1 320 07:50 14.02.2020
2631 Clouds 9 1014 61 10000 3.1 320 07:31 14.02.2020
2632 Clouds 9 1013 66 10000 4.6 310 06:48 14.02.2020
2633 Clouds 9 1013 66 10000 3.1 290 06:22 14.02.2020
2634 Clouds 11 1013 57 10000 5.1 320 05:42 14.02.2020
2635 Clouds 12 1012 62 10000 8.7 250 03:52 14.02.2020
2636 Clouds 12 1013 58 10000 6.2 240 03:24 14.02.2020
2637 Clouds 13 1012 62 10000 12.3 230 02:18 14.02.2020
2638 Clouds 13 1013 58 10000 9.3 240 01:21 14.02.2020
2639 Clouds 12 1014 71 10000 9.8 250 00:37 14.02.2020
2640 Clouds 13 1014 71 10000 9.8 250 00:18 14.02.2020
2641 Clouds 13 1014 71 10000 12.3 240 23:41 13.02.2020
2642 Clouds 12 1014 71 10000 10.3 230 23:19 13.02.2020
2643 Clouds 12 1014 71 10000 8.7 230 22:41 13.02.2020
2644 Clouds 11 1015 76 10000 9.3 230 22:20 13.02.2020
2645 Clouds 10 1015 71 10000 9.8 230 21:59 13.02.2020
2646 Clouds 11 1015 71 10000 9.8 230 21:40 13.02.2020
2647 Clouds 11 1016 71 10000 7.7 240 21:21 13.02.2020
2648 Clouds 10 1016 71 10000 7.7 250 20:56 13.02.2020
2649 Clouds 13 1016 71 10000 7.7 250 20:37 13.02.2020
2650 Clouds 13 1016 71 10000 5.1 250 20:19 13.02.2020
2651 Clouds 13 1017 62 10000 8.7 240 19:55 13.02.2020
2652 Clouds 13 1017 62 10000 8.7 240 19:36 13.02.2020
2653 Clouds 12 1017 71 10000 6.2 240 19:18 13.02.2020
2654 Clouds 12 1016 82 10000 8.2 220 18:41 13.02.2020
2655 Clouds 12 1017 82 10000 8.7 220 18:23 13.02.2020
2656 Clouds 12 1017 82 10000 8.7 220 18:23 13.02.2020
2657 Clouds 12 1016 82 10000 9.3 220 17:58 13.02.2020
2658 Clouds 12 1016 82 10000 9.3 220 17:39 13.02.2020
2659 Clouds 13 1017 82 10000 9.3 220 17:20 13.02.2020
2660 Clouds 13 1017 82 10000 9.3 220 17:20 13.02.2020
2661 Clouds 13 1017 82 10000 9.3 220 16:57 13.02.2020
2662 Clouds 13 1018 82 10000 10.3 210 16:37 13.02.2020
2663 Clouds 14 1018 82 10000 10.3 210 16:19 13.02.2020
2664 Clouds 14 1018 82 10000 8.7 210 15:56 13.02.2020
2665 Clouds 14 1018 82 10000 8.7 210 15:37 13.02.2020
2666 Clouds 15 1018 72 10000 8.2 210 15:19 13.02.2020
2667 Clouds 14 1019 62 10000 4.6 200 14:55 13.02.2020
2668 Clouds 15 1019 62 10000 4.6 200 14:55 13.02.2020
2669 Clouds 14 1019 62 10000 4.6 200 14:37 13.02.2020
2670 Clouds 14 1019 44 10000 3.1 180 14:19 13.02.2020
2671 Clouds 14 1020 54 10000 2.6 170 13:42 13.02.2020
2672 Clouds 14 1020 58 10000 4.1 180 13:18 13.02.2020
2673 Clouds 14 1021 58 10000 3.1 190 12:54 13.02.2020
2674 Clouds 14 1021 58 10000 3.1 190 12:54 13.02.2020
2675 Clouds 13 1021 58 10000 3.1 190 12:36 13.02.2020
2676 Clouds 13 1021 62 10000 4.1 200 12:18 13.02.2020
2677 Clouds 13 1021 54 10000 1.5 290 11:43 13.02.2020
2678 Clouds 11 1021 37 10000 3.6 320 11:20 13.02.2020
2679 Clouds 10 1021 34 10000 5.1 320 10:46 13.02.2020
2680 Clouds 10 1021 37 10000 5.7 320 10:27 13.02.2020
2681 Clear 8 1021 56 10000 3.1 360 09:51 13.02.2020
2682 Clouds 8 1021 42 10000 6.2 330 09:28 13.02.2020
2683 Clouds 7 1021 42 10000 6.7 330 08:58 13.02.2020
2684 Clouds 6 1021 42 10000 6.7 330 08:37 13.02.2020
2685 Clouds 5 1020 45 10000 6.2 330 08:18 13.02.2020
2686 Clouds 4 1020 45 10000 5.7 330 07:39 13.02.2020
2687 Clouds 4 1020 45 10000 6.2 330 07:21 13.02.2020
2688 Clouds 4 1020 42 10000 5.7 330 06:44 13.02.2020
2689 Clouds 4 1020 42 10000 6.2 330 06:20 13.02.2020
2690 Clear 4 1020 42 10000 5.7 330 05:37 13.02.2020
2691 Clear 5 1019 36 10000 4.6 330 04:26 13.02.2020
2692 Clear 5 1019 39 10000 4.1 330 03:52 13.02.2020
2693 Clear 5 1019 39 10000 4.6 330 03:26 13.02.2020
2694 Clear 5 1019 39 10000 5.1 330 02:52 13.02.2020
2695 Clouds 6 1019 42 10000 5.1 330 02:19 13.02.2020
2696 Clouds 7 1020 42 10000 4.1 330 01:35 13.02.2020
2697 Clouds 7 1020 42 10000 5.1 310 00:40 13.02.2020
2698 Clouds 7 1019 34 10000 4.6 310 00:21 13.02.2020
2699 Clouds 7 1019 39 10000 4.1 290 23:40 12.02.2020
2700 Clouds 7 1019 37 10000 3.6 340 23:22 12.02.2020
2701 Clouds 8 1019 37 10000 4.1 330 22:48 12.02.2020
2702 Clouds 9 1019 37 10000 4.6 330 22:28 12.02.2020
2703 Clouds 8 1019 48 10000 1 0 21:59 12.02.2020
2704 Clouds 7 1019 48 10000 1 0 21:40 12.02.2020
2705 Clouds 7 1019 37 10000 5.1 330 21:20 12.02.2020
2706 Clouds 7 1019 39 10000 4.6 330 20:59 12.02.2020
2707 Clouds 8 1019 39 10000 4.6 330 20:41 12.02.2020
2708 Clouds 8 1019 39 10000 4.6 330 20:41 12.02.2020
2709 Clouds 10 1019 37 10000 4.1 320 20:22 12.02.2020
2710 Clouds 10 1019 40 10000 3.6 320 19:56 12.02.2020
2711 Clouds 10 1019 40 10000 3.6 320 19:37 12.02.2020
2712 Clouds 11 1018 54 10000 3.1 70 19:19 12.02.2020
2713 Clouds 10 1018 54 10000 3.1 70 18:47 12.02.2020
2714 Clouds 10 1018 50 10000 2.6 70 18:20 12.02.2020
2715 Clouds 11 1018 47 10000 2.6 70 17:58 12.02.2020
2716 Clouds 11 1018 47 10000 2.6 70 17:38 12.02.2020
2717 Clear 14 1018 47 10000 3.1 60 17:19 12.02.2020
2718 Clouds 15 1018 51 10000 3.6 70 16:40 12.02.2020
2719 Clear 15 1018 47 10000 3.1 70 16:22 12.02.2020
2720 Clouds 15 1017 58 10000 3.6 70 15:58 12.02.2020
2721 Clear 15 1017 58 10000 3.6 70 15:37 12.02.2020
2722 Clouds 15 1018 58 10000 3.1 80 15:18 12.02.2020
2723 Clouds 15 1018 51 10000 2.1 100 14:42 12.02.2020
2724 Clear 15 1018 51 10000 2.1 100 14:21 12.02.2020
2725 Clouds 16 1018 42 10000 1 0 13:59 12.02.2020
2726 Clouds 17 1018 42 10000 1 0 13:40 12.02.2020
2727 Clouds 17 1018 42 10000 1 0 13:40 12.02.2020
2728 Clear 17 1019 39 10000 1 0 13:22 12.02.2020
2729 Clear 17 1019 36 10000 1 0 12:58 12.02.2020
2730 Clear 17 1019 36 10000 1 0 12:39 12.02.2020
2731 Clear 17 1019 36 10000 0.5 0 12:19 12.02.2020
2732 Clear 16 1019 38 10000 1 0 11:59 12.02.2020
2733 Clear 16 1019 38 10000 1 0 11:40 12.02.2020
2734 Clear 14 1019 25 10000 2.1 320 11:21 12.02.2020
2735 Clear 14 1019 25 10000 2.1 320 11:21 12.02.2020
2736 Clear 12 1019 24 10000 3.6 320 10:58 12.02.2020
2737 Clear 12 1019 24 10000 3.6 320 10:39 12.02.2020
2738 Clear 10 1018 24 10000 4.6 320 10:20 12.02.2020
2739 Clear 13 1018 27 10000 5.1 320 09:42 12.02.2020
2740 Clear 13 1018 27 10000 5.1 320 09:42 12.02.2020
2741 Clear 12 1018 29 10000 5.1 320 09:24 12.02.2020
2742 Clear 11 1018 29 10000 5.7 330 08:59 12.02.2020
2743 Clear 9 1018 29 10000 5.7 330 08:39 12.02.2020
2744 Clear 6 1017 31 10000 5.1 330 08:20 12.02.2020
2745 Clear 6 1017 31 10000 5.1 330 08:20 12.02.2020
2746 Clear 6 1017 34 10000 4.1 330 07:59 12.02.2020
2747 Clear 6 1017 34 10000 4.1 330 07:41 12.02.2020
2748 Clear 6 1016 31 10000 4.6 320 07:19 12.02.2020
2749 Clear 5 1016 36 10000 4.6 320 06:43 12.02.2020
2750 Clear 6 1016 32 10000 2.6 0 06:19 12.02.2020
2751 Clear 7 1015 29 10000 6.2 320 05:30 12.02.2020
2752 Clear 10 1015 34 10000 5.1 300 04:43 12.02.2020
2753 Clear 11 1015 37 10000 3.6 300 03:59 12.02.2020
2754 Clear 10 1015 37 10000 4.6 310 03:30 12.02.2020
2755 Clear 10 1015 56 10000 4.6 300 02:46 12.02.2020
2756 Clear 11 1016 30 10000 4.1 310 02:27 12.02.2020
2757 Clouds 13 1016 37 10000 3.6 330 01:34 12.02.2020
2758 Clouds 13 1016 33 10000 7.2 270 00:41 12.02.2020
2759 Clouds 12 1016 33 10000 8.2 270 00:23 12.02.2020
2760 Clouds 12 1017 35 10000 6.2 250 23:52 11.02.2020
2761 Clouds 12 1017 35 10000 6.2 250 23:33 11.02.2020
2762 Clear 14 1015 38 10000 8.7 260 22:59 11.02.2020
2763 Clear 15 1015 38 10000 8.7 260 22:40 11.02.2020
2764 Clear 14 1015 38 10000 8.7 260 22:20 11.02.2020
2765 Clear 14 1015 38 10000 8.7 260 22:20 11.02.2020
2766 Clear 15 1014 36 10000 9.8 250 21:57 11.02.2020
2767 Clear 15 1014 36 10000 9.8 250 21:39 11.02.2020
2768 Clear 15 1014 41 10000 8.7 250 21:19 11.02.2020
2769 Clear 15 1013 52 10000 9.3 260 20:59 11.02.2020
2770 Clear 15 1013 52 10000 9.3 260 20:39 11.02.2020
2771 Clear 16 1013 33 10000 8.7 250 20:20 11.02.2020
2772 Clear 16 1012 52 10000 8.2 260 19:58 11.02.2020
2773 Clear 16 1012 52 10000 8.2 260 19:40 11.02.2020
2774 Clear 16 1012 27 10000 9.3 260 19:22 11.02.2020
2775 Clear 16 1012 27 10000 7.7 260 18:46 11.02.2020
2776 Clear 17 1011 52 10000 7.2 260 18:28 11.02.2020
2777 Clear 17 1011 24 10000 6.2 290 17:59 11.02.2020
2778 Clear 17 1011 24 10000 6.2 290 17:40 11.02.2020
2779 Clouds 18 1011 20 10000 5.7 270 17:20 11.02.2020
2780 Clouds 18 1010 50 10000 9.8 280 16:59 11.02.2020
2781 Clouds 19 1010 50 10000 9.8 280 16:40 11.02.2020
2782 Clouds 19 1010 19 10000 9.3 270 16:22 11.02.2020
2783 Clouds 20 1010 21 10000 8.2 280 15:59 11.02.2020
2784 Clouds 20 1010 21 10000 8.2 280 15:41 11.02.2020
2785 Clouds 20 1010 50 10000 8.2 290 15:21 11.02.2020
2786 Clouds 20 1010 24 10000 11.8 300 14:43 11.02.2020
2787 Clouds 20 1010 19 10000 11.3 290 14:19 11.02.2020
2788 Clear 20 1011 19 10000 10.3 290 13:58 11.02.2020
2789 Clear 20 1011 19 10000 10.3 290 13:58 11.02.2020
2790 Clear 20 1011 19 10000 10.3 290 13:39 11.02.2020
2791 Clear 20 1011 54 10000 11.3 290 13:20 11.02.2020
2792 Clear 20 1011 54 10000 11.3 290 13:20 11.02.2020
2793 Clear 20 1011 24 10000 14.4 280 12:57 11.02.2020
2794 Clear 20 1011 24 10000 14.4 280 12:38 11.02.2020
2795 Clear 19 1011 28 10000 10.3 270 12:19 11.02.2020
2796 Clear 20 1012 54 10000 12.9 280 11:41 11.02.2020
2797 Clear 19 1011 28 10000 11.8 280 11:20 11.02.2020
2798 Clear 18 1011 30 10000 10.3 250 10:55 11.02.2020
2799 Clear 17 1011 48 10000 9.3 250 10:36 11.02.2020
2800 Clear 17 1011 48 10000 9.3 250 10:18 11.02.2020
2801 Clear 17 1011 48 10000 9.3 250 10:18 11.02.2020
2802 Clear 17 1011 45 10000 9.8 250 09:44 11.02.2020
2803 Clear 16 1011 45 10000 9.3 260 09:23 11.02.2020
2804 Clear 16 1011 42 10000 11.8 260 08:59 11.02.2020
2805 Clear 16 1011 42 10000 11.8 260 08:41 11.02.2020
2806 Clear 16 1011 42 10000 11.8 260 08:41 11.02.2020
2807 Clear 16 1011 45 10000 11.3 250 08:23 11.02.2020
2808 Clear 16 1011 39 10000 13.4 260 07:48 11.02.2020
2809 Clear 16 1011 48 10000 11.8 240 07:25 11.02.2020
2810 Clear 16 1011 48 10000 11.3 240 06:44 11.02.2020
2811 Clear 16 1011 48 10000 10.8 240 06:22 11.02.2020
2812 Clear 16 1012 48 10000 11.8 250 05:54 11.02.2020
2813 Clear 16 1012 51 10000 11.8 240 05:24 11.02.2020
2814 Clear 15 1012 51 10000 10.8 240 04:40 11.02.2020
2815 Clear 15 1014 48 10000 10.8 250 03:20 11.02.2020
2816 Clear 15 1014 48 10000 11.8 240 02:32 11.02.2020
2817 Clear 15 1014 44 10000 14.9 240 01:38 11.02.2020
2818 Clear 16 1014 51 10000 15.4 240 00:41 11.02.2020
2819 Clear 16 1013 48 10000 13.9 240 23:59 10.02.2020
2820 Clear 16 1013 48 10000 13.9 240 23:38 10.02.2020
2821 Clear 17 1013 48 10000 12.9 230 23:20 10.02.2020
2822 Clear 17 1013 51 10000 11.8 240 22:41 10.02.2020
2823 Clear 17 1013 51 10000 11.8 230 22:20 10.02.2020
2824 Clear 17 1013 51 10000 11.8 230 21:54 10.02.2020
2825 Clear 17 1013 51 10000 11.8 230 21:36 10.02.2020
2826 Clear 17 1013 51 10000 12.9 240 21:18 10.02.2020
2827 Clear 17 1013 51 10000 13.9 240 20:54 10.02.2020
2828 Clear 17 1013 51 10000 13.9 240 20:36 10.02.2020
2829 Clouds 16 1013 51 10000 12.3 230 20:18 10.02.2020
2830 Clouds 17 1013 51 10000 12.3 230 19:54 10.02.2020
2831 Clouds 17 1013 51 10000 12.3 230 19:36 10.02.2020
2832 Clouds 17 1013 48 10000 11.8 230 19:18 10.02.2020
2833 Clouds 15 1013 52 10000 12.3 240 18:41 10.02.2020
2834 Clouds 16 1013 48 10000 12.9 230 18:21 10.02.2020
2835 Clouds 18 1013 45 10000 13.9 240 17:59 10.02.2020
2836 Clouds 16 1013 45 10000 13.9 240 17:39 10.02.2020
2837 Clouds 19 1013 40 10000 12.3 240 17:21 10.02.2020
2838 Clouds 19 1013 32 10000 14.9 250 16:59 10.02.2020
2839 Clouds 19 1013 32 10000 14.9 250 16:40 10.02.2020
2840 Clouds 20 1013 30 10000 14.4 260 16:20 10.02.2020
2841 Clouds 20 1013 30 10000 13.9 260 15:58 10.02.2020
2842 Clouds 21 1013 30 10000 13.4 250 15:39 10.02.2020
2843 Clouds 21 1013 30 10000 13.4 250 15:21 10.02.2020
2844 Clouds 21 1012 28 10000 12.3 250 14:57 10.02.2020
2845 Clouds 21 1012 28 10000 12.3 250 14:39 10.02.2020
2846 Clouds 20 1013 28 10000 11.8 260 14:19 10.02.2020
2847 Clouds 20 1014 28 10000 11.8 260 13:44 10.02.2020
2848 Clouds 20 1014 28 10000 10.8 260 13:25 10.02.2020
2849 Clouds 19 1014 55 10000 13.9 210 12:57 10.02.2020
2850 Clouds 20 1014 55 10000 13.9 210 12:38 10.02.2020
2851 Clouds 19 1015 59 10000 13.4 220 12:20 10.02.2020
2852 Clouds 18 1015 63 10000 12.3 220 11:45 10.02.2020
2853 Clouds 14 1016 72 10000 13.4 210 11:21 10.02.2020
2854 Clouds 13 1017 72 10000 12.9 220 10:49 10.02.2020
2855 Clouds 15 1017 77 10000 13.9 210 10:31 10.02.2020
2856 Clouds 13 1018 72 10000 10.3 240 09:56 10.02.2020
2857 Clouds 12 1018 72 10000 10.3 240 09:37 10.02.2020
2858 Clouds 13 1018 72 10000 10.3 240 09:37 10.02.2020
2859 Clouds 11 1019 71 10000 3.6 0 09:18 10.02.2020
2860 Clouds 9 1019 70 10000 3.1 340 08:40 10.02.2020
2861 Clouds 9 1020 82 10000 6.2 280 08:21 10.02.2020
2862 Clouds 9 1020 82 10000 3.6 280 07:55 10.02.2020
2863 Clouds 9 1020 82 10000 3.6 280 07:35 10.02.2020
2864 Clouds 9 1021 76 10000 3.6 310 06:50 10.02.2020
2865 Clouds 9 1022 76 10000 8.2 230 05:38 10.02.2020
2866 Clouds 9 1024 76 10000 3.6 310 03:55 10.02.2020
2867 Clouds 8 1024 81 10000 3.6 290 03:22 10.02.2020
2868 Clouds 8 1024 81 10000 2.6 310 02:44 10.02.2020
2869 Clouds 7 1026 81 10000 3.6 320 01:25 10.02.2020
2870 Clouds 7 1026 81 10000 2.1 320 00:45 10.02.2020
2871 Clouds 7 1027 87 10000 3.1 320 00:27 10.02.2020
2872 Clouds 8 1028 81 10000 3.1 280 23:42 09.02.2020
2873 Clouds 8 1027 76 10000 3.6 320 23:24 09.02.2020
2874 Clouds 7 1028 76 10000 3.1 330 22:54 09.02.2020
2875 Clouds 7 1028 76 10000 3.1 330 22:36 09.02.2020
2876 Clouds 7 1028 76 10000 2.6 320 22:18 09.02.2020
2877 Clouds 7 1028 76 10000 3.6 320 21:40 09.02.2020
2878 Clouds 7 1028 81 10000 3.1 320 21:22 09.02.2020
2879 Clouds 7 1028 81 10000 3.1 320 21:22 09.02.2020
2880 Clouds 7 1028 76 10000 1.5 330 20:46 09.02.2020
2881 Clouds 8 1028 81 10000 1.5 300 20:22 09.02.2020
2882 Clouds 9 1028 76 10000 2.1 260 19:57 09.02.2020
2883 Clouds 9 1028 76 10000 2.1 260 19:57 09.02.2020
2884 Clouds 9 1028 76 10000 2.1 260 19:38 09.02.2020
2885 Clouds 10 1028 76 10000 3.1 220 19:20 09.02.2020
2886 Clouds 11 1028 76 10000 4.1 200 18:42 09.02.2020
2887 Clouds 11 1028 71 10000 2.6 240 18:24 09.02.2020
2888 Clouds 11 1028 71 10000 2.6 210 17:59 09.02.2020
2889 -273 0 0 0 0 0 17:39 09.02.2020
2890 Clouds 12 1028 67 10000 2.6 200 17:21 09.02.2020
2891 Clouds 12 1028 71 10000 2.6 190 16:43 09.02.2020
2892 Clouds 13 1028 67 10000 3.1 180 16:24 09.02.2020
2893 Clouds 12 1028 62 10000 2.1 180 15:59 09.02.2020
2894 Clouds 13 1028 62 10000 2.1 180 15:59 09.02.2020
2895 Clouds 13 1028 62 10000 2.1 180 15:41 09.02.2020
2896 Clouds 13 1029 58 10000 2.1 190 15:21 09.02.2020
2897 Clouds 13 1029 58 10000 2.1 180 14:57 09.02.2020
2898 Clouds 13 1029 58 10000 2.1 180 14:38 09.02.2020
2899 Clouds 13 1029 58 10000 1 0 14:20 09.02.2020
2900 Clouds 13 1029 51 10000 1.5 0 13:44 09.02.2020
2901 Clouds 14 1030 47 10000 1 0 13:26 09.02.2020
2902 Clouds 13 1030 41 10000 3.1 330 12:56 09.02.2020
2903 Clouds 14 1030 41 10000 3.1 330 12:37 09.02.2020
2904 Clouds 13 1031 43 10000 4.1 330 12:18 09.02.2020
2905 Clouds 12 1031 50 10000 4.6 330 11:41 09.02.2020
2906 Clouds 11 1031 53 10000 4.6 330 11:22 09.02.2020
2907 Clouds 9 1030 57 10000 4.6 330 10:58 09.02.2020
2908 Clouds 9 1030 57 10000 4.6 330 10:40 09.02.2020
2909 Clouds 9 1030 57 10000 4.6 340 10:21 09.02.2020
2910 Clouds 9 1030 61 10000 6.2 330 09:45 09.02.2020
2911 Clouds 8 1030 65 10000 6.7 330 09:25 09.02.2020
2912 Clouds 7 1030 65 10000 5.1 330 08:45 09.02.2020
2913 Clouds 6 1029 65 10000 4.1 330 08:27 09.02.2020
2914 Clouds 4 1029 70 10000 4.1 340 07:58 09.02.2020
2915 Clouds 4 1029 70 10000 4.1 340 07:39 09.02.2020
2916 Clouds 5 1029 70 10000 5.1 330 06:47 09.02.2020
2917 Clouds 4 1029 70 10000 4.1 330 06:26 09.02.2020
2918 Clouds 5 1029 70 10000 3.1 340 05:38 09.02.2020
2919 Clouds 5 1028 65 10000 3.6 340 05:18 09.02.2020
2920 Clouds 6 1028 70 10000 3.6 340 03:52 09.02.2020
2921 Clouds 6 1028 70 10000 3.6 340 02:45 09.02.2020
2922 Clouds 6 1028 75 10000 2.6 340 02:26 09.02.2020
2923 Clouds 6 1029 75 10000 3.6 330 01:35 09.02.2020
2924 Clouds 6 1029 75 10000 3.6 330 00:46 09.02.2020
2925 Clouds 6 1029 75 10000 4.6 320 00:25 09.02.2020
2926 Clouds 7 1029 87 10000 2.6 10 23:44 08.02.2020
2927 Clouds 6 1029 76 10000 4.6 320 23:21 08.02.2020
2928 Clouds 6 1029 76 10000 3.6 330 22:43 08.02.2020
2929 Clouds 6 1029 76 10000 3.6 330 22:22 08.02.2020
2930 Clouds 6 1029 76 10000 3.6 330 21:59 08.02.2020
2931 Clouds 6 1029 76 10000 3.6 330 21:40 08.02.2020
2932 Clouds 6 1029 76 10000 3.6 330 21:40 08.02.2020
2933 Clouds 6 1028 76 10000 3.6 320 21:21 08.02.2020
2934 Clouds 8 1028 76 10000 3.1 320 20:57 08.02.2020
2935 Clouds 7 1028 76 10000 3.1 320 20:39 08.02.2020
2936 Clouds 8 1028 71 10000 2.1 330 20:19 08.02.2020
2937 Clouds 10 1028 71 10000 3.6 80 19:55 08.02.2020
2938 Clouds 9 1028 71 10000 3.6 80 19:37 08.02.2020
2939 Clouds 9 1028 66 10000 3.6 90 19:19 08.02.2020
2940 Clouds 9 1028 66 10000 3.6 90 19:19 08.02.2020
2941 Clouds 9 1027 66 10000 3.1 70 18:43 08.02.2020
2942 Clouds 9 1027 66 10000 2.6 90 18:24 08.02.2020
2943 Clouds 9 1027 66 10000 3.1 90 17:56 08.02.2020
2944 Clouds 9 1027 66 10000 3.1 90 17:37 08.02.2020
2945 Clouds 11 1027 62 10000 2.6 100 17:18 08.02.2020
2946 Clouds 12 1027 62 10000 3.1 100 16:40 08.02.2020
2947 Clouds 12 1027 58 10000 2.1 110 16:22 08.02.2020
2948 Clouds 12 1027 62 10000 2.1 130 15:56 08.02.2020
2949 Clouds 12 1027 62 10000 2.1 130 15:56 08.02.2020
2950 Clouds 12 1027 62 10000 2.1 130 15:38 08.02.2020
2951 Clouds 12 1027 62 10000 2.1 120 15:18 08.02.2020
2952 Clouds 13 1027 62 10000 2.6 120 14:43 08.02.2020
2953 Clouds 12 1027 66 10000 3.1 110 14:20 08.02.2020
2954 Clouds 12 1027 62 10000 3.1 100 13:56 08.02.2020
2955 Clouds 12 1027 62 10000 3.1 100 13:37 08.02.2020
2956 Clouds 12 1028 58 10000 2.6 100 13:19 08.02.2020
2957 Clouds 13 1028 58 10000 2.6 100 12:39 08.02.2020
2958 Clouds 12 1028 54 10000 1 0 12:20 08.02.2020
2959 Clouds 12 1028 75 10000 3.1 320 11:55 08.02.2020
2960 Clouds 12 1028 75 10000 3.1 320 11:37 08.02.2020
2961 Clouds 8 1028 74 10000 4.1 320 11:18 08.02.2020
2962 Clouds 8 1028 46 10000 4.6 330 10:42 08.02.2020
2963 Clouds 8 1028 49 10000 5.1 330 10:21 08.02.2020
2964 Clouds 8 1028 52 10000 5.7 330 09:51 08.02.2020
2965 Clouds 7 1028 56 10000 5.1 330 09:27 08.02.2020
2966 Clouds 8 1028 56 10000 5.1 330 08:54 08.02.2020
2967 Clouds 8 1028 56 10000 5.1 330 08:36 08.02.2020
2968 Clouds 8 1028 56 10000 5.1 330 08:36 08.02.2020
2969 Clouds 5 1027 56 10000 5.1 330 08:18 08.02.2020
2970 Clouds 5 1027 56 10000 5.1 330 07:43 08.02.2020
2971 Clouds 5 1027 56 10000 5.1 330 07:18 08.02.2020
2972 Clouds 5 1027 73 10000 5.1 330 06:24 08.02.2020
2973 Clouds 5 1027 73 10000 5.1 340 05:47 08.02.2020
2974 Clouds 6 1027 64 10000 5.7 330 05:28 08.02.2020
2975 Clouds 6 1027 64 10000 5.1 330 04:48 08.02.2020
2976 Clouds 6 1027 65 10000 5.7 330 03:48 08.02.2020
2977 Clouds 6 1027 65 10000 5.1 330 02:51 08.02.2020
2978 Clouds 6 1027 65 10000 4.6 330 01:41 08.02.2020
2979 Clouds 6 1027 70 10000 4.6 330 01:22 08.02.2020
2980 Clouds 5 1026 70 10000 4.1 330 00:39 08.02.2020
2981 Clouds 6 1026 70 10000 4.1 340 00:21 08.02.2020
2982 Clouds 5 1026 70 10000 4.1 340 23:45 07.02.2020
2983 Clouds 5 1026 75 10000 4.6 330 23:21 07.02.2020
2984 Clouds 6 1026 75 10000 4.6 340 22:58 07.02.2020
2985 Clouds 6 1026 75 10000 4.6 340 22:39 07.02.2020
2986 Clouds 6 1026 75 10000 4.1 340 22:19 07.02.2020
2987 Clouds 6 1025 76 10000 3.6 340 21:43 07.02.2020
2988 Clouds 6 1025 76 10000 3.6 330 21:22 07.02.2020
2989 Clouds 6 1025 76 10000 2.6 340 20:57 07.02.2020
2990 Clouds 6 1025 76 10000 2.6 340 20:38 07.02.2020
2991 Clouds 7 1025 76 10000 2.6 340 20:18 07.02.2020
2992 Clouds 7 1025 76 10000 2.1 360 19:40 07.02.2020
2993 Clouds 8 1025 71 10000 1.5 320 19:21 07.02.2020
2994 Clouds 8 1024 76 10000 2.6 240 18:58 07.02.2020
2995 Clouds 9 1024 76 10000 2.6 240 18:40 07.02.2020
2996 Clouds 9 1024 71 10000 4.1 210 18:20 07.02.2020
2997 Clouds 10 1024 71 10000 4.1 210 17:43 07.02.2020
2998 Clouds 11 1024 62 10000 4.1 210 17:22 07.02.2020
2999 Clouds 12 1024 67 10000 4.1 210 16:57 07.02.2020
3000 Clouds 12 1024 67 10000 4.1 210 16:38 07.02.2020
3001 Clouds 12 1025 67 10000 3.6 200 16:19 07.02.2020
3002 Clear 12 1025 71 10000 4.6 200 15:47 07.02.2020
3003 Clear 12 1025 66 10000 4.6 200 15:22 07.02.2020
3004 Clear 12 1025 62 10000 4.6 180 14:46 07.02.2020
3005 Clear 12 1025 62 10000 4.1 180 14:26 07.02.2020
3006 Clear 12 1026 62 10000 3.6 170 13:58 07.02.2020
3007 Clear 12 1026 62 10000 3.6 170 13:39 07.02.2020
3008 Clear 12 1026 58 10000 2.6 160 13:21 07.02.2020
3009 Clear 13 1026 37 10000 1.5 170 12:56 07.02.2020
3010 Clear 13 1026 37 10000 1.5 170 12:38 07.02.2020
3011 Clear 12 1027 32 10000 1 0 12:20 07.02.2020
3012 Clear 12 1027 34 10000 2.1 320 11:42 07.02.2020
3013 Clear 10 1027 39 10000 3.6 330 11:21 07.02.2020
3014 Clear 10 1027 42 10000 4.6 330 10:42 07.02.2020
3015 Clear 9 1027 45 10000 5.1 330 10:24 07.02.2020
3016 Clear 7 1027 48 10000 5.7 330 09:58 07.02.2020
3017 Clear 8 1027 48 10000 5.7 330 09:37 07.02.2020
3018 Clear 7 1027 52 10000 5.7 330 09:19 07.02.2020
3019 Clear 4 1027 56 10000 5.7 330 08:43 07.02.2020
3020 Clear 4 1027 56 10000 5.1 330 08:21 07.02.2020
3021 Clear 3 1027 56 10000 5.1 330 07:46 07.02.2020
3022 Clear 3 1027 60 10000 5.1 330 07:28 07.02.2020
3023 Clear 3 1027 60 10000 5.7 330 06:47 07.02.2020
3024 Clear 3 1027 60 10000 5.1 330 06:26 07.02.2020
3025 Clear 3 1027 60 10000 5.1 330 06:26 07.02.2020
3026 Clear 3 1027 56 10000 5.7 330 05:56 07.02.2020
3027 Clear 3 1027 56 10000 5.7 330 05:35 07.02.2020
3028 Clear 3 1028 54 10000 6.2 320 03:19 07.02.2020
3029 Clouds 4 1028 47 10000 5.7 330 01:51 07.02.2020
3030 Clouds 4 1028 65 10000 6.2 320 00:49 07.02.2020
3031 Clouds 4 1028 61 10000 6.2 330 00:21 07.02.2020
3032 Clouds 4 1028 61 10000 6.2 330 00:21 07.02.2020
3033 Clouds 5 1029 65 10000 4.1 330 23:37 06.02.2020
3034 Clouds 5 1029 65 10000 4.1 330 23:19 06.02.2020
3035 Clouds 5 1029 65 10000 4.6 330 22:44 06.02.2020
3036 Clouds 5 1029 65 10000 3.1 330 22:25 06.02.2020
3037 Clouds 5 1028 65 10000 3.1 320 21:55 06.02.2020
3038 Clouds 5 1028 65 10000 3.1 320 21:36 06.02.2020
3039 Clouds 5 1028 65 10000 3.1 330 21:18 06.02.2020
3040 Clouds 6 1028 61 10000 3.6 320 20:54 06.02.2020
3041 Clouds 6 1028 61 10000 3.6 320 20:36 06.02.2020
3042 Clouds 6 1028 61 10000 2.6 320 20:18 06.02.2020
3043 Clouds 7 1028 40 10000 2.6 220 19:55 06.02.2020
3044 Clouds 7 1028 40 10000 2.6 220 19:36 06.02.2020
3045 Clouds 7 1028 50 10000 2.6 220 19:18 06.02.2020
3046 Clouds 8 1028 46 10000 2.6 210 18:40 06.02.2020
3047 Clouds 9 1028 50 10000 3.1 200 18:22 06.02.2020
3048 Clouds 9 1028 50 10000 3.1 190 17:57 06.02.2020
3049 Clouds 9 1028 50 10000 3.1 190 17:38 06.02.2020
3050 Clouds 11 1028 50 10000 3.1 180 17:19 06.02.2020
3051 Clouds 11 1028 50 10000 2.6 180 16:42 06.02.2020
3052 Clouds 11 1028 47 10000 2.1 190 16:23 06.02.2020
3053 Clouds 11 1028 50 10000 2.6 150 15:43 06.02.2020
3054 Clouds 11 1029 50 10000 2.6 150 15:23 06.02.2020
3055 Clouds 12 1029 41 10000 1.5 130 14:57 06.02.2020
3056 Clouds 12 1029 41 10000 1.5 130 14:39 06.02.2020
3057 Clouds 13 1029 41 10000 1.5 0 14:20 06.02.2020
3058 Clouds 12 1030 52 10000 1.5 110 13:42 06.02.2020
3059 Clouds 13 1030 35 10000 1 0 13:24 06.02.2020
3060 Clouds 13 1030 28 10000 2.1 320 12:45 06.02.2020
3061 Clouds 13 1030 34 10000 3.6 320 12:20 06.02.2020
3062 Clouds 12 1030 34 10000 3.6 330 11:58 06.02.2020
3063 Clouds 12 1030 34 10000 3.6 330 11:39 06.02.2020
3064 Clouds 10 1029 37 10000 4.6 330 11:21 06.02.2020
3065 Clouds 9 1029 39 10000 4.6 330 10:57 06.02.2020
3066 Clouds 10 1029 39 10000 4.6 330 10:39 06.02.2020
3067 Clouds 8 1029 39 10000 4.1 330 10:21 06.02.2020
3068 Clouds 9 1028 39 10000 5.1 340 09:57 06.02.2020
3069 Clouds 7 1028 39 10000 5.1 340 09:38 06.02.2020
3070 Clouds 7 1028 39 10000 5.1 340 09:19 06.02.2020
3071 Clouds 6 1029 42 10000 4.1 350 08:42 06.02.2020
3072 Clouds 5 1028 45 10000 6.2 330 08:22 06.02.2020
3073 Clouds 4 1028 45 10000 6.7 320 07:51 06.02.2020
3074 Clouds 4 1028 45 10000 6.2 330 07:28 06.02.2020
3075 Clouds 4 1027 45 10000 4.6 340 06:46 06.02.2020
3076 Clouds 4 1027 45 10000 4.6 340 06:18 06.02.2020
3077 Clear 4 1027 42 10000 6.2 330 05:22 06.02.2020
3078 Clear 6 1027 42 10000 6.7 330 03:44 06.02.2020
3079 Clear 5 1027 42 10000 5.1 330 02:58 06.02.2020
3080 Clear 6 1026 39 10000 5.7 330 01:42 06.02.2020
3081 Clear 7 1026 39 10000 3.6 330 00:59 06.02.2020
3082 Clear 6 1026 42 10000 5.1 330 00:28 06.02.2020
3083 Clear 8 1026 39 10000 4.1 330 23:55 05.02.2020
3084 Clear 8 1026 39 10000 4.1 330 23:36 05.02.2020
3085 Clear 8 1025 39 10000 4.6 320 23:18 05.02.2020
3086 Clear 8 1025 39 10000 5.1 330 22:40 05.02.2020
3087 Clear 8 1025 39 10000 3.6 350 22:22 05.02.2020
3088 Clear 7 1024 42 10000 5.1 330 21:57 05.02.2020
3089 Clear 8 1024 42 10000 5.1 330 21:39 05.02.2020
3090 Clear 8 1024 42 10000 4.1 340 21:19 05.02.2020
3091 Clear 9 1024 45 10000 2.6 360 20:39 05.02.2020
3092 Clear 9 1024 49 10000 4.1 320 20:20 05.02.2020
3093 Clear 10 1023 54 10000 3.1 330 19:59 05.02.2020
3094 Clear 10 1023 54 10000 3.1 330 19:40 05.02.2020
3095 Clear 10 1023 57 10000 1.5 340 19:19 05.02.2020
3096 Clear 11 1023 62 10000 3.08 127 18:56 05.02.2020
3097 Clear 12 1023 62 10000 3.08 127 18:38 05.02.2020
3098 Clear 13 1022 50 10000 1.5 100 18:19 05.02.2020
3099 Clear 13 1021 47 10000 1.5 70 17:38 05.02.2020
3100 Clear 14 1021 44 10000 2.1 80 17:20 05.02.2020
3101 Clear 15 1021 41 10000 2.1 90 16:57 05.02.2020
3102 Clear 15 1021 41 10000 2.1 90 16:39 05.02.2020
3103 Clear 16 1021 44 10000 2.6 180 16:20 05.02.2020
3104 Clear 15 1021 47 10000 1.5 0 15:46 05.02.2020
3105 Clear 15 1021 51 10000 3.1 150 15:20 05.02.2020
3106 Clear 15 1020 51 10000 3.6 140 14:59 05.02.2020
3107 Clear 15 1020 51 10000 3.6 140 14:40 05.02.2020
3108 Clear 15 1020 51 10000 2.1 150 14:21 05.02.2020
3109 Clear 16 1020 51 10000 1.5 0 13:43 05.02.2020
3110 Clear 16 1021 51 10000 1 0 13:23 05.02.2020
3111 Clear 16 1021 51 10000 3.6 110 12:59 05.02.2020
3112 Clear 16 1021 51 10000 3.6 110 12:37 05.02.2020
3113 Clear 15 1021 51 10000 3.1 100 12:19 05.02.2020
3114 Clear 15 1021 22 10000 3.1 320 11:41 05.02.2020
3115 Clear 13 1021 24 10000 2.6 350 11:23 05.02.2020
3116 Clear 11 1021 26 10000 3.1 350 10:58 05.02.2020
3117 Clear 11 1021 26 10000 3.1 350 10:39 05.02.2020
3118 Clear 9 1021 25 10000 4.1 330 10:18 05.02.2020
3119 Clear 11 1021 27 10000 3.6 340 09:43 05.02.2020
3120 Clear 10 1021 31 10000 4.6 330 09:22 05.02.2020
3121 Clear 9 1021 33 10000 5.1 330 08:56 05.02.2020
3122 Clear 9 1021 33 10000 5.1 330 08:37 05.02.2020
3123 Clear 4 1020 33 10000 5.1 330 08:19 05.02.2020
3124 Clear 6 1020 33 10000 6.2 320 07:42 05.02.2020
3125 Clear 6 1020 33 10000 5.1 330 07:19 05.02.2020
3126 Clear 4 1020 33 10000 5.1 330 06:40 05.02.2020
3127 Clear 5 1020 33 10000 4.1 330 06:21 05.02.2020
3128 Clear 5 1019 33 10000 5.1 330 05:47 05.02.2020
3129 Clear 8 1019 33 10000 4.6 330 05:18 05.02.2020
3130 Clear 9 1019 33 10000 5.1 330 04:27 05.02.2020
3131 Clear 9 1019 34 10000 5.1 330 02:53 05.02.2020
3132 Clear 8 1019 36 10000 4.1 330 02:22 05.02.2020
3133 Clear 9 1019 36 10000 3.1 340 01:34 05.02.2020
3134 Clear 7 1018 36 10000 3.6 10 00:25 05.02.2020
3135 Clear 9 1018 31 10000 2.1 350 23:42 04.02.2020
3136 Clear 9 1018 31 10000 2.6 10 23:22 04.02.2020
3137 Clear 10 1017 25 10000 6.2 330 22:57 04.02.2020
3138 Clear 10 1017 25 10000 6.2 330 22:39 04.02.2020
3139 Clear 10 1017 27 10000 8.2 320 22:20 04.02.2020
3140 Clear 9 1016 27 10000 8.7 310 21:56 04.02.2020
3141 Clear 10 1016 27 10000 8.7 310 21:38 04.02.2020
3142 Clear 10 1015 32 10000 9.3 290 21:18 04.02.2020
3143 Clear 10 1015 32 10000 9.3 290 21:18 04.02.2020
3144 Clear 10 1015 30 10000 8.7 290 20:55 04.02.2020
3145 Clear 10 1015 30 10000 8.7 290 20:37 04.02.2020
3146 Clouds 11 1015 24 10000 9.8 310 20:18 04.02.2020
3147 Clouds 11 1015 24 10000 6.2 300 19:43 04.02.2020
3148 Clouds 11 1015 20 10000 7.2 320 19:24 04.02.2020
3149 Clouds 12 1014 17 10000 9.3 310 18:59 04.02.2020
3150 Clouds 13 1014 17 10000 9.3 310 18:39 04.02.2020
3151 Clouds 13 1012 17 10000 11.3 300 18:21 04.02.2020
3152 Clouds 13 1011 15 10000 12.3 310 17:56 04.02.2020
3153 Clouds 13 1011 15 10000 12.3 310 17:38 04.02.2020
3154 Clouds 14 1009 17 10000 12.3 300 17:19 04.02.2020
3155 Clouds 14 1008 13 10000 9.3 300 16:39 04.02.2020
3156 Clouds 15 1007 12 10000 9.8 310 16:20 04.02.2020
3157 Clouds 16 1006 11 10000 11.3 310 15:57 04.02.2020
3158 Clouds 17 1006 9 10000 9.8 310 15:39 04.02.2020
3159 Clouds 18 1006 9 10000 9.8 310 15:20 04.02.2020
3160 Clouds 18 1006 13 10000 10.3 300 14:45 04.02.2020
3161 Clouds 17 1006 11 10000 10.8 300 14:26 04.02.2020
3162 Clouds 18 1006 9 10000 8.2 300 13:59 04.02.2020
3163 Clouds 19 1006 9 10000 8.2 300 13:41 04.02.2020
3164 Clouds 19 1006 14 10000 9.8 270 13:22 04.02.2020
3165 Clear 19 1006 13 10000 10.3 270 12:57 04.02.2020
3166 Clear 18 1006 15 10000 10.3 270 12:37 04.02.2020
3167 Clear 18 1006 15 10000 10.3 270 12:19 04.02.2020
3168 Clear 18 1007 20 10000 8.2 280 11:55 04.02.2020
3169 Clear 18 1007 20 10000 8.2 280 11:36 04.02.2020
3170 Clouds 18 1007 24 10000 9.3 260 11:18 04.02.2020
3171 Clouds 18 1007 22 10000 8.7 270 10:44 04.02.2020
3172 Clouds 18 1007 42 10000 9.8 260 10:24 04.02.2020
3173 Clouds 18 1007 39 10000 11.8 240 09:55 04.02.2020
3174 Clouds 18 1007 39 10000 11.8 240 09:37 04.02.2020
3175 Clouds 17 1008 42 10000 11.3 250 09:18 04.02.2020
3176 Clouds 17 1007 42 10000 11.8 250 08:43 04.02.2020
3177 Clouds 17 1007 45 10000 13.4 250 08:24 04.02.2020
3178 Clouds 18 1008 42 10000 11.8 270 07:49 04.02.2020
3179 Clouds 18 1008 37 10000 13.4 260 07:24 04.02.2020
3180 Clouds 16 1009 34 10000 11.3 270 06:45 04.02.2020
3181 Clouds 16 1009 34 10000 11.3 270 06:45 04.02.2020
3182 Clouds 17 1009 32 10000 11.8 270 06:26 04.02.2020
3183 Clouds 17 1011 37 10000 7.7 230 05:29 04.02.2020
3184 Clear 14 1013 93 10000 2.1 310 03:56 04.02.2020
3185 Clear 14 1013 93 10000 2.1 310 03:37 04.02.2020
3186 Clear 14 1014 93 10000 1.5 300 03:19 04.02.2020
3187 Clouds 12 1014 87 10000 1.5 0 02:34 04.02.2020
3188 Clouds 11 1015 87 10000 1.5 340 01:56 04.02.2020
3189 Clouds 10 1016 93 10000 1 0 01:36 04.02.2020
3190 Clouds 9 1016 93 10000 2.6 320 00:52 04.02.2020
3191 Clouds 9 1017 87 10000 2.6 340 00:22 04.02.2020
3192 Clouds 10 1017 87 10000 3.1 320 23:42 03.02.2020
3193 Clouds 10 1017 87 10000 3.1 320 23:42 03.02.2020
3194 Clouds 10 1017 87 10000 3.1 320 23:42 03.02.2020
3195 Clouds 9 1017 93 10000 3.1 320 23:23 03.02.2020
3196 Clouds 10 1017 93 10000 3.1 320 22:40 03.02.2020
3197 Clouds 10 1018 93 10000 3.6 320 22:22 03.02.2020
3198 Clouds 10 1018 93 10000 2.1 330 21:59 03.02.2020
3199 Clouds 10 1018 93 10000 2.1 330 21:40 03.02.2020
3200 Clouds 10 1018 87 10000 2.6 330 21:19 03.02.2020
3201 Clouds 11 1017 87 10000 2.6 320 20:42 03.02.2020
3202 Clouds 11 1017 87 10000 2.1 320 20:20 03.02.2020
3203 Clouds 12 1017 93 10000 1.77 54 19:59 03.02.2020
3204 Clouds 12 1017 93 10000 1.77 54 19:40 03.02.2020
3205 Clouds 12 1017 87 10000 1.77 54 19:21 03.02.2020
3206 Clouds 13 1017 87 10000 1.77 54 18:57 03.02.2020
3207 Clouds 13 1017 87 10000 1.77 54 18:38 03.02.2020
3208 Clouds 13 1017 87 10000 0.5 0 18:20 03.02.2020
3209 Clouds 13 1017 87 10000 1 0 17:55 03.02.2020
3210 Clouds 14 1017 87 10000 1 0 17:36 03.02.2020
3211 Clouds 14 1017 82 10000 1 0 17:18 03.02.2020
3212 Clouds 15 1017 82 10000 1.5 130 16:40 03.02.2020
3213 Clouds 15 1017 82 10000 2.1 130 16:21 03.02.2020
3214 Clouds 16 1017 77 10000 2.6 100 15:56 03.02.2020
3215 Clouds 16 1017 77 10000 2.6 100 15:38 03.02.2020
3216 Clouds 16 1017 77 10000 3.1 110 15:19 03.02.2020
3217 Clouds 16 1017 77 10000 2.6 100 14:45 03.02.2020
3218 Clouds 17 1017 77 10000 2.6 110 14:27 03.02.2020
3219 Clouds 16 1017 82 10000 2.1 100 13:59 03.02.2020
3220 Clouds 17 1017 82 10000 2.1 100 13:41 03.02.2020
3221 Clouds 16 1017 82 10000 1.5 90 13:20 03.02.2020
3222 Clouds 16 1018 72 10000 1.5 0 12:57 03.02.2020
3223 Clouds 15 1018 72 10000 1.5 0 12:38 03.02.2020
3224 Clouds 15 1018 67 10000 1.5 340 12:20 03.02.2020
3225 Clouds 14 1018 71 10000 2.6 340 11:40 03.02.2020
3226 Clouds 14 1018 71 10000 2.6 340 11:20 03.02.2020
3227 Clouds 13 1018 76 10000 2.6 340 10:58 03.02.2020
3228 Clouds 13 1018 76 10000 2.6 340 10:40 03.02.2020
3229 Clouds 12 1018 81 10000 3.1 320 10:21 03.02.2020
3230 Clouds 11 1018 87 10000 4.6 320 09:42 03.02.2020
3231 Clouds 10 1018 81 10000 4.6 320 09:21 03.02.2020
3232 Clouds 9 1018 87 10000 3.6 320 08:42 03.02.2020
3233 Clouds 8 1018 87 10000 3.6 330 08:23 03.02.2020
3234 Clouds 8 1018 87 10000 3.1 330 07:59 03.02.2020
3235 Clouds 8 1018 87 10000 3.1 330 07:40 03.02.2020
3236 Clouds 8 1018 87 10000 3.1 330 07:21 03.02.2020
3237 Clouds 8 1018 87 10000 3.1 330 06:49 03.02.2020
3238 Clouds 8 1018 87 10000 3.6 330 06:27 03.02.2020
3239 Clouds 8 1018 93 10000 3.6 330 05:37 03.02.2020
3240 Clouds 9 1018 87 10000 4.1 330 04:59 03.02.2020
3241 Clouds 9 1019 87 10000 3.1 330 03:19 03.02.2020
3242 Clouds 10 1019 93 10000 3.1 330 02:34 03.02.2020
3243 Clouds 10 1020 93 10000 3.6 330 01:41 03.02.2020
3244 Clouds 10 1020 87 10000 4.1 330 00:46 03.02.2020
3245 Clouds 10 1020 87 10000 2.6 330 00:23 03.02.2020
3246 Clouds 10 1020 87 10000 2.1 350 23:39 02.02.2020
3247 Clouds 10 1020 87 10000 3.1 330 23:20 02.02.2020
3248 Clouds 10 1020 87 10000 4.1 320 22:57 02.02.2020
3249 Clouds 10 1020 87 10000 4.1 320 22:57 02.02.2020
3250 Clouds 10 1020 87 10000 4.1 320 22:57 02.02.2020
3251 Clouds 10 1020 87 10000 4.1 320 22:38 02.02.2020
3252 Clouds 10 1020 87 10000 3.6 320 22:19 02.02.2020
3253 Clouds 10 1020 93 10000 3.1 310 21:54 02.02.2020
3254 Clouds 10 1020 93 10000 3.1 310 21:36 02.02.2020
3255 Clouds 11 1020 87 10000 2.1 320 21:18 02.02.2020
3256 Clouds 11 1020 87 10000 2.1 320 20:55 02.02.2020
3257 Clouds 11 1020 87 10000 2.6 40 20:36 02.02.2020
3258 Clouds 11 1020 87 10000 2.6 40 20:18 02.02.2020
3259 Clouds 11 1020 87 10000 4.1 80 19:55 02.02.2020
3260 Clouds 12 1020 87 10000 4.1 80 19:36 02.02.2020
3261 Clouds 12 1019 87 10000 5.1 80 19:18 02.02.2020
3262 Clouds 12 1019 87 10000 5.1 80 19:18 02.02.2020
3263 Clouds 13 1019 87 10000 5.7 80 18:39 02.02.2020
3264 Clouds 13 1018 87 10000 6.2 80 18:21 02.02.2020
3265 Clouds 13 1018 87 10000 6.2 90 17:58 02.02.2020
3266 Clouds 13 1018 87 10000 5.7 90 17:38 02.02.2020
3267 Clouds 14 1018 87 10000 5.7 90 17:19 02.02.2020
3268 Clouds 15 1018 82 10000 6.2 90 16:58 02.02.2020
3269 Clouds 16 1018 82 10000 6.2 90 16:39 02.02.2020
3270 Clouds 16 1018 82 10000 6.7 90 16:19 02.02.2020
3271 Clouds 16 1018 77 10000 6.7 90 15:59 02.02.2020
3272 Clouds 16 1018 77 10000 6.7 90 15:39 02.02.2020
3273 Clouds 16 1018 77 10000 6.2 90 15:20 02.02.2020
3274 Clouds 16 1018 77 10000 5.7 90 14:57 02.02.2020
3275 Clouds 16 1018 77 10000 5.7 90 14:39 02.02.2020
3276 Clouds 16 1018 77 10000 4.6 90 14:18 02.02.2020
3277 Clouds 16 1019 77 10000 3.1 90 13:55 02.02.2020
3278 Clouds 16 1019 77 10000 3.1 90 13:36 02.02.2020
3279 Clouds 15 1019 72 10000 2.1 80 13:18 02.02.2020
3280 Clouds 15 1020 72 10000 1.5 100 12:42 02.02.2020
3281 Clouds 16 1020 67 10000 1 0 12:22 02.02.2020
3282 Clouds 16 1020 54 10000 1.5 320 11:58 02.02.2020
3283 Clouds 15 1020 54 10000 1.5 320 11:39 02.02.2020
3284 Clouds 14 1021 58 10000 2.6 330 11:19 02.02.2020
3285 Clouds 13 1021 62 10000 3.6 320 10:56 02.02.2020
3286 Clouds 12 1021 62 10000 3.6 320 10:36 02.02.2020
3287 Clouds 11 1021 66 10000 4.1 330 10:18 02.02.2020
3288 Clouds 11 1021 66 10000 4.1 330 10:18 02.02.2020
3289 Clear 11 1021 71 10000 4.1 340 09:55 02.02.2020
3290 Clear 11 1021 71 10000 4.1 340 09:36 02.02.2020
3291 Clouds 9 1021 70 10000 5.1 330 09:18 02.02.2020
3292 Clouds 8 1020 70 10000 4.6 320 08:41 02.02.2020
3293 Clouds 8 1020 70 10000 4.6 330 08:22 02.02.2020
3294 Clouds 8 1020 76 10000 4.6 330 07:46 02.02.2020
3295 Clouds 8 1019 76 10000 4.6 330 07:28 02.02.2020
3296 Clouds 8 1019 76 10000 5.7 330 06:43 02.02.2020
3297 Clouds 8 1019 76 10000 5.1 330 06:25 02.02.2020
3298 Clouds 8 1018 76 10000 4.6 330 05:47 02.02.2020
3299 Clouds 9 1018 81 10000 3.1 340 04:38 02.02.2020
3300 Clear 9 1018 87 10000 4.1 320 03:25 02.02.2020
3301 Clouds 9 1018 81 10000 3.6 320 02:29 02.02.2020
3302 Clouds 9 1018 87 10000 3.1 330 01:53 02.02.2020
3303 Clouds 9 1018 87 10000 3.1 330 01:22 02.02.2020
3304 Clouds 10 1017 87 10000 2.6 310 00:43 02.02.2020
3305 Clouds 11 1017 87 10000 2.6 320 00:22 02.02.2020
3306 Clouds 10 1017 82 10000 4.1 70 23:46 01.02.2020
3307 Clouds 11 1017 82 10000 6.2 90 23:21 01.02.2020
3308 Clouds 12 1017 87 10000 8.2 90 22:50 01.02.2020
3309 Clouds 12 1016 82 10000 8.7 90 22:20 01.02.2020
3310 Clouds 12 1016 82 10000 8.7 90 22:20 01.02.2020
3311 Clouds 11 1016 87 10000 6.7 80 21:57 01.02.2020
3312 Clouds 11 1016 87 10000 6.7 80 21:38 01.02.2020
3313 Clouds 10 1016 81 10000 2.6 320 21:18 01.02.2020
3314 Clouds 11 1015 87 10000 2.1 320 20:40 01.02.2020
3315 Clouds 13 1015 82 10000 3.6 320 20:20 01.02.2020
3316 Clouds 13 1015 87 10000 5.7 330 19:57 01.02.2020
3317 Clouds 12 1015 87 10000 5.7 330 19:39 01.02.2020
3318 Clouds 12 1015 87 10000 3.1 320 19:19 01.02.2020
3319 Clouds 12 1016 82 10000 2.1 310 18:57 01.02.2020
3320 Clouds 14 1016 82 10000 2.1 310 18:39 01.02.2020
3321 Clouds 14 1016 87 10000 4.1 240 18:21 01.02.2020
3322 Clouds 14 1016 87 10000 4.1 240 18:21 01.02.2020
3323 Clouds 14 1016 82 10000 8.2 240 17:56 01.02.2020
3324 Clouds 14 1016 82 10000 8.2 240 17:38 01.02.2020
3325 Clouds 14 1016 87 10000 6.7 220 17:19 01.02.2020
3326 Clouds 14 1017 87 10000 7.2 220 16:43 01.02.2020
3327 Clouds 14 1017 87 10000 8.7 220 16:24 01.02.2020
3328 Clouds 14 1017 93 10000 9.3 220 15:58 01.02.2020
3329 Clouds 14 1017 93 10000 9.3 220 15:38 01.02.2020
3330 Clouds 14 1017 87 10000 9.3 220 15:19 01.02.2020
3331 Clouds 14 1017 87 10000 8.7 200 14:41 01.02.2020
3332 Clouds 15 1018 82 10000 8.2 210 14:21 01.02.2020
3333 Clouds 14 1018 77 10000 5.7 240 13:58 01.02.2020
3334 Clouds 15 1018 77 10000 5.7 240 13:39 01.02.2020
3335 Clouds 14 1019 82 10000 3.6 240 13:18 01.02.2020
3336 Clouds 13 1019 76 10000 3.1 240 12:42 01.02.2020
3337 Clouds 13 1020 76 10000 2.1 240 12:24 01.02.2020
3338 Clouds 12 1020 76 10000 2.1 260 11:45 01.02.2020
3339 Clouds 11 1020 71 10000 3.1 320 11:24 01.02.2020
3340 Clouds 11 1020 66 10000 3.6 320 10:59 01.02.2020
3341 Clouds 11 1020 66 10000 3.6 320 10:41 01.02.2020
3342 Clouds 11 1020 66 10000 2.6 320 10:23 01.02.2020
3343 Clouds 11 1019 66 10000 3.6 320 09:59 01.02.2020
3344 Clouds 11 1019 66 10000 3.6 320 09:41 01.02.2020
3345 Clouds 11 1019 66 10000 3.6 320 09:21 01.02.2020
3346 Clouds 10 1019 71 10000 3.6 320 08:58 01.02.2020
3347 Clouds 7 1019 71 10000 2.6 340 08:18 01.02.2020
3348 Clouds 8 1019 71 10000 2.1 340 07:41 01.02.2020
3349 Clouds 7 1019 71 10000 2.6 340 07:22 01.02.2020
3350 Clouds 7 1019 76 10000 2.6 330 06:44 01.02.2020
3351 Clouds 8 1019 71 10000 2.1 340 05:54 01.02.2020
3352 Clouds 9 1019 76 10000 2.1 330 04:32 01.02.2020
3353 Clouds 8 1019 76 10000 2.6 330 03:26 01.02.2020
3354 Clouds 8 1019 76 10000 2.1 330 02:59 01.02.2020
3355 Clouds 8 1019 76 10000 2.1 330 02:40 01.02.2020
3356 Clouds 9 1019 76 10000 2.6 320 02:20 01.02.2020
3357 Clouds 9 1019 76 10000 3.1 320 01:46 01.02.2020
3358 Clouds 9 1019 76 10000 2.6 330 01:27 01.02.2020
3359 Clouds 9 1019 76 10000 2.6 320 00:24 01.02.2020
3360 Clouds 9 1020 81 10000 2.6 310 23:41 31.01.2020
3361 Clouds 8 1019 81 10000 2.1 80 23:19 31.01.2020
3362 Clouds 8 1020 76 10000 0.5 0 22:57 31.01.2020
3363 Clouds 8 1020 76 10000 0.5 0 22:39 31.01.2020
3364 Clouds 8 1020 82 10000 2.6 90 22:21 31.01.2020
3365 Clouds 9 1019 82 10000 3.1 100 21:55 31.01.2020
3366 Clouds 9 1019 82 10000 3.1 100 21:37 31.01.2020
3367 Clouds 8 1019 82 10000 2.6 80 21:18 31.01.2020
3368 Clouds 9 1019 82 10000 3.6 80 20:55 31.01.2020
3369 Clouds 9 1019 82 10000 3.6 80 20:37 31.01.2020
3370 Clouds 11 1019 82 10000 3.6 90 20:18 31.01.2020
3371 Clouds 11 1019 82 10000 4.1 80 19:54 31.01.2020
3372 Clouds 11 1018 82 10000 3.6 90 19:36 31.01.2020
3373 Clouds 12 1018 82 10000 3.6 90 19:18 31.01.2020
3374 Clouds 11 1018 82 10000 3.6 80 18:38 31.01.2020
3375 Clouds 11 1018 82 10000 4.1 90 18:20 31.01.2020
3376 Clouds 11 1018 82 10000 3.1 90 17:46 31.01.2020
3377 Clouds 11 1018 82 10000 3.1 90 17:46 31.01.2020
3378 Clouds 12 1018 82 10000 2.6 90 17:27 31.01.2020
3379 Clouds 13 1018 82 10000 2.1 90 16:58 31.01.2020
3380 Clouds 13 1018 82 10000 2.1 90 16:38 31.01.2020
3381 Clouds 13 1018 77 10000 1.5 100 16:19 31.01.2020
3382 Clouds 13 1018 82 10000 1.5 90 15:58 31.01.2020
3383 Clouds 13 1018 82 10000 1.5 90 15:40 31.01.2020
3384 Clouds 14 1018 77 10000 1.5 100 15:20 31.01.2020
3385 Clouds 13 1018 72 10000 1.5 100 14:44 31.01.2020
3386 Clouds 13 1018 72 10000 1.5 100 14:24 31.01.2020
3387 Clouds 13 1019 72 10000 2.1 110 13:57 31.01.2020
3388 Clouds 13 1019 72 10000 2.1 110 13:38 31.01.2020
3389 Clouds 14 1019 72 10000 2.6 100 13:20 31.01.2020
3390 Clouds 13 1019 67 10000 2.1 100 12:45 31.01.2020
3391 Clouds 13 1019 67 10000 1.5 0 12:24 31.01.2020
3392 Clouds 13 1019 67 10000 1 0 11:55 31.01.2020
3393 Clouds 13 1019 67 10000 1 0 11:37 31.01.2020
3394 Clouds 11 1019 62 10000 2.1 320 11:19 31.01.2020
3395 Clouds 12 1019 66 10000 2.1 330 10:44 31.01.2020
3396 Clouds 11 1019 66 10000 3.6 330 10:23 31.01.2020
3397 Clouds 11 1019 71 10000 3.6 330 09:59 31.01.2020
3398 Clouds 10 1019 71 10000 3.6 330 09:41 31.01.2020
3399 Clouds 10 1019 76 10000 3.6 330 09:21 31.01.2020
3400 Clouds 9 1019 76 10000 3.6 330 08:54 31.01.2020
3401 Clouds 9 1019 76 10000 3.6 330 08:54 31.01.2020
3402 Clouds 7 1018 76 10000 3.6 330 08:28 31.01.2020
3403 Clouds 7 1018 76 10000 4.1 330 07:59 31.01.2020
3404 Clouds 7 1018 76 10000 4.1 330 07:40 31.01.2020
3405 Clouds 7 1018 81 10000 3.6 330 07:18 31.01.2020
3406 Clouds 7 1018 81 10000 3.6 330 06:27 31.01.2020
3407 Clouds 7 1018 81 10000 3.6 330 05:53 31.01.2020
3408 Clouds 7 1018 81 10000 4.6 330 05:19 31.01.2020
3409 Clouds 7 1018 81 10000 3.6 330 03:47 31.01.2020
3410 Clouds 7 1018 81 10000 3.6 320 01:54 31.01.2020
3411 Clouds 8 1018 81 10000 4.1 320 01:29 31.01.2020
3412 Clouds 8 1019 81 10000 4.1 320 00:38 31.01.2020
3413 Clouds 8 1019 81 10000 3.6 320 00:20 31.01.2020
3414 Clouds 8 1019 81 10000 3.1 320 23:40 30.01.2020
3415 Clouds 8 1019 81 10000 3.1 320 23:21 30.01.2020
3416 Clouds 8 1019 81 10000 2.6 330 22:38 30.01.2020
3417 Clouds 8 1019 81 10000 2.1 330 22:20 30.01.2020
3418 Clouds 9 1019 81 10000 2.1 330 21:58 30.01.2020
3419 Clouds 9 1019 81 10000 2.1 330 21:40 30.01.2020
3420 Clouds 9 1019 81 10000 1.5 350 21:18 30.01.2020
3421 Clouds 9 1019 81 10000 2.6 30 20:56 30.01.2020
3422 Clouds 8 1019 81 10000 2.6 30 20:38 30.01.2020
3423 Clouds 9 1019 76 10000 2.6 20 20:19 30.01.2020
3424 Clouds 11 1018 76 10000 2.1 70 19:44 30.01.2020
3425 Clouds 10 1018 76 10000 1.5 70 19:19 30.01.2020
3426 Clouds 10 1018 71 10000 1.5 70 18:58 30.01.2020
3427 Clouds 10 1018 71 10000 1.5 70 18:58 30.01.2020
3428 Clouds 10 1018 71 10000 1.5 70 18:37 30.01.2020
3429 Clouds 10 1018 71 10000 1.5 80 18:18 30.01.2020
3430 Clouds 10 1018 71 10000 1 0 17:41 30.01.2020
3431 Clouds 11 1018 71 10000 0.5 170 17:19 30.01.2020
3432 Clouds 12 1018 67 10000 1 180 16:58 30.01.2020
3433 Clouds 12 1018 67 10000 1 180 16:39 30.01.2020
3434 Clouds 13 1018 71 10000 1.5 190 16:21 30.01.2020
3435 Clouds 12 1018 71 10000 2.6 190 15:44 30.01.2020
3436 Clouds 13 1018 71 10000 2.1 180 15:21 30.01.2020
3437 Clouds 13 1018 71 10000 2.6 190 14:58 30.01.2020
3438 Clouds 13 1018 71 10000 2.6 190 14:39 30.01.2020
3439 Clouds 14 1018 72 10000 2.6 150 14:21 30.01.2020
3440 Clouds 13 1019 67 10000 2.6 130 13:41 30.01.2020
3441 Clouds 13 1019 67 10000 2.1 120 13:23 30.01.2020
3442 Clouds 14 1019 67 10000 2.6 110 12:56 30.01.2020
3443 Clouds 14 1019 67 10000 2.6 110 12:38 30.01.2020
3444 Clouds 14 1019 67 10000 3.1 110 12:19 30.01.2020
3445 Clouds 13 1020 47 10000 2.1 320 11:41 30.01.2020
3446 Clouds 10 1019 77 10000 3.6 320 11:22 30.01.2020
3447 Clouds 10 1019 77 10000 3.1 330 10:59 30.01.2020
3448 Clouds 10 1019 77 10000 3.1 330 10:40 30.01.2020
3449 Clouds 10 1019 46 10000 5.1 330 10:20 30.01.2020
3450 Clouds 8 1019 45 10000 5.1 330 09:45 30.01.2020
3451 Clouds 8 1019 49 10000 4.6 320 09:26 30.01.2020
3452 Clouds 6 1018 49 10000 4.6 330 08:43 30.01.2020
3453 Clouds 5 1018 49 10000 4.6 330 08:22 30.01.2020
3454 Clouds 5 1018 49 10000 3.6 330 07:59 30.01.2020
3455 Clouds 5 1018 49 10000 3.6 330 07:41 30.01.2020
3456 Clouds 5 1017 49 10000 3.6 320 07:19 30.01.2020
3457 Clouds 5 1017 49 10000 4.1 330 06:45 30.01.2020
3458 Clouds 5 1017 49 10000 3.1 340 06:26 30.01.2020
3459 Clouds 5 1017 49 10000 3.1 340 06:26 30.01.2020
3460 Clouds 6 1017 49 10000 2.6 350 05:39 30.01.2020
3461 Clear 6 1017 45 10000 5.1 330 05:19 30.01.2020
3462 Clear 7 1017 49 10000 4.6 330 03:48 30.01.2020
3463 Clear 7 1017 49 10000 5.1 330 03:26 30.01.2020
3464 Clouds 8 1017 46 10000 4.1 320 01:41 30.01.2020
3465 Clouds 8 1017 46 10000 5.1 320 00:37 30.01.2020
3466 Clouds 7 1017 46 10000 2.6 330 00:19 30.01.2020
3467 Clouds 7 1017 46 10000 2.6 330 00:19 30.01.2020
3468 Clouds 8 1016 64 10000 2.1 340 23:44 29.01.2020
3469 Clouds 9 1016 57 10000 4.1 320 23:20 29.01.2020
3470 Clouds 9 1016 61 10000 3.1 320 22:56 29.01.2020
3471 Clouds 10 1016 61 10000 3.1 320 22:38 29.01.2020
3472 Clouds 10 1016 66 10000 3.6 330 22:19 29.01.2020
3473 Clouds 10 1016 70 10000 2.1 330 21:56 29.01.2020
3474 Clouds 10 1015 76 10000 2.6 360 21:37 29.01.2020
3475 Clouds 10 1015 76 10000 2.6 360 21:37 29.01.2020
3476 Clouds 10 1015 76 10000 2.6 360 21:18 29.01.2020
3477 Clouds 11 1015 71 10000 1.5 0 20:57 29.01.2020
3478 Clouds 11 1015 71 10000 1.5 0 20:37 29.01.2020
3479 Clouds 11 1015 76 10000 2.6 50 20:18 29.01.2020
3480 Clouds 12 1014 82 10000 2.6 100 19:55 29.01.2020
3481 Clouds 12 1014 82 10000 2.6 100 19:36 29.01.2020
3482 Clouds 12 1013 76 10000 1.5 0 19:18 29.01.2020
3483 Clouds 10 1012 82 10000 3.1 70 18:40 29.01.2020
3484 Clouds 11 1012 82 10000 3.1 70 18:19 29.01.2020
3485 Clouds 11 1012 71 10000 5.1 80 17:41 29.01.2020
3486 Clouds 13 1011 76 10000 5.1 90 17:23 29.01.2020
3487 Clouds 14 1011 62 10000 2.6 70 16:59 29.01.2020
3488 Clouds 14 1011 62 10000 2.6 70 16:40 29.01.2020
3489 Clouds 15 1011 67 10000 5.7 100 16:20 29.01.2020
3490 Clouds 15 1011 36 10000 3.1 150 15:40 29.01.2020
3491 Clouds 15 1010 59 10000 2.1 0 15:22 29.01.2020
3492 Clouds 15 1010 67 10000 4.1 90 14:58 29.01.2020
3493 Clouds 16 1010 67 10000 4.1 90 14:40 29.01.2020
3494 Clouds 16 1011 62 10000 5.1 90 14:18 29.01.2020
3495 Clouds 16 1011 59 10000 6.2 90 13:41 29.01.2020
3496 Clouds 16 1011 49 10000 1.5 160 13:22 29.01.2020
3497 Clouds 16 1011 49 10000 1 0 12:58 29.01.2020
3498 Clouds 16 1011 49 10000 1 0 12:39 29.01.2020
3499 Clouds 16 1011 33 10000 5.1 270 12:21 29.01.2020
3500 Clouds 15 1011 38 10000 6.2 290 11:56 29.01.2020
3501 Clouds 15 1011 38 10000 6.2 290 11:38 29.01.2020
3502 Clouds 15 1011 38 10000 6.2 290 11:38 29.01.2020
3503 Clouds 14 1011 47 10000 5.1 290 11:19 29.01.2020
3504 Clouds 12 1011 41 10000 2.1 300 10:46 29.01.2020
3505 Clouds 13 1010 50 10000 7.7 280 10:22 29.01.2020
3506 Clouds 12 1010 50 10000 9.8 270 09:57 29.01.2020
3507 Clouds 12 1010 50 10000 9.8 270 09:38 29.01.2020
3508 Clouds 11 1010 50 10000 9.8 270 09:18 29.01.2020
3509 Clouds 10 1011 53 10000 7.7 270 08:41 29.01.2020
3510 Clouds 10 1010 53 10000 7.2 270 08:22 29.01.2020
3511 Clouds 10 1010 53 10000 7.2 280 07:45 29.01.2020
3512 Clouds 10 1010 53 10000 7.2 280 07:45 29.01.2020
3513 Clouds 10 1010 50 10000 7.7 270 07:26 29.01.2020
3514 Clouds 11 1010 58 10000 2.1 350 06:56 29.01.2020
3515 Clouds 11 1010 58 10000 2.1 350 06:37 29.01.2020
3516 Clouds 11 1010 50 10000 4.1 300 06:19 29.01.2020
3517 Clouds 11 1010 50 10000 4.1 290 05:49 29.01.2020
3518 Clouds 11 1010 50 10000 3.1 320 05:30 29.01.2020
3519 Clear 11 1010 50 10000 6.2 270 04:38 29.01.2020
3520 Clear 11 1010 50 10000 11.3 240 03:58 29.01.2020
3521 Clear 10 1010 58 10000 11.3 230 02:33 29.01.2020
3522 Clouds 10 1011 58 10000 10.8 230 00:59 29.01.2020
3523 Clouds 11 1011 58 10000 10.8 230 00:36 29.01.2020
3524 Clouds 11 1011 62 10000 11.8 210 00:18 29.01.2020
3525 Clouds 11 1011 62 10000 8.2 250 23:39 28.01.2020
3526 Clear 11 1010 62 10000 10.8 220 23:19 28.01.2020
3527 Clear 12 1010 66 10000 9.3 220 22:49 28.01.2020
3528 Clear 12 1010 58 10000 8.7 230 22:27 28.01.2020
3529 Clear 12 1010 50 10000 5.1 260 21:57 28.01.2020
3530 Clear 12 1010 50 10000 5.1 260 21:38 28.01.2020
3531 Clear 12 1010 58 10000 5.1 270 21:19 28.01.2020
3532 Clear 12 1010 54 10000 7.2 260 20:45 28.01.2020
3533 Clouds 12 1010 54 10000 7.2 250 20:26 28.01.2020
3534 Clouds 12 1009 58 10000 6.2 250 19:55 28.01.2020
3535 Clouds 13 1009 58 10000 6.2 250 19:37 28.01.2020
3536 Clouds 12 1009 58 10000 8.2 230 19:19 28.01.2020
3537 Clouds 13 1009 58 10000 9.3 250 18:42 28.01.2020
3538 Clouds 13 1009 54 10000 9.8 240 18:23 28.01.2020
3539 Clouds 13 1008 54 10000 10.3 240 17:59 28.01.2020
3540 Clouds 12 1008 54 10000 10.3 240 17:40 28.01.2020
3541 Clouds 13 1008 54 10000 10.8 240 17:21 28.01.2020
3542 Clouds 13 1009 54 10000 9.8 240 16:59 28.01.2020
3543 Clouds 13 1009 54 10000 9.8 240 16:40 28.01.2020
3544 Clouds 14 1009 51 10000 11.3 250 16:22 28.01.2020
3545 Clouds 13 1008 41 10000 10.8 260 15:48 28.01.2020
3546 Clouds 14 1008 44 10000 8.7 240 15:20 28.01.2020
3547 Clouds 15 1009 48 10000 9.3 240 14:59 28.01.2020
3548 Clouds 15 1009 48 10000 9.3 240 14:41 28.01.2020
3549 Clouds 15 1009 45 10000 8.7 260 14:19 28.01.2020
3550 Clouds 16 1009 39 10000 9.3 260 13:42 28.01.2020
3551 Clouds 15 1010 48 10000 11.3 250 13:24 28.01.2020
3552 Clouds 15 1010 51 10000 10.3 260 12:45 28.01.2020
3553 Clouds 15 1010 51 10000 10.8 250 12:25 28.01.2020
3554 Clouds 15 1011 55 10000 11.3 250 11:59 28.01.2020
3555 Clouds 15 1011 55 10000 11.3 250 11:41 28.01.2020
3556 Clouds 12 1012 58 10000 11.3 250 11:21 28.01.2020
3557 Clouds 11 1012 71 10000 10.3 230 10:44 28.01.2020
3558 Clouds 13 1012 71 10000 5.1 260 10:26 28.01.2020
3559 Clouds 13 1012 71 10000 4.1 310 09:59 28.01.2020
3560 Clouds 12 1012 71 10000 4.1 310 09:41 28.01.2020
3561 Clouds 10 1012 87 10000 4.6 330 09:20 28.01.2020
3562 Clouds 10 1012 87 10000 4.6 330 09:20 28.01.2020
3563 Clouds 8 1012 87 10000 3.6 320 08:44 28.01.2020
3564 Clouds 8 1011 87 10000 3.1 310 08:25 28.01.2020
3565 Clouds 7 1011 81 10000 4.1 320 07:53 28.01.2020
3566 Clouds 7 1011 81 10000 4.1 320 07:31 28.01.2020
3567 Clouds 6 1011 81 10000 4.1 310 06:47 28.01.2020
3568 Clouds 6 1011 81 10000 3.6 300 06:24 28.01.2020
3569 Clouds 6 1012 87 10000 3.6 310 05:40 28.01.2020
3570 Clouds 6 1012 87 10000 3.6 270 05:21 28.01.2020
3571 Clouds 6 1013 81 10000 4.1 320 03:49 28.01.2020
3572 Clouds 6 1014 87 10000 3.1 290 02:46 28.01.2020
3573 Clouds 9 1014 81 10000 2.6 320 02:25 28.01.2020
3574 Clouds 9 1014 87 10000 3.6 340 01:55 28.01.2020
3575 Clouds 9 1015 87 10000 3.6 330 01:22 28.01.2020
3576 Rain 7 1016 87 7000 2.1 250 00:45 28.01.2020
3577 Rain 8 1016 81 10000 3.6 320 00:22 28.01.2020
3578 Rain 9 1016 76 10000 3.1 320 23:44 27.01.2020
3579 Clouds 10 1016 76 10000 3.6 320 23:20 27.01.2020
3580 Clouds 10 1016 76 10000 2.6 290 22:45 27.01.2020
3581 Clouds 10 1017 76 10000 3.1 270 22:20 27.01.2020
3582 Clouds 10 1017 76 10000 3.1 270 22:20 27.01.2020
3583 Clouds 10 1017 76 10000 3.1 270 22:20 27.01.2020
3584 Clouds 8 1017 76 10000 2.1 280 21:58 27.01.2020
3585 Clouds 8 1017 76 10000 2.1 280 21:39 27.01.2020
3586 Clouds 8 1017 76 10000 3.6 270 21:19 27.01.2020
3587 Clouds 8 1017 76 10000 3.6 270 21:19 27.01.2020
3588 Clouds 8 1017 76 10000 4.6 250 20:57 27.01.2020
3589 Clouds 9 1017 66 10000 4.6 250 20:38 27.01.2020
3590 Clouds 10 1017 66 10000 4.6 250 20:20 27.01.2020
3591 Clouds 10 1017 66 10000 5.1 250 19:57 27.01.2020
3592 Clouds 11 1017 66 10000 5.1 250 19:38 27.01.2020
3593 Clouds 11 1017 66 10000 5.7 260 19:20 27.01.2020
3594 Clouds 12 1017 71 10000 7.7 230 18:40 27.01.2020
3595 Clouds 10 1017 67 10000 8.7 220 18:21 27.01.2020
3596 Clouds 10 1017 62 10000 7.7 230 17:58 27.01.2020
3597 Clouds 12 1017 62 10000 7.7 230 17:38 27.01.2020
3598 Clouds 12 1017 62 10000 3.1 250 17:19 27.01.2020
3599 Clouds 12 1017 58 10000 4.1 240 16:56 27.01.2020
3600 Clouds 12 1017 58 10000 4.1 240 16:37 27.01.2020
3601 Clouds 12 1017 58 10000 5.7 230 16:19 27.01.2020
3602 Clouds 13 1017 67 10000 3.6 210 15:41 27.01.2020
3603 Clouds 13 1018 67 10000 3.1 200 15:20 27.01.2020
3604 Clouds 13 1018 66 10000 4.6 200 14:59 27.01.2020
3605 Clouds 13 1018 66 10000 4.6 200 14:40 27.01.2020
3606 Clouds 12 1018 71 10000 3.1 200 14:21 27.01.2020
3607 Clouds 12 1018 76 10000 3.6 200 13:54 27.01.2020
3608 Clouds 12 1018 76 10000 3.6 200 13:36 27.01.2020
3609 Clouds 12 1019 66 10000 2.6 210 13:18 27.01.2020
3610 Clouds 12 1019 66 10000 1 0 12:41 27.01.2020
3611 Clouds 12 1020 54 10000 3.1 320 12:22 27.01.2020
3612 Clouds 12 1020 54 10000 4.1 320 11:43 27.01.2020
3613 Clouds 9 1020 57 10000 4.6 320 11:23 27.01.2020
3614 Clouds 8 1019 61 10000 5.1 320 10:57 27.01.2020
3615 Clouds 8 1019 61 10000 5.1 320 10:57 27.01.2020
3616 Clouds 8 1019 61 10000 5.1 320 10:57 27.01.2020
3617 Clouds 8 1019 61 10000 5.1 320 10:39 27.01.2020
3618 Clouds 9 1019 66 10000 6.2 330 10:20 27.01.2020
3619 Clouds 8 1019 65 10000 5.1 330 09:40 27.01.2020
3620 Clouds 7 1020 70 10000 4.6 330 09:19 27.01.2020
3621 Clouds 6 1019 70 10000 5.7 330 08:58 27.01.2020
3622 Clouds 5 1019 70 10000 5.7 330 08:40 27.01.2020
3623 Clouds 4 1019 70 10000 5.1 330 08:19 27.01.2020
3624 Clouds 5 1019 70 10000 5.7 330 07:50 27.01.2020
3625 Clouds 4 1019 70 10000 5.1 330 07:32 27.01.2020
3626 Clear 4 1018 75 10000 5.1 320 06:39 27.01.2020
3627 Clear 5 1019 75 10000 4.6 320 05:53 27.01.2020
3628 Clear 5 1018 70 10000 4.6 320 05:18 27.01.2020
3629 Clear 7 1018 75 10000 4.1 310 03:36 27.01.2020
3630 Clouds 8 1019 76 10000 4.1 340 01:57 27.01.2020
3631 Clouds 6 1019 87 10000 3.6 340 01:28 27.01.2020
3632 Clouds 7 1019 87 10000 3.6 340 01:28 27.01.2020
3633 Clouds 5 1019 87 10000 4.6 320 00:42 27.01.2020
3634 Clouds 5 1019 87 10000 2.6 300 00:22 27.01.2020
3635 Clouds 5 1019 87 10000 2.6 300 00:22 27.01.2020
3636 Clouds 5 1019 87 10000 2.6 270 23:58 26.01.2020
3637 Clouds 6 1019 87 10000 3.1 310 23:39 26.01.2020
3638 Clouds 7 1019 87 10000 3.1 310 23:18 26.01.2020
3639 Clouds 8 1019 87 10000 3.6 320 22:39 26.01.2020
3640 Clouds 8 1020 87 10000 2.6 320 22:20 26.01.2020
3641 Clouds 8 1020 87 10000 3.1 320 21:59 26.01.2020
3642 Clouds 8 1020 87 10000 3.1 320 21:40 26.01.2020
3643 -273 0 0 0 0 0 21:22 26.01.2020
3644 Clouds 9 1019 81 10000 1.5 310 20:58 26.01.2020
3645 Clouds 9 1019 81 10000 1.5 310 20:40 26.01.2020
3646 Clouds 9 1019 81 10000 1.5 300 20:20 26.01.2020
3647 Clouds 9 1019 76 10000 1.5 330 19:59 26.01.2020
3648 Clouds 10 1019 76 10000 1.5 330 19:39 26.01.2020
3649 Clouds 11 1019 76 10000 1 0 19:21 26.01.2020
3650 Clouds 10 1019 76 10000 2.1 240 18:59 26.01.2020
3651 Clouds 10 1019 76 10000 2.1 240 18:39 26.01.2020
3652 Clouds 11 1019 71 10000 3.1 220 18:21 26.01.2020
3653 Clouds 11 1019 71 10000 3.1 220 18:21 26.01.2020
3654 Clouds 11 1019 76 10000 5.7 220 17:57 26.01.2020
3655 Clouds 11 1019 76 10000 5.7 220 17:38 26.01.2020
3656 Clouds 12 1019 76 10000 4.6 220 17:18 26.01.2020
3657 Clouds 12 1019 76 10000 4.6 220 17:18 26.01.2020
3658 Clouds 12 1019 76 10000 5.1 210 16:57 26.01.2020
3659 Clouds 12 1019 76 10000 5.1 210 16:39 26.01.2020
3660 Clouds 12 1019 67 10000 5.1 200 16:20 26.01.2020
3661 Clouds 12 1019 67 10000 5.1 200 16:20 26.01.2020
3662 Clouds 13 1019 71 10000 5.7 200 15:45 26.01.2020
3663 Clouds 13 1020 71 10000 5.1 190 15:22 26.01.2020
3664 Clouds 13 1020 71 10000 5.1 190 14:58 26.01.2020
3665 Clouds 12 1020 71 10000 5.1 190 14:39 26.01.2020
3666 Clouds 12 1020 71 10000 3.6 190 14:19 26.01.2020
3667 Clouds 12 1020 71 10000 3.6 190 13:42 26.01.2020
3668 Clouds 13 1020 71 10000 2.1 180 13:20 26.01.2020
3669 Clouds 13 1021 67 10000 2.1 160 12:57 26.01.2020
3670 Clouds 13 1021 62 10000 1 0 12:38 26.01.2020
3671 Clouds 13 1021 62 10000 1 0 12:20 26.01.2020
3672 Clouds 13 1021 67 10000 1 0 11:57 26.01.2020
3673 Clouds 12 1021 66 10000 1.5 0 11:37 26.01.2020
3674 Clouds 11 1021 66 10000 2.6 330 11:18 26.01.2020
3675 Clouds 11 1021 66 10000 2.6 330 10:57 26.01.2020
3676 Clouds 11 1021 66 10000 2.6 330 10:38 26.01.2020
3677 Clouds 10 1021 71 10000 3.6 320 10:19 26.01.2020
3678 Clouds 9 1021 76 10000 3.1 330 09:56 26.01.2020
3679 Clouds 9 1021 76 10000 3.1 330 09:38 26.01.2020
3680 Clouds 9 1021 81 10000 3.6 320 09:19 26.01.2020
3681 Clouds 8 1021 93 10000 2.1 10 08:42 26.01.2020
3682 Clouds 7 1020 81 10000 3.1 330 08:22 26.01.2020
3683 Clouds 7 1020 76 10000 2.6 330 07:54 26.01.2020
3684 Clouds 7 1020 76 10000 2.6 330 07:36 26.01.2020
3685 Clouds 7 1020 81 10000 2.6 340 07:18 26.01.2020
3686 Clouds 7 1020 81 10000 3.6 340 06:26 26.01.2020
3687 Clouds 7 1020 81 10000 4.1 330 05:29 26.01.2020
3688 Clouds 7 1020 81 10000 4.1 330 04:43 26.01.2020
3689 Clouds 8 1021 87 10000 3.1 320 02:38 26.01.2020
3690 Clouds 7 1021 93 10000 4.1 320 01:46 26.01.2020
3691 Clouds 8 1021 87 10000 3.6 320 01:23 26.01.2020
3692 Clouds 7 1022 87 10000 4.1 320 00:44 26.01.2020
3693 Clouds 7 1022 87 10000 2.1 320 00:26 26.01.2020
3694 Clouds 7 1022 81 10000 2.6 320 23:40 25.01.2020
3695 Clouds 8 1022 81 10000 2.6 320 23:21 25.01.2020
3696 Clouds 9 1022 76 10000 2.1 320 22:56 25.01.2020
3697 Clouds 9 1022 76 10000 2.1 320 22:56 25.01.2020
3698 Clouds 9 1022 76 10000 2.1 320 22:37 25.01.2020
3699 Clouds 8 1022 76 10000 1.5 320 22:18 25.01.2020
3700 Clouds 9 1022 76 10000 1.5 320 21:55 25.01.2020
3701 Clouds 8 1022 76 10000 1 0 21:37 25.01.2020
3702 Clouds 12 1023 68 0 1.25 183 21:19 25.01.2020
3703 Clouds 8 1022 76 10000 1.5 340 20:43 25.01.2020
3704 Clouds 8 1022 76 10000 2.1 300 20:24 25.01.2020
3705 Clouds 12 1022 70 0 3.03 162 19:54 25.01.2020
3706 Clouds 9 1022 71 10000 2.6 240 19:36 25.01.2020
3707 Clouds 9 1021 72 0 3.03 162 19:18 25.01.2020
3708 Clouds 10 1021 71 10000 3.6 230 18:41 25.01.2020
3709 Clouds 11 1021 71 10000 3.6 230 18:21 25.01.2020
3710 Clouds 11 1021 81 10000 2.1 190 17:57 25.01.2020
3711 Clouds 10 1021 81 10000 2.1 190 17:37 25.01.2020
3712 Clouds 10 1021 81 10000 2.1 190 17:37 25.01.2020
3713 Clouds 10 1021 71 10000 5.7 210 17:18 25.01.2020
3714 Clouds 10 1022 71 10000 5.7 210 16:42 25.01.2020
3715 Clouds 10 1022 71 10000 5.7 210 16:42 25.01.2020
3716 Clouds 12 1022 67 10000 5.7 210 16:23 25.01.2020
3717 Clouds 12 1022 67 10000 5.7 210 15:57 25.01.2020
3718 Clouds 11 1022 71 10000 6.2 210 15:39 25.01.2020
3719 Clouds 12 1022 71 10000 6.2 210 15:20 25.01.2020
3720 Clouds 12 1022 67 10000 6.2 220 14:42 25.01.2020
3721 Clouds 12 1022 71 10000 6.7 220 14:19 25.01.2020
3722 Clouds 12 1023 71 10000 6.2 220 13:45 25.01.2020
3723 Clouds 12 1023 71 10000 6.2 220 13:27 25.01.2020
3724 Clouds 13 1023 67 10000 5.7 210 12:58 25.01.2020
3725 Clouds 13 1023 67 10000 5.7 210 12:38 25.01.2020
3726 Clouds 13 1023 67 10000 5.7 210 12:19 25.01.2020
3727 Clouds 13 1023 71 10000 5.7 220 11:40 25.01.2020
3728 Clouds 11 1023 76 10000 4.6 250 11:20 25.01.2020
3729 Clouds 10 1023 76 10000 3.6 320 10:56 25.01.2020
3730 Clouds 10 1023 76 10000 3.6 320 10:38 25.01.2020
3731 Clouds 8 1023 71 10000 5.7 320 10:18 25.01.2020
3732 Clouds 10 1023 71 10000 4.1 330 09:40 25.01.2020
3733 Clouds 10 1022 76 10000 4.1 330 09:19 25.01.2020
3734 Clouds 9 1022 76 10000 4.6 330 08:43 25.01.2020
3735 Clouds 9 1021 76 10000 4.6 320 07:58 25.01.2020
3736 Clouds 9 1021 76 10000 4.6 320 07:36 25.01.2020
3737 Clouds 8 1021 81 10000 5.1 320 06:41 25.01.2020
3738 Clouds 9 1021 81 10000 3.6 330 06:22 25.01.2020
3739 Clouds 9 1021 81 10000 4.1 330 05:43 25.01.2020
3740 Clouds 9 1021 81 10000 4.6 320 04:24 25.01.2020
3741 Clouds 9 1021 81 10000 4.1 330 03:50 25.01.2020
3742 Clouds 9 1021 87 10000 3.6 330 02:40 25.01.2020
3743 Clouds 9 1022 87 10000 4.1 330 01:58 25.01.2020
3744 Clouds 9 1022 87 10000 4.1 330 01:34 25.01.2020
3745 Clouds 9 1022 87 10000 3.6 330 00:41 25.01.2020
3746 Rain 9 1022 87 10000 3.6 330 00:23 25.01.2020
3747 Rain 9 1022 87 10000 3.1 340 23:42 24.01.2020
3748 Rain 10 1022 87 9000 3.1 320 23:24 24.01.2020
3749 Rain 10 1022 81 9000 3.6 30 22:56 24.01.2020
3750 Rain 10 1022 81 9000 3.6 30 22:37 24.01.2020
3751 Rain 9 1022 87 9000 1.5 20 22:19 24.01.2020
3752 Rain 10 1022 87 9000 2.1 330 21:41 24.01.2020
3753 Rain 10 1022 81 10000 1.5 0 21:20 24.01.2020
3754 Rain 11 1021 81 10000 3.1 330 20:55 24.01.2020
3755 Rain 10 1021 81 10000 3.1 330 20:37 24.01.2020
3756 Rain 11 1022 81 10000 3.6 350 20:18 24.01.2020
3757 Clouds 11 1021 71 10000 3.1 340 19:55 24.01.2020
3758 Clouds 11 1021 71 10000 3.1 340 19:37 24.01.2020
3759 Clouds 11 1021 62 10000 3.6 60 19:19 24.01.2020
3760 Clouds 11 1021 62 10000 3.6 60 19:19 24.01.2020
3761 Clouds 9 1021 71 10000 7.2 90 18:42 24.01.2020
3762 Clouds 9 1021 71 10000 7.7 90 18:22 24.01.2020
3763 Clouds 9 1021 71 10000 7.7 90 18:22 24.01.2020
3764 Clouds 8 1021 76 10000 8.7 90 17:45 24.01.2020
3765 Clouds 11 1021 76 10000 8.2 80 17:23 24.01.2020
3766 Clouds 11 1021 76 10000 8.7 80 16:58 24.01.2020
3767 Clouds 11 1021 76 10000 8.7 80 16:39 24.01.2020
3768 Clouds 11 1021 76 10000 7.7 80 16:19 24.01.2020
3769 Clouds 11 1022 82 10000 9.8 70 15:42 24.01.2020
3770 Clouds 11 1022 82 10000 9.8 80 15:22 24.01.2020
3771 Rain 11 1023 82 10000 9.3 80 14:56 24.01.2020
3772 Rain 12 1023 82 10000 9.3 80 14:37 24.01.2020
3773 Rain 12 1023 82 10000 9.8 90 14:19 24.01.2020
3774 Clouds 13 1023 71 10000 9.8 90 13:42 24.01.2020
3775 Clouds 13 1023 71 10000 8.7 90 13:22 24.01.2020
3776 Clouds 13 1024 67 10000 6.7 70 12:44 24.01.2020
3777 Clouds 13 1024 67 10000 6.7 70 12:44 24.01.2020
3778 Clouds 13 1024 58 10000 7.2 80 12:21 24.01.2020
3779 Clouds 13 1024 58 10000 6.2 80 11:45 24.01.2020
3780 Clouds 12 1024 62 10000 4.1 330 11:20 24.01.2020
3781 Clouds 12 1024 62 10000 4.1 330 11:19 24.01.2020
3782 Clouds 12 1024 62 10000 4.6 320 10:59 24.01.2020
3783 Clouds 11 1024 62 10000 4.6 320 10:41 24.01.2020
3784 Clouds 11 1024 62 10000 4.6 320 10:41 24.01.2020
3785 Clouds 11 1024 62 10000 5.1 330 10:19 24.01.2020
3786 Clouds 11 1024 66 10000 4.6 330 09:42 24.01.2020
3787 Clouds 11 1024 66 10000 4.6 330 09:42 24.01.2020
3788 Clouds 10 1024 66 10000 5.1 330 09:24 24.01.2020
3789 Clouds 10 1024 66 10000 5.1 330 08:59 24.01.2020
3790 Clouds 9 1024 66 10000 5.1 330 08:38 24.01.2020
3791 Clouds 7 1024 66 10000 4.6 330 08:18 24.01.2020
3792 Clouds 7 1024 66 10000 4.1 330 07:43 24.01.2020
3793 Clouds 7 1024 66 10000 4.1 320 07:22 24.01.2020
3794 Clouds 7 1024 66 10000 5.1 330 06:43 24.01.2020
3795 Clouds 7 1024 66 10000 4.1 330 06:23 24.01.2020
3796 Clouds 7 1024 71 10000 5.7 330 05:22 24.01.2020
3797 Clouds 8 1025 71 10000 5.7 330 03:34 24.01.2020
3798 Clouds 9 1025 71 10000 4.6 330 02:40 24.01.2020
3799 Clouds 8 1026 71 10000 4.6 320 02:20 24.01.2020
3800 Clouds 9 1026 71 10000 3.6 330 01:38 24.01.2020
3801 Clouds 8 1026 71 10000 4.1 320 00:42 24.01.2020
3802 Clouds 8 1026 71 10000 4.1 340 00:19 24.01.2020
3803 Clouds 8 1027 71 10000 4.1 320 23:42 23.01.2020
3804 Clouds 8 1027 71 10000 4.1 320 23:22 23.01.2020
3805 Clear 7 1026 71 10000 4.1 330 22:58 23.01.2020
3806 Clear 8 1026 71 10000 4.1 330 22:37 23.01.2020
3807 Clear 7 1027 71 10000 3.6 330 22:18 23.01.2020
3808 Clear 8 1027 71 10000 4.1 310 21:55 23.01.2020
3809 Clear 8 1027 71 10000 4.1 310 21:37 23.01.2020
3810 Clear 8 1027 71 10000 4.6 320 21:19 23.01.2020
3811 Clear 8 1027 66 10000 3.6 330 20:55 23.01.2020
3812 Clear 10 1027 66 10000 3.6 330 20:37 23.01.2020
3813 Clouds 10 1027 62 10000 2.1 0 20:18 23.01.2020
3814 Clouds 11 1026 71 10000 5.1 80 19:42 23.01.2020
3815 Clouds 11 1026 71 10000 7.2 90 19:23 23.01.2020
3816 Clouds 11 1026 71 10000 5.7 80 18:58 23.01.2020
3817 Clouds 11 1026 71 10000 5.7 80 18:39 23.01.2020
3818 Clouds 11 1026 76 10000 6.2 70 18:20 23.01.2020
3819 Clouds 10 1026 71 10000 7.2 80 17:56 23.01.2020
3820 Clouds 10 1026 71 10000 7.2 80 17:37 23.01.2020
3821 Clouds 12 1026 71 10000 7.2 90 17:18 23.01.2020
3822 Clouds 13 1026 71 10000 8.7 90 16:39 23.01.2020
3823 Clouds 13 1026 67 10000 9.8 90 16:20 23.01.2020
3824 Clouds 13 1026 67 10000 10.8 90 15:58 23.01.2020
3825 Clouds 13 1026 67 10000 10.8 90 15:40 23.01.2020
3826 Clouds 14 1026 67 10000 10.8 90 15:19 23.01.2020
3827 Clouds 14 1026 67 10000 11.3 100 14:59 23.01.2020
3828 Clouds 13 1026 67 10000 11.3 100 14:41 23.01.2020
3829 Clouds 14 1026 72 10000 9.8 90 14:23 23.01.2020
3830 Clouds 14 1026 72 10000 11.3 80 13:59 23.01.2020
3831 Clouds 14 1026 72 10000 11.3 80 13:37 23.01.2020
3832 Clouds 13 1027 72 10000 11.3 80 13:19 23.01.2020
3833 Clouds 13 1027 72 10000 12.3 80 12:44 23.01.2020
3834 Clouds 13 1028 72 10000 11.3 90 12:24 23.01.2020
3835 Clouds 13 1028 72 10000 12.3 90 11:56 23.01.2020
3836 Clouds 13 1028 72 10000 12.3 90 11:37 23.01.2020
3837 Clouds 13 1028 72 10000 12.3 90 11:37 23.01.2020
3838 Clouds 12 1027 72 10000 12.3 90 11:18 23.01.2020
3839 Clouds 12 1027 67 10000 11.3 80 10:44 23.01.2020
3840 Clouds 12 1027 71 10000 8.2 70 10:22 23.01.2020
3841 Clouds 10 1027 57 10000 5.1 320 09:43 23.01.2020
3842 Clouds 9 1027 61 10000 5.1 330 09:25 23.01.2020
3843 Clouds 9 1027 61 10000 5.7 330 08:59 23.01.2020
3844 Clouds 8 1027 61 10000 5.7 330 08:40 23.01.2020
3845 Clouds 7 1027 61 10000 6.2 320 08:22 23.01.2020
3846 Clouds 7 1027 61 10000 5.7 320 07:45 23.01.2020
3847 Clouds 7 1027 61 10000 5.7 320 07:26 23.01.2020
3848 Clouds 6 1027 61 10000 5.7 320 06:52 23.01.2020
3849 Clouds 6 1027 61 10000 5.7 320 06:22 23.01.2020
3850 Clouds 6 1027 61 10000 5.7 330 05:57 23.01.2020
3851 Clouds 8 1027 61 10000 6.2 320 04:24 23.01.2020
3852 Clouds 8 1026 57 10000 5.7 330 02:34 23.01.2020
3853 Clouds 9 1027 61 10000 5.1 320 01:41 23.01.2020
3854 Clouds 8 1027 61 10000 4.6 320 00:28 23.01.2020
3855 Clouds 8 1027 57 10000 5.1 320 23:48 22.01.2020
3856 Clouds 9 1027 57 10000 3.6 330 23:30 22.01.2020
3857 Clouds 8 1027 57 10000 4.1 330 22:59 22.01.2020
3858 Clouds 8 1027 57 10000 4.1 330 22:41 22.01.2020
3859 Clouds 8 1027 57 10000 4.1 330 22:41 22.01.2020
3860 Clouds 8 1027 57 10000 3.6 330 22:22 22.01.2020
3861 Clouds 9 1027 57 10000 3.6 330 21:40 22.01.2020
3862 Clouds 9 1027 61 10000 3.1 330 21:22 22.01.2020
3863 Clouds 9 1028 61 10000 3.6 330 20:58 22.01.2020
3864 Clouds 9 1028 61 10000 3.6 330 20:39 22.01.2020
3865 Clouds 9 1028 61 10000 4.1 330 20:21 22.01.2020
3866 Clouds 9 1028 61 10000 3.6 330 19:57 22.01.2020
3867 Clouds 10 1028 61 10000 3.6 330 19:39 22.01.2020
3868 Clouds 10 1028 54 10000 3.6 40 19:19 22.01.2020
3869 Clouds 11 1028 67 10000 8.2 70 18:57 22.01.2020
3870 Clouds 11 1028 67 10000 8.2 70 18:38 22.01.2020
3871 Clouds 11 1028 67 10000 8.2 70 18:38 22.01.2020
3872 Clouds 11 1028 67 10000 8.7 70 18:19 22.01.2020
3873 Clouds 11 1028 71 10000 10.3 70 17:55 22.01.2020
3874 Clouds 10 1028 71 10000 11.3 80 17:36 22.01.2020
3875 Clouds 12 1028 71 10000 11.3 80 17:18 22.01.2020
3876 Clouds 14 1028 71 10000 10.8 80 16:43 22.01.2020
3877 Clouds 14 1028 71 10000 10.8 80 16:23 22.01.2020
3878 Clouds 14 1029 62 10000 9.3 80 15:58 22.01.2020
3879 Clouds 14 1029 62 10000 9.3 80 15:40 22.01.2020
3880 Clouds 15 1029 58 10000 10.8 80 15:22 22.01.2020
3881 Clouds 13 1029 54 10000 10.3 80 14:56 22.01.2020
3882 Clouds 13 1029 54 10000 10.3 80 14:36 22.01.2020
3883 Clouds 14 1030 58 10000 9.8 70 14:18 22.01.2020
3884 Clouds 14 1030 58 10000 10.3 70 13:54 22.01.2020
3885 Clouds 14 1030 58 10000 10.3 70 13:36 22.01.2020
3886 Clouds 14 1031 54 10000 11.3 80 13:18 22.01.2020
3887 Clouds 14 1031 54 10000 10.3 80 12:54 22.01.2020
3888 Clouds 14 1031 54 10000 10.3 80 12:36 22.01.2020
3889 Clouds 14 1031 54 10000 11.3 80 12:18 22.01.2020
3890 Clouds 14 1032 47 10000 9.8 70 11:54 22.01.2020
3891 Clouds 14 1032 47 10000 9.8 70 11:36 22.01.2020
3892 Clouds 13 1032 51 10000 6.7 60 11:18 22.01.2020
3893 Clouds 11 1032 46 10000 4.6 330 10:42 22.01.2020
3894 Clouds 10 1032 49 10000 4.1 330 10:19 22.01.2020
3895 Clouds 10 1032 49 10000 3.6 350 09:43 22.01.2020
3896 Clouds 9 1032 49 10000 5.1 320 09:24 22.01.2020
3897 Clouds 9 1032 52 10000 4.6 330 08:57 22.01.2020
3898 Clouds 9 1032 52 10000 4.6 330 08:57 22.01.2020
3899 Clouds 9 1032 52 10000 4.6 330 08:39 22.01.2020
3900 Clouds 9 1031 52 10000 4.1 330 08:21 22.01.2020
3901 Clouds 9 1031 52 10000 5.1 330 07:48 22.01.2020
3902 Clouds 8 1032 52 10000 5.1 330 07:30 22.01.2020
3903 Clouds 8 1032 52 10000 4.6 330 06:50 22.01.2020
3904 Clouds 9 1032 55 10000 4.6 330 06:26 22.01.2020
3905 Clouds 8 1032 55 10000 4.6 330 05:33 22.01.2020
3906 Clouds 7 1033 53 10000 5.1 320 04:18 22.01.2020
3907 Clouds 8 1033 61 10000 5.7 330 03:22 22.01.2020
3908 Clouds 7 1034 61 10000 5.7 330 01:44 22.01.2020
3909 Clouds 7 1034 65 10000 4.6 320 00:44 22.01.2020
3910 Clouds 8 1034 61 10000 4.1 320 00:26 22.01.2020
3911 Clouds 8 1035 66 10000 3.6 310 23:39 21.01.2020
3912 Clouds 8 1034 66 10000 3.6 320 23:21 21.01.2020
3913 Clouds 9 1034 66 10000 4.1 330 22:59 21.01.2020
3914 Clouds 9 1034 66 10000 4.1 330 22:39 21.01.2020
3915 Clouds 9 1034 66 10000 4.1 320 22:20 21.01.2020
3916 Clouds 10 1034 61 10000 3.6 330 21:56 21.01.2020
3917 Clouds 10 1034 57 10000 4.6 50 21:37 21.01.2020
3918 Clouds 10 1034 57 10000 4.6 50 21:19 21.01.2020
3919 Clouds 10 1034 57 10000 4.6 50 21:19 21.01.2020
3920 Clouds 11 1034 50 10000 7.2 70 20:55 21.01.2020
3921 Clouds 11 1034 50 10000 7.2 70 20:37 21.01.2020
3922 Clouds 12 1034 50 10000 10.3 90 20:18 21.01.2020
3923 Clouds 12 1033 50 10000 8.7 80 19:55 21.01.2020
3924 Clouds 12 1033 50 10000 8.7 80 19:37 21.01.2020
3925 Clouds 12 1033 47 10000 11.3 80 19:18 21.01.2020
3926 Clouds 12 1033 50 10000 11.8 90 18:54 21.01.2020
3927 Clouds 10 1033 54 10000 12.3 90 18:36 21.01.2020
3928 Clouds 10 1033 54 10000 12.3 90 18:18 21.01.2020
3929 Clouds 10 1033 50 10000 11.8 90 17:42 21.01.2020
3930 Clouds 12 1033 54 10000 11.3 90 17:19 21.01.2020
3931 Clouds 12 1033 54 10000 11.3 90 16:57 21.01.2020
3932 Clouds 12 1033 54 10000 11.3 90 16:36 21.01.2020
3933 Clouds 13 1033 54 10000 11.3 90 16:18 21.01.2020
3934 Clouds 13 1034 54 10000 11.3 90 15:40 21.01.2020
3935 Clouds 13 1034 54 10000 10.8 90 15:20 21.01.2020
3936 Clouds 14 1034 50 10000 10.8 90 14:58 21.01.2020
3937 Clouds 13 1034 50 10000 10.8 90 14:37 21.01.2020
3938 Clouds 13 1034 50 10000 9.8 90 14:19 21.01.2020
3939 Clouds 13 1035 54 10000 8.7 70 13:39 21.01.2020
3940 Clouds 13 1035 50 10000 8.7 70 13:19 21.01.2020
3941 Clouds 12 1036 41 10000 4.6 80 12:43 21.01.2020
3942 Clouds 12 1036 50 10000 11.3 80 12:25 21.01.2020
3943 Clouds 12 1036 54 10000 11.3 90 11:57 21.01.2020
3944 Clouds 13 1036 54 10000 11.3 90 11:38 21.01.2020
3945 Clouds 9 1036 50 10000 11.3 90 11:20 21.01.2020
3946 Clouds 12 1036 47 10000 7.2 70 10:44 21.01.2020
3947 Clouds 11 1036 50 10000 8.7 70 10:23 21.01.2020
3948 Clouds 10 1036 47 10000 9.8 80 09:59 21.01.2020
3949 Clouds 10 1036 47 10000 9.8 80 09:41 21.01.2020
3950 Clouds 9 1036 43 10000 6.2 50 09:22 21.01.2020
3951 Clouds 9 1036 43 10000 6.2 50 09:22 21.01.2020
3952 Clouds 9 1036 47 10000 7.2 70 08:48 21.01.2020
3953 Clouds 10 1036 49 10000 5.7 60 08:29 21.01.2020
3954 Clouds 10 1036 50 10000 5.1 50 07:57 21.01.2020
3955 Clouds 10 1036 50 10000 5.1 50 07:38 21.01.2020
3956 Clouds 9 1036 47 10000 2.1 20 07:20 21.01.2020
3957 Clouds 9 1035 49 10000 2.1 330 06:45 21.01.2020
3958 Clouds 9 1035 45 10000 1.5 340 06:25 21.01.2020
3959 Clouds 10 1035 46 10000 3.1 30 05:41 21.01.2020
3960 Clouds 10 1035 50 10000 9.8 90 04:39 21.01.2020
3961 Clouds 10 1036 40 10000 3.1 50 02:55 21.01.2020
3962 Clouds 11 1036 34 10000 5.1 60 01:51 21.01.2020
3963 Clouds 9 1037 40 10000 3.6 50 00:57 21.01.2020
3964 Clouds 11 1037 37 10000 5.1 50 00:35 21.01.2020
3965 Clouds 9 1037 40 10000 5.7 70 23:57 20.01.2020
3966 Clouds 10 1037 40 10000 5.7 70 23:37 20.01.2020
3967 Clouds 9 1036 37 10000 6.7 70 23:19 20.01.2020
3968 Clouds 9 1036 37 10000 6.7 70 23:18 20.01.2020
3969 Clouds 9 1036 37 10000 7.2 70 22:56 20.01.2020
3970 Clouds 9 1036 37 10000 7.2 70 22:37 20.01.2020
3971 Clouds 9 1036 40 10000 8.2 70 22:19 20.01.2020
3972 Clouds 10 1036 37 10000 8.2 70 21:57 20.01.2020
3973 Clouds 10 1036 37 10000 8.2 70 21:37 20.01.2020
3974 Clouds 10 1036 37 10000 8.2 70 21:37 20.01.2020
3975 Clouds 10 1036 48 10000 8.2 70 21:18 20.01.2020
3976 Clouds 11 1036 40 10000 9.3 70 20:55 20.01.2020
3977 Clouds 11 1036 40 10000 9.3 70 20:36 20.01.2020
3978 Clouds 10 1035 40 10000 10.3 80 20:18 20.01.2020
3979 Clouds 10 1035 40 10000 10.3 80 20:18 20.01.2020
3980 Clouds 10 1035 46 10000 10.3 70 19:56 20.01.2020
3981 Clouds 10 1035 46 10000 10.3 70 19:37 20.01.2020
3982 Clouds 10 1035 48 10000 11.3 80 19:18 20.01.2020
3983 Clouds 10 1034 46 10000 10.3 80 18:43 20.01.2020
3984 Clouds 10 1034 48 10000 10.3 80 18:22 20.01.2020
3985 Clouds 11 1034 48 10000 9.3 80 17:40 20.01.2020
3986 Clouds 10 1033 46 10000 11.3 80 17:19 20.01.2020
3987 Clouds 11 1033 47 10000 9.8 90 16:58 20.01.2020
3988 Clouds 11 1033 47 10000 9.8 90 16:37 20.01.2020
3989 Clouds 12 1033 37 10000 9.8 90 16:18 20.01.2020
3990 Clouds 12 1033 37 10000 9.8 90 16:18 20.01.2020
3991 Clouds 12 1033 37 10000 9.8 90 16:18 20.01.2020
3992 Clouds 12 1033 35 10000 9.8 90 15:54 20.01.2020
3993 Clouds 12 1033 35 10000 9.8 90 15:36 20.01.2020
3994 Clouds 12 1033 35 10000 9.8 90 15:18 20.01.2020
3995 Clouds 10 1033 47 10000 9.3 90 14:41 20.01.2020
3996 Clouds 10 1033 47 10000 9.3 90 14:41 20.01.2020
3997 Clouds 11 1033 35 10000 9.3 80 14:22 20.01.2020
3998 Clouds 10 1033 37 10000 9.8 90 13:58 20.01.2020
3999 Clouds 11 1033 37 10000 10.3 80 13:40 20.01.2020
4000 Clouds 11 1033 37 10000 10.3 80 13:21 20.01.2020
4001 Clouds 12 1033 37 10000 11.3 80 12:46 20.01.2020
4002 Clouds 12 1033 48 10000 10.8 80 12:27 20.01.2020
4003 Clouds 12 1033 37 10000 9.3 80 11:57 20.01.2020
4004 Clouds 12 1033 37 10000 9.3 80 11:38 20.01.2020
4005 Clouds 10 1033 35 10000 10.3 70 11:20 20.01.2020
4006 Clouds 9 1033 32 10000 11.3 70 10:48 20.01.2020
4007 Clouds 9 1033 37 10000 10.8 70 10:22 20.01.2020
4008 Clouds 9 1033 37 10000 10.8 70 10:22 20.01.2020
4009 Clouds 9 1032 34 10000 10.8 70 09:57 20.01.2020
4010 Clouds 10 1032 34 10000 10.8 70 09:38 20.01.2020
4011 Clouds 9 1032 37 10000 10.8 80 09:19 20.01.2020
4012 Clouds 8 1032 37 10000 11.3 80 08:43 20.01.2020
4013 Clouds 8 1032 37 10000 10.3 70 08:25 20.01.2020
4014 Clouds 8 1031 37 10000 10.3 70 07:45 20.01.2020
4015 Clouds 8 1031 37 10000 10.3 70 07:24 20.01.2020
4016 Clouds 8 1031 37 10000 9.8 70 06:48 20.01.2020
4017 Clouds 8 1030 40 10000 9.8 70 06:27 20.01.2020
4018 Clouds 8 1030 54 10000 10.3 70 05:42 20.01.2020
4019 Clouds 8 1030 57 10000 6.2 50 05:22 20.01.2020
4020 Clouds 8 1030 37 10000 6.2 50 04:42 20.01.2020
4021 Clouds 7 1029 36 10000 5.1 20 02:57 20.01.2020
4022 Clouds 7 1029 36 10000 5.1 20 02:57 20.01.2020
4023 Clouds 7 1029 29 10000 5.7 20 01:54 20.01.2020
4024 Clouds 7 1029 29 10000 5.7 20 01:35 20.01.2020
4025 Clouds 7 1029 29 10000 4.6 10 00:44 20.01.2020
4026 Clouds 6 1029 39 10000 4.1 10 00:23 20.01.2020
4027 Clouds 6 1029 39 10000 2.1 50 23:39 19.01.2020
4028 Clouds 6 1028 39 10000 2.6 360 23:20 19.01.2020
4029 Clouds 6 1028 39 10000 2.6 360 23:20 19.01.2020
4030 Clouds 6 1028 25 10000 4.6 360 22:57 19.01.2020
4031 Clouds 6 1028 25 10000 4.6 360 22:39 19.01.2020
4032 Clouds 6 1028 27 10000 4.1 10 22:20 19.01.2020
4033 Clouds 6 1028 36 10000 3.6 10 21:57 19.01.2020
4034 Clouds 6 1028 36 10000 3.6 10 21:38 19.01.2020
4035 Clouds 7 1027 36 10000 4.1 10 21:20 19.01.2020
4036 Clouds 7 1027 34 10000 4.6 20 20:57 19.01.2020
4037 Clouds 7 1027 34 10000 4.6 20 20:39 19.01.2020
4038 Clouds 8 1027 29 10000 5.7 20 20:21 19.01.2020
4039 Clouds 8 1027 29 10000 5.7 10 19:57 19.01.2020
4040 Clouds 8 1026 37 10000 5.1 20 19:39 19.01.2020
4041 Clouds 8 1027 29 10000 5.7 10 19:39 19.01.2020
4042 Clouds 8 1026 37 10000 5.1 20 19:20 19.01.2020
4043 Clouds 8 1026 29 10000 4.6 20 18:59 19.01.2020
4044 Clouds 8 1026 29 10000 4.6 20 18:41 19.01.2020
4045 Clouds 8 1025 36 10000 3.6 20 18:21 19.01.2020
4046 Clouds 10 1025 43 10000 3.1 10 17:58 19.01.2020
4047 Clouds 10 1025 43 10000 3.1 10 17:40 19.01.2020
4048 Clouds 10 1025 43 10000 3.1 10 17:40 19.01.2020
4049 Clouds 10 1024 32 10000 2.6 10 17:21 19.01.2020
4050 Clouds 10 1024 32 10000 3.6 20 16:59 19.01.2020
4051 Clouds 11 1024 32 10000 3.6 20 16:40 19.01.2020
4052 Clouds 11 1024 26 10000 4.6 20 16:21 19.01.2020
4053 Clouds 12 1024 30 10000 3.1 360 15:59 19.01.2020
4054 Clouds 13 1024 30 10000 3.1 360 15:39 19.01.2020
4055 Clouds 12 1023 35 10000 1.5 340 15:20 19.01.2020
4056 Clouds 12 1023 51 10000 1.5 350 14:59 19.01.2020
4057 Clouds 12 1023 51 10000 1.5 350 14:39 19.01.2020
4058 Clouds 11 1023 37 10000 1 0 14:19 19.01.2020
4059 Clouds 11 1024 37 10000 1.5 0 13:58 19.01.2020
4060 Clouds 12 1024 37 10000 1.5 0 13:38 19.01.2020
4061 Clouds 13 1024 62 10000 1.5 0 13:20 19.01.2020
4062 Clouds 12 1024 40 10000 1.5 300 12:56 19.01.2020
4063 Clouds 12 1024 40 10000 1.5 300 12:37 19.01.2020
4064 Clouds 12 1024 40 10000 1.5 300 12:37 19.01.2020
4065 Clouds 12 1024 40 10000 3.1 330 12:19 19.01.2020
4066 Clouds 11 1024 46 10000 3.6 330 11:56 19.01.2020
4067 Clouds 11 1024 46 10000 3.6 330 11:37 19.01.2020
4068 Clouds 8 1024 49 10000 4.1 330 11:18 19.01.2020
4069 Clouds 8 1024 52 10000 5.7 330 10:39 19.01.2020
4070 Clouds 7 1023 56 10000 3.6 330 10:19 19.01.2020
4071 Clouds 6 1023 56 10000 4.1 340 09:56 19.01.2020
4072 Clouds 7 1023 56 10000 4.1 340 09:38 19.01.2020
4073 Clouds 6 1023 60 10000 4.6 340 09:19 19.01.2020
4074 Clouds 6 1023 60 10000 4.6 340 08:54 19.01.2020
4075 Clouds 4 1023 60 10000 4.6 340 08:31 19.01.2020
4076 Clouds 4 1022 86 10000 2.1 10 07:49 19.01.2020
4077 Clouds 4 1022 60 10000 3.6 350 07:28 19.01.2020
4078 Clouds 5 1022 60 10000 5.7 330 06:55 19.01.2020
4079 Clouds 5 1022 65 10000 5.1 330 06:21 19.01.2020
4080 Clouds 5 1022 68 10000 4.6 340 03:55 19.01.2020
4081 Clouds 5 1022 68 10000 4.6 330 02:33 19.01.2020
4082 Clear 6 1023 65 10000 4.6 340 01:42 19.01.2020
4083 Clear 6 1022 65 10000 3.6 330 01:20 19.01.2020
4084 Clear 6 1023 65 10000 3.6 330 00:44 19.01.2020
4085 Clear 6 1023 65 10000 4.1 340 00:21 19.01.2020
4086 Clear 6 1023 70 10000 3.6 340 23:54 18.01.2020
4087 Clear 6 1022 70 10000 3.6 330 23:36 18.01.2020
4088 Clear 6 1022 70 10000 3.6 330 23:18 18.01.2020
4089 Clear 6 1022 70 10000 4.1 340 22:41 18.01.2020
4090 Clear 5 1022 75 10000 5.7 330 22:23 18.01.2020
4091 Clear 6 1022 70 10000 3.6 330 21:58 18.01.2020
4092 Clear 6 1022 70 10000 3.6 330 21:39 18.01.2020
4093 Clear 6 1022 75 10000 4.6 330 21:20 18.01.2020
4094 Clear 6 1022 93 10000 1.5 350 20:57 18.01.2020
4095 Clear 6 1022 93 10000 1.5 350 20:39 18.01.2020
4096 Clouds 6 1022 75 10000 3.6 320 20:19 18.01.2020
4097 Clouds 7 1022 70 10000 3.6 330 19:43 18.01.2020
4098 Clouds 7 1022 70 10000 3.1 330 19:24 18.01.2020
4099 Clouds 9 1022 66 10000 4.1 320 18:54 18.01.2020
4100 Clouds 9 1022 66 10000 4.1 320 18:36 18.01.2020
4101 Clouds 10 1022 57 10000 2.6 320 18:18 18.01.2020
4102 Clouds 7 1021 66 10000 2.6 210 17:41 18.01.2020
4103 Clouds 11 1021 66 10000 2.6 210 17:21 18.01.2020
4104 Clouds 12 1021 62 10000 2.6 250 16:57 18.01.2020
4105 Clouds 12 1021 62 10000 2.6 250 16:38 18.01.2020
4106 Clouds 12 1021 44 10000 2.1 320 16:20 18.01.2020
4107 Clouds 12 1021 47 10000 2.1 310 15:56 18.01.2020
4108 Clouds 13 1021 47 10000 2.1 310 15:38 18.01.2020
4109 Clouds 12 1021 54 10000 3.1 330 15:20 18.01.2020
4110 Clouds 13 1021 50 10000 3.1 350 14:41 18.01.2020
4111 Clouds 12 1021 54 10000 3.6 320 14:20 18.01.2020
4112 Clouds 12 1021 54 10000 3.1 330 13:58 18.01.2020
4113 Clouds 12 1021 54 10000 3.1 330 13:39 18.01.2020
4114 Clouds 12 1022 50 10000 3.1 320 13:20 18.01.2020
4115 Clouds 12 1022 54 10000 3.1 320 12:54 18.01.2020
4116 Clouds 12 1022 54 10000 3.1 320 12:36 18.01.2020
4117 Clouds 12 1023 62 10000 3.6 330 12:18 18.01.2020
4118 Clouds 11 1023 66 10000 3.6 330 11:43 18.01.2020
4119 Clouds 10 1023 71 10000 5.1 330 11:21 18.01.2020
4120 Clouds 9 1023 76 10000 4.6 340 10:43 18.01.2020
4121 Clouds 9 1023 76 10000 5.1 340 10:22 18.01.2020
4122 Clouds 8 1022 81 10000 4.6 340 09:57 18.01.2020
4123 Clouds 7 1022 81 10000 4.6 340 09:39 18.01.2020
4124 Clouds 7 1022 81 10000 5.7 330 09:19 18.01.2020
4125 Clouds 6 1022 81 10000 4.1 340 08:42 18.01.2020
4126 Clouds 6 1022 81 10000 4.6 330 08:20 18.01.2020
4127 Clouds 5 1022 87 10000 4.6 330 07:59 18.01.2020
4128 Clouds 5 1022 87 10000 4.6 330 07:40 18.01.2020
4129 Clouds 5 1022 87 10000 5.1 330 07:18 18.01.2020
4130 Clouds 5 1021 87 10000 2.1 10 06:44 18.01.2020
4131 Clouds 4 1021 93 10000 5.1 320 05:52 18.01.2020
4132 Clouds 7 1020 87 10000 4.1 310 04:25 18.01.2020
4133 Clouds 8 1019 87 10000 5.1 90 02:49 18.01.2020
4134 Clouds 9 1019 87 10000 2.6 0 01:40 18.01.2020
4135 Clouds 9 1018 76 10000 3.6 320 00:39 18.01.2020
4136 Clouds 8 1018 87 10000 5.1 320 00:20 18.01.2020
4137 Clouds 9 1018 81 10000 4.6 320 23:59 17.01.2020
4138 Clouds 9 1018 81 10000 4.6 320 23:40 17.01.2020
4139 Clouds 9 1018 81 10000 6.7 330 23:18 17.01.2020
4140 Clouds 9 1018 87 10000 6.2 330 22:42 17.01.2020
4141 Clouds 9 1018 81 10000 2.1 280 22:20 17.01.2020
4142 Clouds 8 1018 87 10000 4.1 330 21:57 17.01.2020
4143 Clouds 8 1018 87 10000 4.1 330 21:38 17.01.2020
4144 Clouds 8 1018 87 10000 4.1 330 21:38 17.01.2020
4145 Rain 7 1019 93 10000 3.1 330 21:20 17.01.2020
4146 Rain 8 1019 93 10000 4.6 330 20:55 17.01.2020
4147 Rain 8 1020 93 4000 9.8 320 20:36 17.01.2020
4148 Rain 9 1020 93 4000 9.8 320 20:18 17.01.2020
4149 Rain 9 1020 93 10000 5.1 340 19:54 17.01.2020
4150 Rain 9 1020 93 10000 5.1 340 19:36 17.01.2020
4151 Rain 9 1021 93 10000 4.6 330 19:18 17.01.2020
4152 Rain 9 1021 93 5000 4.6 330 18:44 17.01.2020
4153 Rain 9 1021 87 4000 4.1 340 18:26 17.01.2020
4154 Rain 9 1022 87 8000 4.1 350 17:56 17.01.2020
4155 Rain 9 1022 87 8000 4.1 350 17:56 17.01.2020
4156 Rain 9 1022 87 8000 4.1 350 17:38 17.01.2020
4157 Rain 9 1022 87 8000 2.6 340 17:19 17.01.2020
4158 Rain 9 1022 81 2200 4.1 320 16:42 17.01.2020
4159 Rain 10 1022 81 7000 3.6 340 16:20 17.01.2020
4160 Rain 10 1023 76 6000 4.1 320 15:48 17.01.2020
4161 Rain 10 1023 71 10000 3.6 330 15:28 17.01.2020
4162 Rain 10 1024 71 10000 4.1 330 14:56 17.01.2020
4163 Rain 10 1024 71 10000 4.1 330 14:38 17.01.2020
4164 Rain 10 1024 71 10000 3.6 330 14:20 17.01.2020
4165 Rain 10 1025 66 10000 4.1 330 13:41 17.01.2020
4166 Clouds 10 1025 66 10000 4.6 330 13:22 17.01.2020
4167 Clouds 10 1025 66 10000 4.6 330 13:22 17.01.2020
4168 Rain 10 1025 66 10000 4.1 320 12:46 17.01.2020
4169 Clouds 10 1026 57 10000 4.1 320 12:23 17.01.2020
4170 Clouds 10 1026 57 10000 4.1 320 12:23 17.01.2020
4171 Clouds 10 1026 53 10000 4.1 330 11:41 17.01.2020
4172 Clouds 10 1026 57 10000 4.1 320 11:20 17.01.2020
4173 Clouds 10 1026 57 10000 4.1 320 11:20 17.01.2020
4174 Clouds 10 1026 57 10000 4.1 320 10:56 17.01.2020
4175 Clouds 9 1026 57 10000 4.6 330 10:37 17.01.2020
4176 Clouds 9 1026 57 10000 4.6 330 10:19 17.01.2020
4177 Clouds 8 1027 61 10000 5.1 320 09:43 17.01.2020
4178 Clouds 8 1027 61 10000 5.1 330 09:21 17.01.2020
4179 Clouds 7 1027 61 10000 5.1 320 08:58 17.01.2020
4180 Clouds 7 1027 61 10000 5.1 320 08:40 17.01.2020
4181 Clouds 5 1027 65 10000 5.1 320 08:21 17.01.2020
4182 Clouds 5 1027 65 10000 5.7 320 07:46 17.01.2020
4183 Clouds 5 1027 61 10000 5.1 330 07:28 17.01.2020
4184 Clouds 5 1027 61 10000 5.1 320 06:55 17.01.2020
4185 Clouds 6 1027 61 10000 5.1 320 06:35 17.01.2020
4186 Clouds 6 1028 66 10000 2.6 340 04:32 17.01.2020
4187 Clouds 7 1028 70 10000 3.1 330 03:19 17.01.2020
4188 Clouds 6 1028 75 10000 4.6 340 02:39 17.01.2020
4189 Clouds 6 1029 75 10000 4.6 340 01:44 17.01.2020
4190 Clouds 6 1029 75 10000 4.6 340 01:25 17.01.2020
4191 Clouds 6 1029 75 10000 3.6 340 00:40 17.01.2020
4192 Clouds 6 1029 75 10000 3.6 340 00:19 17.01.2020
4193 Clouds 6 1029 76 10000 4.1 340 23:41 16.01.2020
4194 Clouds 7 1029 76 10000 4.1 340 23:22 16.01.2020
4195 Clouds 7 1030 81 10000 3.1 340 22:42 16.01.2020
4196 Clouds 7 1030 81 10000 3.1 330 22:22 16.01.2020
4197 Clouds 7 1030 81 10000 3.1 330 22:22 16.01.2020
4198 Clouds 7 1030 76 10000 3.6 320 21:57 16.01.2020
4199 Clouds 7 1030 76 10000 3.6 320 21:38 16.01.2020
4200 Clouds 7 1030 76 10000 3.6 330 21:19 16.01.2020
4201 Clouds 8 1030 76 10000 2.6 330 20:58 16.01.2020
4202 Clouds 9 1030 76 10000 2.6 330 20:39 16.01.2020
4203 Clouds 9 1030 71 10000 2.6 330 20:20 16.01.2020
4204 Clouds 9 1030 76 10000 1.5 350 19:56 16.01.2020
4205 Clouds 9 1030 76 10000 1.5 350 19:38 16.01.2020
4206 Clouds 9 1030 76 10000 1.5 350 19:38 16.01.2020
4207 Clouds 10 1030 71 10000 2.1 10 19:20 16.01.2020
4208 Clouds 8 1030 66 10000 3.1 90 18:55 16.01.2020
4209 Clouds 8 1030 66 10000 3.1 90 18:37 16.01.2020
4210 Clouds 9 1029 66 10000 3.6 100 18:18 16.01.2020
4211 Clouds 9 1029 66 10000 3.6 90 17:55 16.01.2020
4212 Clouds 9 1029 66 10000 3.6 90 17:37 16.01.2020
4213 Clouds 11 1029 66 10000 3.6 100 17:18 16.01.2020
4214 Clouds 11 1029 62 10000 3.6 100 16:40 16.01.2020
4215 Clouds 12 1029 62 10000 3.6 110 16:21 16.01.2020
4216 Clouds 12 1029 62 10000 3.1 100 15:56 16.01.2020
4217 Clouds 12 1029 62 10000 3.1 100 15:38 16.01.2020
4218 Clouds 12 1029 67 10000 3.1 100 15:19 16.01.2020
4219 Clouds 12 1029 67 10000 3.1 90 14:42 16.01.2020
4220 Clouds 12 1029 67 10000 3.1 100 14:23 16.01.2020
4221 Clouds 12 1030 71 10000 3.1 100 13:47 16.01.2020
4222 Clouds 13 1030 71 10000 2.6 90 13:29 16.01.2020
4223 Clouds 13 1030 66 10000 1.5 90 12:59 16.01.2020
4224 Clouds 13 1030 66 10000 1.5 90 12:40 16.01.2020
4225 Clouds 13 1030 54 10000 1.5 0 12:20 16.01.2020
4226 Clouds 12 1031 50 10000 3.6 330 11:42 16.01.2020
4227 Clouds 12 1031 50 10000 3.6 330 11:42 16.01.2020
4228 Clouds 8 1031 57 10000 4.6 330 11:24 16.01.2020
4229 Clouds 8 1031 61 10000 4.1 330 10:57 16.01.2020
4230 Clouds 8 1031 61 10000 4.1 330 10:37 16.01.2020
4231 Clouds 7 1030 61 10000 5.1 330 10:19 16.01.2020
4232 Clouds 7 1030 65 10000 5.1 330 09:44 16.01.2020
4233 Clouds 6 1030 70 10000 5.1 330 09:24 16.01.2020
4234 Clouds 5 1030 70 10000 4.6 330 08:59 16.01.2020
4235 Clouds 5 1030 70 10000 4.6 330 08:41 16.01.2020
4236 Clouds 5 1029 70 10000 4.1 330 08:20 16.01.2020
4237 Clouds 5 1029 70 10000 4.6 330 07:43 16.01.2020
4238 Clouds 5 1029 70 10000 5.1 330 07:24 16.01.2020
4239 Clouds 5 1029 70 10000 4.6 330 06:55 16.01.2020
4240 Clouds 5 1029 70 10000 4.6 330 06:35 16.01.2020
4241 Clouds 6 1028 66 10000 4.1 340 05:56 16.01.2020
4242 Clouds 6 1028 70 10000 5.7 330 05:25 16.01.2020
4243 Clouds 6 1028 70 10000 4.1 330 04:23 16.01.2020
4244 Clouds 6 1028 70 10000 4.1 330 03:27 16.01.2020
4245 Clouds 6 1028 70 10000 4.6 330 02:24 16.01.2020
4246 Clouds 6 1029 70 10000 5.7 330 00:44 16.01.2020
4247 Clouds 6 1029 70 10000 4.6 330 00:24 16.01.2020
4248 Clouds 6 1029 70 10000 4.1 330 23:46 15.01.2020
4249 Clouds 6 1029 70 10000 4.1 330 23:46 15.01.2020
4250 Clouds 7 1029 70 10000 4.1 330 23:22 15.01.2020
4251 Clouds 8 1029 75 10000 5.1 320 22:57 15.01.2020
4252 Clouds 6 1029 75 10000 5.1 320 22:39 15.01.2020
4253 Clouds 7 1029 81 10000 5.1 330 22:19 15.01.2020
4254 Clouds 6 1029 81 10000 5.1 330 21:57 15.01.2020
4255 Clouds 8 1029 76 10000 4.1 330 21:37 15.01.2020
4256 Clouds 8 1029 76 10000 4.1 330 21:19 15.01.2020
4257 Clouds 7 1029 76 10000 4.1 330 20:56 15.01.2020
4258 Clouds 7 1029 76 10000 4.1 330 20:38 15.01.2020
4259 Clouds 7 1029 81 10000 4.1 320 20:20 15.01.2020
4260 Clouds 7 1029 81 10000 4.1 320 19:55 15.01.2020
4261 Rain 8 1028 76 10000 3.6 320 19:37 15.01.2020
4262 Rain 8 1028 76 10000 3.6 320 19:18 15.01.2020
4263 Clouds 7 1028 76 10000 2.6 330 18:56 15.01.2020
4264 Clouds 8 1028 76 10000 2.6 330 18:38 15.01.2020
4265 Clouds 8 1028 71 10000 1.5 310 18:19 15.01.2020
4266 Clouds 8 1028 71 10000 1.5 310 18:19 15.01.2020
4267 Clouds 9 1028 71 10000 1.5 310 17:56 15.01.2020
4268 Clouds 8 1028 71 10000 1.5 310 17:37 15.01.2020
4269 Clouds 10 1028 66 10000 2.1 300 17:18 15.01.2020
4270 Clouds 11 1028 58 10000 1.5 310 16:40 15.01.2020
4271 Clouds 12 1027 62 10000 2.1 320 16:22 15.01.2020
4272 Clouds 12 1027 62 10000 1.5 320 15:57 15.01.2020
4273 Clouds 12 1027 62 10000 1.5 320 15:39 15.01.2020
4274 Clouds 12 1027 66 10000 1.5 330 15:19 15.01.2020
4275 Clouds 11 1027 71 10000 2.6 340 14:43 15.01.2020
4276 Clouds 11 1027 71 10000 3.6 340 14:20 15.01.2020
4277 Clouds 11 1028 81 10000 3.1 330 13:46 15.01.2020
4278 Clouds 11 1028 81 10000 3.1 330 13:46 15.01.2020
4279 Clouds 10 1028 87 10000 2.1 300 13:27 15.01.2020
4280 Rain 10 1029 76 10000 1.5 250 12:59 15.01.2020
4281 Rain 10 1029 76 10000 1.5 250 12:40 15.01.2020
4282 Clouds 10 1029 71 10000 1 0 12:20 15.01.2020
4283 Clouds 10 1029 71 10000 1 0 12:20 15.01.2020
4284 Clouds 10 1029 57 10000 3.1 320 11:58 15.01.2020
4285 Clouds 10 1029 57 10000 3.1 320 11:38 15.01.2020
4286 Clouds 10 1028 53 10000 3.1 320 11:19 15.01.2020
4287 Clouds 10 1028 53 10000 4.1 320 10:46 15.01.2020
4288 Clouds 9 1028 53 10000 4.6 320 10:28 15.01.2020
4289 Clouds 8 1028 57 10000 4.6 330 09:55 15.01.2020
4290 Clouds 7 1028 57 10000 4.6 330 09:37 15.01.2020
4291 Clouds 7 1027 53 10000 4.6 330 09:19 15.01.2020
4292 Clouds 6 1027 53 10000 4.1 320 08:44 15.01.2020
4293 Clouds 5 1027 53 10000 4.1 330 08:24 15.01.2020
4294 Clouds 4 1027 53 10000 3.6 340 07:54 15.01.2020
4295 Clouds 5 1027 53 10000 5.1 340 07:33 15.01.2020
4296 Clouds 4 1027 53 10000 4.6 330 06:49 15.01.2020
4297 Clouds 4 1026 53 10000 4.1 340 06:26 15.01.2020
4298 Clouds 5 1026 57 10000 4.6 330 04:46 15.01.2020
4299 Clouds 6 1027 61 10000 5.1 330 02:48 15.01.2020
4300 Clouds 6 1027 61 10000 5.7 330 01:48 15.01.2020
4301 Clouds 7 1027 61 10000 5.1 330 01:20 15.01.2020
4302 Clouds 7 1027 61 10000 4.6 330 00:37 15.01.2020
4303 Clouds 7 1027 61 10000 4.6 330 00:19 15.01.2020
4304 Clouds 6 1027 66 10000 4.6 340 23:46 14.01.2020
4305 Clouds 6 1027 66 10000 3.6 340 23:24 14.01.2020
4306 Clouds 6 1027 70 10000 4.1 340 22:56 14.01.2020
4307 Clouds 6 1027 70 10000 4.1 340 22:38 14.01.2020
4308 Clouds 6 1026 70 10000 4.6 330 22:18 14.01.2020
4309 Clouds 5 1026 70 10000 4.6 330 21:56 14.01.2020
4310 Clouds 5 1026 70 10000 4.6 330 21:37 14.01.2020
4311 Clouds 5 1026 70 10000 4.6 320 21:19 14.01.2020
4312 Clouds 7 1026 70 10000 4.6 320 20:42 14.01.2020
4313 Clouds 7 1026 70 10000 4.6 320 20:22 14.01.2020
4314 Clouds 7 1026 76 10000 3.6 320 19:57 14.01.2020
4315 Clouds 7 1026 76 10000 3.6 320 19:39 14.01.2020
4316 Clouds 7 1026 81 10000 3.1 320 19:20 14.01.2020
4317 Clouds 8 1025 76 10000 2.1 300 18:59 14.01.2020
4318 Clouds 7 1025 76 10000 2.1 300 18:40 14.01.2020
4319 Clouds 8 1025 71 10000 5.1 210 18:20 14.01.2020
4320 Clouds 9 1024 71 10000 5.7 210 17:55 14.01.2020
4321 Clouds 9 1024 71 10000 5.7 210 17:36 14.01.2020
4322 Clouds 10 1024 71 10000 5.7 210 17:18 14.01.2020
4323 Clouds 10 1024 67 10000 5.1 210 16:42 14.01.2020
4324 Clouds 12 1024 67 10000 5.1 210 16:22 14.01.2020
4325 Clouds 11 1024 71 10000 5.7 210 15:56 14.01.2020
4326 Clouds 12 1024 71 10000 5.7 210 15:38 14.01.2020
4327 Clouds 11 1024 62 10000 4.6 210 15:18 14.01.2020
4328 Clouds 10 1024 58 10000 2.6 190 14:43 14.01.2020
4329 Clouds 10 1024 54 10000 2.1 250 14:20 14.01.2020
4330 Clouds 11 1024 51 10000 1 0 13:54 14.01.2020
4331 Clouds 12 1024 51 10000 1 0 13:36 14.01.2020
4332 Clouds 11 1024 51 10000 1.5 0 13:18 14.01.2020
4333 Clouds 11 1025 44 10000 1.5 330 12:41 14.01.2020
4334 Clouds 11 1025 43 10000 3.1 320 12:20 14.01.2020
4335 Clouds 11 1025 43 10000 3.1 320 12:20 14.01.2020
4336 Clouds 11 1025 46 10000 3.6 320 11:43 14.01.2020
4337 Clouds 8 1025 50 10000 5.1 330 11:23 14.01.2020
4338 Clouds 8 1025 50 10000 4.6 320 10:59 14.01.2020
4339 Clouds 8 1025 50 10000 4.6 320 10:40 14.01.2020
4340 Clouds 7 1025 53 10000 5.1 330 10:20 14.01.2020
4341 Clouds 6 1025 57 10000 3.6 330 09:58 14.01.2020
4342 Clouds 9 1025 57 10000 3.6 330 09:40 14.01.2020
4343 Clouds 8 1024 61 10000 4.6 330 09:20 14.01.2020
4344 Clouds 7 1024 61 10000 5.7 330 08:48 14.01.2020
4345 Clouds 4 1024 61 10000 6.2 330 08:25 14.01.2020
4346 Clouds 4 1024 57 10000 5.1 320 07:53 14.01.2020
4347 Clouds 4 1024 57 10000 5.1 320 07:33 14.01.2020
4348 Clouds 4 1024 65 10000 4.6 340 06:56 14.01.2020
4349 Clouds 4 1024 65 10000 4.6 340 06:33 14.01.2020
4350 Clouds 4 1023 65 10000 4.1 350 05:28 14.01.2020
4351 Clouds 4 1024 75 10000 4.6 340 03:52 14.01.2020
4352 Clouds 5 1024 75 10000 4.1 340 02:50 14.01.2020
4353 Clouds 4 1024 75 10000 4.1 330 01:56 14.01.2020
4354 Clouds 4 1024 81 10000 4.1 340 00:53 14.01.2020
4355 Clouds 4 1024 81 10000 4.1 340 00:35 14.01.2020
4356 Clouds 5 1024 81 10000 3.6 340 23:56 13.01.2020
4357 Clouds 4 1024 81 10000 3.6 340 23:37 13.01.2020
4358 Clouds 5 1024 75 10000 5.1 320 23:18 13.01.2020
4359 Clouds 5 1024 75 10000 5.1 320 23:18 13.01.2020
4360 Clouds 4 1024 81 10000 5.1 320 22:43 13.01.2020
4361 Clouds 5 1024 87 10000 5.1 320 22:22 13.01.2020
4362 Clouds 5 1024 87 10000 5.1 320 22:22 13.01.2020
4363 Clouds 5 1024 81 10000 4.6 320 21:58 13.01.2020
4364 Clouds 5 1024 81 10000 4.6 320 21:58 13.01.2020
4365 Clouds 5 1024 81 10000 4.6 320 21:39 13.01.2020
4366 Clouds 5 1024 81 10000 4.1 320 21:19 13.01.2020
4367 Clouds 5 1024 81 10000 4.1 320 20:59 13.01.2020
4368 Clouds 6 1024 81 10000 4.1 320 20:41 13.01.2020
4369 Clouds 7 1024 81 10000 2.1 320 20:22 13.01.2020
4370 Clouds 7 1024 81 10000 2.1 320 20:22 13.01.2020
4371 Clouds 7 1024 76 10000 3.1 320 19:59 13.01.2020
4372 Clouds 9 1024 76 10000 3.1 320 19:40 13.01.2020
4373 Clouds 9 1024 76 10000 2.6 320 19:20 13.01.2020
4374 Clouds 9 1024 76 10000 2.6 320 19:20 13.01.2020
4375 Clouds 9 1024 76 10000 2.1 270 18:58 13.01.2020
4376 Clouds 7 1024 76 10000 2.1 270 18:37 13.01.2020
4377 Clouds 7 1024 76 10000 2.1 270 18:37 13.01.2020
4378 Clouds 7 1024 76 10000 2.6 270 18:19 13.01.2020
4379 Clouds 8 1024 71 10000 3.1 220 17:55 13.01.2020
4380 Clouds 9 1024 71 10000 3.1 220 17:36 13.01.2020
4381 Clouds 10 1024 66 10000 2.1 220 17:18 13.01.2020
4382 Clouds 10 1024 62 10000 1.5 290 16:40 13.01.2020
4383 Clouds 10 1024 62 10000 1.5 290 16:40 13.01.2020
4384 Clouds 10 1024 62 10000 1.5 0 16:21 13.01.2020
4385 Rain 8 1023 71 0 0.89 279 15:54 13.01.2020
4386 Rain 8 1023 71 0 1.34 324 15:36 13.01.2020
4387 Rain 8 1023 71 0 0.89 238 15:18 13.01.2020
4388 Rain 8 1023 70 0 2.68 304 14:42 13.01.2020
4389 Clouds 10 1025 62 10000 2.1 150 14:23 13.01.2020
4390 Clouds 11 1025 62 10000 2.1 150 13:57 13.01.2020
4391 Clouds 9 1025 62 10000 2.1 150 13:39 13.01.2020
4392 Clouds 9 1024 58 0 1.34 271 13:21 13.01.2020
4393 Clouds 10 1026 66 10000 5.1 330 12:43 13.01.2020
4394 Clouds 10 1026 66 10000 5.1 330 12:23 13.01.2020
4395 Clouds 10 1026 66 10000 5.1 330 11:59 13.01.2020
4396 Clouds 9 1026 66 10000 5.1 330 11:39 13.01.2020
4397 Clouds 8 1026 49 10000 5.7 330 11:19 13.01.2020
4398 Clouds 10 1026 49 10000 6.2 330 10:57 13.01.2020
4399 Clouds 9 1026 49 10000 6.2 330 10:38 13.01.2020
4400 Clouds 9 1026 52 10000 6.7 330 10:20 13.01.2020
4401 Clouds 9 1026 52 10000 6.7 330 10:20 13.01.2020
4402 Clouds 8 1026 56 10000 6.7 330 09:56 13.01.2020
4403 Clouds 8 1026 56 10000 6.7 330 09:38 13.01.2020
4404 Clouds 7 1026 60 10000 5.1 330 09:19 13.01.2020
4405 Clouds 5 1025 60 10000 6.2 330 08:39 13.01.2020
4406 Clouds 4 1025 60 10000 6.7 330 08:20 13.01.2020
4407 Clouds 4 1025 60 10000 6.2 330 07:47 13.01.2020
4408 Clouds 4 1025 86 10000 3.6 10 07:27 13.01.2020
4409 Clouds 4 1025 60 10000 6.2 330 06:43 13.01.2020
4410 Clouds 4 1025 60 10000 6.7 330 06:20 13.01.2020
4411 Clouds 4 1025 66 10000 6.7 330 05:23 13.01.2020
4412 Clouds 5 1025 61 10000 6.2 330 03:55 13.01.2020
4413 Clouds 5 1025 61 10000 5.7 330 03:24 13.01.2020
4414 Clouds 5 1025 61 10000 4.6 330 02:45 13.01.2020
4415 Clouds 5 1025 65 10000 5.1 330 02:26 13.01.2020
4416 Clouds 5 1025 65 10000 4.6 330 01:21 13.01.2020
4417 Clouds 5 1025 65 10000 4.1 330 00:41 13.01.2020
4418 Clouds 5 1025 61 10000 4.6 340 00:23 13.01.2020
4419 Clouds 5 1025 65 10000 5.1 340 23:54 12.01.2020
4420 Clouds 5 1025 65 10000 5.1 340 23:36 12.01.2020
4421 Clouds 5 1026 61 10000 4.1 340 23:18 12.01.2020
4422 Clouds 6 1025 65 10000 4.6 330 22:42 12.01.2020
4423 Clouds 6 1026 65 10000 5.1 330 22:23 12.01.2020
4424 Clouds 6 1026 65 10000 5.1 340 21:57 12.01.2020
4425 Clouds 5 1026 65 10000 5.1 340 21:38 12.01.2020
4426 Clouds 5 1026 65 10000 5.1 330 21:19 12.01.2020
4427 Clouds 6 1026 70 10000 4.1 330 20:56 12.01.2020
4428 Clouds 6 1026 70 10000 4.1 330 20:38 12.01.2020
4429 Clouds 6 1026 66 10000 4.1 330 20:20 12.01.2020
4430 Clear 7 1026 70 10000 3.6 330 19:56 12.01.2020
4431 Clear 7 1026 70 10000 3.6 330 19:37 12.01.2020
4432 Clear 7 1026 76 10000 3.1 320 19:18 12.01.2020
4433 Clear 9 1026 76 10000 2.1 330 18:57 12.01.2020
4434 Clear 7 1026 76 10000 2.1 330 18:57 12.01.2020
4435 Clear 7 1026 76 10000 2.1 330 18:39 12.01.2020
4436 Clear 8 1026 66 10000 3.1 230 18:21 12.01.2020
4437 Clear 8 1026 66 10000 2.6 230 17:55 12.01.2020
4438 Clear 8 1026 66 10000 2.6 230 17:37 12.01.2020
4439 Clear 9 1026 62 10000 3.1 210 17:18 12.01.2020
4440 Clear 10 1026 62 10000 3.1 200 16:54 12.01.2020
4441 Clear 11 1026 62 10000 3.1 200 16:36 12.01.2020
4442 Clear 11 1026 54 10000 3.6 200 16:18 12.01.2020
4443 Clear 11 1026 54 10000 3.1 210 15:42 12.01.2020
4444 Clear 12 1026 51 10000 3.1 190 15:23 12.01.2020
4445 Clear 11 1026 47 10000 2.6 180 14:55 12.01.2020
4446 Clear 11 1026 47 10000 2.6 180 14:36 12.01.2020
4447 Clear 12 1027 44 10000 2.1 180 14:18 12.01.2020
4448 Clear 12 1027 38 10000 1 0 13:42 12.01.2020
4449 Clear 12 1027 41 10000 2.1 320 13:23 12.01.2020
4450 Clear 14 1028 59 10000 4.1 320 12:58 12.01.2020
4451 Clear 14 1028 59 10000 4.1 320 12:38 12.01.2020
4452 Clear 14 1028 59 10000 4.6 320 12:19 12.01.2020
4453 Clear 13 1029 59 10000 5.7 320 11:55 12.01.2020
4454 Clear 10 1029 59 10000 5.7 320 11:36 12.01.2020
4455 Clear 7 1029 56 10000 5.7 330 11:18 12.01.2020
4456 Clear 7 1029 56 10000 5.7 330 10:41 12.01.2020
4457 Clear 7 1029 56 10000 7.2 330 10:21 12.01.2020
4458 Clear 7 1029 52 10000 7.2 330 09:56 12.01.2020
4459 Clear 7 1029 52 10000 7.2 330 09:38 12.01.2020
4460 Clear 6 1029 56 10000 7.7 330 09:18 12.01.2020
4461 Clear 4 1029 56 10000 7.7 330 08:42 12.01.2020
4462 Clear 4 1029 64 10000 7.7 330 08:19 12.01.2020
4463 Clear 3 1028 64 10000 8.2 330 07:40 12.01.2020
4464 Clear 3 1028 64 10000 7.7 330 07:21 12.01.2020
4465 Clear 3 1028 64 10000 7.7 330 06:43 12.01.2020
4466 Clear 4 1028 64 10000 5.1 330 06:24 12.01.2020
4467 Clear 4 1028 64 10000 4.6 340 05:23 12.01.2020
4468 Clear 6 1028 61 10000 4.6 340 03:55 12.01.2020
4469 Clear 7 1027 57 10000 3.6 350 03:22 12.01.2020
4470 Clear 6 1027 61 10000 3.6 350 02:33 12.01.2020
4471 Clear 7 1027 61 10000 4.6 340 01:42 12.01.2020
4472 Clear 7 1027 61 10000 4.6 330 01:22 12.01.2020
4473 Clear 5 1027 61 10000 5.1 340 00:40 12.01.2020
4474 Clear 5 1027 61 10000 5.1 330 00:20 12.01.2020
4475 Clear 5 1028 66 10000 5.1 330 23:42 11.01.2020
4476 Clear 8 1027 66 10000 4.1 350 23:19 11.01.2020
4477 Clear 8 1027 66 10000 4.1 340 22:58 11.01.2020
4478 Clear 8 1027 66 10000 4.1 340 22:39 11.01.2020
4479 Clear 8 1027 70 10000 4.6 330 22:20 11.01.2020
4480 Clear 9 1027 66 10000 4.1 330 21:58 11.01.2020
4481 Clear 5 1027 66 10000 4.1 330 21:39 11.01.2020
4482 Clear 7 1027 71 10000 5.1 330 21:18 11.01.2020
4483 Clear 9 1027 76 10000 4.6 330 20:40 11.01.2020
4484 Clear 10 1027 71 10000 3.6 330 20:22 11.01.2020
4485 Clear 10 1027 76 10000 4.6 320 19:58 11.01.2020
4486 Clear 10 1027 76 10000 3.6 330 19:39 11.01.2020
4487 Clear 10 1027 76 10000 3.6 330 19:21 11.01.2020
4488 Clear 10 1026 76 10000 3.1 330 18:59 11.01.2020
4489 Clear 7 1026 76 10000 3.1 330 18:39 11.01.2020
4490 Clear 8 1026 76 10000 2.1 330 18:20 11.01.2020
4491 Clear 7 1026 76 10000 2.6 40 17:58 11.01.2020
4492 Clear 7 1026 76 10000 2.6 40 17:39 11.01.2020
4493 Clear 12 1026 71 10000 1.7 207 17:19 11.01.2020
4494 Clear 14 1026 72 10000 2.1 230 16:46 11.01.2020
4495 Clear 14 1026 72 10000 2.1 230 16:46 11.01.2020
4496 Clear 14 1026 72 10000 2.6 200 16:27 11.01.2020
4497 Clear 15 1026 72 10000 2.6 200 15:59 11.01.2020
4498 Clear 15 1026 72 10000 2.6 200 15:41 11.01.2020
4499 Clear 15 1026 72 10000 4.6 200 15:22 11.01.2020
4500 Clear 15 1026 72 10000 4.6 200 15:22 11.01.2020
4501 Clouds 15 1026 72 10000 4.6 210 14:58 11.01.2020
4502 Clouds 15 1026 72 10000 4.6 210 14:58 11.01.2020
4503 Clouds 14 1026 72 10000 4.6 210 14:39 11.01.2020
4504 Clouds 15 1026 72 10000 4.1 210 14:21 11.01.2020
4505 Clouds 14 1027 67 10000 2.6 230 13:55 11.01.2020
4506 Clouds 14 1027 67 10000 2.6 230 13:36 11.01.2020
4507 Clouds 14 1027 58 10000 1.5 290 13:18 11.01.2020
4508 Clouds 14 1027 50 10000 2.6 330 12:41 11.01.2020
4509 Clouds 14 1028 54 10000 3.6 320 12:23 11.01.2020
4510 Clouds 13 1028 62 10000 4.1 320 11:48 11.01.2020
4511 Clouds 12 1028 62 10000 4.1 320 11:27 11.01.2020
4512 Clouds 11 1028 62 10000 4.6 320 10:58 11.01.2020
4513 Clouds 9 1028 62 10000 4.6 320 10:40 11.01.2020
4514 Clouds 10 1028 66 10000 5.7 330 10:22 11.01.2020
4515 Clouds 10 1028 70 10000 5.1 330 09:39 11.01.2020
4516 Clouds 9 1028 75 10000 5.1 330 09:21 11.01.2020
4517 Clouds 7 1027 70 10000 5.1 330 08:43 11.01.2020
4518 Clouds 7 1027 75 10000 5.7 330 08:22 11.01.2020
4519 Clouds 7 1027 81 10000 4.6 330 07:44 11.01.2020
4520 Clouds 7 1027 75 10000 4.1 330 07:26 11.01.2020
4521 Clouds 7 1027 75 10000 4.1 340 06:55 11.01.2020
4522 Clouds 7 1027 75 10000 4.6 330 06:22 11.01.2020
4523 Clouds 6 1026 75 10000 4.1 330 04:48 11.01.2020
4524 Clouds 7 1026 75 10000 5.1 330 04:30 11.01.2020
4525 Clouds 7 1026 75 10000 5.1 330 03:49 11.01.2020
4526 Clouds 7 1026 75 10000 3.6 330 02:41 11.01.2020
4527 Clouds 6 1026 75 10000 5.1 330 01:44 11.01.2020
4528 Clouds 6 1026 75 10000 5.1 330 01:20 11.01.2020
4529 Clouds 7 1026 70 10000 5.1 330 00:46 11.01.2020
4530 Clouds 7 1026 70 10000 5.1 330 00:20 11.01.2020
4531 Clouds 7 1026 70 10000 4.6 330 23:41 10.01.2020
4532 Clouds 7 1026 70 10000 4.1 320 23:22 10.01.2020
4533 Clouds 7 1025 70 10000 3.1 330 22:59 10.01.2020
4534 Clouds 7 1025 70 10000 3.1 330 22:41 10.01.2020
4535 Clouds 8 1025 71 10000 3.6 340 22:21 10.01.2020
4536 Clouds 7 1025 71 10000 4.1 330 21:58 10.01.2020
4537 Clouds 8 1025 71 10000 4.1 330 21:39 10.01.2020
4538 Clouds 8 1025 71 10000 4.6 330 21:20 10.01.2020
4539 Clouds 8 1025 71 10000 4.1 330 20:55 10.01.2020
4540 Clouds 10 1025 71 10000 4.1 330 20:37 10.01.2020
4541 Clouds 8 1025 76 10000 4.1 330 20:19 10.01.2020
4542 Clouds 8 1025 76 10000 3.6 340 19:40 10.01.2020
4543 Clouds 8 1024 76 10000 4.6 330 19:20 10.01.2020
4544 Clouds 9 1024 76 10000 4.6 340 18:55 10.01.2020
4545 Clouds 9 1024 76 10000 4.6 340 18:36 10.01.2020
4546 Clouds 9 1024 76 10000 3.6 330 18:18 10.01.2020
4547 Clouds 9 1024 76 10000 3.6 330 18:18 10.01.2020
4548 Rain 9 1024 76 10000 4.6 340 17:56 10.01.2020
4549 Rain 8 1024 76 10000 4.6 340 17:37 10.01.2020
4550 Rain 8 1024 76 10000 4.6 330 17:19 10.01.2020
4551 Rain 9 1024 76 10000 3.6 340 16:41 10.01.2020
4552 Rain 9 1024 70 8000 4.1 340 16:21 10.01.2020
4553 Clouds 10 1023 57 10000 3.1 340 15:56 10.01.2020
4554 Clouds 9 1023 57 10000 3.1 340 15:56 10.01.2020
4555 Clouds 10 1023 57 10000 3.1 340 15:37 10.01.2020
4556 Clouds 10 1023 57 10000 5.1 350 15:19 10.01.2020
4557 Rain 10 1023 57 10000 4.6 340 14:57 10.01.2020
4558 Rain 10 1023 57 10000 4.6 340 14:39 10.01.2020
4559 Rain 9 1024 61 10000 3.6 340 14:19 10.01.2020
4560 Rain 9 1024 57 10000 3.1 340 13:56 10.01.2020
4561 Rain 9 1024 57 10000 3.1 340 13:37 10.01.2020
4562 Rain 9 1024 61 10000 4.1 330 13:18 10.01.2020
4563 Rain 9 1024 57 10000 4.6 330 12:56 10.01.2020
4564 Rain 9 1024 57 10000 4.6 330 12:38 10.01.2020
4565 Clouds 8 1024 68 10000 5.1 330 12:18 10.01.2020
4566 Rain 8 1024 61 10000 5.1 330 11:42 10.01.2020
4567 -273 0 0 0 0 0 11:22 10.01.2020
4568 Rain 7 1024 61 10000 6.2 330 10:59 10.01.2020
4569 Rain 8 1024 61 10000 6.2 330 10:38 10.01.2020
4570 Rain 8 1024 73 10000 6.7 330 10:20 10.01.2020
4571 Clouds 7 1024 73 10000 6.2 330 09:55 10.01.2020
4572 Clouds 6 1024 73 10000 6.2 330 09:36 10.01.2020
4573 Rain 6 1024 73 10000 5.7 330 09:18 10.01.2020
4574 Rain 5 1024 73 10000 5.7 320 08:40 10.01.2020
4575 Clouds 4 1024 52 10000 6.7 330 08:21 10.01.2020
4576 Clouds 4 1024 56 10000 5.7 330 07:44 10.01.2020
4577 Clouds 4 1023 56 10000 6.7 330 07:23 10.01.2020
4578 Clouds 3 1024 56 10000 6.2 330 06:45 10.01.2020
4579 Clouds 3 1024 60 10000 5.1 330 06:25 10.01.2020
4580 Clouds 4 1024 60 10000 4.1 320 05:44 10.01.2020
4581 Clear 4 1025 73 10000 5.7 320 03:35 10.01.2020
4582 Clear 4 1025 73 10000 7.2 320 02:58 10.01.2020
4583 Clear 5 1025 73 10000 7.2 320 02:37 10.01.2020
4584 Clear 5 1025 65 10000 6.2 330 01:38 10.01.2020
4585 Clear 5 1025 65 10000 5.1 320 01:19 10.01.2020
4586 Clear 4 1025 65 10000 5.7 320 00:39 10.01.2020
4587 Clear 4 1025 70 10000 5.1 320 23:58 09.01.2020
4588 Clear 4 1025 70 10000 5.1 320 23:38 09.01.2020
4589 Clear 5 1025 65 10000 4.6 330 23:20 09.01.2020
4590 Clear 5 1026 65 10000 5.1 330 22:57 09.01.2020
4591 Clear 5 1026 65 10000 5.1 330 22:38 09.01.2020
4592 Clear 5 1026 70 10000 4.6 330 22:19 09.01.2020
4593 Clear 5 1026 70 10000 6.2 320 21:57 09.01.2020
4594 Clear 4 1026 70 10000 6.2 320 21:37 09.01.2020
4595 Clear 4 1026 70 10000 6.2 320 21:37 09.01.2020
4596 Clear 4 1026 70 10000 6.2 320 21:37 09.01.2020
4597 Clear 4 1026 70 10000 5.1 330 21:19 09.01.2020
4598 Clear 6 1026 70 10000 5.1 330 20:57 09.01.2020
4599 Clear 6 1026 70 10000 5.1 330 20:39 09.01.2020
4600 Clear 6 1026 75 10000 4.1 330 20:19 09.01.2020
4601 Clear 7 1026 70 10000 4.6 320 19:57 09.01.2020
4602 Clear 8 1026 70 10000 4.6 320 19:37 09.01.2020
4603 Clouds 9 1026 76 10000 4.6 320 19:19 09.01.2020
4604 Clouds 8 1025 76 10000 3.6 320 18:55 09.01.2020
4605 Clouds 8 1025 76 10000 3.6 320 18:36 09.01.2020
4606 Clouds 8 1025 71 10000 2.6 320 18:18 09.01.2020
4607 Clouds 8 1025 76 10000 3.1 270 17:41 09.01.2020
4608 Clouds 9 1025 76 10000 4.6 240 17:18 09.01.2020
4609 Clouds 10 1025 76 10000 4.1 240 16:49 09.01.2020
4610 Clouds 12 1026 71 10000 3.1 220 16:24 09.01.2020
4611 Clear 12 1026 58 10000 2.1 210 15:59 09.01.2020
4612 Clear 11 1026 58 10000 3.1 190 15:40 09.01.2020
4613 Clear 11 1026 58 10000 3.1 190 15:19 09.01.2020
4614 Clear 11 1026 58 10000 2.1 190 14:43 09.01.2020
4615 Clear 11 1026 50 10000 1.5 0 14:22 09.01.2020
4616 Clear 13 1027 47 10000 1 0 13:57 09.01.2020
4617 Clear 13 1027 47 10000 1 0 13:39 09.01.2020
4618 Clear 12 1027 47 10000 1 0 13:21 09.01.2020
4619 Clear 12 1027 51 10000 1.5 0 12:59 09.01.2020
4620 Clear 12 1027 51 10000 1.5 0 12:40 09.01.2020
4621 Clear 12 1028 40 10000 4.1 320 12:22 09.01.2020
4622 Clear 12 1028 43 10000 4.6 320 11:57 09.01.2020
4623 Clear 11 1028 43 10000 4.6 320 11:38 09.01.2020
4624 Clear 9 1028 43 10000 5.1 320 11:20 09.01.2020
4625 Clear 10 1028 49 10000 5.7 330 10:44 09.01.2020
4626 Clear 8 1028 49 10000 6.2 330 10:22 09.01.2020
4627 Clear 8 1028 52 10000 6.7 320 09:59 09.01.2020
4628 Clear 8 1028 52 10000 6.7 320 09:39 09.01.2020
4629 Clouds 6 1028 56 10000 5.1 330 09:21 09.01.2020
4630 Clouds 6 1028 56 10000 5.1 330 08:55 09.01.2020
4631 Clouds 5 1028 56 10000 5.1 330 08:37 09.01.2020
4632 Clouds 4 1028 56 10000 5.1 330 08:19 09.01.2020
4633 Clear 4 1028 56 10000 5.1 330 07:42 09.01.2020
4634 Clear 4 1028 56 10000 5.1 330 07:42 09.01.2020
4635 Clear 4 1028 56 10000 5.7 330 07:23 09.01.2020
4636 Clear 5 1028 52 10000 5.1 330 06:39 09.01.2020
4637 Clear 5 1028 52 10000 6.2 330 06:20 09.01.2020
4638 Clear 5 1028 52 10000 6.7 330 05:49 09.01.2020
4639 Clear 5 1028 52 10000 6.2 330 04:44 09.01.2020
4640 Clear 5 1028 52 10000 5.7 330 03:54 09.01.2020
4641 Clear 6 1029 52 10000 6.2 330 02:55 09.01.2020
4642 Clear 5 1029 52 10000 7.2 320 02:30 09.01.2020
4643 Clear 5 1029 52 10000 6.2 320 01:40 09.01.2020
4644 Clear 6 1029 49 10000 7.2 320 00:44 09.01.2020
4645 Clear 6 1029 49 10000 6.2 320 00:21 09.01.2020
4646 Clear 6 1030 53 10000 4.6 330 23:56 08.01.2020
4647 Clear 6 1030 53 10000 4.6 330 23:37 08.01.2020
4648 Clear 6 1030 52 10000 6.2 330 23:19 08.01.2020
4649 Clear 6 1030 52 10000 6.7 320 22:39 08.01.2020
4650 Clear 6 1030 52 10000 5.7 330 22:21 08.01.2020
4651 Clear 6 1030 52 10000 5.7 330 22:21 08.01.2020
4652 Clear 6 1030 57 10000 5.7 330 21:58 08.01.2020
4653 Clear 6 1030 57 10000 5.7 330 21:39 08.01.2020
4654 Clear 6 1030 61 10000 5.1 330 21:20 08.01.2020
4655 Clear 7 1030 61 10000 5.7 320 20:58 08.01.2020
4656 Clear 7 1030 61 10000 5.7 320 20:40 08.01.2020
4657 Clear 7 1030 66 10000 4.6 330 20:20 08.01.2020
4658 Clear 7 1030 66 10000 4.6 330 20:20 08.01.2020
4659 Clear 7 1030 66 10000 4.1 330 19:57 08.01.2020
4660 Clear 7 1030 66 10000 4.1 330 19:37 08.01.2020
4661 Clear 7 1030 70 10000 4.6 320 19:19 08.01.2020
4662 Clear 5 1030 76 10000 3.1 320 18:57 08.01.2020
4663 Clear 6 1030 76 10000 3.1 320 18:38 08.01.2020
4664 Clear 7 1030 71 10000 1 120 18:18 08.01.2020
4665 Clear 8 1030 67 10000 2.1 150 17:56 08.01.2020
4666 Clear 7 1030 67 10000 2.1 150 17:37 08.01.2020
4667 Clear 10 1029 67 10000 3.1 130 17:18 08.01.2020
4668 Clear 12 1029 62 10000 3.6 140 16:55 08.01.2020
4669 Clear 12 1029 62 10000 3.6 140 16:37 08.01.2020
4670 Clear 13 1029 55 10000 3.6 150 16:18 08.01.2020
4671 Clear 13 1029 51 10000 2.6 170 15:42 08.01.2020
4672 Clear 16 1029 59 10000 2.6 160 15:21 08.01.2020
4673 Clear 16 1029 33 10000 1.5 0 14:57 08.01.2020
4674 Clear 14 1029 33 10000 1.5 0 14:39 08.01.2020
4675 Clear 15 1029 27 10000 2.1 320 14:20 08.01.2020
4676 Clear 15 1029 31 10000 3.1 320 13:40 08.01.2020
4677 Clear 14 1029 33 10000 4.1 320 13:20 08.01.2020
4678 Clear 16 1029 35 10000 5.1 320 12:43 08.01.2020
4679 Clear 15 1030 37 10000 6.2 320 12:20 08.01.2020
4680 Clear 14 1030 40 10000 6.7 320 11:59 08.01.2020
4681 Clear 14 1030 40 10000 6.7 320 11:41 08.01.2020
4682 Clear 8 1030 43 10000 7.2 330 11:19 08.01.2020
4683 Clear 7 1030 46 10000 6.7 330 10:57 08.01.2020
4684 Clear 8 1030 46 10000 6.7 330 10:39 08.01.2020
4685 Clear 7 1030 49 10000 7.7 330 10:19 08.01.2020
4686 Clear 7 1030 52 10000 8.2 330 09:42 08.01.2020
4687 Clear 6 1029 52 10000 7.2 330 09:20 08.01.2020
4688 Clear 5 1029 56 10000 7.7 330 08:57 08.01.2020
4689 Clear 5 1029 56 10000 7.7 330 08:38 08.01.2020
4690 Clear 3 1029 56 10000 6.2 330 08:20 08.01.2020
4691 Clear 5 1029 56 10000 6.2 330 07:51 08.01.2020
4692 Clear 5 1028 56 10000 6.7 330 07:33 08.01.2020
4693 Clear 6 1028 50 10000 5.7 330 06:50 08.01.2020
4694 Clear 6 1028 50 10000 5.7 330 06:32 08.01.2020
4695 Clear 6 1028 50 10000 6.2 330 05:54 08.01.2020
4696 Clear 5 1028 65 10000 6.7 330 05:18 08.01.2020
4697 Clear 6 1028 65 10000 5.7 330 04:35 08.01.2020
4698 Clear 6 1027 70 10000 6.2 330 02:46 08.01.2020
4699 Clear 6 1027 70 10000 5.1 330 02:28 08.01.2020
4700 Clear 6 1027 70 10000 5.7 330 01:52 08.01.2020
4701 Clear 6 1027 70 10000 6.2 330 01:26 08.01.2020
4702 Clear 6 1027 70 10000 5.1 330 00:42 08.01.2020
4703 Clear 6 1027 70 10000 6.2 330 00:21 08.01.2020
4704 Clear 7 1027 70 10000 5.1 330 23:45 07.01.2020
4705 Clear 6 1027 70 10000 3.6 340 23:20 07.01.2020
4706 Clouds 6 1026 70 10000 5.1 330 22:41 07.01.2020
4707 Clouds 7 1026 70 10000 5.1 330 22:21 07.01.2020
4708 Clear 6 1026 70 10000 5.1 330 21:58 07.01.2020
4709 Clear 7 1026 70 10000 5.1 330 21:58 07.01.2020
4710 Clear 7 1026 70 10000 5.1 330 21:40 07.01.2020
4711 Clouds 7 1026 70 10000 3.6 330 21:21 07.01.2020
4712 Clouds 7 1026 66 10000 3.6 340 20:57 07.01.2020
4713 Clouds 7 1026 66 10000 3.6 340 20:39 07.01.2020
4714 Clouds 8 1025 70 10000 4.1 330 20:21 07.01.2020
4715 Clouds 8 1025 70 10000 3.6 340 19:56 07.01.2020
4716 Clouds 8 1025 70 10000 3.6 340 19:37 07.01.2020
4717 Clouds 9 1025 70 10000 4.6 320 19:18 07.01.2020
4718 Clouds 9 1025 70 10000 4.6 320 19:18 07.01.2020
4719 Clouds 8 1025 66 10000 4.1 320 18:55 07.01.2020
4720 Clouds 8 1025 66 10000 4.1 320 18:37 07.01.2020
4721 Clouds 7 1025 66 10000 4.6 70 18:18 07.01.2020
4722 Clouds 7 1024 66 10000 4.6 80 17:41 07.01.2020
4723 Clouds 10 1024 71 10000 4.6 80 17:23 07.01.2020
4724 Clouds 11 1024 66 10000 6.2 80 16:58 07.01.2020
4725 Clouds 10 1024 66 10000 6.2 80 16:38 07.01.2020
4726 Clouds 11 1024 67 10000 6.2 80 16:20 07.01.2020
4727 Clouds 12 1024 67 10000 6.2 70 15:59 07.01.2020
4728 Clouds 12 1024 67 10000 6.2 70 15:41 07.01.2020
4729 Clouds 11 1024 67 10000 3.6 60 15:23 07.01.2020
4730 Clouds 11 1024 54 10000 3.1 330 14:57 07.01.2020
4731 Clouds 12 1024 54 10000 3.1 330 14:37 07.01.2020
4732 Clouds 12 1024 54 10000 3.6 330 14:19 07.01.2020
4733 Clouds 12 1024 54 10000 3.6 330 14:19 07.01.2020
4734 Clouds 12 1024 54 10000 3.6 330 13:40 07.01.2020
4735 Clouds 11 1024 57 10000 3.6 330 13:20 07.01.2020
4736 Clouds 11 1024 57 10000 3.6 340 12:55 07.01.2020
4737 Clouds 11 1024 57 10000 3.6 340 12:36 07.01.2020
4738 Clouds 10 1024 57 10000 4.1 340 12:18 07.01.2020
4739 Clouds 10 1025 57 10000 4.1 340 11:41 07.01.2020
4740 Clouds 8 1025 76 10000 2.1 360 11:22 07.01.2020
4741 Clouds 8 1025 61 10000 3.6 340 10:55 07.01.2020
4742 Clouds 7 1025 61 10000 3.6 340 10:37 07.01.2020
4743 Clouds 7 1025 66 10000 4.6 330 10:19 07.01.2020
4744 Clouds 7 1025 66 10000 5.1 330 09:39 07.01.2020
4745 Clouds 6 1025 66 10000 5.1 330 09:20 07.01.2020
4746 Clouds 6 1025 66 10000 4.6 330 08:57 07.01.2020
4747 Clouds 5 1025 66 10000 4.6 330 08:37 07.01.2020
4748 Clouds 5 1025 66 10000 3.6 330 08:18 07.01.2020
4749 Clouds 5 1025 66 10000 2.6 350 07:42 07.01.2020
4750 Clouds 5 1025 66 10000 2.6 350 07:42 07.01.2020
4751 Clouds 5 1025 66 10000 2.6 330 06:57 07.01.2020
4752 Clouds 4 1025 70 10000 4.1 330 06:35 07.01.2020
4753 Clouds 4 1025 70 10000 2.1 360 05:59 07.01.2020
4754 Clouds 4 1025 70 10000 2.1 360 05:40 07.01.2020
4755 Clouds 6 1026 70 10000 4.1 330 03:45 07.01.2020
4756 Clouds 6 1026 93 10000 2.1 360 03:24 07.01.2020
4757 Clouds 7 1026 76 10000 4.6 330 02:18 07.01.2020
4758 Clouds 8 1027 76 10000 4.1 330 01:40 07.01.2020
4759 Clouds 8 1027 76 10000 3.6 330 00:57 07.01.2020
4760 Clouds 8 1027 76 10000 3.6 320 00:21 07.01.2020
4761 Clouds 8 1027 76 10000 3.1 330 23:57 06.01.2020
4762 Clouds 8 1027 76 10000 3.1 330 23:37 06.01.2020
4763 Clouds 7 1028 76 10000 4.1 320 23:19 06.01.2020
4764 Clouds 8 1028 76 10000 4.1 320 22:44 06.01.2020
4765 Clouds 8 1028 76 10000 3.1 320 22:25 06.01.2020
4766 Clouds 7 1028 76 10000 3.1 320 21:59 06.01.2020
4767 Clouds 7 1028 76 10000 3.1 320 21:40 06.01.2020
4768 Clouds 7 1028 71 10000 1.5 320 21:20 06.01.2020
4769 Clouds 6 1028 71 10000 1 0 20:58 06.01.2020
4770 Clouds 6 1028 71 10000 1 0 20:40 06.01.2020
4771 Clouds 7 1028 66 10000 1 0 20:20 06.01.2020
4772 Clouds 6 1028 71 10000 1.5 0 19:57 06.01.2020
4773 Clouds 7 1028 71 10000 1.5 0 19:39 06.01.2020
4774 Clouds 7 1028 71 10000 2.1 150 19:20 06.01.2020
4775 Clouds 9 1028 71 10000 1.5 130 18:48 06.01.2020
4776 Clouds 9 1028 71 10000 2.1 130 18:25 06.01.2020
4777 Clouds 11 1028 71 10000 3.1 120 18:00 06.01.2020
4778 Clouds 9 1028 71 10000 3.1 120 17:39 06.01.2020
4779 Clouds 10 1028 66 10000 2.6 120 17:19 06.01.2020
4780 Clouds 10 1028 62 10000 2.6 130 16:55 06.01.2020
4781 Clouds 11 1028 62 10000 2.6 120 16:36 06.01.2020
4782 Clouds 11 1028 62 10000 2.6 120 16:18 06.01.2020
4783 Clouds 12 1028 67 10000 2.1 120 15:42 06.01.2020
4784 Clouds 11 1028 62 10000 2.1 120 15:20 06.01.2020
4785 Clouds 11 1028 62 10000 2.6 120 14:59 06.01.2020
4786 Clouds 11 1028 62 10000 2.6 120 14:41 06.01.2020
4787 Clouds 11 1028 62 10000 2.6 120 14:41 06.01.2020
4788 Clouds 12 1029 58 10000 3.1 100 14:21 06.01.2020
4789 Clouds 12 1029 62 10000 3.6 100 13:58 06.01.2020
4790 Clouds 11 1029 62 10000 3.6 100 13:38 06.01.2020
4791 Clouds 13 1030 62 10000 3.6 90 13:20 06.01.2020
4792 Clouds 13 1030 62 10000 4.6 90 12:44 06.01.2020
4793 Clouds 13 1030 46 10000 3.6 320 12:21 06.01.2020
4794 Clouds 12 1031 50 10000 4.6 320 11:59 06.01.2020
4795 Clouds 13 1031 50 10000 4.6 320 11:41 06.01.2020
4796 Clouds 10 1031 53 10000 5.1 320 11:23 06.01.2020
4797 Clouds 9 1031 64 10000 5.7 330 10:57 06.01.2020
4798 Clouds 8 1031 64 10000 5.7 330 10:39 06.01.2020
4799 Clouds 8 1031 64 10000 6.2 330 10:20 06.01.2020
4800 Clouds 8 1031 64 10000 6.2 330 10:20 06.01.2020
4801 Clouds 9 1031 64 10000 6.2 330 09:39 06.01.2020
4802 Clouds 8 1031 64 10000 6.2 330 09:20 06.01.2020
4803 Clouds 6 1030 64 10000 6.7 320 08:48 06.01.2020
4804 Clouds 6 1030 64 10000 6.7 320 08:48 06.01.2020
4805 Clouds 5 1030 66 10000 5.7 330 08:30 06.01.2020
4806 Clear 5 1030 56 10000 5.7 330 07:56 06.01.2020
4807 Clear 4 1030 68 10000 5.7 330 07:33 06.01.2020
4808 Clear 4 1030 68 10000 6.7 330 06:46 06.01.2020
4809 Clear 5 1030 68 10000 5.1 330 06:23 06.01.2020
4810 Clear 5 1030 68 10000 6.2 330 05:45 06.01.2020
4811 Clear 5 1029 62 10000 5.7 330 04:53 06.01.2020
4812 Clear 7 1030 62 10000 5.1 330 04:20 06.01.2020
4813 Clear 6 1030 61 10000 4.1 330 02:58 06.01.2020
4814 Clear 6 1030 61 10000 3.6 330 02:24 06.01.2020
4815 Clear 6 1030 65 10000 4.6 330 01:45 06.01.2020
4816 Clear 6 1030 65 10000 4.6 330 01:27 06.01.2020
4817 Clear 7 1030 61 10000 5.1 320 00:44 06.01.2020
4818 Clear 7 1030 66 10000 5.1 330 00:24 06.01.2020
4819 Clear 7 1030 70 10000 4.6 330 23:43 05.01.2020
4820 Clear 7 1030 70 10000 4.6 330 23:43 05.01.2020
4821 Clear 7 1030 70 10000 3.6 330 23:23 05.01.2020
4822 Clear 7 1030 93 10000 2.1 360 22:58 05.01.2020
4823 Clear 7 1030 93 10000 2.1 360 22:39 05.01.2020
4824 Clear 7 1030 70 10000 5.1 330 22:20 05.01.2020
4825 Clear 7 1029 76 10000 5.1 330 21:56 05.01.2020
4826 Clear 7 1029 76 10000 5.1 330 21:38 05.01.2020
4827 Clouds 8 1029 76 10000 4.6 320 21:20 05.01.2020
4828 Clouds 8 1029 81 10000 3.6 330 20:56 05.01.2020
4829 Clouds 8 1029 81 10000 3.6 330 20:38 05.01.2020
4830 Clouds 8 1029 87 10000 4.1 320 20:19 05.01.2020
4831 Clouds 8 1029 81 10000 3.6 320 19:57 05.01.2020
4832 Clouds 9 1029 81 10000 3.6 320 19:38 05.01.2020
4833 Clouds 9 1029 81 10000 3.6 70 19:19 05.01.2020
4834 Clouds 9 1028 82 10000 3.6 80 18:55 05.01.2020
4835 Clouds 9 1028 87 10000 3.6 80 18:37 05.01.2020
4836 Clouds 9 1028 87 10000 3.6 80 18:37 05.01.2020
4837 Clouds 9 1028 87 10000 3.6 80 18:18 05.01.2020
4838 Clouds 10 1028 82 10000 4.1 90 17:57 05.01.2020
4839 Clouds 10 1028 82 10000 4.1 90 17:38 05.01.2020
4840 Clouds 11 1027 82 10000 4.1 90 17:19 05.01.2020
4841 Clouds 12 1027 76 10000 5.1 70 16:55 05.01.2020
4842 Clouds 12 1027 76 10000 5.1 70 16:37 05.01.2020
4843 Clouds 13 1027 72 10000 6.7 80 16:19 05.01.2020
4844 Clouds 14 1027 77 10000 5.1 80 15:37 05.01.2020
4845 Clouds 12 1026 72 10000 3.6 70 15:19 05.01.2020
4846 Clear 15 1026 72 10000 3.1 70 14:55 05.01.2020
4847 Clear 15 1026 72 10000 3.1 70 14:37 05.01.2020
4848 Clear 14 1027 72 10000 3.6 90 14:18 05.01.2020
4849 Clear 14 1026 72 10000 3.6 90 13:55 05.01.2020
4850 Clear 14 1026 72 10000 3.6 90 13:37 05.01.2020
4851 Clear 14 1027 67 10000 1 0 13:18 05.01.2020
4852 Clear 14 1027 67 10000 1 0 13:18 05.01.2020
4853 Clear 14 1027 67 10000 1 0 13:18 05.01.2020
4854 Clear 14 1027 67 10000 1 0 13:18 05.01.2020
4855 Clear 14 1027 67 10000 1.5 0 12:55 05.01.2020
4856 Clear 14 1027 67 10000 1.5 0 12:36 05.01.2020
4857 Clear 14 1027 44 10000 2.6 320 12:18 05.01.2020
4858 Clear 13 1027 43 10000 3.6 330 11:43 05.01.2020
4859 Clear 13 1027 43 10000 3.6 330 11:43 05.01.2020
4860 Clear 13 1027 43 10000 3.6 330 11:43 05.01.2020
4861 Clear 13 1027 43 10000 3.6 330 11:43 05.01.2020
4862 Clear 13 1027 43 10000 3.6 330 11:43 05.01.2020
4863 Clear 10 1027 46 10000 3.6 330 11:19 05.01.2020
4864 Clear 9 1027 68 10000 4.6 330 10:58 05.01.2020
4865 Clear 9 1027 68 10000 4.6 330 10:39 05.01.2020
4866 Clear 9 1027 68 10000 4.6 330 10:39 05.01.2020
4867 Clear 9 1027 68 10000 4.6 330 10:39 05.01.2020
4868 Clear 9 1027 68 10000 4.6 330 10:39 05.01.2020
4869 Clear 9 1027 68 10000 4.6 330 10:39 05.01.2020
4870 Clear 8 1026 68 10000 5.1 330 10:19 05.01.2020
4871 Clear 9 1026 68 10000 5.1 320 09:42 05.01.2020
4872 Clear 7 1025 52 10000 5.1 330 09:22 05.01.2020
4873 Clear 7 1025 52 10000 4.6 320 08:50 05.01.2020
4874 Clear 6 1024 52 10000 4.6 330 08:30 05.01.2020
4875 Clear 6 1024 52 10000 5.7 330 07:56 05.01.2020
4876 Clear 6 1024 52 10000 5.7 330 07:38 05.01.2020
4877 Clear 6 1024 52 10000 4.6 330 07:20 05.01.2020
4878 Clear 6 1023 52 10000 5.1 330 06:20 05.01.2020
4879 Clear 6 1023 52 10000 5.1 330 05:33 05.01.2020
4880 Clear 6 1023 52 10000 5.1 330 05:33 05.01.2020
4881 Clear 6 1023 52 10000 5.1 330 05:33 05.01.2020
4882 Clear 6 1023 62 10000 5.1 330 04:44 05.01.2020
4883 Clear 6 1023 62 10000 4.6 330 04:18 05.01.2020
4884 Clear 7 1022 62 10000 5.1 330 02:46 05.01.2020
4885 Clear 6 1022 65 10000 5.1 330 02:24 05.01.2020
4886 Clear 7 1022 65 10000 3.6 330 01:48 05.01.2020
4887 Clear 6 1022 63 10000 4.6 330 01:19 05.01.2020
4888 Clear 6 1022 63 10000 5.1 330 00:54 05.01.2020
4889 Clear 7 1022 63 10000 4.1 340 00:36 05.01.2020
4890 Clear 6 1022 63 10000 5.1 330 00:36 05.01.2020
4891 Clear 6 1022 63 10000 4.1 340 00:18 05.01.2020
4892 Clear 6 1023 53 10000 6.7 320 23:40 04.01.2020
4893 Clear 7 1023 53 10000 5.7 320 23:20 04.01.2020
4894 Clear 6 1023 57 10000 5.7 320 22:40 04.01.2020
4895 Clear 6 1023 61 10000 6.7 320 22:22 04.01.2020
4896 Clear 6 1023 61 10000 6.7 320 22:22 04.01.2020
4897 Clear 7 1023 61 10000 3.6 340 21:58 04.01.2020
4898 Clear 7 1023 61 10000 3.6 340 21:40 04.01.2020
4899 Clear 7 1023 61 10000 3.6 340 21:40 04.01.2020
4900 Clear 7 1023 61 10000 5.7 320 21:21 04.01.2020
4901 Clear 7 1024 61 10000 5.7 330 20:59 04.01.2020
4902 Clear 8 1024 61 10000 5.7 330 20:40 04.01.2020
4903 Clear 8 1023 66 10000 6.2 320 20:22 04.01.2020
4904 Clear 8 1023 66 10000 6.2 320 19:57 04.01.2020
4905 Clear 8 1023 66 10000 6.2 320 19:38 04.01.2020
4906 Clear 8 1023 61 10000 5.7 320 19:20 04.01.2020
4907 Clear 8 1023 61 10000 6.2 320 18:56 04.01.2020
4908 Clear 8 1023 61 10000 6.2 320 18:37 04.01.2020
4909 Clear 8 1024 66 10000 5.1 320 18:19 04.01.2020
4910 Clear 9 1024 57 10000 4.6 320 17:41 04.01.2020
4911 Clear 11 1024 54 10000 3.1 320 17:23 04.01.2020
4912 Clear 12 1024 50 10000 1.5 320 16:59 04.01.2020
4913 Clear 12 1024 50 10000 1.5 320 16:40 04.01.2020
4914 Clear 13 1024 58 10000 0.5 0 16:21 04.01.2020
4915 Clear 14 1024 50 10000 2.1 300 15:56 04.01.2020
4916 Clear 14 1024 50 10000 2.1 300 15:38 04.01.2020
4917 Clear 14 1024 50 10000 2.6 320 15:18 04.01.2020
4918 Clear 12 1023 47 10000 3.1 320 14:42 04.01.2020
4919 Clear 12 1023 47 10000 3.1 320 14:42 04.01.2020
4920 Clouds 13 1024 50 10000 3.6 320 14:20 04.01.2020
4921 Clouds 14 1024 47 10000 3.6 320 13:59 04.01.2020
4922 Clouds 13 1024 47 10000 3.6 320 13:38 04.01.2020
4923 Clouds 13 1024 47 10000 4.6 320 13:20 04.01.2020
4924 Clouds 14 1025 47 10000 5.1 330 12:57 04.01.2020
4925 Clouds 13 1025 47 10000 5.1 330 12:39 04.01.2020
4926 Clouds 13 1025 50 10000 5.7 330 12:19 04.01.2020
4927 Clouds 12 1026 50 10000 6.7 330 11:57 04.01.2020
4928 Clouds 12 1026 50 10000 6.7 330 11:38 04.01.2020
4929 Clouds 8 1026 53 10000 6.7 330 11:18 04.01.2020
4930 Clouds 8 1026 57 10000 7.2 330 10:41 04.01.2020
4931 Clouds 7 1025 65 10000 5.1 330 10:22 04.01.2020
4932 Clouds 8 1025 65 10000 5.7 340 09:50 04.01.2020
4933 Clouds 8 1025 70 10000 7.7 330 09:26 04.01.2020
4934 Clouds 5 1025 70 10000 7.7 330 08:57 04.01.2020
4935 Clouds 5 1025 70 10000 7.7 330 08:37 04.01.2020
4936 Clouds 4 1024 70 10000 7.2 330 08:19 04.01.2020
4937 Clouds 4 1024 70 10000 7.7 330 07:42 04.01.2020
4938 Clouds 4 1024 75 10000 6.7 330 06:49 04.01.2020
4939 Clouds 5 1023 75 10000 5.7 330 05:59 04.01.2020
4940 Clouds 5 1023 70 10000 5.1 330 05:18 04.01.2020
4941 Clouds 6 1023 75 10000 7.2 330 04:33 04.01.2020
4942 Clouds 5 1023 75 10000 7.7 330 03:43 04.01.2020
4943 Clouds 5 1023 75 10000 7.2 330 03:18 04.01.2020
4944 Clouds 6 1023 75 10000 6.2 320 02:21 04.01.2020
4945 Clouds 6 1023 75 10000 6.2 320 02:21 04.01.2020
4946 Clouds 6 1023 75 10000 5.1 330 01:53 04.01.2020
4947 Clouds 5 1023 75 10000 5.7 330 01:30 04.01.2020
4948 Clouds 6 1024 75 10000 6.2 320 00:43 04.01.2020
4949 Clouds 6 1024 75 10000 5.7 330 00:23 04.01.2020
4950 Clouds 6 1024 75 10000 5.1 330 23:44 03.01.2020
4951 Clouds 6 1024 75 10000 4.6 330 23:25 03.01.2020
4952 Clouds 6 1024 75 10000 4.6 330 22:41 03.01.2020
4953 Clouds 6 1024 75 10000 4.6 330 22:20 03.01.2020
4954 Clouds 6 1024 76 10000 4.1 330 21:59 03.01.2020
4955 Clouds 6 1025 76 10000 5.1 330 21:38 03.01.2020
4956 Clouds 7 1025 76 10000 5.1 330 21:19 03.01.2020
4957 Clouds 7 1025 76 10000 5.1 330 21:19 03.01.2020
4958 Clouds 7 1025 76 10000 4.6 330 20:58 03.01.2020
4959 Clouds 7 1025 76 10000 4.6 330 20:40 03.01.2020
4960 Clouds 7 1025 76 10000 4.1 330 20:18 03.01.2020
4961 Clouds 7 1025 76 10000 3.6 330 19:57 03.01.2020
4962 Clouds 7 1025 76 10000 3.6 330 19:38 03.01.2020
4963 Clouds 7 1025 76 10000 4.1 330 19:19 03.01.2020
4964 Clouds 8 1025 71 10000 3.1 330 18:44 03.01.2020
4965 Clouds 8 1025 71 10000 3.1 330 18:25 03.01.2020
4966 Clouds 8 1025 66 10000 3.1 330 17:56 03.01.2020
4967 Clouds 8 1025 66 10000 3.1 330 17:38 03.01.2020
4968 Clouds 8 1025 66 10000 3.1 330 17:38 03.01.2020
4969 Clouds 9 1026 66 10000 2.1 320 17:19 03.01.2020
4970 Clouds 9 1026 71 10000 2.1 30 16:42 03.01.2020
4971 Clouds 10 1026 66 10000 2.1 30 16:24 03.01.2020
4972 Clouds 10 1026 66 10000 1 0 15:57 03.01.2020
4973 Clouds 10 1026 66 10000 1 0 15:39 03.01.2020
4974 Clouds 10 1026 66 10000 0.5 0 15:18 03.01.2020
4975 Clouds 10 1026 66 10000 0.5 0 14:39 03.01.2020
4976 Clouds 11 1026 66 10000 1 0 14:19 03.01.2020
4977 Clouds 11 1027 66 10000 1.5 0 13:56 03.01.2020
4978 Clouds 11 1027 66 10000 1.5 0 13:37 03.01.2020
4979 Clouds 10 1027 66 10000 1.5 300 13:19 03.01.2020
4980 Clouds 12 1028 58 10000 2.6 300 12:39 03.01.2020
4981 Clouds 11 1028 57 10000 3.1 310 12:21 03.01.2020
4982 Clouds 10 1028 57 10000 4.1 310 11:48 03.01.2020
4983 Clouds 9 1029 61 10000 4.1 320 11:29 03.01.2020
4984 Clouds 9 1029 66 10000 4.6 320 10:47 03.01.2020
4985 Clouds 7 1029 66 10000 4.1 320 10:28 03.01.2020
4986 Clouds 8 1029 81 10000 1.5 0 09:59 03.01.2020
4987 Clouds 7 1029 81 10000 1.5 0 09:41 03.01.2020
4988 Clouds 7 1029 70 10000 4.1 330 09:22 03.01.2020
4989 Clouds 6 1029 70 10000 4.6 330 08:57 03.01.2020
4990 Clouds 5 1029 70 10000 4.6 330 08:39 03.01.2020
4991 Clouds 5 1029 75 10000 4.1 320 08:20 03.01.2020
4992 Clouds 5 1029 70 10000 3.6 330 07:42 03.01.2020
4993 Clouds 5 1029 75 10000 3.6 330 07:19 03.01.2020
4994 Clouds 5 1029 75 10000 3.6 320 06:56 03.01.2020
4995 Clouds 5 1029 75 10000 3.6 320 06:37 03.01.2020
4996 Clouds 5 1028 70 10000 4.6 330 06:18 03.01.2020
4997 Clouds 5 1028 70 10000 5.1 320 04:42 03.01.2020
4998 Clouds 5 1029 75 10000 5.1 330 03:34 03.01.2020
4999 Clouds 6 1029 75 10000 3.6 330 02:47 03.01.2020
5000 Clouds 6 1030 75 10000 4.1 320 01:47 03.01.2020
5001 Clouds 6 1030 75 10000 4.1 320 00:57 03.01.2020
5002 Clouds 6 1031 81 10000 4.1 320 00:33 03.01.2020
5003 Clouds 6 1031 81 10000 3.6 320 23:58 02.01.2020
5004 Clouds 6 1031 81 10000 3.6 320 23:39 02.01.2020
5005 Clouds 6 1031 81 10000 3.1 330 23:20 02.01.2020
5006 Clouds 6 1031 76 10000 4.1 330 22:58 02.01.2020
5007 Clouds 6 1031 76 10000 4.1 330 22:39 02.01.2020
5008 Clouds 6 1031 76 10000 3.6 320 22:19 02.01.2020
5009 Clouds 6 1031 76 10000 3.1 320 21:55 02.01.2020
5010 Clouds 6 1031 76 10000 3.1 320 21:36 02.01.2020
5011 Clouds 6 1031 81 10000 2.6 330 21:18 02.01.2020
5012 Clouds 6 1031 81 10000 2.6 320 20:54 02.01.2020
5013 Clouds 7 1031 81 10000 2.6 320 20:36 02.01.2020
5014 Clouds 7 1031 81 10000 3.1 320 20:18 02.01.2020
5015 Clouds 7 1031 76 10000 2.6 310 19:54 02.01.2020
5016 Clouds 7 1031 76 10000 2.6 310 19:36 02.01.2020
5017 Clouds 7 1031 76 10000 2.1 290 19:36 02.01.2020
5018 Clouds 7 1031 76 10000 2.1 290 19:18 02.01.2020
5019 Clouds 8 1030 71 10000 2.1 250 18:42 02.01.2020
5020 Clouds 8 1030 71 10000 2.6 250 18:23 02.01.2020
5021 Clouds 9 1030 66 10000 3.1 240 17:58 02.01.2020
5022 Clouds 8 1030 66 10000 3.1 240 17:38 02.01.2020
5023 Clouds 10 1030 62 10000 4.1 230 17:19 02.01.2020
5024 Clouds 10 1030 62 10000 4.1 230 16:58 02.01.2020
5025 Clouds 10 1030 62 10000 4.1 230 16:40 02.01.2020
5026 Clouds 11 1030 62 10000 3.6 220 16:20 02.01.2020
5027 Clouds 11 1030 62 10000 2.6 210 15:57 02.01.2020
5028 Clouds 11 1030 62 10000 2.6 210 15:39 02.01.2020
5029 Clouds 12 1030 67 10000 3.6 190 15:19 02.01.2020
5030 Clouds 12 1031 67 10000 3.6 200 14:56 02.01.2020
5031 Clouds 12 1031 67 10000 3.6 200 14:36 02.01.2020
5032 Clouds 12 1031 67 10000 2.6 200 14:18 02.01.2020
5033 Clouds 12 1031 62 10000 2.1 210 13:48 02.01.2020
5034 Clouds 12 1032 58 10000 1.5 0 13:30 02.01.2020
5035 Clouds 12 1032 50 10000 2.6 320 12:46 02.01.2020
5036 Clouds 11 1033 50 10000 3.6 320 12:25 02.01.2020
5037 Clouds 11 1033 57 10000 5.1 320 11:58 02.01.2020
5038 Clouds 11 1033 57 10000 5.1 320 11:40 02.01.2020
5039 Clouds 10 1033 57 10000 5.1 320 11:19 02.01.2020
5040 Clouds 7 1033 61 10000 5.7 330 10:44 02.01.2020
5041 Clouds 6 1033 71 10000 5.7 330 10:25 02.01.2020
5042 Clouds 6 1033 71 10000 6.7 330 09:48 02.01.2020
5043 Clouds 6 1033 71 10000 6.7 330 09:29 02.01.2020
5044 Clouds 5 1032 71 10000 5.7 330 08:47 02.01.2020
5045 Clouds 6 1032 70 10000 5.7 330 08:27 02.01.2020
5046 Clouds 5 1032 71 10000 6.2 330 07:53 02.01.2020
5047 Clouds 5 1032 71 10000 6.2 330 07:30 02.01.2020
5048 Clouds 4 1032 71 10000 6.2 330 06:46 02.01.2020
5049 Clouds 5 1032 65 10000 5.7 320 06:27 02.01.2020
5050 Clouds 4 1031 71 10000 5.7 330 05:35 02.01.2020
5051 Clouds 6 1032 65 10000 5.7 330 04:33 02.01.2020
5052 Clouds 5 1032 65 10000 6.2 320 02:54 02.01.2020
5053 Clouds 5 1031 70 10000 5.1 330 01:59 02.01.2020
5054 Clouds 5 1031 70 10000 5.1 330 01:39 02.01.2020
5055 Clouds 5 1032 70 10000 5.7 320 00:59 02.01.2020
5056 Clouds 5 1032 75 10000 5.1 330 00:33 02.01.2020
5057 Clouds 5 1032 75 10000 4.6 330 23:56 01.01.2020
5058 Clouds 6 1031 75 10000 4.6 330 23:37 01.01.2020
5059 Clouds 6 1031 75 10000 4.6 330 23:18 01.01.2020
5060 Clouds 6 1031 70 10000 4.1 330 22:38 01.01.2020
5061 Clouds 6 1031 75 10000 4.1 330 22:19 01.01.2020
5062 Clouds 5 1031 75 10000 4.1 330 21:56 01.01.2020
5063 Clouds 5 1031 75 10000 4.1 330 21:38 01.01.2020
5064 Clouds 6 1031 75 10000 4.6 340 21:19 01.01.2020
5065 Clouds 6 1031 75 10000 4.6 340 21:19 01.01.2020
5066 Clouds 7 1031 81 10000 3.6 330 20:55 01.01.2020
5067 Clouds 7 1031 81 10000 3.6 330 20:37 01.01.2020
5068 Clouds 7 1031 76 10000 3.6 330 20:19 01.01.2020
5069 Clouds 7 1031 76 10000 3.6 330 20:19 01.01.2020
5070 Clouds 8 1031 81 10000 5.1 320 19:55 01.01.2020
5071 Clouds 8 1031 81 10000 5.1 320 19:37 01.01.2020
5072 Clouds 8 1031 81 10000 4.1 320 19:19 01.01.2020
5073 Clouds 8 1030 76 10000 3.6 320 18:55 01.01.2020
5074 Clouds 9 1030 76 10000 2.6 330 18:36 01.01.2020
5075 Clouds 9 1030 76 10000 2.6 330 18:18 01.01.2020
5076 Clouds 8 1030 76 10000 2.45 230 17:56 01.01.2020
5077 Clouds 8 1030 76 10000 2.45 230 17:38 01.01.2020
5078 Clouds 9 1030 76 10000 1.5 240 17:18 01.01.2020
5079 Clear 11 1030 67 10000 1 240 16:42 01.01.2020
5080 Clear 12 1030 62 10000 1.5 200 16:23 01.01.2020
5081 Clear 13 1030 62 10000 1.5 200 15:58 01.01.2020
5082 Clear 11 1030 62 10000 1.5 200 15:40 01.01.2020
5083 Clear 14 1030 67 10000 2.1 190 15:21 01.01.2020
5084 Clear 12 1029 67 10000 2.1 190 14:59 01.01.2020
5085 Clear 12 1029 67 10000 2.1 190 14:40 01.01.2020
5086 Clouds 13 1030 67 10000 2.1 200 14:22 01.01.2020
5087 Clouds 13 1030 62 10000 1.5 190 13:56 01.01.2020
5088 Clouds 13 1030 62 10000 1.5 190 13:37 01.01.2020
5089 Clouds 13 1030 54 10000 1.5 230 13:19 01.01.2020
5090 Clouds 13 1031 50 10000 2.1 310 12:57 01.01.2020
5091 Clouds 12 1031 50 10000 2.1 310 12:39 01.01.2020
5092 Clouds 12 1031 46 10000 3.1 320 12:19 01.01.2020
5093 Clouds 11 1031 72 10000 4.1 320 11:55 01.01.2020
5094 Clouds 11 1031 72 10000 4.1 320 11:36 01.01.2020
5095 Clouds 11 1031 74 10000 5.1 320 11:18 01.01.2020
5096 Clouds 9 1031 52 10000 4.6 330 10:41 01.01.2020
5097 Clouds 9 1031 52 10000 4.6 330 10:21 01.01.2020
5098 Clouds 8 1031 56 10000 4.6 330 09:59 01.01.2020
5099 Clouds 7 1031 56 10000 4.6 330 09:38 01.01.2020
5100 Clouds 7 1031 56 10000 4.6 330 09:38 01.01.2020
5101 Clouds 6 1031 60 10000 5.7 330 09:18 01.01.2020
5102 Clouds 4 1031 60 10000 4.6 340 08:55 01.01.2020
5103 Clouds 5 1031 60 10000 4.6 340 08:36 01.01.2020
5104 Clouds 4 1030 60 10000 5.1 330 08:18 01.01.2020
5105 Clouds 4 1030 60 10000 4.1 350 07:54 01.01.2020
5106 Clouds 4 1030 60 10000 4.1 350 07:36 01.01.2020
5107 Clouds 4 1030 60 10000 6.7 320 06:45 01.01.2020
5108 Clouds 4 1030 60 10000 6.2 330 06:21 01.01.2020
5109 Clear 4 1030 60 10000 5.7 330 05:22 01.01.2020
5110 Clear 5 1030 75 10000 6.2 330 03:46 01.01.2020
5111 Clear 5 1030 75 10000 6.2 330 03:23 01.01.2020
5112 Clear 5 1030 75 10000 5.1 330 02:57 01.01.2020
5113 Clear 5 1030 75 10000 5.1 330 02:36 01.01.2020
5114 Clouds 5 1030 65 10000 5.1 330 01:57 01.01.2020
5115 Clouds 5 1030 65 10000 5.1 330 01:38 01.01.2020
5116 Clouds 5 1030 65 10000 6.2 320 01:20 01.01.2020
5117 Clouds 5 1030 65 10000 5.7 330 00:44 01.01.2020
5118 Clouds 5 1030 65 10000 4.6 330 00:25 01.01.2020
5119 Clouds 5 1030 65 10000 4.6 330 23:41 31.12.2019
5120 Clouds 5 1030 65 10000 5.1 330 23:21 31.12.2019
5121 Clouds 5 1030 70 10000 4.6 330 22:57 31.12.2019
5122 Clouds 5 1030 70 10000 4.6 330 22:39 31.12.2019
5123 Clouds 6 1030 70 10000 4.6 330 22:20 31.12.2019
5124 Clouds 5 1030 70 10000 4.6 330 21:57 31.12.2019
5125 Clouds 5 1030 70 10000 4.6 330 21:39 31.12.2019
5126 Clouds 6 1030 70 10000 4.1 330 21:20 31.12.2019
5127 Clouds 6 1030 75 10000 4.1 330 20:55 31.12.2019
5128 Clouds 6 1030 75 10000 4.1 330 20:37 31.12.2019
5129 Clear 6 1030 70 10000 4.6 330 20:18 31.12.2019
5130 Clouds 7 1030 76 10000 3.6 330 19:54 31.12.2019
5131 Clouds 7 1030 76 10000 3.1 320 19:36 31.12.2019
5132 Clouds 7 1030 76 10000 3.1 320 19:18 31.12.2019
5133 Clouds 7 1030 76 10000 3.1 330 18:54 31.12.2019
5134 Clouds 7 1030 76 10000 3.1 330 18:36 31.12.2019
5135 Clouds 7 1030 76 10000 1.5 340 18:18 31.12.2019
5136 Clouds 7 1030 66 10000 2.1 20 17:54 31.12.2019
5137 Clouds 7 1029 62 10000 1.5 20 17:36 31.12.2019
5138 Clouds 9 1029 62 10000 1.5 20 17:18 31.12.2019
5139 Clouds 10 1029 62 10000 0.5 0 16:54 31.12.2019
5140 Clouds 10 1029 62 10000 0.5 0 16:36 31.12.2019
5141 Clouds 11 1030 71 10000 1.5 0 16:18 31.12.2019
5142 Clouds 11 1030 71 10000 1.5 0 16:18 31.12.2019
5143 Clouds 11 1030 71 10000 3.1 220 15:54 31.12.2019
5144 Clouds 12 1029 66 10000 3.1 210 15:36 31.12.2019
5145 Clouds 12 1029 66 10000 3.1 210 15:18 31.12.2019
5146 Clouds 12 1030 62 10000 2.1 220 14:54 31.12.2019
5147 Clouds 12 1030 62 10000 2.1 220 14:36 31.12.2019
5148 Clear 12 1030 66 10000 2.1 210 14:18 31.12.2019
5149 Clear 12 1030 62 10000 2.6 200 13:54 31.12.2019
5150 Clear 12 1030 62 10000 2.6 200 13:36 31.12.2019
5151 Clear 12 1031 62 10000 2.6 230 13:18 31.12.2019
5152 Clear 11 1031 50 10000 1.5 310 12:40 31.12.2019
5153 Clear 11 1031 50 10000 1.5 310 12:40 31.12.2019
5154 Clear 11 1032 64 10000 3.1 320 12:20 31.12.2019
5155 Clear 11 1032 64 10000 3.1 320 12:20 31.12.2019
5156 Clear 11 1032 64 10000 4.1 320 11:57 31.12.2019
5157 Clear 11 1032 64 10000 4.1 320 11:39 31.12.2019
5158 Clear 9 1032 60 10000 4.6 320 11:20 31.12.2019
5159 Clear 9 1032 52 10000 5.1 330 10:58 31.12.2019
5160 Clear 9 1032 52 10000 5.1 330 10:39 31.12.2019
5161 Clear 8 1032 56 10000 5.7 330 10:20 31.12.2019
5162 Clear 6 1032 56 10000 6.2 330 09:59 31.12.2019
5163 Clear 6 1032 56 10000 6.2 330 09:40 31.12.2019
5164 Clouds 6 1032 60 10000 6.2 330 09:22 31.12.2019
5165 Clouds 5 1032 60 10000 6.7 330 08:59 31.12.2019
5166 Clouds 5 1032 60 10000 6.7 330 08:41 31.12.2019
5167 Clouds 4 1032 60 10000 6.2 320 08:20 31.12.2019
5168 Clouds 3 1031 60 10000 6.2 330 07:44 31.12.2019
5169 Clear 3 1031 60 10000 5.7 330 07:22 31.12.2019
5170 Clear 3 1031 60 10000 5.1 330 06:51 31.12.2019
5171 Clear 3 1031 60 10000 3.1 350 06:23 31.12.2019
5172 Clear 3 1031 60 10000 3.1 350 06:23 31.12.2019
5173 Clear 3 1032 60 10000 5.7 320 04:54 31.12.2019
5174 Clear 4 1032 58 10000 5.1 320 04:24 31.12.2019
5175 Clear 4 1032 58 10000 5.1 330 02:57 31.12.2019
5176 Clear 5 1032 65 10000 6.2 320 02:20 31.12.2019
5177 Clear 4 1032 65 10000 6.7 320 01:49 31.12.2019
5178 Clear 4 1032 65 10000 6.2 330 01:31 31.12.2019
5179 Clear 5 1033 70 10000 5.7 330 00:48 31.12.2019
5180 Clear 5 1033 70 10000 5.1 330 00:25 31.12.2019
5181 Clear 5 1033 70 10000 4.6 330 23:58 30.12.2019
5182 Clear 5 1033 70 10000 4.6 330 23:40 30.12.2019
5183 Clear 5 1033 75 10000 4.1 330 23:22 30.12.2019
5184 Clear 5 1033 75 10000 3.6 330 22:59 30.12.2019
5185 Clear 5 1033 75 10000 3.6 330 22:41 30.12.2019
5186 Clear 5 1033 70 10000 4.1 330 22:21 30.12.2019
5187 Clear 6 1033 75 10000 4.6 330 21:57 30.12.2019
5188 Clear 6 1033 75 10000 4.6 330 21:57 30.12.2019
5189 Clear 6 1033 75 10000 4.6 330 21:39 30.12.2019
5190 Clouds 6 1033 75 10000 3.6 330 21:20 30.12.2019
5191 Clouds 6 1033 75 10000 3.1 340 20:59 30.12.2019
5192 Clouds 7 1033 75 10000 3.1 340 20:41 30.12.2019
5193 Clouds 7 1033 76 10000 4.6 330 20:20 30.12.2019
5194 Clouds 8 1033 76 10000 2.6 350 19:59 30.12.2019
5195 Clouds 8 1033 76 10000 2.6 350 19:40 30.12.2019
5196 Clouds 8 1033 76 10000 3.6 320 19:20 30.12.2019
5197 Clouds 6 1033 81 10000 2.1 330 18:59 30.12.2019
5198 Clouds 6 1033 81 10000 2.1 330 18:41 30.12.2019
5199 Clouds 7 1033 76 10000 5.09 79 18:21 30.12.2019
5200 Clouds 7 1033 71 10000 5.09 79 17:58 30.12.2019
5201 Clouds 6 1033 71 10000 5.09 79 17:40 30.12.2019
5202 Clouds 9 1032 71 10000 0.5 0 17:19 30.12.2019
5203 Clouds 11 1032 66 10000 1.5 180 16:59 30.12.2019
5204 Clouds 11 1032 66 10000 1.5 180 16:38 30.12.2019
5205 Clouds 11 1032 66 10000 2.1 170 16:20 30.12.2019
5206 Clouds 12 1032 66 10000 2.1 170 15:56 30.12.2019
5207 Clouds 10 1032 66 10000 2.1 170 15:38 30.12.2019
5208 Clouds 11 1032 62 10000 2.1 180 15:19 30.12.2019
5209 Clear 11 1032 62 10000 2.6 190 14:43 30.12.2019
5210 Clear 13 1032 66 10000 2.6 190 14:21 30.12.2019
5211 Clear 11 1032 62 10000 1.5 180 13:59 30.12.2019
5212 Clear 13 1032 62 10000 1.5 180 13:41 30.12.2019
5213 Clear 13 1032 54 10000 1.5 0 13:22 30.12.2019
5214 Clear 13 1033 54 10000 2.1 320 12:57 30.12.2019
5215 Clear 12 1033 54 10000 2.1 320 12:38 30.12.2019
5216 Clouds 12 1033 50 10000 3.6 330 12:18 30.12.2019
5217 Clouds 12 1033 50 10000 3.6 330 12:18 30.12.2019
5218 Clouds 12 1033 53 10000 4.1 320 11:46 30.12.2019
5219 Clouds 10 1034 53 10000 5.1 330 11:22 30.12.2019
5220 Clouds 9 1034 57 10000 6.2 320 10:59 30.12.2019
5221 Clouds 9 1034 57 10000 6.2 320 10:40 30.12.2019
5222 Clouds 8 1033 61 10000 6.7 320 10:20 30.12.2019
5223 Clouds 7 1033 65 10000 6.7 330 09:44 30.12.2019
5224 Clouds 7 1033 65 10000 5.7 330 09:21 30.12.2019
5225 Clouds 6 1033 70 10000 6.2 330 08:57 30.12.2019
5226 Clouds 7 1033 70 10000 6.2 330 08:39 30.12.2019
5227 Clouds 7 1033 65 10000 4.1 340 08:20 30.12.2019
5228 Clouds 5 1033 65 10000 5.7 330 07:48 30.12.2019
5229 Clouds 5 1033 65 10000 4.6 330 07:25 30.12.2019
5230 Clouds 5 1033 65 10000 5.1 330 06:39 30.12.2019
5231 Clouds 7 1033 70 10000 4.1 330 04:32 30.12.2019
5232 Clouds 7 1033 70 10000 5.1 330 03:51 30.12.2019
5233 Clouds 6 1033 70 10000 5.7 330 02:47 30.12.2019
5234 Clouds 5 1032 70 10000 4.6 330 02:29 30.12.2019
5235 Clouds 5 1032 70 10000 4.1 330 01:43 30.12.2019
5236 Clouds 5 1032 70 10000 4.6 330 01:19 30.12.2019
5237 Clouds 4 1032 70 10000 4.6 330 00:42 30.12.2019
5238 Clouds 5 1032 75 10000 4.1 330 23:58 29.12.2019
5239 Clouds 5 1032 75 10000 4.1 330 23:38 29.12.2019
5240 Clouds 5 1032 75 10000 4.1 330 23:38 29.12.2019
5241 Clouds 6 1032 75 10000 4.1 330 23:19 29.12.2019
5242 Clouds 5 1031 70 10000 3.6 340 22:41 29.12.2019
5243 Clouds 5 1031 70 10000 3.6 340 22:41 29.12.2019
5244 Clouds 6 1031 70 10000 4.6 330 22:22 29.12.2019
5245 Clouds 6 1031 75 10000 3.1 350 21:57 29.12.2019
5246 Clouds 6 1031 75 10000 3.1 350 21:39 29.12.2019
5247 Clouds 7 1031 75 10000 3.6 330 21:20 29.12.2019
5248 Clouds 7 1031 75 10000 4.6 320 20:57 29.12.2019
5249 Clouds 7 1031 75 10000 4.6 320 20:38 29.12.2019
5250 Clear 8 1031 76 10000 4.6 330 20:20 29.12.2019
5251 Clear 8 1031 76 10000 5.1 320 19:58 29.12.2019
5252 Clear 8 1031 76 10000 5.1 320 19:39 29.12.2019
5253 Clear 8 1031 76 10000 4.1 320 19:20 29.12.2019
5254 Clear 7 1031 81 10000 3.1 320 18:57 29.12.2019
5255 Clear 7 1031 81 10000 3.1 320 18:38 29.12.2019
5256 Clear 7 1031 76 10000 1.5 300 18:19 29.12.2019
5257 Clouds 7 1031 71 10000 1.5 250 17:57 29.12.2019
5258 Clouds 7 1031 71 10000 1.5 250 17:39 29.12.2019
5259 Clouds 10 1031 71 10000 2.6 240 17:20 29.12.2019
5260 Clouds 11 1031 66 10000 2.6 230 16:56 29.12.2019
5261 Clouds 11 1031 66 10000 2.6 230 16:37 29.12.2019
5262 Clouds 12 1031 62 10000 3.1 220 16:19 29.12.2019
5263 Clouds 12 1031 62 10000 2.6 220 15:57 29.12.2019
5264 Clouds 12 1031 62 10000 2.6 220 15:39 29.12.2019
5265 Clouds 12 1031 58 10000 1.5 210 15:20 29.12.2019
5266 Clouds 10 1031 58 10000 2.1 200 14:57 29.12.2019
5267 Clouds 10 1031 58 10000 2.1 200 14:38 29.12.2019
5268 Clouds 12 1031 58 10000 2.1 200 14:18 29.12.2019
5269 Clouds 10 1031 54 10000 1.5 0 13:57 29.12.2019
5270 Clouds 10 1031 54 10000 1.5 0 13:57 29.12.2019
5271 Clouds 10 1032 54 10000 1 0 13:38 29.12.2019
5272 Clouds 12 1032 54 10000 1 0 13:19 29.12.2019
5273 Clouds 12 1032 54 10000 2.6 310 12:45 29.12.2019
5274 Clouds 11 1033 54 10000 3.6 330 12:27 29.12.2019
5275 Clouds 11 1033 58 10000 4.1 330 11:58 29.12.2019
5276 Clouds 10 1033 58 10000 4.1 330 11:39 29.12.2019
5277 Clouds 9 1033 62 10000 4.6 330 11:20 29.12.2019
5278 Clouds 9 1033 61 10000 4.6 330 10:55 29.12.2019
5279 Clouds 9 1033 61 10000 4.6 330 10:37 29.12.2019
5280 Clouds 9 1033 66 10000 4.6 330 10:18 29.12.2019
5281 Clouds 8 1033 66 10000 4.6 330 09:41 29.12.2019
5282 Clouds 8 1033 66 10000 5.1 330 09:22 29.12.2019
5283 Clouds 7 1033 70 10000 5.7 330 08:48 29.12.2019
5284 Clouds 6 1033 70 10000 5.1 330 08:28 29.12.2019
5285 Clouds 6 1033 87 10000 2.1 360 07:58 29.12.2019
5286 Clouds 6 1032 70 10000 5.1 330 07:31 29.12.2019
5287 Clouds 6 1032 70 10000 5.1 330 06:57 29.12.2019
5288 Clouds 6 1032 70 10000 5.1 330 06:26 29.12.2019
5289 Clouds 6 1032 75 10000 4.1 330 05:54 29.12.2019
5290 Clouds 6 1032 75 10000 5.1 330 04:37 29.12.2019
5291 Clouds 7 1032 75 10000 4.1 330 03:59 29.12.2019
5292 Clouds 7 1033 75 10000 4.6 330 03:21 29.12.2019
5293 Clouds 8 1032 75 10000 4.6 330 02:22 29.12.2019
5294 Clouds 8 1032 75 10000 4.6 320 01:42 29.12.2019
5295 Clouds 8 1032 76 10000 5.1 330 01:22 29.12.2019
5296 Clouds 6 1032 81 10000 2.6 330 00:42 29.12.2019
5297 Clouds 6 1032 81 10000 4.1 330 00:24 29.12.2019
5298 Clouds 6 1032 76 10000 3.6 330 23:45 28.12.2019
5299 Clouds 7 1032 81 10000 3.6 320 23:18 28.12.2019
5300 Clouds 7 1032 81 10000 3.6 330 22:54 28.12.2019
5301 Clouds 7 1032 81 10000 2.6 330 22:36 28.12.2019
5302 Clouds 7 1032 81 10000 2.6 330 22:18 28.12.2019
5303 Clouds 7 1031 81 10000 3.6 330 21:55 28.12.2019
5304 Clouds 7 1031 81 10000 2.6 330 21:36 28.12.2019
5305 Clouds 7 1031 81 10000 2.6 330 21:18 28.12.2019
5306 Clouds 10 1031 71 10000 3.1 20 20:40 28.12.2019
5307 Clouds 10 1031 71 10000 2.6 80 20:22 28.12.2019
5308 Clouds 11 1031 71 10000 3.1 100 19:59 28.12.2019
5309 Clouds 11 1030 71 10000 3.1 100 19:40 28.12.2019
5310 Clouds 11 1030 71 10000 3.1 100 19:22 28.12.2019
5311 Clouds 10 1030 71 10000 3.1 90 18:59 28.12.2019
5312 Clouds 9 1030 71 10000 2.6 90 18:40 28.12.2019
5313 Clouds 9 1030 71 10000 2.6 90 18:20 28.12.2019
5314 Clouds 9 1029 71 10000 3.6 110 17:57 28.12.2019
5315 Clouds 8 1029 71 10000 3.6 110 17:38 28.12.2019
5316 Clouds 11 1029 71 10000 3.1 130 17:19 28.12.2019
5317 Clouds 11 1029 71 10000 2.6 120 16:47 28.12.2019
5318 Clouds 12 1029 62 10000 3.1 120 16:26 28.12.2019
5319 Clouds 10 1029 67 10000 3.6 120 15:57 28.12.2019
5320 Clouds 10 1029 67 10000 3.6 120 15:39 28.12.2019
5321 Clouds 10 1028 67 10000 3.6 120 15:20 28.12.2019
5322 Clouds 10 1029 67 10000 3.6 110 14:45 28.12.2019
5323 Clouds 13 1029 67 10000 4.1 110 14:24 28.12.2019
5324 Clouds 13 1029 67 10000 4.6 100 13:58 28.12.2019
5325 Clouds 13 1029 67 10000 4.6 100 13:38 28.12.2019
5326 Clouds 11 1029 62 10000 4.6 90 13:19 28.12.2019
5327 Clouds 13 1029 67 10000 4.6 80 12:44 28.12.2019
5328 Clouds 13 1029 67 10000 4.6 80 12:44 28.12.2019
5329 Clouds 13 1030 47 10000 4.1 330 12:25 28.12.2019
5330 Clouds 12 1030 46 10000 5.1 320 11:59 28.12.2019
5331 Clouds 12 1030 46 10000 5.1 320 11:39 28.12.2019
5332 Clouds 9 1030 50 10000 5.7 320 11:20 28.12.2019
5333 Clouds 10 1029 53 10000 5.7 330 10:46 28.12.2019
5334 Clouds 8 1029 57 10000 6.2 330 10:23 28.12.2019
5335 Clouds 7 1029 61 10000 6.2 330 09:58 28.12.2019
5336 Clouds 8 1029 61 10000 6.2 330 09:40 28.12.2019
5337 Clouds 7 1028 67 10000 6.7 330 09:21 28.12.2019
5338 Clouds 6 1028 67 10000 6.2 320 08:45 28.12.2019
5339 Clouds 4 1027 64 10000 5.1 330 08:27 28.12.2019
5340 Clear 4 1027 64 10000 5.7 330 07:59 28.12.2019
5341 Clear 5 1027 64 10000 5.7 330 07:39 28.12.2019
5342 Clear 5 1027 61 10000 5.7 330 06:50 28.12.2019
5343 Clear 4 1026 61 10000 5.7 330 05:40 28.12.2019
5344 Clear 7 1026 65 10000 5.7 330 03:48 28.12.2019
5345 Clear 7 1026 65 10000 5.1 330 02:50 28.12.2019
5346 Clear 8 1025 66 10000 4.1 340 02:19 28.12.2019
5347 Clear 7 1025 66 10000 3.6 350 01:50 28.12.2019
5348 Clear 6 1024 66 10000 4.6 350 01:21 28.12.2019
5349 Clear 8 1024 70 10000 5.7 330 00:42 28.12.2019
5350 Clear 7 1024 70 10000 5.7 320 00:23 28.12.2019
5351 Clear 6 1024 70 10000 5.7 330 23:56 27.12.2019
5352 Clear 6 1024 70 10000 5.7 330 23:36 27.12.2019
5353 Clear 6 1024 76 10000 4.1 330 23:18 27.12.2019
5354 Clear 8 1024 76 10000 5.7 320 22:55 27.12.2019
5355 Clear 8 1024 76 10000 6.2 330 22:37 27.12.2019
5356 Clear 8 1024 76 10000 6.2 330 22:19 27.12.2019
5357 Clear 8 1024 76 10000 5.7 330 21:41 27.12.2019
5358 Clear 8 1024 81 10000 5.1 320 21:23 27.12.2019
5359 Clear 8 1023 81 10000 5.1 320 20:44 27.12.2019
5360 Clear 9 1023 76 10000 5.1 330 20:26 27.12.2019
5361 Clear 9 1023 81 10000 4.1 320 19:57 27.12.2019
5362 Clear 9 1023 81 10000 4.1 320 19:38 27.12.2019
5363 Clouds 9 1023 81 10000 4.1 320 19:19 27.12.2019
5364 Clouds 7 1023 76 10000 2.1 320 18:55 27.12.2019
5365 Clouds 7 1023 76 10000 2.1 320 18:36 27.12.2019
5366 Clouds 8 1022 71 10000 3.6 80 18:18 27.12.2019
5367 Clouds 8 1022 71 10000 5.1 90 17:55 27.12.2019
5368 Clouds 8 1021 71 10000 4.6 80 17:36 27.12.2019
5369 Clouds 11 1021 71 10000 4.6 80 17:18 27.12.2019
5370 Clouds 12 1021 71 10000 4.6 90 16:41 27.12.2019
5371 Clouds 12 1021 71 10000 5.1 80 16:22 27.12.2019
5372 Clouds 12 1020 67 10000 5.1 90 15:57 27.12.2019
5373 Clouds 13 1020 67 10000 5.1 90 15:37 27.12.2019
5374 Clouds 13 1020 71 10000 4.6 80 15:19 27.12.2019
5375 Clouds 13 1020 71 10000 3.6 90 14:55 27.12.2019
5376 Clouds 13 1020 67 10000 3.1 110 14:37 27.12.2019
5377 Clouds 13 1020 67 10000 3.1 110 14:19 27.12.2019
5378 Clouds 13 1020 67 10000 3.1 110 14:19 27.12.2019
5379 Clouds 13 1020 58 10000 1.5 0 13:46 27.12.2019
5380 Clouds 13 1020 58 10000 0.5 0 13:23 27.12.2019
5381 Clouds 13 1020 47 10000 0.5 0 12:49 27.12.2019
5382 Clouds 13 1021 46 10000 3.6 330 12:29 27.12.2019
5383 Clouds 12 1020 50 10000 3.6 320 11:59 27.12.2019
5384 Clouds 11 1020 50 10000 3.6 320 11:41 27.12.2019
5385 Clouds 10 1021 66 10000 4.1 330 11:20 27.12.2019
5386 Clouds 8 1021 66 10000 5.7 330 10:47 27.12.2019
5387 Clouds 8 1021 66 10000 5.7 320 10:24 27.12.2019
5388 Clouds 8 1021 66 10000 5.7 330 09:59 27.12.2019
5389 Clouds 9 1021 66 10000 5.7 330 09:39 27.12.2019
5390 Clouds 7 1021 66 10000 6.2 330 09:21 27.12.2019
5391 Clouds 7 1021 66 10000 6.2 320 08:49 27.12.2019
5392 Clouds 5 1021 66 10000 5.1 340 08:30 27.12.2019
5393 Clouds 5 1021 66 10000 6.2 330 07:49 27.12.2019
5394 Clouds 4 1021 66 10000 5.1 330 07:28 27.12.2019
5395 Clouds 4 1021 66 10000 6.2 330 06:36 27.12.2019
5396 Clouds 4 1022 68 10000 6.7 320 04:58 27.12.2019
5397 Clouds 5 1022 65 10000 5.7 330 02:53 27.12.2019
5398 Clouds 5 1022 65 10000 5.1 330 01:59 27.12.2019
5399 Clouds 6 1022 61 10000 6.2 330 01:24 27.12.2019
5400 Clouds 5 1022 61 10000 5.7 330 00:58 27.12.2019
5401 Clouds 6 1022 61 10000 5.7 330 00:40 27.12.2019
5402 Clouds 6 1022 61 10000 5.1 330 00:21 27.12.2019
5403 Clouds 6 1022 87 10000 1.5 340 23:41 26.12.2019
5404 Clear 6 1022 65 10000 5.7 330 23:22 26.12.2019
5405 Clear 5 1021 65 10000 4.6 330 22:45 26.12.2019
5406 Clear 6 1021 65 10000 4.6 330 22:23 26.12.2019
5407 Clear 7 1021 61 10000 4.6 340 21:59 26.12.2019
5408 Clear 7 1021 61 10000 4.6 340 21:38 26.12.2019
5409 Clear 7 1022 66 10000 4.6 330 21:20 26.12.2019
5410 Clear 9 1022 66 10000 5.1 330 20:46 26.12.2019
5411 Clear 9 1022 70 10000 3.1 340 20:23 26.12.2019
5412 Clouds 9 1022 70 10000 4.1 330 19:59 26.12.2019
5413 Clouds 9 1022 70 10000 4.1 330 19:40 26.12.2019
5414 Clouds 10 1022 70 10000 4.6 320 19:21 26.12.2019
5415 Clouds 10 1022 71 10000 4.1 320 18:58 26.12.2019
5416 Clouds 8 1022 71 10000 4.1 320 18:39 26.12.2019
5417 Clouds 8 1022 71 10000 4.1 320 18:19 26.12.2019
5418 Clouds 9 1022 58 10000 3.1 320 17:55 26.12.2019
5419 Clouds 9 1022 58 10000 3.1 320 17:37 26.12.2019
5420 Clouds 11 1022 54 10000 2.1 320 17:18 26.12.2019
5421 Clouds 13 1021 47 10000 1.5 320 16:41 26.12.2019
5422 Clouds 13 1021 47 10000 1.5 320 16:22 26.12.2019
5423 Clouds 11 1021 47 10000 1.5 320 15:56 26.12.2019
5424 Clouds 11 1021 47 10000 1.5 320 15:37 26.12.2019
5425 Clouds 12 1021 44 10000 1.66 128 15:18 26.12.2019
5426 Clouds 12 1021 41 10000 1.5 0 14:40 26.12.2019
5427 Clouds 14 1021 41 10000 2.1 320 14:21 26.12.2019
5428 Clouds 15 1022 41 10000 4.1 320 13:43 26.12.2019
5429 Clouds 14 1022 43 10000 3.6 330 13:21 26.12.2019
5430 Clouds 13 1022 50 10000 5.1 320 12:58 26.12.2019
5431 Clouds 13 1022 50 10000 5.1 320 12:58 26.12.2019
5432 Clouds 13 1022 50 10000 5.1 320 12:39 26.12.2019
5433 Clouds 13 1022 50 10000 5.7 320 12:20 26.12.2019
5434 Clouds 13 1022 50 10000 5.7 330 11:57 26.12.2019
5435 Clouds 13 1022 50 10000 5.7 330 11:39 26.12.2019
5436 Clouds 12 1022 43 10000 6.2 330 11:20 26.12.2019
5437 Clouds 11 1022 46 10000 6.2 330 10:49 26.12.2019
5438 Clouds 8 1022 49 10000 6.7 330 10:19 26.12.2019
5439 Clouds 9 1022 49 10000 6.7 330 10:19 26.12.2019
5440 Clouds 9 1022 49 10000 6.7 330 10:19 26.12.2019
5441 Clouds 9 1021 49 10000 6.2 330 09:50 26.12.2019
5442 Clouds 9 1021 49 10000 5.7 330 09:32 26.12.2019
5443 Clouds 7 1020 49 10000 5.1 330 08:55 26.12.2019
5444 Clouds 8 1020 49 10000 5.1 320 08:37 26.12.2019
5445 Clouds 6 1020 49 10000 5.1 320 08:18 26.12.2019
5446 Clouds 6 1020 49 10000 5.1 320 07:31 26.12.2019
5447 Clouds 6 1019 49 10000 5.1 320 06:54 26.12.2019
5448 Clouds 6 1019 49 10000 4.6 330 06:33 26.12.2019
5449 Clouds 6 1018 49 10000 4.1 330 05:46 26.12.2019
5450 Clear 7 1018 54 10000 5.7 330 04:59 26.12.2019
5451 Clear 7 1018 61 10000 5.1 330 04:32 26.12.2019
5452 Clear 7 1018 65 10000 6.2 330 03:19 26.12.2019
5453 Clear 7 1018 65 10000 6.7 330 02:40 26.12.2019
5454 Clear 8 1018 65 10000 5.1 330 02:20 26.12.2019
5455 Clear 8 1018 70 10000 5.1 330 01:42 26.12.2019
5456 Clear 7 1018 70 10000 5.1 330 01:24 26.12.2019
5457 Clear 8 1018 70 10000 4.6 330 00:42 26.12.2019
5458 Clear 8 1018 70 10000 5.1 330 00:22 26.12.2019
5459 Clear 8 1018 70 10000 5.1 330 00:22 26.12.2019
5460 Clouds 8 1017 76 10000 2.6 340 23:56 25.12.2019
5461 Clouds 8 1017 76 10000 2.6 340 23:36 25.12.2019
5462 Clouds 8 1017 70 10000 5.1 320 23:18 25.12.2019
5463 Clear 8 1017 100 7000 0.5 0 22:55 25.12.2019
5464 Clear 8 1017 100 7000 0.5 0 22:55 25.12.2019
5465 Clear 8 1017 100 7000 0.5 0 22:36 25.12.2019
5466 Clouds 8 1017 76 10000 2.6 350 22:18 25.12.2019
5467 Clouds 8 1016 76 10000 4.6 320 21:40 25.12.2019
5468 -273 0 0 0 0 0 21:22 25.12.2019
5469 Clouds 8 1016 76 10000 4.1 320 20:59 25.12.2019
5470 Clouds 8 1016 76 10000 4.1 320 20:40 25.12.2019
5471 Clouds 10 1015 76 10000 3.6 320 20:19 25.12.2019
5472 Clouds 8 1015 81 10000 3.6 320 19:57 25.12.2019
5473 Clouds 8 1015 81 10000 3.6 320 19:39 25.12.2019
5474 Clouds 8 1015 76 10000 3.6 320 19:21 25.12.2019
5475 Clouds 9 1014 81 10000 3.1 70 18:39 25.12.2019
5476 Clouds 9 1014 87 10000 3.1 90 18:20 25.12.2019
5477 Clouds 10 1014 82 10000 1.5 80 17:57 25.12.2019
5478 Clouds 10 1014 82 10000 1.5 80 17:39 25.12.2019
5479 Clouds 11 1014 76 10000 1.5 100 17:18 25.12.2019
5480 Clear 12 1014 72 10000 1.5 110 16:39 25.12.2019
5481 Clear 12 1014 77 10000 2.1 130 16:20 25.12.2019
5482 Clear 13 1014 77 10000 1.5 0 15:59 25.12.2019
5483 Clear 12 1014 77 10000 1.5 0 15:40 25.12.2019
5484 Clear 13 1014 77 10000 2.1 180 15:22 25.12.2019
5485 Clear 13 1014 72 10000 1.5 170 14:59 25.12.2019
5486 Clear 13 1014 72 10000 1.5 170 14:41 25.12.2019
5487 Clear 15 1014 77 10000 1.5 180 14:23 25.12.2019
5488 Clear 15 1015 72 10000 2.1 180 13:57 25.12.2019
5489 Clear 15 1015 72 10000 2.1 180 13:39 25.12.2019
5490 Clear 15 1015 67 10000 1.5 0 13:19 25.12.2019
5491 Clear 16 1016 67 10000 1.5 170 12:43 25.12.2019
5492 Clear 16 1016 58 10000 1 0 12:21 25.12.2019
5493 Clear 16 1016 58 10000 1 0 12:21 25.12.2019
5494 Clear 15 1016 54 10000 3.1 320 11:57 25.12.2019
5495 Clear 15 1016 54 10000 3.1 320 11:39 25.12.2019
5496 Clear 12 1017 72 10000 1.9 359 11:20 25.12.2019
5497 Clear 12 1017 53 10000 4.6 330 10:39 25.12.2019
5498 Clouds 10 1016 57 10000 4.6 320 10:21 25.12.2019
5499 Clouds 9 1016 57 10000 4.6 330 09:51 25.12.2019
5500 Clouds 10 1016 57 10000 4.6 330 09:33 25.12.2019
5501 Clouds 8 1016 70 10000 5.7 320 08:52 25.12.2019
5502 Clouds 7 1016 75 10000 5.1 320 08:32 25.12.2019
5503 Clouds 8 1015 70 10000 5.1 320 07:59 25.12.2019
5504 Clouds 6 1015 70 10000 5.1 320 07:40 25.12.2019
5505 Clear 6 1015 70 10000 5.1 330 07:21 25.12.2019
5506 Clear 4 1015 70 10000 2.6 340 06:24 25.12.2019
5507 Clear 4 1015 70 10000 5.1 320 05:44 25.12.2019
5508 Clear 8 1015 75 10000 4.1 320 04:40 25.12.2019
5509 Clear 8 1015 70 10000 3.6 330 04:20 25.12.2019
5510 Clear 8 1015 70 10000 4.1 320 03:43 25.12.2019
5511 Clear 8 1015 75 10000 4.1 330 02:57 25.12.2019
5512 Clear 8 1015 75 10000 3.6 330 02:29 25.12.2019
5513 Clouds 9 1015 75 10000 4.1 330 01:42 25.12.2019
5514 Clouds 9 1015 75 10000 3.6 330 01:18 25.12.2019
5515 Clouds 8 1015 75 10000 3.1 330 00:41 25.12.2019
5516 Clouds 8 1016 66 10000 3.1 330 00:23 25.12.2019
5517 Clouds 8 1016 66 10000 3.6 330 23:39 24.12.2019
5518 Clouds 8 1016 66 10000 3.1 330 23:20 24.12.2019
5519 Clouds 9 1016 66 10000 3.1 330 22:42 24.12.2019
5520 Clouds 8 1016 66 10000 3.6 340 22:24 24.12.2019
5521 Clouds 9 1016 70 10000 3.1 340 21:59 24.12.2019
5522 Clouds 9 1016 70 10000 3.1 340 21:41 24.12.2019
5523 Clouds 9 1017 70 10000 3.1 340 21:20 24.12.2019
5524 Clouds 10 1016 70 10000 4.1 320 20:42 24.12.2019
5525 Clouds 10 1017 66 10000 3.6 330 20:23 24.12.2019
5526 Clouds 10 1016 66 10000 3.6 320 19:56 24.12.2019
5527 Clouds 10 1016 66 10000 3.6 320 19:37 24.12.2019
5528 Clouds 10 1016 66 10000 3.6 320 19:18 24.12.2019
5529 Clouds 9 1016 66 10000 3.6 320 18:42 24.12.2019
5530 Clouds 9 1016 71 10000 3.1 330 18:19 24.12.2019
5531 Clouds 10 1016 76 10000 4.1 90 17:44 24.12.2019
5532 Clouds 11 1015 76 10000 4.1 90 17:23 24.12.2019
5533 Clouds 14 1015 67 10000 4.6 90 16:58 24.12.2019
5534 Clouds 14 1015 67 10000 4.6 90 16:58 24.12.2019
5535 Clouds 15 1015 67 10000 4.6 90 16:40 24.12.2019
5536 Clouds 15 1015 67 10000 4.6 90 16:40 24.12.2019
5537 Clouds 16 1015 67 10000 5.1 80 16:22 24.12.2019
5538 Clouds 16 1015 62 10000 5.1 80 15:58 24.12.2019
5539 Clouds 12 1015 51 10000 5.1 90 15:38 24.12.2019
5540 Clouds 16 1015 51 10000 5.1 90 15:19 24.12.2019
5541 Clouds 13 1015 47 10000 4.1 80 14:58 24.12.2019
5542 Clouds 12 1015 47 10000 4.1 80 14:40 24.12.2019
5543 Clouds 16 1016 44 10000 2.1 110 14:22 24.12.2019
5544 Clouds 16 1016 41 10000 1 0 13:56 24.12.2019
5545 Clouds 16 1016 41 10000 1 0 13:38 24.12.2019
5546 Clouds 15 1016 44 10000 2.6 310 13:20 24.12.2019
5547 Clouds 15 1016 33 10000 4.1 300 12:57 24.12.2019
5548 Clouds 15 1016 33 10000 4.1 300 12:38 24.12.2019
5549 Clouds 15 1016 33 10000 4.1 300 12:38 24.12.2019
5550 Clouds 15 1017 35 10000 4.1 310 12:19 24.12.2019
5551 Clouds 14 1017 37 10000 5.1 330 11:58 24.12.2019
5552 Clouds 14 1017 37 10000 5.1 330 11:38 24.12.2019
5553 Clouds 10 1018 37 10000 3.6 290 11:20 24.12.2019
5554 Clouds 10 1018 43 10000 5.7 320 10:57 24.12.2019
5555 Clouds 10 1018 43 10000 5.7 320 10:38 24.12.2019
5556 Clouds 8 1017 43 10000 5.1 330 10:20 24.12.2019
5557 Clouds 7 1018 45 10000 4.6 340 09:58 24.12.2019
5558 Clouds 8 1018 45 10000 4.6 340 09:40 24.12.2019
5559 Clouds 7 1017 49 10000 6.7 320 09:22 24.12.2019
5560 Clouds 9 1017 49 10000 6.7 330 08:56 24.12.2019
5561 Clouds 8 1017 49 10000 6.7 330 08:37 24.12.2019
5562 Clear 7 1017 49 10000 7.2 320 08:18 24.12.2019
5563 Clear 6 1017 45 10000 6.7 320 07:43 24.12.2019
5564 Clear 6 1017 45 10000 5.1 330 07:21 24.12.2019
5565 Clear 7 1017 45 10000 7.7 320 06:41 24.12.2019
5566 Clear 7 1017 45 10000 7.7 320 06:22 24.12.2019
5567 Clear 7 1016 37 10000 3.1 300 05:56 24.12.2019
5568 Clear 8 1016 39 10000 4.6 340 05:20 24.12.2019
5569 Clear 8 1017 40 10000 6.2 350 04:22 24.12.2019
5570 Clear 7 1016 43 10000 6.7 350 03:50 24.12.2019
5571 Clear 8 1016 40 10000 5.7 350 02:59 24.12.2019
5572 Clouds 8 1016 40 10000 4.6 330 02:18 24.12.2019
5573 Clouds 9 1016 40 10000 5.7 340 01:42 24.12.2019
5574 Clear 8 1016 40 10000 5.1 340 01:19 24.12.2019
5575 Clear 8 1016 40 10000 6.7 330 00:41 24.12.2019
5576 Clear 9 1016 40 10000 5.7 320 00:22 24.12.2019
5577 Clear 9 1016 37 10000 6.7 350 23:55 23.12.2019
5578 Clear 9 1016 37 10000 6.7 350 23:37 23.12.2019
5579 Clear 9 1016 37 10000 5.1 330 23:19 23.12.2019
5580 Clear 10 1015 37 10000 2.1 300 22:54 23.12.2019
5581 Clear 10 1015 40 10000 3.6 260 22:36 23.12.2019
5582 Clear 11 1015 40 10000 3.6 260 22:18 23.12.2019
5583 Clear 12 1014 35 10000 5.1 340 21:54 23.12.2019
5584 Clear 12 1015 32 10000 5.1 340 21:36 23.12.2019
5585 Clear 12 1015 32 10000 5.1 340 21:18 23.12.2019
5586 Clear 12 1014 37 10000 1 0 20:55 23.12.2019
5587 Clear 12 1014 37 10000 1 0 20:37 23.12.2019
5588 Clear 12 1014 30 10000 3.1 280 20:18 23.12.2019
5589 Clear 12 1014 33 10000 2.6 260 19:54 23.12.2019
5590 Clear 12 1014 33 10000 2.6 260 19:36 23.12.2019
5591 Clear 12 1013 30 10000 2.6 310 19:18 23.12.2019
5592 Clear 13 1013 28 10000 7.7 320 18:54 23.12.2019
5593 Clear 13 1013 28 10000 7.7 320 18:36 23.12.2019
5594 Clear 13 1013 30 10000 7.7 300 18:18 23.12.2019
5595 Clear 13 1012 30 10000 6.2 280 17:55 23.12.2019
5596 Clear 13 1012 30 10000 6.2 280 17:37 23.12.2019
5597 Clear 13 1012 41 10000 7.7 280 17:18 23.12.2019
5598 Clear 13 1011 41 10000 8.2 280 16:42 23.12.2019
5599 Clear 14 1011 53 10000 9.3 280 16:19 23.12.2019
5600 Clear 15 1011 53 10000 9.8 280 15:58 23.12.2019
5601 Clear 16 1011 53 10000 9.8 280 15:37 23.12.2019
5602 Clouds 16 1011 33 10000 10.3 280 15:19 23.12.2019
5603 Clouds 16 1011 53 10000 9.3 280 14:57 23.12.2019
5604 Clouds 16 1011 53 10000 9.3 280 14:39 23.12.2019
5605 Clouds 15 1010 29 10000 10.3 290 14:20 23.12.2019
5606 Clouds 15 1010 53 10000 9.8 290 13:57 23.12.2019
5607 Clouds 15 1010 55 10000 9.8 290 13:39 23.12.2019
5608 Clouds 15 1011 55 10000 9.3 290 13:21 23.12.2019
5609 Clouds 15 1011 36 10000 10.3 300 12:55 23.12.2019
5610 Clouds 15 1011 36 10000 9.8 290 12:37 23.12.2019
5611 Clouds 15 1011 36 10000 9.8 290 12:18 23.12.2019
5612 Clear 15 1011 38 10000 8.7 300 11:44 23.12.2019
5613 Clear 15 1010 31 10000 10.8 290 11:25 23.12.2019
5614 Clear 14 1013 50 10000 6.7 290 10:56 23.12.2019
5615 Clear 13 1013 50 10000 6.7 290 10:38 23.12.2019
5616 Clear 13 1010 33 10000 7.2 320 10:20 23.12.2019
5617 Clear 13 1010 33 10000 5.7 330 09:59 23.12.2019
5618 Clear 13 1010 33 10000 5.7 330 09:39 23.12.2019
5619 Clear 13 1009 33 10000 4.6 350 09:20 23.12.2019
5620 Clear 12 1008 33 10000 11.3 310 08:55 23.12.2019
5621 Clear 11 1008 33 10000 11.3 310 08:37 23.12.2019
5622 Clear 11 1008 33 10000 10.8 300 08:19 23.12.2019
5623 Clear 11 1008 35 10000 10.8 300 07:43 23.12.2019
5624 Clear 11 1007 41 10000 9.8 310 07:20 23.12.2019
5625 Clear 11 1006 35 10000 12.3 300 06:52 23.12.2019
5626 Clear 11 1005 35 10000 12.9 300 06:25 23.12.2019
5627 Clear 11 1004 51 10000 12.3 300 05:50 23.12.2019
5628 Clear 11 1004 35 10000 14.4 300 05:26 23.12.2019
5629 Clear 10 1003 35 10000 9.8 320 04:31 23.12.2019
5630 Clear 10 1002 33 10000 10.3 310 02:58 23.12.2019
5631 Clear 10 1002 33 10000 10.3 310 02:40 23.12.2019
5632 Clouds 11 1001 28 10000 11.3 300 02:18 23.12.2019
5633 Clouds 11 1001 28 10000 11.3 300 02:18 23.12.2019
5634 Clouds 11 1001 30 10000 10.3 310 01:41 23.12.2019
5635 Clouds 11 1000 35 10000 10.8 310 01:19 23.12.2019
5636 Clouds 11 999 47 10000 14.9 290 00:41 23.12.2019
5637 Clouds 11 999 51 10000 11.3 310 00:19 23.12.2019
5638 Clouds 11 999 50 10000 9.8 240 23:39 22.12.2019
5639 Clouds 11 999 50 10000 9.8 240 23:39 22.12.2019
5640 Clouds 10 999 62 10000 8.7 230 23:21 22.12.2019
5641 Clouds 10 1000 62 10000 6.2 280 22:58 22.12.2019
5642 Clouds 10 1000 62 10000 6.2 280 22:39 22.12.2019
5643 Clouds 10 1000 62 10000 8.7 280 22:19 22.12.2019
5644 Clouds 10 1000 62 10000 10.3 270 21:57 22.12.2019
5645 Clouds 10 1000 62 10000 10.3 270 21:39 22.12.2019
5646 Clouds 10 1000 50 10000 7.2 280 21:21 22.12.2019
5647 Clouds 11 1000 54 10000 8.2 270 20:58 22.12.2019
5648 Clouds 11 1000 54 10000 8.2 270 20:38 22.12.2019
5649 Clear 11 1000 50 10000 9.8 270 20:18 22.12.2019
5650 Clear 12 1000 47 10000 8.7 280 19:56 22.12.2019
5651 Clear 12 1000 47 10000 8.7 280 19:37 22.12.2019
5652 Clear 12 999 47 10000 11.3 270 19:19 22.12.2019
5653 Clear 13 998 41 10000 13.9 250 18:41 22.12.2019
5654 Clear 13 996 41 10000 17.5 270 18:23 22.12.2019
5655 Clouds 14 995 41 10000 19 260 17:56 22.12.2019
5656 Clouds 14 994 38 10000 18 290 17:37 22.12.2019
5657 Clouds 14 994 38 10000 18 290 17:18 22.12.2019
5658 Clouds 14 994 38 10000 18 290 17:18 22.12.2019
5659 Clouds 15 994 38 10000 10.3 290 16:57 22.12.2019
5660 Clouds 15 994 38 10000 10.3 290 16:38 22.12.2019
5661 Clouds 15 992 49 10000 4.6 0 16:20 22.12.2019
5662 Clouds 15 993 39 10000 9.8 210 15:56 22.12.2019
5663 Clouds 17 993 39 10000 9.8 210 15:37 22.12.2019
5664 Clouds 17 992 34 10000 9.3 250 15:19 22.12.2019
5665 Clouds 17 992 34 10000 9.3 290 14:55 22.12.2019
5666 Clouds 17 992 34 10000 9.3 290 14:36 22.12.2019
5667 Clouds 17 992 39 10000 11.3 290 14:18 22.12.2019
5668 Clouds 17 991 39 10000 7.7 280 13:55 22.12.2019
5669 Clouds 16 991 39 10000 5.1 280 13:36 22.12.2019
5670 Clouds 16 991 39 10000 5.1 280 13:18 22.12.2019
5671 Clouds 16 991 39 10000 5.1 280 13:18 22.12.2019
5672 Clouds 16 992 51 10000 5.1 190 12:55 22.12.2019
5673 Clouds 16 992 51 10000 5.1 190 12:37 22.12.2019
5674 Clouds 16 991 52 10000 7.2 290 12:18 22.12.2019
5675 Clouds 16 991 52 10000 7.2 290 12:18 22.12.2019
5676 Clouds 16 991 34 10000 12.3 290 11:55 22.12.2019
5677 Clouds 15 991 39 10000 11.3 260 11:36 22.12.2019
5678 Clouds 15 991 39 10000 11.3 260 11:18 22.12.2019
5679 Clouds 15 991 42 10000 8.2 240 10:54 22.12.2019
5680 Clouds 15 991 44 10000 10.3 240 10:36 22.12.2019
5681 Clouds 14 991 44 10000 10.3 240 10:18 22.12.2019
5682 Clouds 13 991 58 10000 6.7 280 09:56 22.12.2019
5683 Clouds 13 991 58 10000 8.2 270 09:37 22.12.2019
5684 Clouds 12 991 58 10000 8.2 270 09:19 22.12.2019
5685 Clouds 12 991 66 10000 9.3 260 08:39 22.12.2019
5686 Clouds 11 991 62 10000 12.3 250 08:21 22.12.2019
5687 Clouds 11 990 66 10000 12.3 250 07:40 22.12.2019
5688 Clouds 12 990 66 10000 13.4 240 07:21 22.12.2019
5689 Clouds 11 989 62 10000 13.4 240 06:41 22.12.2019
5690 Clouds 12 988 62 10000 15.9 240 05:56 22.12.2019
5691 Clouds 12 987 66 10000 12.3 240 05:24 22.12.2019
5692 Rain 12 985 51 10000 12.9 260 04:31 22.12.2019
5693 Clouds 12 985 62 10000 5.7 230 03:58 22.12.2019
5694 Rain 11 983 58 10000 12.9 350 02:43 22.12.2019
5695 Rain 11 983 58 10000 12.9 350 02:43 22.12.2019
5696 Rain 11 983 58 10000 12.9 350 02:43 22.12.2019
5697 Rain 10 986 87 3000 6.2 310 01:57 22.12.2019
5698 Rain 10 985 81 10000 5.1 20 01:31 22.12.2019
5699 Clouds 10 987 81 10000 5.7 30 00:48 22.12.2019
5700 Rain 9 989 81 10000 4.6 20 00:28 22.12.2019
5701 Rain 9 990 93 10000 5.1 20 23:59 21.12.2019
5702 Rain 9 990 93 10000 5.1 20 23:40 21.12.2019
5703 Rain 9 992 93 10000 4.1 360 23:20 21.12.2019
5704 Thunderstorm 9 993 87 10000 4.1 10 22:46 21.12.2019
5705 Rain 9 995 87 10000 1.5 10 22:20 21.12.2019
5706 Rain 9 996 81 10000 2.6 290 21:58 21.12.2019
5707 Rain 9 996 81 10000 2.6 290 21:40 21.12.2019
5708 Rain 10 997 76 10000 5.1 270 21:21 21.12.2019
5709 Clouds 11 996 66 10000 2.6 310 20:59 21.12.2019
5710 Clouds 12 997 67 10000 4.1 240 20:41 21.12.2019
5711 Clouds 12 997 67 10000 4.1 240 20:22 21.12.2019
5712 Clouds 13 997 58 10000 6.2 220 19:59 21.12.2019
5713 Clouds 13 997 58 10000 6.2 220 19:41 21.12.2019
5714 Clouds 13 997 67 10000 4.1 230 19:20 21.12.2019
5715 Clear 9 997 62 10000 5.1 240 18:59 21.12.2019
5716 Clear 10 997 62 10000 5.1 240 18:40 21.12.2019
5717 Clear 14 996 62 10000 6.2 280 18:22 21.12.2019
5718 Clear 13 997 67 10000 8.2 250 17:55 21.12.2019
5719 Clear 13 997 67 10000 8.2 250 17:37 21.12.2019
5720 Clear 13 997 62 10000 9.3 230 17:18 21.12.2019
5721 Clear 13 997 67 10000 8.7 220 16:54 21.12.2019
5722 Clear 14 996 63 10000 8.7 230 16:36 21.12.2019
5723 Clear 14 996 63 10000 8.7 230 16:36 21.12.2019
5724 Clear 14 996 63 10000 8.7 230 16:18 21.12.2019
5725 Clear 14 995 63 10000 11.3 230 15:55 21.12.2019
5726 Clear 15 995 63 10000 9.8 230 15:36 21.12.2019
5727 Clear 15 995 63 10000 9.8 230 15:18 21.12.2019
5728 Clear 15 995 67 10000 11.3 210 14:41 21.12.2019
5729 Clouds 16 994 59 10000 8.7 230 14:22 21.12.2019
5730 Clouds 16 994 55 10000 10.3 240 13:58 21.12.2019
5731 Clouds 16 994 55 10000 10.3 240 13:39 21.12.2019
5732 Clouds 16 994 55 10000 10.3 260 13:19 21.12.2019
5733 Clouds 16 995 63 10000 8.7 260 12:56 21.12.2019
5734 Clouds 16 995 63 10000 8.7 260 12:38 21.12.2019
5735 Clouds 15 995 63 10000 9.3 250 12:20 21.12.2019
5736 Clouds 15 995 72 10000 9.3 240 11:46 21.12.2019
5737 Clouds 14 995 72 10000 8.7 260 11:27 21.12.2019
5738 Clouds 14 995 76 10000 4.1 280 10:59 21.12.2019
5739 Clouds 13 995 76 10000 4.1 280 10:40 21.12.2019
5740 Clouds 13 995 82 10000 2.6 310 10:21 21.12.2019
5741 Clouds 12 995 87 10000 3.6 330 09:57 21.12.2019
5742 Clouds 12 995 87 10000 3.6 330 09:39 21.12.2019
5743 Clouds 11 995 93 10000 1.5 310 09:19 21.12.2019
5744 Clouds 10 995 87 10000 2.6 260 08:47 21.12.2019
5745 Clouds 10 994 93 10000 3.1 260 08:27 21.12.2019
5746 Clouds 10 994 87 10000 2.1 270 07:47 21.12.2019
5747 Clouds 10 994 87 10000 1.5 300 07:23 21.12.2019
5748 Rain 10 994 87 8000 2.1 300 06:58 21.12.2019
5749 Rain 10 994 87 8000 2.1 300 06:40 21.12.2019
5750 Rain 10 994 93 10000 3.1 350 06:21 21.12.2019
5751 Rain 10 994 93 4500 2.1 360 05:25 21.12.2019
5752 Rain 10 996 93 4500 1.5 330 04:34 21.12.2019
5753 Rain 10 996 87 6000 1 110 03:56 21.12.2019
5754 Rain 11 998 87 10000 1.5 30 02:25 21.12.2019
5755 Rain 11 999 93 7000 2.1 330 01:48 21.12.2019
5756 Rain 11 999 93 7000 2.6 290 01:25 21.12.2019
5757 Clouds 11 999 93 10000 3.1 270 00:45 21.12.2019
5758 Clouds 11 999 93 10000 2.1 250 00:26 21.12.2019
5759 Clouds 11 999 93 10000 2.1 330 23:39 20.12.2019
5760 Clouds 11 999 100 10000 3.1 310 23:21 20.12.2019
5761 Clouds 11 999 93 8000 1.5 0 22:59 20.12.2019
5762 Clouds 11 999 93 8000 1.5 0 22:39 20.12.2019
5763 Clouds 11 999 93 8000 1.5 310 22:19 20.12.2019
5764 Clouds 12 999 93 6000 2.6 280 21:54 20.12.2019
5765 Clouds 12 999 93 6000 2.1 250 21:36 20.12.2019
5766 Clouds 12 999 93 6000 2.1 250 21:18 20.12.2019
5767 Clouds 12 999 93 6000 2.1 250 21:18 20.12.2019
5768 Clouds 12 998 93 8000 0.5 0 20:38 20.12.2019
5769 Clouds 13 998 87 8000 2.1 260 20:19 20.12.2019
5770 Clouds 13 998 87 10000 4.6 210 19:57 20.12.2019
5771 Clouds 13 998 87 10000 4.6 210 19:38 20.12.2019
5772 Clouds 13 998 93 10000 2.1 220 19:19 20.12.2019
5773 Clouds 13 998 93 10000 3.1 230 18:42 20.12.2019
5774 Clouds 13 998 87 8000 3.1 240 18:23 20.12.2019
5775 Clouds 13 998 87 8000 7.2 220 17:58 20.12.2019
5776 Clouds 14 998 87 8000 7.2 220 17:40 20.12.2019
5777 Rain 14 998 87 8000 11.3 210 17:20 20.12.2019
5778 Rain 14 997 87 3100 13.9 200 16:59 20.12.2019
5779 Rain 14 997 87 3100 13.9 200 16:38 20.12.2019
5780 Rain 14 998 87 1700 15.9 200 16:20 20.12.2019
5781 Rain 14 998 87 1700 15.9 200 16:20 20.12.2019
5782 Rain 13 998 93 2000 14.9 190 15:56 20.12.2019
5783 Rain 13 998 93 2000 14.9 190 15:38 20.12.2019
5784 Rain 13 999 93 3000 13.9 180 15:19 20.12.2019
5785 Rain 13 999 93 2000 14.9 170 14:43 20.12.2019
5786 Rain 13 1001 93 2000 13.9 180 14:24 20.12.2019
5787 Rain 13 1002 93 2000 12.3 170 13:59 20.12.2019
5788 Rain 13 1002 93 2000 12.3 170 13:59 20.12.2019
5789 Rain 13 1002 93 2000 12.3 170 13:40 20.12.2019
5790 Rain 13 1003 93 2000 11.8 170 13:20 20.12.2019
5791 Rain 13 1004 93 2000 10.3 150 12:57 20.12.2019
5792 Rain 13 1005 93 3000 10.3 160 12:37 20.12.2019
5793 Rain 13 1005 93 3000 10.3 160 12:19 20.12.2019
5794 Rain 13 1006 93 1600 11.8 160 11:58 20.12.2019
5795 Rain 13 1006 93 1600 11.8 160 11:39 20.12.2019
5796 Rain 13 1007 93 3000 10.3 150 11:18 20.12.2019
5797 Rain 13 1007 93 3000 10.3 150 10:57 20.12.2019
5798 Rain 13 1007 93 3000 10.3 150 10:38 20.12.2019
5799 Rain 13 1008 87 4000 9.8 150 10:20 20.12.2019
5800 Rain 13 1008 87 5000 9.3 170 09:44 20.12.2019
5801 Rain 13 1008 87 5000 10.3 170 09:22 20.12.2019
5802 Rain 13 1008 87 5000 10.3 170 09:22 20.12.2019
5803 Rain 13 1008 87 8000 9.3 150 08:59 20.12.2019
5804 Rain 13 1008 87 8000 9.3 150 08:41 20.12.2019
5805 Rain 13 1009 93 10000 7.2 160 08:21 20.12.2019
5806 Rain 13 1009 93 8000 5.7 150 07:58 20.12.2019
5807 Rain 13 1009 93 8000 5.7 150 07:39 20.12.2019
5808 Rain 13 1010 93 10000 4.6 150 07:18 20.12.2019
5809 Rain 12 1010 93 10000 1 0 06:48 20.12.2019
5810 Clouds 12 1011 93 10000 3.1 320 06:30 20.12.2019
5811 Rain 12 1011 93 10000 2.6 330 05:49 20.12.2019
5812 Clouds 12 1012 93 10000 1.5 350 05:21 20.12.2019
5813 Clouds 12 1013 93 10000 3.1 320 03:50 20.12.2019
5814 Rain 12 1013 93 10000 3.1 0 03:28 20.12.2019
5815 Rain 12 1014 87 10000 4.1 140 02:33 20.12.2019
5816 Rain 12 1014 82 10000 5.1 110 01:36 20.12.2019
5817 Clouds 12 1015 82 10000 6.7 110 00:59 20.12.2019
5818 Clouds 12 1015 82 10000 6.7 110 00:40 20.12.2019
5819 Clouds 12 1015 77 10000 6.7 90 23:59 19.12.2019
5820 Clouds 12 1015 77 10000 6.7 90 23:40 19.12.2019
5821 Clouds 12 1015 77 10000 6.7 80 23:22 19.12.2019
5822 Clouds 12 1016 77 10000 6.7 90 22:56 19.12.2019
5823 Clouds 13 1016 77 10000 6.7 90 22:36 19.12.2019
5824 Clouds 13 1016 77 10000 6.7 90 22:18 19.12.2019
5825 Clouds 13 1016 77 10000 6.7 100 21:42 19.12.2019
5826 Clouds 13 1016 77 10000 7.2 80 21:20 19.12.2019
5827 Clouds 13 1016 77 10000 2.6 100 20:58 19.12.2019
5828 Clouds 13 1016 77 10000 2.6 100 20:38 19.12.2019
5829 Clouds 13 1016 82 10000 8.7 90 20:20 19.12.2019
5830 Clouds 13 1016 82 10000 8.7 90 20:20 19.12.2019
5831 Clouds 13 1016 72 10000 8.2 90 19:59 19.12.2019
5832 Clouds 13 1016 72 10000 8.2 90 19:40 19.12.2019
5833 Clouds 14 1017 72 10000 7.7 90 19:20 19.12.2019
5834 Clouds 14 1017 72 10000 9.3 100 19:00 19.12.2019
5835 Clouds 14 1017 72 10000 9.3 100 18:40 19.12.2019
5836 Clouds 14 1016 72 10000 9.8 90 18:20 19.12.2019
5837 Clouds 14 1016 72 10000 10.8 100 17:57 19.12.2019
5838 Clouds 14 1016 72 10000 10.8 100 17:38 19.12.2019
5839 Clouds 14 1016 72 10000 10.8 100 17:38 19.12.2019
5840 Clouds 14 1016 72 10000 10.8 100 17:38 19.12.2019
5841 Clouds 14 1016 72 10000 10.8 90 17:19 19.12.2019
5842 Clouds 14 1016 72 10000 9.8 90 16:57 19.12.2019
5843 Clouds 14 1016 72 10000 9.8 90 16:38 19.12.2019
5844 Clouds 14 1016 72 10000 9.3 100 16:20 19.12.2019
5845 Clouds 14 1016 72 10000 9.3 100 16:20 19.12.2019
5846 Clouds 14 1016 72 10000 9.3 100 16:20 19.12.2019
5847 Clouds 14 1016 72 10000 8.7 100 15:58 19.12.2019
5848 Clouds 15 1016 72 10000 8.7 100 15:39 19.12.2019
5849 Clouds 16 1015 67 10000 9.3 90 15:19 19.12.2019
5850 Clouds 16 1016 67 10000 7.2 90 14:57 19.12.2019
5851 Clouds 16 1016 67 10000 4.1 30 14:39 19.12.2019
5852 Clouds 15 1016 67 10000 4.1 30 14:18 19.12.2019
5853 Clouds 15 1016 82 10000 4.6 360 13:54 19.12.2019
5854 Rain 15 1017 77 10000 4.1 360 13:36 19.12.2019
5855 Rain 15 1017 77 10000 4.1 360 13:18 19.12.2019
5856 Rain 15 1017 76 10000 3.1 30 12:54 19.12.2019
5857 Clouds 14 1017 76 10000 4.1 20 12:36 19.12.2019
5858 Clouds 14 1017 76 10000 4.1 20 12:18 19.12.2019
5859 Clouds 14 1017 76 10000 4.1 20 12:18 19.12.2019
5860 Clouds 14 1017 76 10000 3.6 330 11:42 19.12.2019
5861 Clouds 14 1018 76 10000 2.6 340 11:20 19.12.2019
5862 Clouds 13 1018 82 10000 3.6 330 10:59 19.12.2019
5863 Clouds 13 1018 82 10000 3.1 330 10:38 19.12.2019
5864 Clouds 13 1018 82 10000 3.1 330 10:20 19.12.2019
5865 Rain 13 1018 82 10000 3.6 10 09:57 19.12.2019
5866 Rain 13 1018 87 10000 3.1 350 09:38 19.12.2019
5867 Rain 13 1018 87 10000 3.1 350 09:19 19.12.2019
5868 Rain 13 1018 82 10000 3.1 30 08:55 19.12.2019
5869 Rain 13 1018 82 10000 3.1 30 08:55 19.12.2019
5870 Rain 13 1018 82 10000 1.5 0 08:37 19.12.2019
5871 Rain 13 1018 82 10000 1.5 0 08:18 19.12.2019
5872 Rain 13 1018 76 10000 3.1 330 07:54 19.12.2019
5873 Rain 13 1018 76 10000 3.1 330 07:36 19.12.2019
5874 Clouds 13 1017 82 10000 9.8 60 07:18 19.12.2019
5875 Clouds 14 1018 72 10000 10.3 70 06:42 19.12.2019
5876 Clouds 13 1017 77 10000 10.8 80 06:24 19.12.2019
5877 Clouds 13 1018 71 10000 3.6 340 05:47 19.12.2019
5878 Clouds 13 1018 71 10000 3.1 340 05:27 19.12.2019
5879 Rain 13 1018 71 10000 4.6 330 03:58 19.12.2019
5880 Clouds 11 1019 71 10000 3.6 330 02:30 19.12.2019
5881 Clouds 14 1019 72 10000 5.7 80 01:43 19.12.2019
5882 Clouds 15 1019 72 10000 4.6 80 01:21 19.12.2019
5883 Clouds 15 1019 72 10000 6.2 90 00:39 19.12.2019
5884 Clouds 15 1019 72 10000 6.2 80 00:19 19.12.2019
5885 Clouds 14 1019 67 10000 3.1 90 23:45 18.12.2019
5886 Clouds 14 1020 72 10000 3.1 80 23:19 18.12.2019
5887 Clouds 15 1020 72 10000 5.7 80 22:58 18.12.2019
5888 Clouds 15 1020 72 10000 5.7 80 22:40 18.12.2019
5889 Clouds 15 1020 77 10000 5.1 70 22:22 18.12.2019
5890 Clouds 14 1020 82 10000 1.5 340 21:59 18.12.2019
5891 Clouds 14 1020 82 10000 1.5 340 21:41 18.12.2019
5892 Clouds 14 1020 77 10000 1.5 360 21:21 18.12.2019
5893 Clouds 14 1020 77 10000 1.5 360 21:21 18.12.2019
5894 Clouds 14 1020 82 10000 3.1 320 20:58 18.12.2019
5895 Clouds 14 1020 82 10000 3.1 320 20:39 18.12.2019
5896 Clouds 14 1020 87 10000 1.5 0 20:20 18.12.2019
5897 Clouds 15 1020 82 10000 2.1 0 19:57 18.12.2019
5898 Clouds 14 1020 82 10000 2.1 0 19:39 18.12.2019
5899 Clouds 15 1020 72 10000 5.7 60 19:19 18.12.2019
5900 Clouds 16 1019 72 10000 9.3 70 18:59 18.12.2019
5901 Clouds 15 1019 72 10000 9.3 70 18:41 18.12.2019
5902 Clouds 15 1019 77 10000 10.8 70 18:22 18.12.2019
5903 Rain 15 1019 77 10000 11.8 70 17:56 18.12.2019
5904 Rain 15 1019 77 10000 11.3 70 17:38 18.12.2019
5905 Rain 15 1019 77 10000 11.3 70 17:19 18.12.2019
5906 Rain 15 1019 77 10000 10.3 80 16:43 18.12.2019
5907 Clouds 15 1019 77 10000 10.8 70 16:24 18.12.2019
5908 Clouds 15 1019 77 10000 10.8 80 15:59 18.12.2019
5909 Clouds 15 1019 77 10000 10.8 80 15:40 18.12.2019
5910 Clouds 15 1019 77 10000 10.3 80 15:21 18.12.2019
5911 Clouds 15 1019 77 10000 12.3 80 14:58 18.12.2019
5912 Clouds 16 1019 77 10000 12.3 80 14:40 18.12.2019
5913 Clouds 16 1019 72 10000 10.8 80 14:20 18.12.2019
5914 Clouds 16 1019 77 10000 9.8 80 13:56 18.12.2019
5915 Clouds 16 1019 77 10000 9.8 80 13:56 18.12.2019
5916 Clouds 16 1019 72 10000 9.8 80 13:37 18.12.2019
5917 Clouds 16 1019 72 10000 9.8 80 13:19 18.12.2019
5918 Clouds 16 1019 72 10000 10.8 80 12:57 18.12.2019
5919 Clouds 16 1019 72 10000 10.8 80 12:37 18.12.2019
5920 Clouds 16 1019 77 10000 11.8 70 12:19 18.12.2019
5921 Clouds 16 1019 77 10000 12.3 70 11:54 18.12.2019
5922 Clouds 16 1019 77 10000 12.3 70 11:36 18.12.2019
5923 Clouds 15 1019 77 10000 10.3 70 11:18 18.12.2019
5924 Clouds 14 1019 77 10000 10.3 70 10:55 18.12.2019
5925 Clouds 14 1019 77 10000 10.3 70 10:37 18.12.2019
5926 Clouds 14 1019 87 10000 7.7 70 10:18 18.12.2019
5927 Clouds 12 1019 66 10000 3.1 340 09:42 18.12.2019
5928 Clouds 11 1018 76 10000 3.1 0 09:18 18.12.2019
5929 Clouds 11 1018 71 10000 3.6 350 08:40 18.12.2019
5930 Clouds 8 1018 71 10000 3.6 330 08:21 18.12.2019
5931 Clouds 8 1017 66 10000 4.1 320 07:43 18.12.2019
5932 Clouds 8 1017 71 10000 4.6 330 07:22 18.12.2019
5933 Clouds 8 1016 71 10000 4.6 330 06:55 18.12.2019
5934 Clouds 8 1016 71 10000 4.6 330 06:27 18.12.2019
5935 Clouds 8 1016 71 10000 4.6 340 05:44 18.12.2019
5936 Clouds 8 1017 76 10000 4.1 330 04:46 18.12.2019
5937 Clouds 12 1017 71 10000 5.1 330 02:55 18.12.2019
5938 Clouds 12 1017 71 10000 5.1 330 02:36 18.12.2019
5939 Clouds 12 1016 71 10000 4.6 330 02:18 18.12.2019
5940 Clouds 12 1016 71 10000 3.1 330 01:40 18.12.2019
5941 Clouds 12 1016 71 10000 2.1 10 01:21 18.12.2019
5942 Clouds 12 1017 71 10000 4.1 320 00:40 18.12.2019
5943 Clouds 12 1016 71 10000 3.6 320 00:22 18.12.2019
5944 Clouds 13 1017 71 10000 3.6 330 23:56 17.12.2019
5945 Clouds 13 1017 71 10000 3.6 330 23:37 17.12.2019
5946 Clouds 13 1016 71 10000 4.1 330 23:18 17.12.2019
5947 Clouds 13 1016 76 10000 3.6 320 22:56 17.12.2019
5948 Clouds 13 1017 71 10000 3.1 320 22:37 17.12.2019
5949 Clouds 13 1017 71 10000 3.1 320 22:18 17.12.2019
5950 Clouds 13 1016 71 10000 4.1 330 21:55 17.12.2019
5951 Clouds 13 1016 71 10000 4.1 330 21:37 17.12.2019
5952 Clouds 13 1016 71 10000 4.6 330 21:18 17.12.2019
5953 Clouds 13 1017 71 10000 4.6 330 20:56 17.12.2019
5954 Clouds 14 1017 71 10000 4.6 330 20:37 17.12.2019
5955 Clouds 14 1016 71 10000 4.1 320 20:18 17.12.2019
5956 Clouds 14 1016 71 10000 4.1 320 19:55 17.12.2019
5957 Clouds 14 1016 67 10000 4.6 70 19:37 17.12.2019
5958 Clouds 14 1016 67 10000 4.6 70 19:18 17.12.2019
5959 Clouds 15 1016 77 10000 6.7 70 18:42 17.12.2019
5960 Clouds 15 1016 77 10000 6.7 70 18:42 17.12.2019
5961 Clouds 15 1015 77 10000 6.7 80 18:22 17.12.2019
5962 Clouds 14 1015 67 10000 5.1 80 17:59 17.12.2019
5963 Clouds 14 1015 67 10000 5.1 80 17:41 17.12.2019
5964 Clouds 14 1015 67 10000 5.1 80 17:41 17.12.2019
5965 Clouds 15 1015 67 10000 3.1 20 17:19 17.12.2019
5966 Clouds 15 1015 72 10000 2.6 50 16:56 17.12.2019
5967 Clouds 15 1015 72 10000 2.6 50 16:37 17.12.2019
5968 Clouds 15 1015 77 10000 6.2 80 16:19 17.12.2019
5969 Clouds 15 1015 77 10000 6.2 80 16:19 17.12.2019
5970 Clouds 15 1014 77 10000 7.2 70 15:56 17.12.2019
5971 Clouds 16 1014 77 10000 7.2 70 15:37 17.12.2019
5972 Clouds 16 1014 77 10000 6.2 70 15:19 17.12.2019
5973 Clouds 16 1014 77 10000 8.2 80 14:55 17.12.2019
5974 Clouds 16 1014 77 10000 8.2 80 14:55 17.12.2019
5975 Clouds 16 1014 77 10000 8.2 80 14:37 17.12.2019
5976 Clouds 16 1014 77 10000 9.3 90 14:18 17.12.2019
5977 Clouds 16 1014 77 10000 9.3 90 14:18 17.12.2019
5978 Clouds 16 1014 77 10000 9.8 80 13:56 17.12.2019
5979 Clouds 16 1014 77 10000 9.8 80 13:37 17.12.2019
5980 Clouds 16 1014 77 10000 9.3 80 13:18 17.12.2019
5981 Clouds 16 1014 77 10000 10.3 90 12:55 17.12.2019
5982 Clouds 16 1014 77 10000 10.3 90 12:37 17.12.2019
5983 Clouds 15 1014 77 10000 11.3 90 12:18 17.12.2019
5984 Clouds 16 1014 77 10000 10.8 90 11:54 17.12.2019
5985 Clouds 15 1014 77 10000 10.3 90 11:36 17.12.2019
5986 Clouds 16 1014 77 10000 10.3 90 11:18 17.12.2019
5987 Clouds 16 1014 77 10000 10.3 90 11:18 17.12.2019
5988 Clouds 15 1014 77 10000 10.3 80 10:55 17.12.2019
5989 Clouds 15 1014 77 10000 10.3 80 10:36 17.12.2019
5990 Clouds 15 1014 72 10000 10.3 80 10:18 17.12.2019
5991 Clouds 15 1013 72 10000 10.8 80 09:42 17.12.2019
5992 Clouds 15 1013 72 10000 11.3 80 09:21 17.12.2019
5993 Clouds 15 1013 72 10000 11.3 80 08:58 17.12.2019
5994 Clouds 15 1013 72 10000 11.3 80 08:39 17.12.2019
5995 Clouds 12 1012 72 10000 11.3 80 08:21 17.12.2019
5996 Clouds 11 1013 72 10000 9.8 80 07:57 17.12.2019
5997 Clouds 11 1013 72 10000 9.8 80 07:39 17.12.2019
5998 Clouds 11 1012 72 10000 9.3 70 07:19 17.12.2019
5999 Clouds 11 1012 72 10000 9.8 70 06:41 17.12.2019
6000 Clouds 11 1012 72 10000 10.8 70 06:22 17.12.2019
6001 Clouds 11 1012 72 10000 10.8 70 05:40 17.12.2019
6002 Clouds 15 1012 72 10000 11.3 70 04:48 17.12.2019
6003 Clouds 15 1013 72 10000 12.3 80 03:31 17.12.2019
6004 Clouds 15 1013 72 10000 12.9 80 01:59 17.12.2019
6005 Clouds 15 1013 72 10000 12.9 80 01:21 17.12.2019
6006 Clouds 15 1013 72 10000 12.9 80 00:39 17.12.2019
6007 Clouds 15 1013 67 10000 13.9 70 00:21 17.12.2019
6008 Clouds 14 1014 72 10000 12.3 70 23:43 16.12.2019
6009 Clouds 14 1014 67 10000 12.3 70 23:20 16.12.2019
6010 Clouds 14 1014 67 10000 11.8 70 22:58 16.12.2019
6011 Clouds 14 1014 67 10000 11.8 70 22:38 16.12.2019
6012 Clouds 14 1014 67 10000 11.8 70 22:38 16.12.2019
6013 Clouds 14 1014 67 10000 11.8 70 22:20 16.12.2019
6014 Clouds 14 1014 63 10000 10.8 70 21:57 16.12.2019
6015 Clouds 14 1014 63 10000 10.8 70 21:39 16.12.2019
6016 Clouds 14 1014 63 10000 9.8 60 21:20 16.12.2019
6017 Clouds 14 1015 59 10000 9.8 70 20:58 16.12.2019
6018 Clouds 14 1015 59 10000 9.8 70 20:39 16.12.2019
6019 Clouds 14 1015 62 10000 2.1 10 20:19 16.12.2019
6020 Clouds 14 1015 62 10000 2.1 10 20:19 16.12.2019
6021 Clouds 14 1015 67 10000 4.6 30 19:57 16.12.2019
6022 Clouds 14 1015 67 10000 4.6 30 19:37 16.12.2019
6023 Clouds 14 1016 67 10000 5.7 30 19:19 16.12.2019
6024 Clouds 14 1016 63 10000 8.7 70 18:59 16.12.2019
6025 Clouds 14 1016 63 10000 8.7 70 18:41 16.12.2019
6026 Clouds 14 1015 67 10000 8.7 70 18:20 16.12.2019
6027 Clouds 14 1016 72 10000 7.2 60 17:59 16.12.2019
6028 Clouds 11 1016 72 10000 7.2 60 17:40 16.12.2019
6029 Clouds 11 1016 72 10000 7.2 60 17:40 16.12.2019
6030 Clouds 14 1016 67 10000 9.3 70 17:21 16.12.2019
6031 Clouds 14 1016 77 10000 8.7 70 16:57 16.12.2019
6032 Clouds 14 1016 77 10000 8.7 70 16:39 16.12.2019
6033 Clouds 14 1017 77 10000 7.7 80 16:20 16.12.2019
6034 Clouds 14 1017 77 10000 6.2 80 15:59 16.12.2019
6035 Clouds 14 1017 77 10000 6.2 80 15:39 16.12.2019
6036 Clouds 14 1017 77 10000 4.6 80 15:21 16.12.2019
6037 Clouds 15 1017 77 10000 4.1 90 14:57 16.12.2019
6038 Clouds 15 1017 67 10000 1 0 14:37 16.12.2019
6039 Clouds 15 1017 77 10000 4.1 90 14:37 16.12.2019
6040 Clouds 15 1017 67 10000 1 0 14:19 16.12.2019
6041 Clouds 14 1018 67 10000 2.6 330 13:56 16.12.2019
6042 Clouds 13 1018 67 10000 2.6 330 13:38 16.12.2019
6043 Clouds 13 1018 67 10000 2.6 330 13:19 16.12.2019
6044 Clouds 13 1018 67 10000 2.6 330 13:19 16.12.2019
6045 Clouds 13 1018 71 10000 3.1 330 12:58 16.12.2019
6046 Clouds 14 1018 71 10000 3.1 330 12:39 16.12.2019
6047 Clouds 13 1019 71 10000 3.1 340 12:19 16.12.2019
6048 Clouds 13 1019 76 10000 4.1 360 11:58 16.12.2019
6049 Clouds 12 1019 81 10000 3.1 340 11:40 16.12.2019
6050 Clouds 12 1019 81 10000 3.1 340 11:20 16.12.2019
6051 Clouds 12 1019 81 10000 4.1 340 10:57 16.12.2019
6052 Clouds 12 1019 81 10000 4.1 340 10:39 16.12.2019
6053 Clouds 12 1019 81 10000 4.6 340 10:19 16.12.2019
6054 Rain 12 1019 76 10000 3.1 330 09:45 16.12.2019
6055 Rain 12 1019 76 10000 2.6 330 09:27 16.12.2019
6056 Rain 12 1019 76 10000 2.6 330 09:27 16.12.2019
6057 Clouds 12 1019 71 10000 3.1 330 08:56 16.12.2019
6058 Clouds 12 1019 71 10000 3.1 330 08:37 16.12.2019
6059 Clouds 12 1018 71 10000 3.1 330 08:18 16.12.2019
6060 Clouds 12 1018 71 10000 3.6 330 07:47 16.12.2019
6061 Clouds 12 1018 71 10000 3.6 340 07:28 16.12.2019
6062 Clouds 12 1018 71 10000 3.6 330 06:45 16.12.2019
6063 Clouds 12 1018 76 10000 3.1 330 06:26 16.12.2019
6064 Clouds 11 1018 76 10000 2.6 340 05:52 16.12.2019
6065 Clouds 11 1018 81 10000 3.1 340 05:33 16.12.2019
6066 Clouds 11 1018 81 10000 4.1 340 04:27 16.12.2019
6067 Clouds 11 1018 76 10000 4.1 330 02:36 16.12.2019
6068 Clouds 11 1017 87 10000 3.6 330 01:45 16.12.2019
6069 Clouds 10 1018 87 10000 3.6 330 00:43 16.12.2019
6070 Clouds 10 1018 87 10000 3.1 330 00:25 16.12.2019
6071 Clouds 10 1018 87 10000 3.1 330 23:59 15.12.2019
6072 Clouds 10 1018 87 10000 3.1 330 23:40 15.12.2019
6073 Clouds 10 1017 93 10000 3.6 330 23:21 15.12.2019
6074 Clouds 10 1017 93 10000 2.6 330 22:56 15.12.2019
6075 Clouds 10 1017 93 10000 2.6 330 22:37 15.12.2019
6076 Clouds 10 1017 93 10000 2.1 330 22:18 15.12.2019
6077 Rain 10 1017 93 10000 2.1 340 21:57 15.12.2019
6078 Rain 11 1017 93 10000 2.1 340 21:38 15.12.2019
6079 Clouds 11 1017 87 10000 3.1 320 21:19 15.12.2019
6080 Clouds 11 1017 87 10000 2.1 330 20:57 15.12.2019
6081 Clouds 11 1017 87 10000 2.1 330 20:38 15.12.2019
6082 Clouds 11 1017 87 10000 2.6 320 20:19 15.12.2019
6083 Clouds 11 1016 93 10000 1.5 340 19:57 15.12.2019
6084 Clouds 11 1016 93 10000 1.5 340 19:39 15.12.2019
6085 Clouds 11 1016 93 10000 1 350 19:18 15.12.2019
6086 Clouds 12 1016 87 10000 1 10 18:56 15.12.2019
6087 Clouds 12 1016 87 10000 1 10 18:38 15.12.2019
6088 Clouds 12 1015 87 10000 2.1 240 18:18 15.12.2019
6089 Clouds 13 1015 82 10000 2.1 220 17:56 15.12.2019
6090 Clouds 13 1015 82 10000 3.1 220 17:37 15.12.2019
6091 Clouds 13 1015 82 10000 3.1 220 17:19 15.12.2019
6092 Clouds 13 1015 82 10000 4.1 210 16:56 15.12.2019
6093 Clouds 14 1015 82 10000 4.1 210 16:38 15.12.2019
6094 Clouds 14 1015 77 10000 4.1 210 16:20 15.12.2019
6095 Clouds 14 1015 77 10000 2.1 210 15:55 15.12.2019
6096 Clouds 14 1015 77 10000 2.1 210 15:55 15.12.2019
6097 Clouds 14 1015 77 10000 2.1 210 15:37 15.12.2019
6098 Clouds 14 1015 77 10000 2.1 210 15:18 15.12.2019
6099 Clouds 13 1014 77 10000 2.6 190 14:55 15.12.2019
6100 Clouds 12 1014 72 10000 3.1 190 14:36 15.12.2019
6101 Clouds 15 1014 72 10000 3.1 190 14:18 15.12.2019
6102 Clouds 15 1014 67 10000 2.1 170 13:55 15.12.2019
6103 Clouds 15 1014 67 10000 2.1 170 13:36 15.12.2019
6104 Clouds 15 1014 67 10000 2.1 160 13:18 15.12.2019
6105 Clouds 15 1014 63 10000 1.5 130 12:56 15.12.2019
6106 Clouds 15 1014 63 10000 1.5 130 12:37 15.12.2019
6107 Clouds 15 1014 55 10000 1.5 70 12:19 15.12.2019
6108 Clouds 14 1014 50 10000 2.6 330 11:38 15.12.2019
6109 Clouds 12 1014 54 10000 4.1 320 11:20 15.12.2019
6110 Clouds 13 1014 58 10000 4.6 330 10:58 15.12.2019
6111 Clouds 11 1014 58 10000 4.6 330 10:40 15.12.2019
6112 Clouds 11 1013 57 10000 4.1 320 10:20 15.12.2019
6113 Clouds 10 1013 57 10000 5.1 330 09:59 15.12.2019
6114 Clouds 10 1013 57 10000 5.1 330 09:38 15.12.2019
6115 Clouds 9 1013 61 10000 4.6 330 09:20 15.12.2019
6116 Clouds 10 1012 66 10000 3.6 320 08:55 15.12.2019
6117 Clouds 9 1012 66 10000 3.6 320 08:37 15.12.2019
6118 Clouds 8 1012 66 10000 5.1 340 08:19 15.12.2019
6119 Clouds 7 1011 66 10000 5.1 330 07:53 15.12.2019
6120 Clouds 8 1011 66 10000 4.6 330 07:32 15.12.2019
6121 Clouds 7 1011 66 10000 5.1 320 06:30 15.12.2019
6122 Clouds 7 1011 66 10000 4.6 330 05:50 15.12.2019
6123 Clouds 7 1010 70 10000 4.1 330 05:23 15.12.2019
6124 Clouds 9 1010 70 10000 3.6 330 04:24 15.12.2019
6125 Clouds 9 1011 70 10000 4.1 330 03:22 15.12.2019
6126 Clouds 9 1010 76 10000 5.1 320 02:32 15.12.2019
6127 Clouds 9 1010 76 10000 4.1 320 01:43 15.12.2019
6128 Clouds 9 1011 76 10000 4.1 320 01:20 15.12.2019
6129 Clouds 10 1011 76 10000 4.1 330 00:53 15.12.2019
6130 Clouds 10 1011 76 10000 4.1 330 00:34 15.12.2019
6131 Clouds 10 1010 81 10000 3.6 340 23:58 14.12.2019
6132 Clouds 8 1010 81 10000 3.6 340 23:38 14.12.2019
6133 Clear 11 1009 81 10000 4.1 330 23:18 14.12.2019
6134 Clear 11 1009 81 10000 3.1 320 22:57 14.12.2019
6135 Clear 11 1009 81 10000 3.1 320 22:39 14.12.2019
6136 Clear 10 1009 81 10000 3.6 330 22:20 14.12.2019
6137 Clear 11 1008 76 10000 3.1 350 21:55 14.12.2019
6138 Clear 11 1008 76 10000 3.1 350 21:55 14.12.2019
6139 Clear 11 1008 76 10000 3.1 350 21:37 14.12.2019
6140 Clear 11 1008 81 10000 4.1 330 21:18 14.12.2019
6141 Clear 12 1009 81 10000 2.6 330 20:54 14.12.2019
6142 Clear 12 1009 81 10000 2.6 330 20:36 14.12.2019
6143 Clear 12 1008 87 10000 4.1 320 20:18 14.12.2019
6144 Clear 12 1008 87 10000 3.1 320 19:40 14.12.2019
6145 Clear 13 1008 77 10000 4.1 70 19:21 14.12.2019
6146 Clear 13 1007 77 10000 5.1 80 18:58 14.12.2019
6147 Clear 14 1007 77 10000 5.1 80 18:39 14.12.2019
6148 Clear 14 1007 77 10000 6.7 80 18:21 14.12.2019
6149 Clouds 14 1006 77 10000 7.2 80 17:59 14.12.2019
6150 Clouds 11 1006 77 10000 7.2 80 17:41 14.12.2019
6151 Clouds 15 1006 77 10000 6.7 90 17:22 14.12.2019
6152 Clouds 15 1005 72 10000 5.7 80 16:42 14.12.2019
6153 Clouds 16 1005 67 10000 5.1 70 16:20 14.12.2019
6154 Clouds 16 1005 67 10000 5.1 70 15:58 14.12.2019
6155 Clouds 13 1005 67 10000 5.1 70 15:39 14.12.2019
6156 Clouds 16 1004 67 10000 5.1 90 15:20 14.12.2019
6157 Clouds 17 1004 67 10000 5.1 80 14:57 14.12.2019
6158 Clouds 17 1004 67 10000 5.1 80 14:38 14.12.2019
6159 Clouds 17 1004 67 10000 5.1 80 14:38 14.12.2019
6160 Clouds 17 1004 72 10000 5.7 80 14:19 14.12.2019
6161 Clouds 18 1004 63 10000 6.7 90 13:45 14.12.2019
6162 Clouds 17 1003 67 10000 7.2 90 13:20 14.12.2019
6163 Clouds 18 1003 67 10000 8.2 80 12:58 14.12.2019
6164 Clouds 18 1003 67 10000 8.2 80 12:40 14.12.2019
6165 Clear 18 1003 63 10000 8.2 80 12:21 14.12.2019
6166 Clear 17 1002 67 10000 9.3 80 11:59 14.12.2019
6167 Clear 17 1002 67 10000 9.3 80 11:39 14.12.2019
6168 Clear 16 1002 67 10000 10.3 80 11:20 14.12.2019
6169 Clear 19 1001 40 10000 2.1 0 10:57 14.12.2019
6170 Clear 15 1001 40 10000 2.1 0 10:39 14.12.2019
6171 Clear 15 1000 42 10000 3.1 40 10:21 14.12.2019
6172 Clear 17 999 42 10000 3.1 10 09:57 14.12.2019
6173 Clear 17 999 42 10000 3.1 10 09:39 14.12.2019
6174 Clear 17 999 45 10000 6.7 260 09:19 14.12.2019
6175 Clear 16 999 45 10000 5.1 270 08:43 14.12.2019
6176 Clear 11 998 51 10000 8.2 260 08:20 14.12.2019
6177 Clear 11 998 51 10000 8.2 260 08:20 14.12.2019
6178 Clear 10 998 51 10000 8.7 240 07:44 14.12.2019
6179 Clear 11 998 51 10000 9.3 240 07:24 14.12.2019
6180 Clear 11 998 51 10000 9.3 240 06:57 14.12.2019
6181 Clear 11 998 51 10000 9.3 240 06:38 14.12.2019
6182 Clear 11 997 58 10000 9.8 230 06:18 14.12.2019
6183 Clear 12 997 54 10000 3.1 20 04:48 14.12.2019
6184 Clear 10 998 50 10000 1 0 02:44 14.12.2019
6185 Clear 10 997 50 10000 1 0 02:22 14.12.2019
6186 Clear 9 997 50 10000 6.7 260 01:37 14.12.2019
6187 Clear 10 997 50 10000 8.2 240 00:50 14.12.2019
6188 Clear 10 997 46 10000 4.6 280 00:29 14.12.2019
6189 Clear 10 997 46 10000 4.6 280 00:29 14.12.2019
6190 Clear 10 997 46 10000 3.6 290 23:58 13.12.2019
6191 Clear 10 997 46 10000 3.6 290 23:39 13.12.2019
6192 Clear 10 996 50 10000 4.6 320 23:19 13.12.2019
6193 Clear 9 996 46 10000 4.1 290 22:55 13.12.2019
6194 Clear 9 996 46 10000 4.1 290 22:36 13.12.2019
6195 Clear 9 996 46 10000 4.1 290 22:36 13.12.2019
6196 Clear 9 996 50 10000 4.1 300 22:18 13.12.2019
6197 Clear 9 995 50 10000 6.2 320 21:39 13.12.2019
6198 Clear 10 996 43 10000 7.2 270 21:21 13.12.2019
6199 Clear 10 995 50 10000 5.7 300 20:55 13.12.2019
6200 Clear 10 995 50 10000 5.7 300 20:37 13.12.2019
6201 Clear 10 994 50 10000 7.7 290 20:19 13.12.2019
6202 Clear 10 994 40 10000 8.7 280 19:56 13.12.2019
6203 Clear 10 994 40 10000 8.7 280 19:36 13.12.2019
6204 Clear 10 993 50 10000 6.2 280 19:18 13.12.2019
6205 Clear 11 993 50 10000 7.2 280 18:41 13.12.2019
6206 Clouds 11 993 50 10000 7.2 280 18:19 13.12.2019
6207 Clouds 11 992 37 10000 8.7 290 17:58 13.12.2019
6208 Clouds 11 992 37 10000 8.7 290 17:39 13.12.2019
6209 Clear 11 992 37 10000 6.2 270 17:18 13.12.2019
6210 Clear 11 992 37 10000 6.2 270 17:18 13.12.2019
6211 Clouds 11 990 37 10000 5.7 290 16:55 13.12.2019
6212 Clouds 11 990 37 10000 5.7 290 16:37 13.12.2019
6213 Clouds 12 989 43 10000 12.9 280 16:18 13.12.2019
6214 Clouds 14 988 30 10000 8.2 280 15:41 13.12.2019
6215 Clouds 14 988 33 10000 8.2 280 15:21 13.12.2019
6216 Clouds 15 987 48 10000 11.8 280 14:57 13.12.2019
6217 Clouds 15 987 48 10000 11.8 280 14:37 13.12.2019
6218 Clouds 14 987 26 10000 11.3 280 14:18 13.12.2019
6219 Clouds 14 987 29 10000 8.7 280 13:43 13.12.2019
6220 Clouds 14 987 31 10000 9.8 290 13:24 13.12.2019
6221 Clouds 14 986 38 10000 11.3 290 12:55 13.12.2019
6222 Clouds 14 986 38 10000 11.3 290 12:37 13.12.2019
6223 Clouds 13 986 71 10000 2.6 0 12:18 13.12.2019
6224 Clouds 12 986 76 10000 3.6 310 11:43 13.12.2019
6225 Clouds 11 987 81 10000 5.1 330 11:25 13.12.2019
6226 Clouds 10 987 81 10000 5.7 320 10:56 13.12.2019
6227 Clouds 9 987 81 10000 5.7 320 10:38 13.12.2019
6228 Clouds 6 988 81 10000 4.6 320 10:20 13.12.2019
6229 Rain 7 989 93 10000 6.7 330 09:42 13.12.2019
6230 Rain 6 990 87 4000 4.6 330 09:21 13.12.2019
6231 Rain 3 990 87 5000 5.7 330 08:55 13.12.2019
6232 Rain 3 990 87 5000 5.7 330 08:36 13.12.2019
6233 Rain 3 991 87 7000 4.6 320 08:18 13.12.2019
6234 Rain 3 992 81 10000 5.7 320 07:42 13.12.2019
6235 Rain 3 992 81 10000 5.1 330 07:19 13.12.2019
6236 Rain 3 993 81 10000 4.6 330 06:45 13.12.2019
6237 Clouds 3 993 75 10000 4.1 340 06:25 13.12.2019
6238 Rain 3 993 70 10000 4.1 310 05:38 13.12.2019
6239 Clouds 2 994 75 10000 5.1 320 05:20 13.12.2019
6240 Clouds 3 995 75 10000 4.6 330 04:29 13.12.2019
6241 Drizzle 5 997 81 10000 4.6 330 02:57 13.12.2019
6242 Clouds 5 997 81 10000 4.1 330 02:30 13.12.2019
6243 Clouds 5 998 81 10000 3.1 330 01:39 13.12.2019
6244 Rain 4 1000 81 10000 6.2 350 00:51 13.12.2019
6245 Rain 5 1000 65 10000 4.6 330 00:29 13.12.2019
6246 Rain 5 1001 56 10000 2.6 300 23:46 12.12.2019
6247 Rain 6 1001 49 10000 3.6 310 23:27 12.12.2019
6248 Clouds 3 1001 42 10000 4.6 320 22:59 12.12.2019
6249 Clouds 6 1001 42 10000 4.6 320 22:41 12.12.2019
6250 Clouds 4 1001 42 10000 3.6 300 22:22 12.12.2019
6251 Clouds 6 1002 65 10000 1.5 0 21:56 12.12.2019
6252 Clouds 3 1002 65 10000 1.5 0 21:38 12.12.2019
6253 Clouds 6 1002 48 10000 4.1 330 21:20 12.12.2019
6254 Clouds 3 1002 52 10000 3.6 330 20:59 12.12.2019
6255 Clouds 4 1002 52 10000 3.6 330 20:41 12.12.2019
6256 Rain 3 1002 56 10000 4.1 330 20:23 12.12.2019
6257 Rain 4 1002 70 10000 4.1 330 19:59 12.12.2019
6258 Rain 4 1002 70 10000 4.1 330 19:41 12.12.2019
6259 Rain 4 1003 61 10000 5.1 330 19:21 12.12.2019
6260 Rain 4 1003 61 10000 3.6 300 18:58 12.12.2019
6261 Rain 6 1003 61 10000 3.6 300 18:39 12.12.2019
6262 Rain 6 1003 61 10000 4.1 330 18:20 12.12.2019
6263 Rain 5 1003 61 10000 2.6 30 17:57 12.12.2019
6264 Rain 5 1003 61 10000 2.6 30 17:57 12.12.2019
6265 Rain 5 1003 61 10000 2.6 30 17:57 12.12.2019
6266 Rain 5 1003 61 10000 2.6 30 17:57 12.12.2019
6267 Rain 5 1003 61 10000 2.6 30 17:39 12.12.2019
6268 Rain 9 1003 50 10000 2.1 30 17:20 12.12.2019
6269 Rain 9 1003 50 10000 2.1 30 17:20 12.12.2019
6270 Clouds 10 1003 37 10000 1.5 70 16:57 12.12.2019
6271 Clouds 10 1003 35 10000 1.5 90 16:39 12.12.2019
6272 Clouds 10 1003 35 10000 1.5 90 16:20 12.12.2019
6273 Clouds 11 1003 32 10000 1.5 110 15:56 12.12.2019
6274 Clouds 12 1003 32 10000 1.5 110 15:37 12.12.2019
6275 Clouds 12 1003 33 10000 1.5 150 15:18 12.12.2019
6276 Clouds 12 1004 33 10000 1.5 0 14:38 12.12.2019
6277 Clouds 12 1004 33 10000 1.5 0 14:38 12.12.2019
6278 Clouds 12 1004 37 10000 3.1 200 14:20 12.12.2019
6279 Clouds 12 1004 33 10000 3.1 230 13:58 12.12.2019
6280 Clouds 12 1004 33 10000 3.1 230 13:40 12.12.2019
6281 Clouds 11 1004 35 10000 4.1 230 13:21 12.12.2019
6282 Clouds 11 1004 50 10000 3.6 250 12:58 12.12.2019
6283 Clouds 11 1004 50 10000 3.6 250 12:40 12.12.2019
6284 Clouds 12 1004 50 10000 3.1 250 12:21 12.12.2019
6285 Clouds 11 1005 50 10000 2.6 300 11:57 12.12.2019
6286 Clouds 11 1005 50 10000 2.6 300 11:38 12.12.2019
6287 Clouds 11 1005 71 10000 2.6 330 11:19 12.12.2019
6288 Clouds 10 1005 71 10000 3.1 330 10:56 12.12.2019
6289 Clouds 10 1005 71 10000 3.1 330 10:38 12.12.2019
6290 Clouds 10 1004 57 10000 3.1 320 10:20 12.12.2019
6291 Clouds 9 1004 65 10000 2.1 300 09:55 12.12.2019
6292 Clouds 9 1004 65 10000 2.1 300 09:37 12.12.2019
6293 Clouds 8 1004 70 10000 2.6 280 09:18 12.12.2019
6294 Clouds 7 1004 71 10000 3.6 320 08:43 12.12.2019
6295 Clouds 7 1004 71 10000 3.6 320 08:43 12.12.2019
6296 Clouds 6 1003 67 10000 4.1 330 08:25 12.12.2019
6297 Clouds 6 1003 67 10000 4.1 330 08:25 12.12.2019
6298 Clouds 7 1003 67 10000 4.6 320 07:49 12.12.2019
6299 Clouds 7 1003 67 10000 3.6 320 07:27 12.12.2019
6300 Clouds 7 1003 67 10000 4.6 300 06:56 12.12.2019
6301 Clouds 7 1003 67 10000 4.6 300 06:35 12.12.2019
6302 Clouds 2 1003 70 10000 4.6 330 05:42 12.12.2019
6303 Clouds 8 1003 65 10000 3.1 300 04:55 12.12.2019
6304 Clouds 7 1003 75 10000 3.6 330 04:28 12.12.2019
6305 Clouds 4 1005 70 10000 4.1 340 02:41 12.12.2019
6306 Clouds 7 1005 70 10000 3.6 340 02:22 12.12.2019
6307 Clouds 6 1005 70 10000 4.6 320 01:54 12.12.2019
6308 Clouds 7 1005 70 10000 1.5 310 01:35 12.12.2019
6309 Clouds 7 1005 70 10000 1.5 350 00:48 12.12.2019
6310 Clouds 8 1006 66 10000 5.1 290 00:21 12.12.2019
6311 Clouds 8 1006 70 10000 3.6 280 23:54 11.12.2019
6312 Clouds 8 1005 66 10000 3.1 20 23:36 11.12.2019
6313 Clouds 8 1005 66 10000 3.1 20 23:18 11.12.2019
6314 Clouds 8 1006 61 10000 1.5 0 22:55 11.12.2019
6315 Clouds 8 1006 61 10000 1.5 0 22:36 11.12.2019
6316 Clouds 8 1006 61 10000 1.5 0 22:36 11.12.2019
6317 Clouds 8 1006 66 10000 1.5 350 22:18 11.12.2019
6318 Clouds 9 1006 66 10000 1.5 360 21:39 11.12.2019
6319 Clouds 9 1006 66 10000 1.5 360 21:39 11.12.2019
6320 Clouds 8 1007 66 10000 3.1 320 21:20 11.12.2019
6321 Clouds 9 1007 66 10000 2.1 330 20:58 11.12.2019
6322 Clouds 9 1007 66 10000 2.1 330 20:40 11.12.2019
6323 Clouds 9 1008 76 10000 1.5 310 20:19 11.12.2019
6324 Clouds 9 1008 66 10000 1.5 260 19:59 11.12.2019
6325 Clouds 9 1008 66 10000 1.5 260 19:40 11.12.2019
6326 Clouds 8 1009 61 10000 8.65 236 19:21 11.12.2019
6327 Clouds 8 1009 61 10000 8.65 236 18:58 11.12.2019
6328 Clouds 9 1009 61 10000 8.65 236 18:39 11.12.2019
6329 Rain 7 1010 66 10000 4.1 350 18:18 11.12.2019
6330 Clouds 8 1011 64 10000 4.6 330 17:55 11.12.2019
6331 Clouds 9 1011 64 10000 4.6 330 17:37 11.12.2019
6332 Clouds 10 1011 63 10000 4.6 320 17:18 11.12.2019
6333 Clouds 10 1012 63 10000 2.6 330 16:55 11.12.2019
6334 Clouds 10 1012 63 10000 2.6 330 16:37 11.12.2019
6335 Clouds 10 1012 63 10000 2.6 320 16:18 11.12.2019
6336 Clouds 10 1012 63 10000 3.6 320 15:55 11.12.2019
6337 Clouds 11 1012 63 10000 3.6 320 15:36 11.12.2019
6338 Clouds 11 1013 63 10000 3.1 320 15:18 11.12.2019
6339 Clouds 9 1013 63 10000 3.1 330 14:54 11.12.2019
6340 Clouds 11 1013 46 10000 3.1 320 14:36 11.12.2019
6341 Clouds 11 1013 46 10000 3.1 320 14:18 11.12.2019
6342 Clouds 11 1014 43 10000 4.6 320 13:42 11.12.2019
6343 Clouds 11 1014 43 10000 4.6 320 13:42 11.12.2019
6344 Clouds 11 1014 43 10000 4.6 320 13:22 11.12.2019
6345 Clouds 11 1015 39 10000 4.6 330 12:58 11.12.2019
6346 Clouds 10 1015 39 10000 4.6 330 12:39 11.12.2019
6347 Clouds 10 1016 39 10000 5.1 320 12:21 11.12.2019
6348 Clouds 10 1016 39 10000 5.1 320 12:21 11.12.2019
6349 Clouds 10 1016 42 10000 4.6 330 11:58 11.12.2019
6350 Clouds 10 1016 42 10000 4.6 330 11:39 11.12.2019
6351 Clouds 8 1017 42 10000 5.7 330 11:19 11.12.2019
6352 Clouds 8 1017 42 10000 5.7 320 10:59 11.12.2019
6353 Clouds 8 1017 42 10000 5.7 320 10:39 11.12.2019
6354 Clouds 6 1017 45 10000 5.1 330 10:20 11.12.2019
6355 Clouds 7 1017 42 10000 5.1 330 09:55 11.12.2019
6356 Clouds 7 1017 42 10000 5.1 330 09:37 11.12.2019
6357 Clouds 6 1018 48 10000 5.1 330 09:19 11.12.2019
6358 Clouds 5 1018 48 10000 6.2 330 08:55 11.12.2019
6359 Clouds 6 1018 48 10000 5.7 330 08:36 11.12.2019
6360 Clear 5 1018 48 10000 5.7 330 08:18 11.12.2019
6361 Clear 4 1018 48 10000 6.2 330 07:42 11.12.2019
6362 Clear 4 1018 48 10000 6.2 330 07:42 11.12.2019
6363 Clear 4 1018 52 10000 5.7 330 07:22 11.12.2019
6364 Clear 4 1018 52 10000 5.1 340 06:46 11.12.2019
6365 Clear 4 1018 52 10000 6.2 330 06:24 11.12.2019
6366 Clear 4 1019 52 10000 5.7 330 05:53 11.12.2019
6367 Clear 4 1019 48 10000 4.6 330 05:28 11.12.2019
6368 Clear 5 1019 48 10000 5.1 330 04:49 11.12.2019
6369 Clear 5 1020 48 10000 5.7 340 03:19 11.12.2019
6370 Clear 5 1020 49 10000 5.1 340 02:31 11.12.2019
6371 Clear 5 1021 45 10000 6.2 330 01:21 11.12.2019
6372 Clear 7 1021 49 10000 5.7 330 00:37 11.12.2019
6373 Clear 7 1021 49 10000 4.6 330 00:18 11.12.2019
6374 Clear 7 1021 45 10000 4.6 330 23:43 10.12.2019
6375 Clear 7 1020 49 10000 6.2 330 23:22 10.12.2019
6376 Clear 7 1020 49 10000 5.1 330 22:56 10.12.2019
6377 Clear 7 1020 49 10000 5.1 330 22:38 10.12.2019
6378 Clear 7 1020 45 10000 4.1 340 22:20 10.12.2019
6379 Clear 7 1020 45 10000 4.6 330 21:54 10.12.2019
6380 Clear 7 1020 45 10000 4.6 330 21:36 10.12.2019
6381 Clear 8 1020 53 10000 4.6 330 21:18 10.12.2019
6382 Clear 7 1020 66 10000 5.1 320 20:55 10.12.2019
6383 Clear 7 1020 66 10000 5.1 320 20:55 10.12.2019
6384 Clear 9 1020 57 10000 4.1 320 20:36 10.12.2019
6385 Clear 9 1020 57 10000 4.1 320 20:18 10.12.2019
6386 Clear 9 1020 57 10000 4.1 320 20:18 10.12.2019
6387 Clear 9 1020 57 10000 4.1 320 20:18 10.12.2019
6388 Clear 9 1019 57 10000 3.6 320 19:42 10.12.2019
6389 Clear 9 1019 62 10000 2.6 290 19:24 10.12.2019
6390 Clear 7 1019 62 10000 3.6 290 18:57 10.12.2019
6391 Clear 6 1019 62 10000 3.6 290 18:39 10.12.2019
6392 Clear 6 1018 66 10000 3.1 260 18:19 10.12.2019
6393 Clear 7 1018 58 10000 4.6 220 17:54 10.12.2019
6394 Clear 7 1018 58 10000 4.6 220 17:36 10.12.2019
6395 Clear 12 1018 58 10000 4.6 240 17:18 10.12.2019
6396 Clear 12 1018 58 10000 4.6 240 17:18 10.12.2019
6397 Clear 14 1017 47 10000 1 0 16:42 10.12.2019
6398 Clear 14 1017 45 10000 2.1 180 16:20 10.12.2019
6399 Clear 16 1017 45 10000 4.6 160 15:54 10.12.2019
6400 Clear 16 1017 45 10000 4.6 160 15:36 10.12.2019
6401 Clear 17 1016 39 10000 5.7 180 15:18 10.12.2019
6402 Clear 17 1016 39 10000 5.7 180 15:18 10.12.2019
6403 Clear 17 1016 31 10000 3.1 140 14:55 10.12.2019
6404 Clear 17 1016 31 10000 3.1 140 14:36 10.12.2019
6405 Clear 17 1016 15 10000 2.6 10 14:18 10.12.2019
6406 Clear 17 1017 14 10000 4.1 350 13:56 10.12.2019
6407 Clear 17 1017 14 10000 4.1 350 13:56 10.12.2019
6408 Clear 17 1017 17 10000 5.1 350 13:37 10.12.2019
6409 Clear 17 1017 17 10000 5.1 350 13:18 10.12.2019
6410 Clear 17 1017 16 10000 6.2 360 12:40 10.12.2019
6411 Clear 17 1017 21 10000 2.1 340 12:21 10.12.2019
6412 Clear 16 1017 25 10000 2.1 320 11:42 10.12.2019
6413 Clear 13 1017 28 10000 2.6 320 11:23 10.12.2019
6414 Clear 12 1017 30 10000 5.1 330 10:56 10.12.2019
6415 Clear 12 1017 30 10000 5.1 330 10:37 10.12.2019
6416 Clear 10 1016 32 10000 7.2 320 10:19 10.12.2019
6417 Clear 8 1016 34 10000 5.1 340 09:55 10.12.2019
6418 Clear 8 1016 34 10000 5.1 340 09:37 10.12.2019
6419 Clear 9 1015 37 10000 4.1 340 09:19 10.12.2019
6420 Clear 8 1015 39 10000 5.7 340 08:54 10.12.2019
6421 Clear 8 1015 39 10000 5.7 340 08:36 10.12.2019
6422 Clear 7 1015 34 10000 5.7 330 08:18 10.12.2019
6423 Clear 6 1014 39 10000 4.6 330 07:43 10.12.2019
6424 Clear 6 1014 39 10000 4.6 330 07:43 10.12.2019
6425 Clear 7 1014 39 10000 3.1 300 07:25 10.12.2019
6426 Clear 6 1013 45 10000 4.1 340 06:47 10.12.2019
6427 Clear 6 1013 42 10000 4.1 330 06:21 10.12.2019
6428 Clear 6 1012 45 10000 3.1 340 05:55 10.12.2019
6429 Clear 9 1011 45 10000 4.6 330 04:55 10.12.2019
6430 Clear 9 1011 43 10000 4.6 320 03:39 10.12.2019
6431 Clear 9 1010 46 10000 4.1 320 02:46 10.12.2019
6432 Clouds 10 1010 43 10000 4.6 30 01:45 10.12.2019
6433 Clouds 11 1009 35 10000 5.1 50 01:24 10.12.2019
6434 Clouds 11 1009 35 10000 6.7 60 00:43 10.12.2019
6435 Clouds 12 1008 37 10000 6.2 50 00:24 10.12.2019
6436 Clouds 12 1007 35 10000 4.1 340 23:43 09.12.2019
6437 Clouds 11 1007 37 10000 4.6 330 23:24 09.12.2019
6438 Clouds 11 1007 35 10000 7.2 330 22:58 09.12.2019
6439 Clouds 12 1007 35 10000 7.2 330 22:40 09.12.2019
6440 Clouds 12 1007 33 10000 9.3 340 22:21 09.12.2019
6441 Clouds 12 1007 33 10000 9.3 340 21:57 09.12.2019
6442 Clouds 12 1007 33 10000 9.3 340 21:39 09.12.2019
6443 Clouds 13 1008 33 10000 5.7 330 21:19 09.12.2019
6444 Clouds 12 1008 33 10000 4.6 320 20:57 09.12.2019
6445 Clouds 12 1008 33 10000 4.6 320 20:39 09.12.2019
6446 Clouds 12 1008 33 10000 4.6 320 20:39 09.12.2019
6447 Clouds 12 1008 57 10000 2.1 300 20:20 09.12.2019
6448 Clouds 12 1008 57 10000 2.1 300 20:20 09.12.2019
6449 Clouds 12 1007 35 10000 2.6 280 19:56 09.12.2019
6450 Clouds 12 1007 35 10000 2.6 280 19:38 09.12.2019
6451 Clouds 12 1007 35 10000 2.6 320 19:20 09.12.2019
6452 Clouds 12 1007 35 10000 1.5 0 18:59 09.12.2019
6453 Clouds 13 1007 35 10000 1.5 0 18:40 09.12.2019
6454 Clouds 13 1007 41 10000 4.1 310 18:20 09.12.2019
6455 Clouds 13 1007 57 10000 5.7 310 17:59 09.12.2019
6456 Clouds 13 1007 57 10000 5.7 310 17:40 09.12.2019
6457 Clouds 13 1006 38 10000 7.7 280 17:21 09.12.2019
6458 Clouds 13 1006 38 10000 10.3 280 16:56 09.12.2019
6459 Clouds 14 1006 36 10000 10.3 270 16:38 09.12.2019
6460 Clouds 14 1006 36 10000 10.3 270 16:20 09.12.2019
6461 Clouds 14 1006 36 10000 10.3 270 16:20 09.12.2019
6462 Clouds 15 1006 33 10000 10.3 270 15:56 09.12.2019
6463 Clouds 15 1006 33 10000 10.3 270 15:56 09.12.2019
6464 Clouds 16 1006 33 10000 10.3 270 15:37 09.12.2019
6465 Clouds 16 1006 36 10000 10.8 270 15:19 09.12.2019
6466 Clouds 17 1006 31 10000 8.2 270 14:58 09.12.2019
6467 Clouds 17 1006 31 10000 8.2 270 14:40 09.12.2019
6468 Clouds 16 1006 31 10000 6.7 270 14:18 09.12.2019
6469 Clouds 16 1007 31 10000 6.7 270 13:55 09.12.2019
6470 Clouds 16 1007 31 10000 6.7 270 13:36 09.12.2019
6471 Clouds 16 1007 42 10000 7.7 270 13:18 09.12.2019
6472 Clouds 16 1007 39 10000 7.2 260 12:54 09.12.2019
6473 Clouds 15 1008 33 10000 5.7 280 12:36 09.12.2019
6474 Clouds 15 1008 33 10000 5.7 280 12:18 09.12.2019
6475 Clouds 15 1008 51 10000 9.3 290 11:40 09.12.2019
6476 Clear 15 1009 41 10000 7.7 280 11:22 09.12.2019
6477 Clear 14 1009 41 10000 9.8 270 10:59 09.12.2019
6478 Clear 14 1009 41 10000 9.8 270 10:39 09.12.2019
6479 Clear 14 1009 41 10000 9.8 270 10:39 09.12.2019
6480 Clear 14 1009 44 10000 11.3 250 10:19 09.12.2019
6481 Clear 13 1009 44 10000 12.3 250 09:45 09.12.2019
6482 Clear 13 1009 50 10000 9.8 270 09:25 09.12.2019
6483 Clear 12 1009 47 10000 9.3 280 08:57 09.12.2019
6484 Clear 12 1009 47 10000 9.3 280 08:39 09.12.2019
6485 Clouds 9 1009 44 10000 7.2 310 08:21 09.12.2019
6486 Clouds 12 1009 58 10000 5.1 300 07:52 09.12.2019
6487 Clouds 8 1009 66 10000 2.6 320 07:33 09.12.2019
6488 Clouds 7 1009 70 10000 5.1 310 06:58 09.12.2019
6489 Clouds 6 1009 76 10000 5.7 320 06:32 09.12.2019
6490 Clouds 7 1010 76 10000 3.1 340 05:51 09.12.2019
6491 Clouds 9 1010 76 10000 4.1 330 05:24 09.12.2019
6492 Clouds 9 1011 71 10000 4.1 320 04:28 09.12.2019
6493 Clouds 10 1012 71 10000 3.6 330 02:46 09.12.2019
6494 Clouds 9 1013 76 10000 4.6 320 01:48 09.12.2019
6495 Clouds 9 1013 76 10000 2.6 330 01:23 09.12.2019
6496 Clouds 8 1014 76 10000 4.6 320 00:39 09.12.2019
6497 Clouds 7 1013 76 10000 2.1 360 00:19 09.12.2019
6498 Clouds 7 1014 76 10000 5.1 320 23:39 08.12.2019
6499 Clear 7 1015 76 10000 5.1 320 23:20 08.12.2019
6500 Clear 7 1015 81 10000 3.6 290 22:56 08.12.2019
6501 Clear 7 1015 81 10000 3.6 290 22:38 08.12.2019
6502 Clear 7 1015 76 10000 4.1 320 22:18 08.12.2019
6503 Clear 7 1015 81 10000 3.6 320 21:57 08.12.2019
6504 Clear 7 1015 81 10000 3.6 320 21:38 08.12.2019
6505 Clear 7 1015 81 10000 4.1 320 21:19 08.12.2019
6506 Clouds 7 1016 81 10000 4.1 320 20:57 08.12.2019
6507 Clouds 8 1016 81 10000 4.1 320 20:38 08.12.2019
6508 Clouds 10 1016 76 10000 3.6 320 20:19 08.12.2019
6509 Clouds 10 1016 76 10000 4.1 320 19:57 08.12.2019
6510 Clouds 10 1016 76 10000 4.1 320 19:57 08.12.2019
6511 Clouds 10 1016 76 10000 4.1 320 19:39 08.12.2019
6512 Clouds 9 1016 81 10000 3.6 320 19:21 08.12.2019
6513 Clouds 11 1016 76 10000 2.6 310 18:55 08.12.2019
6514 Clouds 11 1016 76 10000 2.6 310 18:36 08.12.2019
6515 Clouds 12 1017 82 10000 3.1 240 18:18 08.12.2019
6516 Clouds 12 1017 76 10000 3.6 220 17:56 08.12.2019
6517 Clouds 12 1017 76 10000 3.6 220 17:56 08.12.2019
6518 Clouds 12 1017 76 10000 3.6 220 17:38 08.12.2019
6519 Clouds 12 1017 76 10000 3.6 210 17:19 08.12.2019
6520 Clouds 12 1017 76 10000 3.6 220 16:56 08.12.2019
6521 Clouds 13 1017 76 10000 3.6 220 16:38 08.12.2019
6522 Clouds 13 1017 72 10000 3.1 220 16:20 08.12.2019
6523 Clouds 13 1017 63 10000 3.6 220 15:54 08.12.2019
6524 Clouds 13 1017 63 10000 3.6 220 15:36 08.12.2019
6525 Clouds 13 1017 63 10000 4.1 210 15:18 08.12.2019
6526 Clouds 13 1018 63 10000 5.1 210 14:40 08.12.2019
6527 Clouds 13 1018 63 10000 5.1 210 14:40 08.12.2019
6528 Clouds 15 1018 67 10000 6.2 210 14:22 08.12.2019
6529 Clouds 15 1018 67 10000 2.6 210 13:57 08.12.2019
6530 Clouds 14 1018 67 10000 2.6 210 13:38 08.12.2019
6531 Clouds 15 1019 54 10000 2.6 300 13:20 08.12.2019
6532 Clouds 15 1019 54 10000 4.6 320 12:54 08.12.2019
6533 Clouds 14 1019 54 10000 4.6 320 12:36 08.12.2019
6534 Clouds 14 1019 54 10000 5.1 330 12:18 08.12.2019
6535 Clouds 14 1020 58 10000 5.7 330 11:55 08.12.2019
6536 Clouds 14 1020 58 10000 5.7 330 11:37 08.12.2019
6537 Clouds 12 1020 57 10000 5.7 330 11:18 08.12.2019
6538 Clouds 12 1020 57 10000 6.7 320 10:39 08.12.2019
6539 Clouds 10 1020 61 10000 6.7 320 10:21 08.12.2019
6540 Clouds 9 1020 66 10000 6.2 330 09:58 08.12.2019
6541 Clouds 9 1020 66 10000 6.2 330 09:39 08.12.2019
6542 Clouds 8 1020 70 10000 6.2 330 09:20 08.12.2019
6543 Clouds 6 1020 70 10000 4.6 330 08:58 08.12.2019
6544 Clouds 7 1020 70 10000 4.6 330 08:39 08.12.2019
6545 Clouds 6 1020 70 10000 4.6 340 08:21 08.12.2019
6546 Clouds 5 1019 70 10000 6.7 330 07:44 08.12.2019
6547 Clouds 5 1019 75 10000 6.7 330 07:20 08.12.2019
6548 Clouds 5 1019 75 10000 6.2 330 06:51 08.12.2019
6549 Clouds 5 1019 75 10000 6.7 330 06:23 08.12.2019
6550 Clouds 5 1019 75 10000 6.7 330 05:52 08.12.2019
6551 Clouds 5 1019 81 10000 7.2 330 05:18 08.12.2019
6552 Clouds 7 1019 81 10000 5.1 330 03:54 08.12.2019
6553 Clouds 8 1019 81 10000 5.1 330 03:36 08.12.2019
6554 Clouds 8 1019 81 10000 5.7 330 02:40 08.12.2019
6555 Clouds 8 1019 81 10000 3.1 340 01:56 08.12.2019
6556 Clouds 8 1019 81 10000 3.6 340 01:33 08.12.2019
6557 Clouds 9 1020 81 10000 4.1 340 00:43 08.12.2019
6558 Clouds 9 1020 93 10000 2.1 350 00:21 08.12.2019
6559 Clouds 9 1020 81 10000 4.6 330 23:55 07.12.2019
6560 Clouds 9 1020 81 10000 4.6 330 23:36 07.12.2019
6561 Clouds 9 1019 81 10000 4.1 340 23:18 07.12.2019
6562 Clouds 9 1019 87 10000 4.6 340 22:54 07.12.2019
6563 Clouds 9 1019 87 10000 4.6 340 22:36 07.12.2019
6564 Clouds 9 1019 81 10000 4.6 340 22:18 07.12.2019
6565 Clouds 7 1019 81 10000 5.7 330 21:54 07.12.2019
6566 Clouds 7 1019 81 10000 5.7 330 21:36 07.12.2019
6567 Clouds 7 1019 81 10000 3.1 350 21:18 07.12.2019
6568 Clouds 8 1018 87 10000 4.6 320 20:37 07.12.2019
6569 Clouds 10 1018 87 10000 4.6 320 20:19 07.12.2019
6570 Clouds 10 1018 87 10000 4.1 320 19:57 07.12.2019
6571 Clouds 10 1018 87 10000 4.1 320 19:57 07.12.2019
6572 Clouds 10 1018 87 10000 4.1 320 19:39 07.12.2019
6573 Clouds 10 1018 81 10000 3.1 320 19:21 07.12.2019
6574 Clouds 9 1018 81 10000 3.1 320 18:58 07.12.2019
6575 Clouds 9 1018 81 10000 3.1 320 18:39 07.12.2019
6576 Clouds 9 1018 76 10000 1.5 20 18:18 07.12.2019
6577 Clouds 10 1017 71 10000 1.5 70 17:55 07.12.2019
6578 Clouds 10 1017 71 10000 1.5 70 17:37 07.12.2019
6579 Clear 12 1017 71 10000 2.1 90 17:18 07.12.2019
6580 Clouds 13 1017 67 10000 2.1 90 16:55 07.12.2019
6581 Clouds 13 1017 67 10000 2.1 90 16:36 07.12.2019
6582 Clouds 11 1017 67 10000 3.11 92 16:18 07.12.2019
6583 Clouds 11 1017 67 10000 1 260 15:40 07.12.2019
6584 Clouds 12 1017 67 10000 1 0 15:22 07.12.2019
6585 Clouds 12 1017 67 10000 1 0 14:43 07.12.2019
6586 Clouds 14 1017 72 10000 1.5 0 14:20 07.12.2019
6587 Clouds 13 1018 72 10000 1 0 13:59 07.12.2019
6588 Clouds 13 1018 72 10000 1 0 13:39 07.12.2019
6589 Clouds 13 1018 67 10000 1.5 110 13:20 07.12.2019
6590 Clouds 13 1018 67 10000 1.5 110 13:20 07.12.2019
6591 Clouds 13 1018 67 10000 1 0 12:55 07.12.2019
6592 Clouds 13 1018 67 10000 1 0 12:37 07.12.2019
6593 Clouds 14 1018 67 10000 4.43 73 12:18 07.12.2019
6594 Clouds 14 1018 54 10000 2.1 320 11:42 07.12.2019
6595 Clouds 11 1019 58 10000 3.6 320 11:23 07.12.2019
6596 Clouds 10 1019 66 10000 4.6 320 10:59 07.12.2019
6597 Clouds 9 1019 62 10000 4.6 320 10:37 07.12.2019
6598 Clouds 9 1019 62 10000 4.6 320 10:18 07.12.2019
6599 Clouds 9 1018 66 10000 5.1 320 09:40 07.12.2019
6600 Clouds 10 1018 70 10000 5.1 330 09:21 07.12.2019
6601 Clouds 8 1018 75 10000 5.1 320 08:47 07.12.2019
6602 Clouds 7 1018 75 10000 5.1 320 08:25 07.12.2019
6603 Clouds 5 1018 75 10000 4.1 330 07:57 07.12.2019
6604 Clouds 5 1018 75 10000 4.1 330 07:38 07.12.2019
6605 Clouds 5 1018 75 10000 4.6 330 07:19 07.12.2019
6606 Clouds 6 1018 75 10000 4.6 330 06:45 07.12.2019
6607 Clouds 6 1018 70 10000 3.1 340 06:24 07.12.2019
6608 Clouds 6 1018 70 10000 5.7 330 04:49 07.12.2019
6609 Clouds 8 1019 76 10000 5.1 330 03:53 07.12.2019
6610 Clouds 6 1019 76 10000 2.6 340 02:50 07.12.2019
6611 Clouds 6 1019 76 10000 3.6 340 02:19 07.12.2019
6612 Clouds 6 1020 71 10000 4.1 330 01:31 07.12.2019
6613 Clouds 6 1020 76 10000 4.6 330 00:43 07.12.2019
6614 Clouds 6 1020 76 10000 4.6 330 00:19 07.12.2019
6615 Clouds 6 1020 76 10000 4.6 330 23:47 06.12.2019
6616 Clouds 6 1020 76 10000 4.6 330 23:47 06.12.2019
6617 Clouds 7 1020 71 10000 4.6 330 23:24 06.12.2019
6618 Clouds 8 1021 71 10000 4.6 330 22:58 06.12.2019
6619 Clouds 6 1021 71 10000 4.6 330 22:37 06.12.2019
6620 Clouds 8 1021 76 10000 4.1 330 22:19 06.12.2019
6621 Clouds 7 1021 71 10000 4.1 320 21:56 06.12.2019
6622 Clouds 7 1021 71 10000 4.1 320 21:38 06.12.2019
6623 Clouds 7 1021 71 10000 4.1 320 21:19 06.12.2019
6624 Clouds 7 1021 76 10000 3.1 330 20:42 06.12.2019
6625 Clouds 10 1021 81 10000 3.1 320 20:23 06.12.2019
6626 Clouds 10 1021 81 10000 3.1 320 19:58 06.12.2019
6627 Clouds 10 1021 81 10000 3.1 320 19:39 06.12.2019
6628 Clouds 10 1021 81 10000 2.6 320 19:21 06.12.2019
6629 Clouds 7 1021 81 10000 2.1 320 18:55 06.12.2019
6630 Clouds 8 1021 81 10000 2.1 320 18:37 06.12.2019
6631 Clouds 8 1021 76 10000 1.5 210 18:19 06.12.2019
6632 Clouds 9 1020 71 10000 1.5 190 17:55 06.12.2019
6633 Clouds 9 1020 71 10000 1.5 190 17:37 06.12.2019
6634 Clouds 11 1020 71 10000 1.5 200 17:19 06.12.2019
6635 Clouds 12 1020 71 10000 1 0 16:42 06.12.2019
6636 Clouds 13 1020 62 10000 1.5 230 16:24 06.12.2019
6637 Clouds 14 1021 55 10000 1.5 0 15:57 06.12.2019
6638 Clouds 12 1021 55 10000 1.5 0 15:39 06.12.2019
6639 Clouds 11 1021 55 10000 1.5 0 15:18 06.12.2019
6640 Clouds 11 1021 51 10000 1.5 170 14:56 06.12.2019
6641 Clouds 10 1021 51 10000 1.5 170 14:37 06.12.2019
6642 Clouds 12 1021 48 10000 1 0 14:18 06.12.2019
6643 Clouds 12 1022 48 10000 6.98 69 13:42 06.12.2019
6644 Clouds 11 1022 48 10000 1.5 0 13:24 06.12.2019
6645 Clouds 14 1022 44 10000 1.5 320 12:42 06.12.2019
6646 Clouds 13 1023 50 10000 3.1 320 12:22 06.12.2019
6647 Clouds 12 1023 54 10000 3.6 330 11:58 06.12.2019
6648 Clouds 12 1023 54 10000 3.6 330 11:39 06.12.2019
6649 Clouds 8 1023 62 10000 3.6 330 11:20 06.12.2019
6650 Clouds 8 1024 57 10000 3.6 330 10:43 06.12.2019
6651 Clouds 8 1023 57 10000 4.6 340 10:21 06.12.2019
6652 Clouds 10 1023 61 10000 5.1 330 09:58 06.12.2019
6653 Clouds 10 1023 61 10000 5.7 330 09:37 06.12.2019
6654 Clouds 10 1023 61 10000 5.1 330 09:37 06.12.2019
6655 Clouds 10 1023 61 10000 5.7 330 09:19 06.12.2019
6656 Clouds 9 1023 61 10000 5.1 330 08:55 06.12.2019
6657 Clouds 9 1023 61 10000 5.1 330 08:36 06.12.2019
6658 Clouds 6 1023 61 10000 4.6 330 08:18 06.12.2019
6659 Clouds 6 1023 61 10000 5.1 330 07:36 06.12.2019
6660 Clouds 6 1022 57 10000 4.1 330 07:18 06.12.2019
6661 Clouds 5 1022 57 10000 4.6 320 06:30 06.12.2019
6662 Clouds 6 1022 76 10000 2.1 10 05:54 06.12.2019
6663 Clouds 5 1022 62 10000 3.6 320 05:34 06.12.2019
6664 Clouds 7 1023 66 10000 4.1 330 02:19 06.12.2019
6665 Clouds 7 1023 66 10000 4.1 330 02:19 06.12.2019
6666 Clouds 7 1023 66 10000 3.1 330 01:34 06.12.2019
6667 Clouds 10 1023 71 10000 4.1 330 00:46 06.12.2019
6668 Clouds 10 1023 76 10000 4.6 330 00:21 06.12.2019
6669 Clouds 10 1023 76 10000 4.1 330 23:49 05.12.2019
6670 Clouds 8 1023 71 10000 3.6 350 23:19 05.12.2019
6671 Clouds 7 1023 71 10000 4.6 320 22:58 05.12.2019
6672 Clouds 8 1023 71 10000 4.6 320 22:38 05.12.2019
6673 Rain 8 1023 71 10000 3.6 340 22:18 05.12.2019
6674 Rain 8 1023 71 10000 3.6 340 22:18 05.12.2019
6675 Rain 8 1023 71 10000 3.6 340 22:18 05.12.2019
6676 Rain 8 1023 71 10000 3.6 340 22:18 05.12.2019
6677 Clouds 8 1023 71 10000 4.1 320 21:55 05.12.2019
6678 Clouds 7 1023 71 10000 4.1 320 21:37 05.12.2019